Wetterdaten: Freitag, 29.06.2018
Datum Zeit Temp. A. Pool Temp. Feuchte A. Luftdruck Regen Wind Richtung Richtung Sonnenschein ET UV Solar Taupunkt Windchill Windben Empfang
29.06.2018 00:00 15,4 C 20,0 C 97 % 1013,8 hPa 0,0 l/m 9,4 km/h (2 Bft) W 264 0 min 0,000 mm 0,0 UV-I 0 W/m 14,9 C 13,8 C 12,9 km/h (3 Bft) 100,00 %
29.06.2018 00:02 15,4 C 20,0 C 97 % 1013,9 hPa 0,0 l/m 7,3 km/h (2 Bft) W 268 0 min 0,000 mm 0,0 UV-I 0 W/m 14,9 C 14,9 C 12,9 km/h (3 Bft) 92,68 %
29.06.2018 00:03 15,4 C 20,0 C 97 % 1013,8 hPa 0,0 l/m 6,9 km/h (2 Bft) W 275 0 min 0,000 mm 0,0 UV-I 0 W/m 14,9 C 15,1 C 11,3 km/h (2 Bft) 95,83 %
29.06.2018 00:04 15,3 C 20,0 C 97 % 1013,8 hPa 0,0 l/m 7,6 km/h (2 Bft) W 281 0 min 0,000 mm 0,0 UV-I 0 W/m 14,8 C 14,6 C 12,9 km/h (3 Bft) 95,65 %
29.06.2018 00:05 15,3 C 20,0 C 97 % 1013,9 hPa 0,0 l/m 5,8 km/h (2 Bft) W 260 0 min 0,000 mm 0,0 UV-I 0 W/m 14,8 C 15,3 C 9,7 km/h (2 Bft) 95,83 %
29.06.2018 00:06 15,4 C 20,0 C 97 % 1013,9 hPa 0,0 l/m 5,9 km/h (2 Bft) W-NW 292 0 min 0,000 mm 0,0 UV-I 0 W/m 14,9 C 15,4 C 9,7 km/h (2 Bft) 100,00 %
29.06.2018 00:07 15,4 C 20,0 C 97 % 1013,8 hPa 0,0 l/m 5,9 km/h (2 Bft) W 273 0 min 0,000 mm 0,0 UV-I 0 W/m 14,9 C 15,4 C 11,3 km/h (2 Bft) 100,00 %
29.06.2018 00:08 15,3 C 20,0 C 97 % 1013,8 hPa 0,0 l/m 8,6 km/h (2 Bft) W 266 0 min 0,000 mm 0,0 UV-I 0 W/m 14,8 C 14,1 C 14,5 km/h (3 Bft) 95,65 %
29.06.2018 00:09 15,3 C 20,0 C 97 % 1013,8 hPa 0,0 l/m 8,0 km/h (2 Bft) W-SW 254 0 min 0,000 mm 0,0 UV-I 0 W/m 14,8 C 14,4 C 11,3 km/h (2 Bft) 100,00 %
29.06.2018 00:10 15,3 C 20,0 C 97 % 1013,7 hPa 0,0 l/m 6,9 km/h (2 Bft) W 264 0 min 0,000 mm 0,0 UV-I 0 W/m 14,8 C 15,0 C 11,3 km/h (2 Bft) 100,00 %
29.06.2018 00:11 15,3 C 20,0 C 97 % 1013,7 hPa 0,0 l/m 8,8 km/h (2 Bft) W 265 0 min 0,000 mm 0,0 UV-I 0 W/m 14,8 C 14,0 C 14,5 km/h (3 Bft) 100,00 %
29.06.2018 00:12 15,3 C 20,0 C 97 % 1013,7 hPa 0,0 l/m 9,2 km/h (2 Bft) W-SW 249 0 min 0,000 mm 0,0 UV-I 0 W/m 14,8 C 13,8 C 14,5 km/h (3 Bft) 100,00 %
29.06.2018 00:13 15,3 C 20,0 C 97 % 1013,7 hPa 0,0 l/m 7,6 km/h (2 Bft) SW 230 0 min 0,000 mm 0,0 UV-I 0 W/m 14,8 C 14,6 C 11,3 km/h (2 Bft) 100,00 %
29.06.2018 00:14 15,3 C 20,0 C 97 % 1013,7 hPa 0,0 l/m 10,3 km/h (2 Bft) W 263 0 min 0,000 mm 0,0 UV-I 0 W/m 14,8 C 13,3 C 16,1 km/h (3 Bft) 100,00 %
29.06.2018 00:15 15,3 C 20,0 C 97 % 1013,7 hPa 0,0 l/m 9,9 km/h (2 Bft) W 260 0 min 0,000 mm 0,0 UV-I 0 W/m 14,8 C 13,5 C 12,9 km/h (3 Bft) 100,00 %
29.06.2018 00:16 15,3 C 20,0 C 97 % 1013,6 hPa 0,0 l/m 6,0 km/h (2 Bft) W-SW 252 0 min 0,000 mm 0,0 UV-I 0 W/m 14,8 C 15,3 C 11,3 km/h (2 Bft) 100,00 %
29.06.2018 00:17 15,3 C 20,0 C 97 % 1013,6 hPa 0,0 l/m 10,3 km/h (2 Bft) W 269 0 min 0,000 mm 0,0 UV-I 0 W/m 14,8 C 13,3 C 14,5 km/h (3 Bft) 100,00 %
29.06.2018 00:18 15,3 C 20,0 C 97 % 1013,6 hPa 0,0 l/m 9,4 km/h (2 Bft) W 261 0 min 0,000 mm 0,0 UV-I 0 W/m 14,8 C 13,7 C 12,9 km/h (3 Bft) 100,00 %
29.06.2018 00:19 15,3 C 20,0 C 97 % 1013,5 hPa 0,0 l/m 10,4 km/h (2 Bft) W-SW 257 0 min 0,000 mm 0,0 UV-I 0 W/m 14,8 C 13,3 C 12,9 km/h (3 Bft) 95,65 %
29.06.2018 00:20 15,3 C 20,0 C 97 % 1013,5 hPa 0,0 l/m 8,2 km/h (2 Bft) W-SW 242 0 min 0,000 mm 0,0 UV-I 0 W/m 14,8 C 14,3 C 11,3 km/h (2 Bft) 100,00 %
29.06.2018 00:21 15,3 C 20,0 C 97 % 1013,5 hPa 0,0 l/m 8,5 km/h (2 Bft) W-SW 255 0 min 0,000 mm 0,0 UV-I 0 W/m 14,8 C 14,2 C 11,3 km/h (2 Bft) 100,00 %
29.06.2018 00:22 15,3 C 20,0 C 97 % 1013,5 hPa 0,0 l/m 9,1 km/h (2 Bft) W-SW 254 0 min 0,000 mm 0,0 UV-I 0 W/m 14,8 C 13,9 C 12,9 km/h (3 Bft) 100,00 %
29.06.2018 00:23 15,3 C 20,0 C 97 % 1013,5 hPa 0,0 l/m 9,8 km/h (2 Bft) W 260 0 min 0,000 mm 0,0 UV-I 0 W/m 14,8 C 13,5 C 14,5 km/h (3 Bft) 100,00 %
29.06.2018 00:24 15,3 C 20,0 C 97 % 1013,5 hPa 0,0 l/m 8,8 km/h (2 Bft) W-SW 245 0 min 0,000 mm 0,0 UV-I 0 W/m 14,8 C 14,0 C 12,9 km/h (3 Bft) 100,00 %
29.06.2018 00:25 15,3 C 20,0 C 97 % 1013,6 hPa 0,0 l/m 9,0 km/h (2 Bft) W 266 0 min 0,000 mm 0,0 UV-I 0 W/m 14,8 C 13,9 C 12,9 km/h (3 Bft) 100,00 %
29.06.2018 00:26 15,3 C 20,0 C 97 % 1013,6 hPa 0,0 l/m 9,6 km/h (2 Bft) W 270 0 min 0,000 mm 0,0 UV-I 0 W/m 14,8 C 13,6 C 12,9 km/h (3 Bft) 100,00 %
29.06.2018 00:27 15,3 C 20,0 C 97 % 1013,6 hPa 0,0 l/m 11,1 km/h (2 Bft) W 273 0 min 0,000 mm 0,0 UV-I 0 W/m 14,8 C 13,0 C 14,5 km/h (3 Bft) 100,00 %
29.06.2018 00:28 15,3 C 20,0 C 97 % 1013,6 hPa 0,0 l/m 8,1 km/h (2 Bft) W-SW 258 0 min 0,000 mm 0,0 UV-I 0 W/m 14,8 C 14,4 C 12,9 km/h (3 Bft) 100,00 %
29.06.2018 00:29 15,3 C 20,0 C 97 % 1013,7 hPa 0,0 l/m 8,5 km/h (2 Bft) W 265 0 min 0,000 mm 0,0 UV-I 0 W/m 14,8 C 14,2 C 12,9 km/h (3 Bft) 100,00 %
29.06.2018 00:30 15,3 C 20,0 C 97 % 1013,7 hPa 0,0 l/m 3,3 km/h (1 Bft) W-SW 257 0 min 0,000 mm 0,0 UV-I 0 W/m 14,8 C 15,3 C 4,8 km/h (1 Bft) 100,00 %
29.06.2018 00:31 15,3 C 20,0 C 97 % 1013,6 hPa 0,0 l/m 5,5 km/h (1 Bft) W-SW 246 0 min 0,000 mm 0,0 UV-I 0 W/m 14,8 C 15,3 C 6,4 km/h (2 Bft) 100,00 %
29.06.2018 00:32 15,3 C 20,0 C 97 % 1013,6 hPa 0,0 l/m 3,7 km/h (1 Bft) W-SW 256 0 min 0,000 mm 0,0 UV-I 0 W/m 14,8 C 15,3 C 6,4 km/h (2 Bft) 100,00 %
29.06.2018 00:33 15,3 C 20,0 C 97 % 1013,6 hPa 0,0 l/m 7,5 km/h (2 Bft) W 273 0 min 0,000 mm 0,0 UV-I 0 W/m 14,8 C 14,7 C 11,3 km/h (2 Bft) 100,00 %
29.06.2018 00:34 15,3 C 20,0 C 97 % 1013,6 hPa 0,0 l/m 5,7 km/h (1 Bft) W-SW 254 0 min 0,000 mm 0,0 UV-I 0 W/m 14,8 C 15,3 C 8,0 km/h (2 Bft) 100,00 %
29.06.2018 00:35 15,3 C 20,0 C 97 % 1013,6 hPa 0,0 l/m 4,4 km/h (1 Bft) W 261 0 min 0,000 mm 0,0 UV-I 0 W/m 14,8 C 15,3 C 6,4 km/h (2 Bft) 100,00 %
29.06.2018 00:36 15,3 C 20,0 C 97 % 1013,6 hPa 0,0 l/m 6,3 km/h (2 Bft) W 271 0 min 0,000 mm 0,0 UV-I 0 W/m 14,8 C 15,3 C 9,7 km/h (2 Bft) 95,65 %
29.06.2018 00:37 15,3 C 20,0 C 97 % 1013,6 hPa 0,0 l/m 8,2 km/h (2 Bft) W 273 0 min 0,000 mm 0,0 UV-I 0 W/m 14,8 C 14,3 C 12,9 km/h (3 Bft) 100,00 %
29.06.2018 00:38 15,3 C 20,0 C 97 % 1013,6 hPa 0,0 l/m 8,1 km/h (2 Bft) W 262 0 min 0,000 mm 0,0 UV-I 0 W/m 14,8 C 14,4 C 12,9 km/h (3 Bft) 100,00 %
29.06.2018 00:39 15,3 C 20,0 C 97 % 1013,6 hPa 0,0 l/m 9,2 km/h (2 Bft) W 276 0 min 0,000 mm 0,0 UV-I 0 W/m 14,8 C 13,8 C 12,9 km/h (3 Bft) 100,00 %
29.06.2018 00:40 15,3 C 20,0 C 97 % 1013,7 hPa 0,0 l/m 7,7 km/h (2 Bft) W-SW 257 0 min 0,000 mm 0,0 UV-I 0 W/m 14,8 C 14,6 C 11,3 km/h (2 Bft) 100,00 %
29.06.2018 00:41 15,3 C 20,0 C 97 % 1013,7 hPa 0,0 l/m 8,1 km/h (2 Bft) W-SW 249 0 min 0,000 mm 0,0 UV-I 0 W/m 14,8 C 14,4 C 12,9 km/h (3 Bft) 100,00 %
29.06.2018 00:42 15,3 C 20,0 C 97 % 1013,6 hPa 0,0 l/m 7,1 km/h (2 Bft) W 259 0 min 0,000 mm 0,0 UV-I 0 W/m 14,8 C 14,9 C 11,3 km/h (2 Bft) 100,00 %
29.06.2018 00:43 15,3 C 20,0 C 97 % 1013,6 hPa 0,0 l/m 7,9 km/h (2 Bft) W-SW 254 0 min 0,000 mm 0,0 UV-I 0 W/m 14,8 C 14,5 C 14,5 km/h (3 Bft) 100,00 %
29.06.2018 00:44 15,3 C 20,0 C 97 % 1013,6 hPa 0,0 l/m 10,1 km/h (2 Bft) W-SW 252 0 min 0,000 mm 0,0 UV-I 0 W/m 14,8 C 13,4 C 12,9 km/h (3 Bft) 100,00 %
29.06.2018 00:45 15,3 C 20,0 C 97 % 1013,5 hPa 0,0 l/m 12,3 km/h (3 Bft) W-SW 254 0 min 0,000 mm 0,0 UV-I 0 W/m 14,8 C 12,5 C 16,1 km/h (3 Bft) 100,00 %
29.06.2018 00:46 15,3 C 20,0 C 97 % 1013,5 hPa 0,0 l/m 7,8 km/h (2 Bft) W 264 0 min 0,000 mm 0,0 UV-I 0 W/m 14,8 C 14,5 C 11,3 km/h (2 Bft) 100,00 %
29.06.2018 00:47 15,3 C 20,0 C 97 % 1013,5 hPa 0,0 l/m 5,4 km/h (1 Bft) W 275 0 min 0,000 mm 0,0 UV-I 0 W/m 14,8 C 15,3 C 9,7 km/h (2 Bft) 100,00 %
29.06.2018 00:48 15,3 C 20,0 C 97 % 1013,4 hPa 0,0 l/m 9,1 km/h (2 Bft) W-SW 254 0 min 0,000 mm 0,0 UV-I 0 W/m 14,8 C 13,9 C 12,9 km/h (3 Bft) 100,00 %
29.06.2018 00:49 15,3 C 20,0 C 97 % 1013,4 hPa 0,0 l/m 8,5 km/h (2 Bft) W 265 0 min 0,000 mm 0,0 UV-I 0 W/m 14,8 C 14,2 C 12,9 km/h (3 Bft) 100,00 %
29.06.2018 00:50 15,3 C 20,0 C 97 % 1013,4 hPa 0,0 l/m 7,1 km/h (2 Bft) W 270 0 min 0,000 mm 0,0 UV-I 0 W/m 14,8 C 14,9 C 9,7 km/h (2 Bft) 100,00 %
29.06.2018 00:51 15,3 C 20,0 C 97 % 1013,4 hPa 0,0 l/m 6,8 km/h (2 Bft) W 263 0 min 0,000 mm 0,0 UV-I 0 W/m 14,8 C 15,1 C 11,3 km/h (2 Bft) 95,83 %
29.06.2018 00:52 15,3 C 20,0 C 97 % 1013,4 hPa 0,0 l/m 7,6 km/h (2 Bft) W-SW 254 0 min 0,000 mm 0,0 UV-I 0 W/m 14,8 C 14,6 C 11,3 km/h (2 Bft) 100,00 %
29.06.2018 00:53 15,3 C 20,0 C 97 % 1013,3 hPa 0,0 l/m 8,0 km/h (2 Bft) W 259 0 min 0,000 mm 0,0 UV-I 0 W/m 14,8 C 14,4 C 12,9 km/h (3 Bft) 100,00 %
29.06.2018 00:54 15,3 C 20,0 C 97 % 1013,3 hPa 0,0 l/m 11,1 km/h (2 Bft) W-SW 251 0 min 0,000 mm 0,0 UV-I 0 W/m 14,8 C 13,0 C 14,5 km/h (3 Bft) 95,83 %
29.06.2018 00:55 15,3 C 20,0 C 97 % 1013,3 hPa 0,0 l/m 10,5 km/h (2 Bft) W 264 0 min 0,000 mm 0,0 UV-I 0 W/m 14,8 C 13,2 C 14,5 km/h (3 Bft) 100,00 %
29.06.2018 00:56 15,3 C 20,0 C 97 % 1013,3 hPa 0,0 l/m 10,9 km/h (2 Bft) W-SW 254 0 min 0,000 mm 0,0 UV-I 0 W/m 14,8 C 13,1 C 14,5 km/h (3 Bft) 97,44 %
29.06.2018 00:57 15,3 C 20,0 C 97 % 1013,3 hPa 0,0 l/m 10,6 km/h (2 Bft) W 259 0 min 0,000 mm 0,0 UV-I 0 W/m 14,8 C 13,2 C 12,9 km/h (3 Bft) 100,00 %
29.06.2018 00:58 15,3 C 20,0 C 97 % 1013,3 hPa 0,0 l/m 8,9 km/h (2 Bft) W-SW 257 0 min 0,000 mm 0,0 UV-I 0 W/m 14,8 C 14,0 C 12,9 km/h (3 Bft) 96,00 %
29.06.2018 00:59 15,3 C 20,0 C 97 % 1013,3 hPa 0,0 l/m 7,0 km/h (2 Bft) W 260 0 min 0,000 mm 0,0 UV-I 0 W/m 14,8 C 15,0 C 12,9 km/h (3 Bft) 100,00 %
29.06.2018 01:00 15,3 C 20,0 C 97 % 1013,3 hPa 0,0 l/m 8,3 km/h (2 Bft) W 271 0 min 0,000 mm 0,0 UV-I 0 W/m 14,8 C 14,3 C 11,3 km/h (2 Bft) 96,30 %
29.06.2018 01:01 15,3 C 20,0 C 97 % 1013,3 hPa 0,2 l/m 7,5 km/h (2 Bft) W-SW 257 0 min 0,000 mm 0,0 UV-I 0 W/m 14,8 C 14,7 C 11,3 km/h (2 Bft) 100,00 %
29.06.2018 01:02 15,3 C 20,0 C 97 % 1013,3 hPa 0,0 l/m 6,7 km/h (2 Bft) W 259 0 min 0,000 mm 0,0 UV-I 0 W/m 14,8 C 15,1 C 9,7 km/h (2 Bft) 96,30 %
29.06.2018 01:03 15,3 C 20,0 C 97 % 1013,3 hPa 0,0 l/m 8,0 km/h (2 Bft) W 269 0 min 0,000 mm 0,0 UV-I 0 W/m 14,8 C 14,4 C 11,3 km/h (2 Bft) 91,30 %
29.06.2018 01:04 15,3 C 20,0 C 97 % 1013,3 hPa 0,0 l/m 7,6 km/h (2 Bft) W 262 0 min 0,000 mm 0,0 UV-I 0 W/m 14,8 C 14,6 C 11,3 km/h (2 Bft) 100,00 %
29.06.2018 01:05 15,3 C 20,0 C 97 % 1013,3 hPa 0,0 l/m 8,2 km/h (2 Bft) W-SW 255 0 min 0,000 mm 0,0 UV-I 0 W/m 14,8 C 14,3 C 11,3 km/h (2 Bft) 95,65 %
29.06.2018 01:06 15,3 C 20,0 C 97 % 1013,3 hPa 0,0 l/m 8,8 km/h (2 Bft) W-SW 253 0 min 0,000 mm 0,0 UV-I 0 W/m 14,8 C 14,0 C 11,3 km/h (2 Bft) 100,00 %
29.06.2018 01:07 15,3 C 20,0 C 97 % 1013,3 hPa 0,0 l/m 7,2 km/h (2 Bft) W-SW 258 0 min 0,000 mm 0,0 UV-I 0 W/m 14,8 C 14,9 C 11,3 km/h (2 Bft) 96,15 %
29.06.2018 01:08 15,3 C 20,0 C 97 % 1013,3 hPa 0,0 l/m 10,5 km/h (2 Bft) W-SW 253 0 min 0,000 mm 0,0 UV-I 0 W/m 14,8 C 13,2 C 12,9 km/h (3 Bft) 98,79 %
29.06.2018 01:09 15,3 C 20,0 C 97 % 1013,2 hPa 0,0 l/m 9,5 km/h (2 Bft) W 267 0 min 0,000 mm 0,0 UV-I 0 W/m 14,8 C 13,7 C 14,5 km/h (3 Bft) 94,87 %
29.06.2018 01:10 15,3 C 20,0 C 97 % 1013,2 hPa 0,0 l/m 7,0 km/h (2 Bft) W 274 0 min 0,000 mm 0,0 UV-I 0 W/m 14,8 C 15,0 C 11,3 km/h (2 Bft) 100,00 %
29.06.2018 01:11 15,3 C 20,0 C 97 % 1013,2 hPa 0,0 l/m 6,6 km/h (2 Bft) W-SW 249 0 min 0,000 mm 0,0 UV-I 0 W/m 14,8 C 15,2 C 11,3 km/h (2 Bft) 91,67 %
29.06.2018 01:12 15,3 C 20,0 C 97 % 1013,2 hPa 0,0 l/m 7,2 km/h (2 Bft) W 271 0 min 0,000 mm 0,0 UV-I 0 W/m 14,8 C 14,9 C 11,3 km/h (2 Bft) 95,65 %
29.06.2018 01:13 15,3 C 20,0 C 97 % 1013,2 hPa 0,0 l/m 10,1 km/h (2 Bft) W 271 0 min 0,000 mm 0,0 UV-I 0 W/m 14,8 C 13,4 C 14,5 km/h (3 Bft) 91,67 %
29.06.2018 01:14 15,3 C 20,0 C 97 % 1013,3 hPa 0,0 l/m 8,4 km/h (2 Bft) W 264 0 min 0,000 mm 0,0 UV-I 0 W/m 14,8 C 14,2 C 12,9 km/h (3 Bft) 95,65 %
29.06.2018 01:15 15,3 C 20,0 C 97 % 1013,3 hPa 0,0 l/m 10,8 km/h (2 Bft) W 275 0 min 0,000 mm 0,0 UV-I 0 W/m 14,8 C 13,1 C 14,5 km/h (3 Bft) 95,83 %
29.06.2018 01:16 15,3 C 20,0 C 97 % 1013,3 hPa 0,0 l/m 8,4 km/h (2 Bft) W-SW 258 0 min 0,000 mm 0,0 UV-I 0 W/m 14,8 C 14,2 C 11,3 km/h (2 Bft) 86,96 %
29.06.2018 01:17 15,3 C 20,0 C 97 % 1013,3 hPa 0,0 l/m 7,3 km/h (2 Bft) W 259 0 min 0,000 mm 0,0 UV-I 0 W/m 14,8 C 14,8 C 11,3 km/h (2 Bft) 100,00 %
29.06.2018 01:18 15,3 C 20,0 C 97 % 1013,3 hPa 0,0 l/m 8,6 km/h (2 Bft) W 261 0 min 0,000 mm 0,0 UV-I 0 W/m 14,8 C 14,1 C 12,9 km/h (3 Bft) 91,30 %
29.06.2018 01:19 15,3 C 20,0 C 97 % 1013,4 hPa 0,0 l/m 7,7 km/h (2 Bft) W 265 0 min 0,000 mm 0,0 UV-I 0 W/m 14,8 C 14,6 C 11,3 km/h (2 Bft) 100,00 %
29.06.2018 01:20 15,3 C 20,0 C 97 % 1013,4 hPa 0,0 l/m 8,5 km/h (2 Bft) NW 304 0 min 0,000 mm 0,0 UV-I 0 W/m 14,8 C 14,2 C 12,9 km/h (3 Bft) 91,30 %
29.06.2018 01:21 15,3 C 20,0 C 97 % 1013,4 hPa 0,0 l/m 6,6 km/h (2 Bft) W-SW 245 0 min 0,000 mm 0,0 UV-I 0 W/m 14,8 C 15,2 C 12,9 km/h (3 Bft) 100,00 %
29.06.2018 01:22 15,3 C 20,0 C 97 % 1013,4 hPa 0,0 l/m 4,4 km/h (1 Bft) W-SW 258 0 min 0,000 mm 0,0 UV-I 0 W/m 14,8 C 15,3 C 6,4 km/h (2 Bft) 86,96 %
29.06.2018 01:23 15,3 C 20,0 C 97 % 1013,4 hPa 0,0 l/m 5,0 km/h (1 Bft) W 271 0 min 0,000 mm 0,0 UV-I 0 W/m 14,8 C 15,3 C 8,0 km/h (2 Bft) 95,83 %
29.06.2018 01:24 15,3 C 20,0 C 97 % 1013,4 hPa 0,0 l/m 7,4 km/h (2 Bft) W 263 0 min 0,000 mm 0,0 UV-I 0 W/m 14,8 C 14,7 C 11,3 km/h (2 Bft) 95,65 %
29.06.2018 01:25 15,3 C 20,0 C 97 % 1013,4 hPa 0,0 l/m 5,7 km/h (1 Bft) W-SW 250 0 min 0,000 mm 0,0 UV-I 0 W/m 14,8 C 15,3 C 6,4 km/h (2 Bft) 92,59 %
29.06.2018 01:26 15,3 C 20,0 C 97 % 1013,4 hPa 0,0 l/m 11,3 km/h (2 Bft) W 281 0 min 0,000 mm 0,0 UV-I 0 W/m 14,8 C 12,9 C 14,5 km/h (3 Bft) 100,00 %
29.06.2018 01:27 15,3 C 20,0 C 97 % 1013,4 hPa 0,0 l/m 8,3 km/h (2 Bft) W 259 0 min 0,000 mm 0,0 UV-I 0 W/m 14,8 C 14,3 C 11,3 km/h (2 Bft) 91,67 %
29.06.2018 01:28 15,3 C 20,0 C 97 % 1013,5 hPa 0,0 l/m 6,0 km/h (2 Bft) W 269 0 min 0,000 mm 0,0 UV-I 0 W/m 14,8 C 15,3 C 9,7 km/h (2 Bft) 95,83 %
29.06.2018 01:29 15,3 C 20,0 C 97 % 1013,4 hPa 0,2 l/m 6,2 km/h (2 Bft) W 268 0 min 0,000 mm 0,0 UV-I 0 W/m 14,8 C 15,3 C 9,7 km/h (2 Bft) 91,30 %
29.06.2018 01:30 15,3 C 20,0 C 97 % 1013,4 hPa 0,0 l/m 7,2 km/h (2 Bft) W 267 0 min 0,000 mm 0,0 UV-I 0 W/m 14,8 C 14,9 C 9,7 km/h (2 Bft) 95,83 %
29.06.2018 01:31 15,3 C 20,0 C 97 % 1013,4 hPa 0,0 l/m 5,0 km/h (1 Bft) W 279 0 min 0,000 mm 0,0 UV-I 0 W/m 14,8 C 15,3 C 6,4 km/h (2 Bft) 95,65 %
29.06.2018 01:32 15,3 C 20,0 C 97 % 1013,4 hPa 0,0 l/m 8,7 km/h (2 Bft) W-NW 292 0 min 0,000 mm 0,0 UV-I 0 W/m 14,8 C 14,1 C 12,9 km/h (3 Bft) 95,83 %
29.06.2018 01:33 15,3 C 20,0 C 97 % 1013,4 hPa 0,0 l/m 6,6 km/h (2 Bft) W 270 0 min 0,000 mm 0,0 UV-I 0 W/m 14,8 C 15,2 C 9,7 km/h (2 Bft) 95,65 %
29.06.2018 01:34 15,3 C 20,0 C 97 % 1013,4 hPa 0,0 l/m 8,4 km/h (2 Bft) W 259 0 min 0,000 mm 0,0 UV-I 0 W/m 14,8 C 14,2 C 11,3 km/h (2 Bft) 95,83 %
29.06.2018 01:35 15,3 C 20,0 C 97 % 1013,4 hPa 0,0 l/m 7,2 km/h (2 Bft) W 261 0 min 0,000 mm 0,0 UV-I 0 W/m 14,8 C 14,9 C 9,7 km/h (2 Bft) 95,65 %
29.06.2018 01:36 15,3 C 20,0 C 97 % 1013,4 hPa 0,0 l/m 8,1 km/h (2 Bft) W 269 0 min 0,000 mm 0,0 UV-I 0 W/m 14,8 C 14,4 C 11,3 km/h (2 Bft) 91,67 %
29.06.2018 01:37 15,3 C 20,0 C 97 % 1013,5 hPa 0,0 l/m 10,1 km/h (2 Bft) W-SW 249 0 min 0,000 mm 0,0 UV-I 0 W/m 14,8 C 13,4 C 12,9 km/h (3 Bft) 100,00 %
29.06.2018 01:38 15,3 C 20,0 C 97 % 1013,4 hPa 0,0 l/m 9,3 km/h (2 Bft) W 267 0 min 0,000 mm 0,0 UV-I 0 W/m 14,8 C 13,8 C 12,9 km/h (3 Bft) 91,67 %
29.06.2018 01:39 15,3 C 20,0 C 97 % 1013,4 hPa 0,0 l/m 9,5 km/h (2 Bft) W 270 0 min 0,000 mm 0,0 UV-I 0 W/m 14,8 C 13,7 C 12,9 km/h (3 Bft) 95,65 %
29.06.2018 01:40 15,3 C 20,0 C 97 % 1013,4 hPa 0,0 l/m 9,3 km/h (2 Bft) W 267 0 min 0,000 mm 0,0 UV-I 0 W/m 14,8 C 13,8 C 12,9 km/h (3 Bft) 95,83 %
29.06.2018 01:41 15,3 C 20,0 C 97 % 1013,4 hPa 0,0 l/m 6,9 km/h (2 Bft) W 267 0 min 0,000 mm 0,0 UV-I 0 W/m 14,8 C 15,0 C 9,7 km/h (2 Bft) 92,31 %
29.06.2018 01:42 15,3 C 20,0 C 97 % 1013,4 hPa 0,0 l/m 7,0 km/h (2 Bft) W-SW 257 0 min 0,000 mm 0,0 UV-I 0 W/m 14,8 C 15,0 C 9,7 km/h (2 Bft) 96,00 %
29.06.2018 01:43 15,3 C 20,0 C 97 % 1013,3 hPa 0,0 l/m 6,9 km/h (2 Bft) W 264 0 min 0,000 mm 0,0 UV-I 0 W/m 14,8 C 15,0 C 9,7 km/h (2 Bft) 95,65 %
29.06.2018 01:44 15,3 C 20,0 C 97 % 1013,3 hPa 0,0 l/m 8,4 km/h (2 Bft) W 267 0 min 0,000 mm 0,0 UV-I 0 W/m 14,8 C 14,2 C 12,9 km/h (3 Bft) 95,83 %
29.06.2018 01:45 15,3 C 20,0 C 97 % 1013,3 hPa 0,0 l/m 7,6 km/h (2 Bft) W-SW 258 0 min 0,000 mm 0,0 UV-I 0 W/m 14,8 C 14,6 C 11,3 km/h (2 Bft) 95,65 %
29.06.2018 01:46 15,3 C 20,0 C 97 % 1013,3 hPa 0,0 l/m 6,8 km/h (2 Bft) W 279 0 min 0,000 mm 0,0 UV-I 0 W/m 14,8 C 15,1 C 11,3 km/h (2 Bft) 100,00 %
29.06.2018 01:47 15,3 C 20,0 C 97 % 1013,3 hPa 0,0 l/m 13,6 km/h (3 Bft) W 261 0 min 0,000 mm 0,0 UV-I 0 W/m 14,8 C 12,0 C 17,7 km/h (3 Bft) 95,65 %
29.06.2018 01:48 15,3 C 20,0 C 97 % 1013,3 hPa 0,0 l/m 9,0 km/h (2 Bft) W-SW 257 0 min 0,000 mm 0,0 UV-I 0 W/m 14,8 C 13,9 C 12,9 km/h (3 Bft) 95,83 %
29.06.2018 01:49 15,3 C 20,0 C 97 % 1013,3 hPa 0,0 l/m 9,1 km/h (2 Bft) W-SW 248 0 min 0,000 mm 0,0 UV-I 0 W/m 14,8 C 13,9 C 12,9 km/h (3 Bft) 95,65 %
29.06.2018 01:50 15,2 C 20,0 C 97 % 1013,3 hPa 0,0 l/m 8,3 km/h (2 Bft) W-SW 255 0 min 0,000 mm 0,0 UV-I 0 W/m 14,7 C 14,2 C 11,3 km/h (2 Bft) 100,00 %
29.06.2018 01:51 15,3 C 20,0 C 97 % 1013,3 hPa 0,0 l/m 6,9 km/h (2 Bft) W 260 0 min 0,000 mm 0,0 UV-I 0 W/m 14,8 C 15,0 C 11,3 km/h (2 Bft) 95,83 %
29.06.2018 01:52 15,2 C 20,0 C 97 % 1013,3 hPa 0,0 l/m 8,0 km/h (2 Bft) W 267 0 min 0,000 mm 0,0 UV-I 0 W/m 14,7 C 14,3 C 14,5 km/h (3 Bft) 95,65 %
29.06.2018 01:53 15,2 C 20,0 C 97 % 1013,3 hPa 0,0 l/m 9,6 km/h (2 Bft) W-NW 286 0 min 0,000 mm 0,0 UV-I 0 W/m 14,7 C 13,5 C 16,1 km/h (3 Bft) 95,83 %
29.06.2018 01:54 15,2 C 20,0 C 97 % 1013,3 hPa 0,0 l/m 8,7 km/h (2 Bft) W 265 0 min 0,000 mm 0,0 UV-I 0 W/m 14,7 C 14,0 C 12,9 km/h (3 Bft) 95,65 %
29.06.2018 01:55 15,2 C 20,0 C 97 % 1013,2 hPa 0,0 l/m 9,4 km/h (2 Bft) W 261 0 min 0,000 mm 0,0 UV-I 0 W/m 14,7 C 13,6 C 12,9 km/h (3 Bft) 95,83 %
29.06.2018 01:56 15,3 C 20,0 C 97 % 1013,2 hPa 0,0 l/m 11,1 km/h (2 Bft) W 270 0 min 0,000 mm 0,0 UV-I 0 W/m 14,8 C 13,0 C 14,5 km/h (3 Bft) 100,00 %
29.06.2018 01:57 15,3 C 20,0 C 97 % 1013,2 hPa 0,0 l/m 8,4 km/h (2 Bft) W 261 0 min 0,000 mm 0,0 UV-I 0 W/m 14,8 C 14,2 C 11,3 km/h (2 Bft) 95,83 %
29.06.2018 01:58 15,3 C 20,0 C 97 % 1013,2 hPa 0,0 l/m 9,0 km/h (2 Bft) W-SW 244 0 min 0,000 mm 0,0 UV-I 0 W/m 14,8 C 13,9 C 12,9 km/h (3 Bft) 100,00 %
29.06.2018 01:59 15,3 C 20,0 C 97 % 1013,2 hPa 0,0 l/m 6,2 km/h (2 Bft) W 267 0 min 0,000 mm 0,0 UV-I 0 W/m 14,8 C 15,3 C 11,3 km/h (2 Bft) 95,83 %
29.06.2018 02:00 15,2 C 20,0 C 97 % 1013,3 hPa 0,0 l/m 4,8 km/h (1 Bft) W 263 0 min 0,000 mm 0,0 UV-I 0 W/m 14,7 C 15,2 C 6,4 km/h (2 Bft) 95,65 %
29.06.2018 02:01 15,2 C 20,0 C 97 % 1013,3 hPa 0,0 l/m 6,1 km/h (2 Bft) W 265 0 min 0,000 mm 0,0 UV-I 0 W/m 14,7 C 15,2 C 9,7 km/h (2 Bft) 100,00 %
29.06.2018 02:02 15,2 C 20,0 C 97 % 1013,3 hPa 0,0 l/m 7,6 km/h (2 Bft) W-SW 254 0 min 0,000 mm 0,0 UV-I 0 W/m 14,7 C 14,5 C 11,3 km/h (2 Bft) 95,65 %
29.06.2018 02:03 15,2 C 20,0 C 97 % 1013,2 hPa 0,0 l/m 12,7 km/h (3 Bft) W-SW 244 0 min 0,000 mm 0,0 UV-I 0 W/m 14,7 C 12,2 C 14,5 km/h (3 Bft) 100,00 %
29.06.2018 02:04 15,2 C 20,0 C 97 % 1013,3 hPa 0,0 l/m 11,3 km/h (2 Bft) W-SW 255 0 min 0,000 mm 0,0 UV-I 0 W/m 14,7 C 12,8 C 14,5 km/h (3 Bft) 100,00 %
29.06.2018 02:05 15,3 C 20,0 C 97 % 1013,2 hPa 0,0 l/m 14,3 km/h (3 Bft) W 269 0 min 0,000 mm 0,0 UV-I 0 W/m 14,8 C 11,8 C 17,7 km/h (3 Bft) 100,00 %
29.06.2018 02:06 15,2 C 20,0 C 97 % 1013,2 hPa 0,0 l/m 10,8 km/h (2 Bft) SW 230 0 min 0,000 mm 0,0 UV-I 0 W/m 14,7 C 13,0 C 17,7 km/h (3 Bft) 100,00 %
29.06.2018 02:07 15,2 C 20,0 C 97 % 1013,2 hPa 0,0 l/m 14,6 km/h (3 Bft) W 269 0 min 0,000 mm 0,0 UV-I 0 W/m 14,7 C 11,6 C 17,7 km/h (3 Bft) 100,00 %
29.06.2018 02:08 15,2 C 20,0 C 97 % 1013,2 hPa 0,0 l/m 9,2 km/h (2 Bft) W-SW 255 0 min 0,000 mm 0,0 UV-I 0 W/m 14,7 C 13,7 C 14,5 km/h (3 Bft) 95,83 %
29.06.2018 02:09 15,3 C 20,0 C 97 % 1013,2 hPa 0,2 l/m 11,6 km/h (2 Bft) W-SW 257 0 min 0,000 mm 0,0 UV-I 0 W/m 14,8 C 12,8 C 14,5 km/h (3 Bft) 100,00 %
29.06.2018 02:10 15,2 C 20,0 C 97 % 1013,2 hPa 0,0 l/m 11,7 km/h (2 Bft) SW 227 0 min 0,000 mm 0,0 UV-I 0 W/m 14,7 C 12,6 C 14,5 km/h (3 Bft) 100,00 %
29.06.2018 02:11 15,2 C 20,0 C 97 % 1013,2 hPa 0,0 l/m 10,7 km/h (2 Bft) W 266 0 min 0,000 mm 0,0 UV-I 0 W/m 14,7 C 13,0 C 12,9 km/h (3 Bft) 100,00 %
29.06.2018 02:12 15,2 C 20,0 C 97 % 1013,2 hPa 0,0 l/m 8,9 km/h (2 Bft) W-SW 248 0 min 0,000 mm 0,0 UV-I 0 W/m 14,7 C 13,9 C 14,5 km/h (3 Bft) 97,46 %
29.06.2018 02:13 15,2 C 20,0 C 97 % 1013,2 hPa 0,0 l/m 9,1 km/h (2 Bft) W 270 0 min 0,000 mm 0,0 UV-I 0 W/m 14,7 C 13,8 C 11,3 km/h (2 Bft) 100,00 %
29.06.2018 02:14 15,3 C 20,0 C 97 % 1013,2 hPa 0,0 l/m 7,0 km/h (2 Bft) W 271 0 min 0,000 mm 0,0 UV-I 0 W/m 14,8 C 15,0 C 11,3 km/h (2 Bft) 100,00 %
29.06.2018 02:15 15,3 C 20,0 C 97 % 1013,2 hPa 0,0 l/m 14,0 km/h (3 Bft) W 269 0 min 0,000 mm 0,0 UV-I 0 W/m 14,8 C 11,9 C 17,7 km/h (3 Bft) 100,00 %
29.06.2018 02:16 15,2 C 20,0 C 97 % 1013,2 hPa 0,0 l/m 11,3 km/h (2 Bft) W 263 0 min 0,000 mm 0,0 UV-I 0 W/m 14,7 C 12,8 C 14,5 km/h (3 Bft) 100,00 %
29.06.2018 02:17 15,3 C 20,0 C 97 % 1013,2 hPa 0,0 l/m 10,3 km/h (2 Bft) W-SW 242 0 min 0,000 mm 0,0 UV-I 0 W/m 14,8 C 13,3 C 12,9 km/h (3 Bft) 100,00 %
29.06.2018 02:18 15,3 C 20,0 C 97 % 1013,3 hPa 0,0 l/m 10,8 km/h (2 Bft) W 261 0 min 0,000 mm 0,0 UV-I 0 W/m 14,8 C 13,1 C 12,9 km/h (3 Bft) 100,00 %
29.06.2018 02:19 15,3 C 20,0 C 97 % 1013,3 hPa 0,0 l/m 8,0 km/h (2 Bft) W 265 0 min 0,000 mm 0,0 UV-I 0 W/m 14,8 C 14,4 C 12,9 km/h (3 Bft) 100,00 %
29.06.2018 02:20 15,3 C 20,0 C 97 % 1013,3 hPa 0,0 l/m 9,0 km/h (2 Bft) W-SW 242 0 min 0,000 mm 0,0 UV-I 0 W/m 14,8 C 13,9 C 14,5 km/h (3 Bft) 100,00 %
29.06.2018 02:21 15,3 C 20,0 C 97 % 1013,2 hPa 0,0 l/m 8,4 km/h (2 Bft) W 262 0 min 0,000 mm 0,0 UV-I 0 W/m 14,8 C 14,2 C 12,9 km/h (3 Bft) 100,00 %
29.06.2018 02:22 15,3 C 20,0 C 97 % 1013,2 hPa 0,0 l/m 8,7 km/h (2 Bft) W 263 0 min 0,000 mm 0,0 UV-I 0 W/m 14,8 C 14,1 C 12,9 km/h (3 Bft) 100,00 %
29.06.2018 02:23 15,3 C 20,0 C 97 % 1013,2 hPa 0,0 l/m 9,5 km/h (2 Bft) W-SW 257 0 min 0,000 mm 0,0 UV-I 0 W/m 14,8 C 13,7 C 14,5 km/h (3 Bft) 100,00 %
29.06.2018 02:24 15,3 C 20,0 C 97 % 1013,2 hPa 0,0 l/m 10,7 km/h (2 Bft) W 269 0 min 0,000 mm 0,0 UV-I 0 W/m 14,8 C 13,1 C 14,5 km/h (3 Bft) 95,83 %
29.06.2018 02:25 15,3 C 20,0 C 97 % 1013,2 hPa 0,0 l/m 12,1 km/h (2 Bft) W-SW 252 0 min 0,000 mm 0,0 UV-I 0 W/m 14,8 C 12,6 C 14,5 km/h (3 Bft) 100,00 %
29.06.2018 02:26 15,3 C 20,0 C 97 % 1013,2 hPa 0,0 l/m 9,9 km/h (2 Bft) W 262 0 min 0,000 mm 0,0 UV-I 0 W/m 14,8 C 13,5 C 11,3 km/h (2 Bft) 100,00 %
29.06.2018 02:27 15,3 C 20,0 C 97 % 1013,2 hPa 0,0 l/m 8,1 km/h (2 Bft) W-SW 240 0 min 0,000 mm 0,0 UV-I 0 W/m 14,8 C 14,4 C 11,3 km/h (2 Bft) 100,00 %
29.06.2018 02:28 15,3 C 20,0 C 97 % 1013,2 hPa 0,0 l/m 8,5 km/h (2 Bft) W-SW 254 0 min 0,000 mm 0,0 UV-I 0 W/m 14,8 C 14,2 C 14,5 km/h (3 Bft) 100,00 %
29.06.2018 02:29 15,3 C 20,0 C 98 % 1013,1 hPa 0,0 l/m 10,2 km/h (2 Bft) W 263 0 min 0,000 mm 0,0 UV-I 0 W/m 15,0 C 13,4 C 14,5 km/h (3 Bft) 100,00 %
29.06.2018 02:30 15,3 C 20,0 C 97 % 1013,2 hPa 0,0 l/m 7,6 km/h (2 Bft) W 263 0 min 0,000 mm 0,0 UV-I 0 W/m 14,8 C 14,6 C 11,3 km/h (2 Bft) 91,30 %
29.06.2018 02:31 15,3 C 20,0 C 97 % 1013,2 hPa 0,0 l/m 10,6 km/h (2 Bft) W 263 0 min 0,000 mm 0,0 UV-I 0 W/m 14,8 C 13,2 C 14,5 km/h (3 Bft) 100,00 %
29.06.2018 02:32 15,3 C 20,0 C 97 % 1013,2 hPa 0,0 l/m 12,1 km/h (2 Bft) W 263 0 min 0,000 mm 0,0 UV-I 0 W/m 14,8 C 12,6 C 14,5 km/h (3 Bft) 95,65 %
29.06.2018 02:33 15,3 C 20,0 C 98 % 1013,2 hPa 0,0 l/m 9,9 km/h (2 Bft) W-SW 256 0 min 0,000 mm 0,0 UV-I 0 W/m 15,0 C 13,5 C 16,1 km/h (3 Bft) 100,00 %
29.06.2018 02:34 15,3 C 20,0 C 98 % 1013,2 hPa 0,0 l/m 8,8 km/h (2 Bft) W 265 0 min 0,000 mm 0,0 UV-I 0 W/m 15,0 C 14,0 C 11,3 km/h (2 Bft) 100,00 %
29.06.2018 02:35 15,3 C 20,0 C 98 % 1013,2 hPa 0,0 l/m 11,3 km/h (2 Bft) W 273 0 min 0,000 mm 0,0 UV-I 0 W/m 15,0 C 12,9 C 16,1 km/h (3 Bft) 100,00 %
29.06.2018 02:36 15,3 C 20,0 C 98 % 1013,2 hPa 0,0 l/m 11,7 km/h (2 Bft) W 267 0 min 0,000 mm 0,0 UV-I 0 W/m 15,0 C 12,7 C 14,5 km/h (3 Bft) 100,00 %
29.06.2018 02:37 15,3 C 20,0 C 98 % 1013,2 hPa 0,0 l/m 10,5 km/h (2 Bft) W 263 0 min 0,000 mm 0,0 UV-I 0 W/m 15,0 C 13,2 C 14,5 km/h (3 Bft) 100,00 %
29.06.2018 02:38 15,3 C 20,0 C 98 % 1013,2 hPa 0,0 l/m 10,4 km/h (2 Bft) W 268 0 min 0,000 mm 0,0 UV-I 0 W/m 15,0 C 13,3 C 14,5 km/h (3 Bft) 100,00 %
29.06.2018 02:39 15,3 C 20,0 C 98 % 1013,2 hPa 0,0 l/m 11,2 km/h (2 Bft) W-SW 254 0 min 0,000 mm 0,0 UV-I 0 W/m 15,0 C 12,9 C 16,1 km/h (3 Bft) 96,30 %
29.06.2018 02:40 15,3 C 20,0 C 98 % 1013,2 hPa 0,0 l/m 12,1 km/h (2 Bft) W 268 0 min 0,000 mm 0,0 UV-I 0 W/m 15,0 C 12,6 C 14,5 km/h (3 Bft) 100,00 %
29.06.2018 02:41 15,3 C 20,0 C 98 % 1013,2 hPa 0,0 l/m 11,3 km/h (2 Bft) W 266 0 min 0,000 mm 0,0 UV-I 0 W/m 15,0 C 12,9 C 12,9 km/h (3 Bft) 100,00 %
29.06.2018 02:42 15,3 C 20,0 C 98 % 1013,2 hPa 0,0 l/m 10,6 km/h (2 Bft) W 265 0 min 0,000 mm 0,0 UV-I 0 W/m 15,0 C 13,2 C 14,5 km/h (3 Bft) 100,00 %
29.06.2018 02:43 15,3 C 20,0 C 98 % 1013,1 hPa 0,0 l/m 11,4 km/h (2 Bft) W 265 0 min 0,000 mm 0,0 UV-I 0 W/m 15,0 C 12,9 C 17,7 km/h (3 Bft) 100,00 %
29.06.2018 02:44 15,3 C 20,0 C 98 % 1013,2 hPa 0,0 l/m 10,5 km/h (2 Bft) W 269 0 min 0,000 mm 0,0 UV-I 0 W/m 15,0 C 13,2 C 16,1 km/h (3 Bft) 100,00 %
29.06.2018 02:45 15,3 C 20,0 C 98 % 1013,2 hPa 0,0 l/m 9,3 km/h (2 Bft) W 262 0 min 0,000 mm 0,0 UV-I 0 W/m 15,0 C 13,8 C 12,9 km/h (3 Bft) 91,30 %
29.06.2018 02:46 15,3 C 20,0 C 98 % 1013,1 hPa 0,0 l/m 11,9 km/h (2 Bft) W 261 0 min 0,000 mm 0,0 UV-I 0 W/m 15,0 C 12,7 C 16,1 km/h (3 Bft) 100,00 %
29.06.2018 02:47 15,3 C 20,0 C 98 % 1013,1 hPa 0,0 l/m 12,1 km/h (2 Bft) W 260 0 min 0,000 mm 0,0 UV-I 0 W/m 15,0 C 12,6 C 16,1 km/h (3 Bft) 100,00 %
29.06.2018 02:48 15,3 C 20,0 C 98 % 1013,1 hPa 0,0 l/m 8,6 km/h (2 Bft) W 264 0 min 0,000 mm 0,0 UV-I 0 W/m 15,0 C 14,1 C 11,3 km/h (2 Bft) 100,00 %
29.06.2018 02:49 15,3 C 20,0 C 98 % 1013,1 hPa 0,0 l/m 10,6 km/h (2 Bft) W 278 0 min 0,000 mm 0,0 UV-I 0 W/m 15,0 C 13,2 C 14,5 km/h (3 Bft) 100,00 %
29.06.2018 02:50 15,3 C 20,0 C 98 % 1013,1 hPa 0,0 l/m 11,1 km/h (2 Bft) W 268 0 min 0,000 mm 0,0 UV-I 0 W/m 15,0 C 13,0 C 14,5 km/h (3 Bft) 95,83 %
29.06.2018 02:51 15,3 C 20,0 C 98 % 1013,0 hPa 0,0 l/m 11,9 km/h (2 Bft) W 261 0 min 0,000 mm 0,0 UV-I 0 W/m 15,0 C 12,7 C 17,7 km/h (3 Bft) 95,65 %
29.06.2018 02:52 15,3 C 20,0 C 98 % 1013,0 hPa 0,0 l/m 9,4 km/h (2 Bft) W-SW 245 0 min 0,000 mm 0,0 UV-I 0 W/m 15,0 C 13,7 C 14,5 km/h (3 Bft) 95,83 %
29.06.2018 02:53 15,3 C 20,0 C 98 % 1013,0 hPa 0,0 l/m 12,7 km/h (3 Bft) W 265 0 min 0,000 mm 0,0 UV-I 0 W/m 15,0 C 12,4 C 16,1 km/h (3 Bft) 100,00 %
29.06.2018 02:54 15,3 C 20,0 C 98 % 1013,0 hPa 0,0 l/m 10,8 km/h (2 Bft) W-SW 254 0 min 0,000 mm 0,0 UV-I 0 W/m 15,0 C 13,1 C 16,1 km/h (3 Bft) 100,00 %
29.06.2018 02:55 15,3 C 20,0 C 98 % 1013,0 hPa 0,0 l/m 13,2 km/h (3 Bft) W-SW 238 0 min 0,000 mm 0,0 UV-I 0 W/m 15,0 C 12,2 C 19,3 km/h (3 Bft) 90,91 %
29.06.2018 02:56 15,3 C 20,0 C 98 % 1013,0 hPa 0,0 l/m 15,2 km/h (3 Bft) W 267 0 min 0,000 mm 0,0 UV-I 0 W/m 15,0 C 11,5 C 22,5 km/h (4 Bft) 100,00 %
29.06.2018 02:57 15,3 C 20,0 C 98 % 1012,9 hPa 0,0 l/m 11,5 km/h (2 Bft) SW 220 0 min 0,000 mm 0,0 UV-I 0 W/m 15,0 C 12,8 C 17,7 km/h (3 Bft) 100,00 %
29.06.2018 02:58 15,3 C 20,0 C 98 % 1013,0 hPa 0,0 l/m 10,7 km/h (2 Bft) W-SW 252 0 min 0,000 mm 0,0 UV-I 0 W/m 15,0 C 13,1 C 14,5 km/h (3 Bft) 100,00 %
29.06.2018 02:59 15,3 C 20,0 C 98 % 1012,9 hPa 0,0 l/m 8,6 km/h (2 Bft) W-SW 246 0 min 0,000 mm 0,0 UV-I 0 W/m 15,0 C 14,1 C 12,9 km/h (3 Bft) 100,00 %
29.06.2018 03:00 15,3 C 20,0 C 98 % 1012,9 hPa 0,0 l/m 8,2 km/h (2 Bft) W-SW 257 0 min 0,000 mm 0,0 UV-I 0 W/m 15,0 C 14,3 C 11,3 km/h (2 Bft) 100,00 %
29.06.2018 03:01 15,3 C 20,0 C 98 % 1012,9 hPa 0,0 l/m 8,9 km/h (2 Bft) SW 229 0 min 0,000 mm 0,0 UV-I 0 W/m 15,0 C 14,0 C 12,9 km/h (3 Bft) 100,00 %
29.06.2018 03:02 15,3 C 20,0 C 98 % 1012,9 hPa 0,0 l/m 10,1 km/h (2 Bft) S-SW 210 0 min 0,000 mm 0,0 UV-I 0 W/m 15,0 C 13,4 C 14,5 km/h (3 Bft) 100,00 %
29.06.2018 03:03 15,3 C 20,0 C 98 % 1012,9 hPa 0,0 l/m 11,9 km/h (2 Bft) W 269 0 min 0,000 mm 0,0 UV-I 0 W/m 15,0 C 12,7 C 17,7 km/h (3 Bft) 100,00 %
29.06.2018 03:04 15,3 C 20,0 C 98 % 1012,9 hPa 0,0 l/m 10,3 km/h (2 Bft) SW 236 0 min 0,000 mm 0,0 UV-I 0 W/m 15,0 C 13,3 C 14,5 km/h (3 Bft) 92,00 %
29.06.2018 03:05 15,3 C 20,0 C 98 % 1012,8 hPa 0,0 l/m 8,4 km/h (2 Bft) W-SW 258 0 min 0,000 mm 0,0 UV-I 0 W/m 15,0 C 14,2 C 12,9 km/h (3 Bft) 100,00 %
29.06.2018 03:06 15,3 C 20,0 C 98 % 1012,9 hPa 0,0 l/m 9,6 km/h (2 Bft) W 261 0 min 0,000 mm 0,0 UV-I 0 W/m 15,0 C 13,6 C 14,5 km/h (3 Bft) 100,00 %
29.06.2018 03:07 15,3 C 20,0 C 98 % 1012,9 hPa 0,0 l/m 11,4 km/h (2 Bft) W-SW 248 0 min 0,000 mm 0,0 UV-I 0 W/m 15,0 C 12,9 C 14,5 km/h (3 Bft) 100,00 %
29.06.2018 03:08 15,3 C 20,0 C 98 % 1012,8 hPa 0,0 l/m 12,5 km/h (3 Bft) W 267 0 min 0,000 mm 0,0 UV-I 0 W/m 15,0 C 12,4 C 16,1 km/h (3 Bft) 95,65 %
29.06.2018 03:09 15,3 C 20,0 C 98 % 1012,8 hPa 0,0 l/m 12,8 km/h (3 Bft) SW 225 0 min 0,000 mm 0,0 UV-I 0 W/m 15,0 C 12,3 C 17,7 km/h (3 Bft) 95,83 %
29.06.2018 03:10 15,3 C 20,0 C 98 % 1012,8 hPa 0,0 l/m 12,5 km/h (3 Bft) W-SW 243 0 min 0,000 mm 0,0 UV-I 0 W/m 15,0 C 12,4 C 16,1 km/h (3 Bft) 100,00 %
29.06.2018 03:11 15,3 C 20,0 C 98 % 1012,8 hPa 0,0 l/m 11,3 km/h (2 Bft) W 265 0 min 0,000 mm 0,0 UV-I 0 W/m 15,0 C 12,9 C 16,1 km/h (3 Bft) 95,83 %
29.06.2018 03:12 15,3 C 20,0 C 98 % 1012,8 hPa 0,0 l/m 10,1 km/h (2 Bft) SW 223 0 min 0,000 mm 0,0 UV-I 0 W/m 15,0 C 13,4 C 14,5 km/h (3 Bft) 100,00 %
29.06.2018 03:13 15,3 C 20,0 C 98 % 1012,8 hPa 0,0 l/m 10,5 km/h (2 Bft) SW 236 0 min 0,000 mm 0,0 UV-I 0 W/m 15,0 C 13,2 C 14,5 km/h (3 Bft) 95,83 %
29.06.2018 03:14 15,3 C 20,0 C 98 % 1012,9 hPa 0,0 l/m 11,2 km/h (2 Bft) SW 224 0 min 0,000 mm 0,0 UV-I 0 W/m 15,0 C 12,9 C 14,5 km/h (3 Bft) 91,30 %
29.06.2018 03:15 15,3 C 20,0 C 98 % 1012,9 hPa 0,0 l/m 9,7 km/h (2 Bft) W-SW 257 0 min 0,000 mm 0,0 UV-I 0 W/m 15,0 C 13,6 C 14,5 km/h (3 Bft) 100,00 %
29.06.2018 03:16 15,3 C 20,0 C 98 % 1012,9 hPa 0,0 l/m 11,3 km/h (2 Bft) W-SW 237 0 min 0,000 mm 0,0 UV-I 0 W/m 15,0 C 12,9 C 16,1 km/h (3 Bft) 95,65 %
29.06.2018 03:17 15,3 C 20,0 C 98 % 1012,9 hPa 0,2 l/m 12,9 km/h (3 Bft) W-SW 257 0 min 0,000 mm 0,0 UV-I 0 W/m 15,0 C 12,3 C 16,1 km/h (3 Bft) 100,00 %
29.06.2018 03:18 15,3 C 20,0 C 98 % 1012,9 hPa 0,0 l/m 11,7 km/h (2 Bft) SW 227 0 min 0,000 mm 0,0 UV-I 0 W/m 15,0 C 12,7 C 16,1 km/h (3 Bft) 95,65 %
29.06.2018 03:19 15,3 C 20,0 C 98 % 1012,8 hPa 0,0 l/m 10,9 km/h (2 Bft) SW 226 0 min 0,000 mm 0,0 UV-I 0 W/m 15,0 C 13,1 C 16,1 km/h (3 Bft) 100,00 %
29.06.2018 03:20 15,3 C 20,0 C 98 % 1012,9 hPa 0,0 l/m 10,0 km/h (2 Bft) W-NW 286 0 min 0,000 mm 0,0 UV-I 0 W/m 15,0 C 13,4 C 12,9 km/h (3 Bft) 91,67 %
29.06.2018 03:21 15,3 C 20,0 C 98 % 1012,9 hPa 0,0 l/m 9,1 km/h (2 Bft) W 265 0 min 0,000 mm 0,0 UV-I 0 W/m 15,0 C 13,9 C 12,9 km/h (3 Bft) 97,37 %
29.06.2018 03:22 15,3 C 20,0 C 98 % 1012,9 hPa 0,0 l/m 10,7 km/h (2 Bft) W 271 0 min 0,000 mm 0,0 UV-I 0 W/m 15,0 C 13,1 C 17,7 km/h (3 Bft) 100,00 %
29.06.2018 03:23 15,3 C 20,0 C 98 % 1012,9 hPa 0,0 l/m 12,9 km/h (3 Bft) W 264 0 min 0,000 mm 0,0 UV-I 0 W/m 15,0 C 12,3 C 14,5 km/h (3 Bft) 93,33 %
29.06.2018 03:24 15,3 C 20,0 C 98 % 1012,9 hPa 0,0 l/m 9,9 km/h (2 Bft) W 265 0 min 0,000 mm 0,0 UV-I 0 W/m 15,0 C 13,5 C 14,5 km/h (3 Bft) 100,00 %
29.06.2018 03:25 15,3 C 20,0 C 98 % 1012,9 hPa 0,0 l/m 10,9 km/h (2 Bft) W 265 0 min 0,000 mm 0,0 UV-I 0 W/m 15,0 C 13,1 C 16,1 km/h (3 Bft) 95,65 %
29.06.2018 03:26 15,3 C 20,0 C 98 % 1012,9 hPa 0,0 l/m 11,5 km/h (2 Bft) W 265 0 min 0,000 mm 0,0 UV-I 0 W/m 15,0 C 12,8 C 14,5 km/h (3 Bft) 95,83 %
29.06.2018 03:27 15,3 C 20,0 C 98 % 1012,9 hPa 0,0 l/m 6,8 km/h (2 Bft) W 268 0 min 0,000 mm 0,0 UV-I 0 W/m 15,0 C 15,1 C 11,3 km/h (2 Bft) 96,15 %
29.06.2018 03:28 15,3 C 20,0 C 98 % 1012,9 hPa 0,0 l/m 7,2 km/h (2 Bft) W 262 0 min 0,000 mm 0,0 UV-I 0 W/m 15,0 C 14,9 C 12,9 km/h (3 Bft) 100,00 %
29.06.2018 03:29 15,3 C 20,0 C 98 % 1012,9 hPa 0,0 l/m 10,4 km/h (2 Bft) W-SW 251 0 min 0,000 mm 0,0 UV-I 0 W/m 15,0 C 13,3 C 16,1 km/h (3 Bft) 95,65 %
29.06.2018 03:30 15,3 C 20,0 C 98 % 1012,9 hPa 0,0 l/m 11,5 km/h (2 Bft) W 268 0 min 0,000 mm 0,0 UV-I 0 W/m 15,0 C 12,8 C 16,1 km/h (3 Bft) 95,83 %
29.06.2018 03:31 15,3 C 20,0 C 97 % 1012,9 hPa 0,0 l/m 9,6 km/h (2 Bft) W 266 0 min 0,000 mm 0,0 UV-I 0 W/m 14,8 C 13,6 C 12,9 km/h (3 Bft) 100,00 %
29.06.2018 03:32 15,3 C 20,0 C 97 % 1012,9 hPa 0,0 l/m 9,0 km/h (2 Bft) W-SW 252 0 min 0,000 mm 0,0 UV-I 0 W/m 14,8 C 13,9 C 14,5 km/h (3 Bft) 95,83 %
29.06.2018 03:33 15,3 C 20,0 C 97 % 1012,9 hPa 0,0 l/m 9,7 km/h (2 Bft) W 262 0 min 0,000 mm 0,0 UV-I 0 W/m 14,8 C 13,6 C 14,5 km/h (3 Bft) 100,00 %
29.06.2018 03:34 15,3 C 20,0 C 97 % 1012,8 hPa 0,0 l/m 9,3 km/h (2 Bft) W-NW 282 0 min 0,000 mm 0,0 UV-I 0 W/m 14,8 C 13,8 C 14,5 km/h (3 Bft) 95,83 %
29.06.2018 03:35 15,3 C 20,0 C 97 % 1012,8 hPa 0,0 l/m 8,4 km/h (2 Bft) W-SW 252 0 min 0,000 mm 0,0 UV-I 0 W/m 14,8 C 14,2 C 14,5 km/h (3 Bft) 100,00 %
29.06.2018 03:36 15,3 C 20,0 C 98 % 1012,8 hPa 0,0 l/m 7,5 km/h (2 Bft) W-SW 257 0 min 0,000 mm 0,0 UV-I 0 W/m 15,0 C 14,7 C 12,9 km/h (3 Bft) 95,83 %
29.06.2018 03:37 15,3 C 20,0 C 98 % 1012,8 hPa 0,0 l/m 8,2 km/h (2 Bft) W-SW 253 0 min 0,000 mm 0,0 UV-I 0 W/m 15,0 C 14,3 C 12,9 km/h (3 Bft) 100,00 %
29.06.2018 03:38 15,3 C 20,0 C 97 % 1012,8 hPa 0,0 l/m 10,4 km/h (2 Bft) W 271 0 min 0,000 mm 0,0 UV-I 0 W/m 14,8 C 13,3 C 16,1 km/h (3 Bft) 95,83 %
29.06.2018 03:39 15,3 C 20,0 C 97 % 1012,8 hPa 0,0 l/m 11,1 km/h (2 Bft) W 275 0 min 0,000 mm 0,0 UV-I 0 W/m 14,8 C 13,0 C 12,9 km/h (3 Bft) 95,65 %
29.06.2018 03:40 15,3 C 20,0 C 97 % 1012,7 hPa 0,0 l/m 9,6 km/h (2 Bft) W 265 0 min 0,000 mm 0,0 UV-I 0 W/m 14,8 C 13,6 C 12,9 km/h (3 Bft) 100,00 %
29.06.2018 03:41 15,3 C 20,0 C 97 % 1012,7 hPa 0,0 l/m 12,6 km/h (3 Bft) W 277 0 min 0,000 mm 0,0 UV-I 0 W/m 14,8 C 12,4 C 16,1 km/h (3 Bft) 96,30 %
29.06.2018 03:42 15,3 C 20,0 C 97 % 1012,7 hPa 0,2 l/m 9,6 km/h (2 Bft) W-SW 243 0 min 0,000 mm 0,0 UV-I 0 W/m 14,8 C 13,6 C 14,5 km/h (3 Bft) 95,65 %
29.06.2018 03:43 15,3 C 20,0 C 97 % 1012,7 hPa 0,0 l/m 10,1 km/h (2 Bft) W-NW 283 0 min 0,000 mm 0,0 UV-I 0 W/m 14,8 C 13,4 C 12,9 km/h (3 Bft) 95,83 %
29.06.2018 03:44 15,3 C 20,0 C 97 % 1012,7 hPa 0,0 l/m 9,5 km/h (2 Bft) W-SW 254 0 min 0,000 mm 0,0 UV-I 0 W/m 14,8 C 13,7 C 12,9 km/h (3 Bft) 100,00 %
29.06.2018 03:45 15,3 C 20,0 C 97 % 1012,7 hPa 0,0 l/m 10,9 km/h (2 Bft) W 263 0 min 0,000 mm 0,0 UV-I 0 W/m 14,8 C 13,1 C 14,5 km/h (3 Bft) 100,00 %
29.06.2018 03:46 15,3 C 20,0 C 97 % 1012,7 hPa 0,0 l/m 10,9 km/h (2 Bft) SW 234 0 min 0,000 mm 0,0 UV-I 0 W/m 14,8 C 13,1 C 14,5 km/h (3 Bft) 95,65 %
29.06.2018 03:47 15,3 C 20,0 C 97 % 1012,7 hPa 0,0 l/m 13,6 km/h (3 Bft) W-SW 238 0 min 0,000 mm 0,0 UV-I 0 W/m 14,8 C 12,0 C 17,7 km/h (3 Bft) 100,00 %
29.06.2018 03:48 15,3 C 20,0 C 97 % 1012,7 hPa 0,0 l/m 9,0 km/h (2 Bft) W-SW 249 0 min 0,000 mm 0,0 UV-I 0 W/m 14,8 C 13,9 C 12,9 km/h (3 Bft) 100,00 %
29.06.2018 03:49 15,2 C 20,0 C 97 % 1012,7 hPa 0,0 l/m 10,4 km/h (2 Bft) W-SW 257 0 min 0,000 mm 0,0 UV-I 0 W/m 14,7 C 13,2 C 12,9 km/h (3 Bft) 100,00 %
29.06.2018 03:50 15,3 C 20,0 C 97 % 1012,7 hPa 0,0 l/m 9,5 km/h (2 Bft) SW 236 0 min 0,000 mm 0,0 UV-I 0 W/m 14,8 C 13,7 C 12,9 km/h (3 Bft) 95,65 %
29.06.2018 03:51 15,3 C 20,0 C 97 % 1012,6 hPa 0,0 l/m 6,6 km/h (2 Bft) W-SW 243 0 min 0,000 mm 0,0 UV-I 0 W/m 14,8 C 15,2 C 11,3 km/h (2 Bft) 100,00 %
29.06.2018 03:52 15,3 C 20,0 C 97 % 1012,7 hPa 0,0 l/m 5,8 km/h (2 Bft) SW 233 0 min 0,000 mm 0,0 UV-I 0 W/m 14,8 C 15,3 C 8,0 km/h (2 Bft) 100,00 %
29.06.2018 03:53 15,3 C 20,0 C 97 % 1012,7 hPa 0,0 l/m 8,8 km/h (2 Bft) W 262 0 min 0,000 mm 0,0 UV-I 0 W/m 14,8 C 14,0 C 12,9 km/h (3 Bft) 100,00 %
29.06.2018 03:54 15,3 C 20,0 C 97 % 1012,7 hPa 0,0 l/m 12,1 km/h (2 Bft) SW 226 0 min 0,000 mm 0,0 UV-I 0 W/m 14,8 C 12,6 C 16,1 km/h (3 Bft) 100,00 %
29.06.2018 03:55 15,3 C 20,0 C 97 % 1012,7 hPa 0,0 l/m 11,8 km/h (2 Bft) W-SW 251 0 min 0,000 mm 0,0 UV-I 0 W/m 14,8 C 12,7 C 16,1 km/h (3 Bft) 100,00 %
29.06.2018 03:56 15,2 C 20,0 C 97 % 1012,7 hPa 0,0 l/m 12,5 km/h (3 Bft) W-SW 246 0 min 0,000 mm 0,0 UV-I 0 W/m 14,7 C 12,3 C 17,7 km/h (3 Bft) 95,65 %
29.06.2018 03:57 15,2 C 19,4 C 97 % 1012,7 hPa 0,0 l/m 11,9 km/h (2 Bft) W 261 0 min 0,000 mm 0,0 UV-I 0 W/m 14,7 C 12,5 C 16,1 km/h (3 Bft) 100,00 %
29.06.2018 03:58 15,2 C 19,4 C 97 % 1012,7 hPa 0,0 l/m 13,0 km/h (3 Bft) W 269 0 min 0,000 mm 0,0 UV-I 0 W/m 14,7 C 12,1 C 17,7 km/h (3 Bft) 100,00 %
29.06.2018 03:59 15,3 C 19,4 C 97 % 1012,7 hPa 0,0 l/m 9,1 km/h (2 Bft) W-SW 258 0 min 0,000 mm 0,0 UV-I 0 W/m 14,8 C 13,9 C 12,9 km/h (3 Bft) 100,00 %
29.06.2018 04:00 15,3 C 19,4 C 97 % 1012,7 hPa 0,0 l/m 12,3 km/h (3 Bft) W 271 0 min 0,000 mm 0,0 UV-I 0 W/m 14,8 C 12,5 C 16,1 km/h (3 Bft) 100,00 %
29.06.2018 04:01 15,3 C 19,4 C 97 % 1012,7 hPa 0,0 l/m 13,2 km/h (3 Bft) W 259 0 min 0,000 mm 0,0 UV-I 0 W/m 14,8 C 12,2 C 16,1 km/h (3 Bft) 88,89 %
29.06.2018 04:03 15,3 C 19,4 C 97 % 1012,7 hPa 0,0 l/m 9,9 km/h (2 Bft) W-SW 252 0 min 0,000 mm 0,0 UV-I 0 W/m 14,8 C 13,5 C 16,1 km/h (3 Bft) 97,87 %
29.06.2018 04:04 15,3 C 19,4 C 97 % 1012,7 hPa 0,0 l/m 9,9 km/h (2 Bft) W 267 0 min 0,000 mm 0,0 UV-I 0 W/m 14,8 C 13,5 C 12,9 km/h (3 Bft) 100,00 %
29.06.2018 04:05 15,2 C 19,4 C 97 % 1012,7 hPa 0,0 l/m 10,5 km/h (2 Bft) W-SW 250 0 min 0,000 mm 0,0 UV-I 0 W/m 14,7 C 13,1 C 12,9 km/h (3 Bft) 100,00 %
29.06.2018 04:06 15,2 C 19,4 C 97 % 1012,7 hPa 0,0 l/m 8,2 km/h (2 Bft) W 279 0 min 0,000 mm 0,0 UV-I 0 W/m 14,7 C 14,2 C 12,9 km/h (3 Bft) 100,00 %
29.06.2018 04:07 15,2 C 19,4 C 97 % 1012,7 hPa 0,0 l/m 5,9 km/h (2 Bft) W-SW 256 0 min 0,000 mm 0,0 UV-I 0 W/m 14,7 C 15,2 C 9,7 km/h (2 Bft) 100,00 %
29.06.2018 04:08 15,2 C 19,4 C 97 % 1012,7 hPa 0,0 l/m 9,7 km/h (2 Bft) W 267 0 min 0,000 mm 0,0 UV-I 0 W/m 14,7 C 13,5 C 17,7 km/h (3 Bft) 100,00 %
29.06.2018 04:09 15,2 C 19,4 C 97 % 1012,7 hPa 0,0 l/m 10,5 km/h (2 Bft) SW 236 0 min 0,000 mm 0,0 UV-I 0 W/m 14,7 C 13,1 C 12,9 km/h (3 Bft) 100,00 %
29.06.2018 04:10 15,2 C 19,4 C 97 % 1012,7 hPa 0,2 l/m 11,5 km/h (2 Bft) W 265 0 min 0,000 mm 0,0 UV-I 0 W/m 14,7 C 12,7 C 14,5 km/h (3 Bft) 95,83 %
29.06.2018 04:11 15,2 C 19,4 C 97 % 1012,7 hPa 0,0 l/m 8,0 km/h (2 Bft) W 271 0 min 0,000 mm 0,0 UV-I 0 W/m 14,7 C 14,3 C 12,9 km/h (3 Bft) 95,65 %
29.06.2018 04:12 15,2 C 19,4 C 97 % 1012,7 hPa 0,2 l/m 11,1 km/h (2 Bft) W 261 0 min 0,000 mm 0,0 UV-I 0 W/m 14,7 C 12,9 C 14,5 km/h (3 Bft) 100,00 %
29.06.2018 04:13 15,2 C 19,4 C 97 % 1012,7 hPa 0,0 l/m 9,5 km/h (2 Bft) W 270 0 min 0,000 mm 0,0 UV-I 0 W/m 14,7 C 13,6 C 12,9 km/h (3 Bft) 95,65 %
29.06.2018 04:14 15,2 C 19,4 C 97 % 1012,7 hPa 0,0 l/m 9,7 km/h (2 Bft) W 268 0 min 0,000 mm 0,0 UV-I 0 W/m 14,7 C 13,5 C 14,5 km/h (3 Bft) 100,00 %
29.06.2018 04:15 15,2 C 19,4 C 97 % 1012,7 hPa 0,2 l/m 10,4 km/h (2 Bft) W 266 0 min 0,000 mm 0,0 UV-I 0 W/m 14,7 C 13,2 C 14,5 km/h (3 Bft) 100,00 %
29.06.2018 04:16 15,2 C 19,4 C 97 % 1012,6 hPa 0,0 l/m 12,5 km/h (3 Bft) W 270 0 min 0,000 mm 0,0 UV-I 0 W/m 14,7 C 12,3 C 14,5 km/h (3 Bft) 95,83 %
29.06.2018 04:17 15,2 C 19,4 C 97 % 1012,6 hPa 0,2 l/m 11,4 km/h (2 Bft) W 262 0 min 0,000 mm 0,0 UV-I 0 W/m 14,7 C 12,7 C 16,1 km/h (3 Bft) 100,00 %
29.06.2018 04:18 15,2 C 19,4 C 97 % 1012,6 hPa 0,0 l/m 12,4 km/h (3 Bft) W-SW 251 0 min 0,000 mm 0,0 UV-I 0 W/m 14,7 C 12,3 C 16,1 km/h (3 Bft) 100,00 %
29.06.2018 04:19 15,2 C 19,4 C 97 % 1012,5 hPa 0,2 l/m 10,4 km/h (2 Bft) W-SW 240 0 min 0,000 mm 0,0 UV-I 0 W/m 14,7 C 13,2 C 12,9 km/h (3 Bft) 100,00 %
29.06.2018 04:20 15,2 C 19,4 C 97 % 1012,5 hPa 0,2 l/m 11,7 km/h (2 Bft) W 259 0 min 0,000 mm 0,0 UV-I 0 W/m 14,7 C 12,6 C 16,1 km/h (3 Bft) 100,00 %
29.06.2018 04:21 15,2 C 19,4 C 97 % 1012,5 hPa 0,0 l/m 14,3 km/h (3 Bft) W-SW 246 0 min 0,000 mm 0,0 UV-I 0 W/m 14,7 C 11,7 C 17,7 km/h (3 Bft) 100,00 %
29.06.2018 04:22 15,2 C 19,4 C 97 % 1012,5 hPa 0,0 l/m 13,1 km/h (3 Bft) W 271 0 min 0,000 mm 0,0 UV-I 0 W/m 14,7 C 12,1 C 16,1 km/h (3 Bft) 100,00 %
29.06.2018 04:23 15,2 C 19,4 C 97 % 1012,5 hPa 0,0 l/m 9,9 km/h (2 Bft) W 261 0 min 0,000 mm 0,0 UV-I 0 W/m 14,7 C 13,4 C 12,9 km/h (3 Bft) 100,00 %
29.06.2018 04:24 15,2 C 19,4 C 97 % 1012,5 hPa 0,0 l/m 12,9 km/h (3 Bft) W 270 0 min 0,000 mm 0,0 UV-I 0 W/m 14,7 C 12,2 C 16,1 km/h (3 Bft) 100,00 %
29.06.2018 04:25 15,2 C 19,4 C 97 % 1012,5 hPa 0,0 l/m 11,3 km/h (2 Bft) W 267 0 min 0,000 mm 0,0 UV-I 0 W/m 14,7 C 12,8 C 16,1 km/h (3 Bft) 100,00 %
29.06.2018 04:26 15,2 C 19,4 C 97 % 1012,5 hPa 0,2 l/m 11,7 km/h (2 Bft) W 274 0 min 0,000 mm 0,0 UV-I 0 W/m 14,7 C 12,6 C 14,5 km/h (3 Bft) 100,00 %
29.06.2018 04:27 15,2 C 19,4 C 97 % 1012,5 hPa 0,0 l/m 14,1 km/h (3 Bft) W-SW 252 0 min 0,000 mm 0,0 UV-I 0 W/m 14,7 C 11,7 C 19,3 km/h (3 Bft) 100,00 %
29.06.2018 04:28 15,2 C 19,4 C 97 % 1012,5 hPa 0,0 l/m 14,6 km/h (3 Bft) W-SW 253 0 min 0,000 mm 0,0 UV-I 0 W/m 14,7 C 11,6 C 17,7 km/h (3 Bft) 100,00 %
29.06.2018 04:29 15,2 C 19,4 C 97 % 1012,5 hPa 0,0 l/m 13,8 km/h (3 Bft) W-SW 253 0 min 0,000 mm 0,0 UV-I 0 W/m 14,7 C 11,8 C 17,7 km/h (3 Bft) 100,00 %
29.06.2018 04:30 15,2 C 19,4 C 97 % 1012,5 hPa 0,0 l/m 8,2 km/h (2 Bft) W 267 0 min 0,000 mm 0,0 UV-I 0 W/m 14,7 C 14,2 C 12,9 km/h (3 Bft) 95,65 %
29.06.2018 04:31 15,2 C 19,4 C 97 % 1012,5 hPa 0,0 l/m 14,1 km/h (3 Bft) W 267 0 min 0,000 mm 0,0 UV-I 0 W/m 14,7 C 11,7 C 20,9 km/h (4 Bft) 100,00 %
29.06.2018 04:32 15,2 C 19,4 C 97 % 1012,5 hPa 0,0 l/m 16,4 km/h (3 Bft) W 265 0 min 0,000 mm 0,0 UV-I 0 W/m 14,7 C 11,0 C 20,9 km/h (4 Bft) 100,00 %
29.06.2018 04:33 15,2 C 19,4 C 97 % 1012,5 hPa 0,0 l/m 12,9 km/h (3 Bft) W 263 0 min 0,000 mm 0,0 UV-I 0 W/m 14,7 C 12,2 C 17,7 km/h (3 Bft) 100,00 %
29.06.2018 04:34 15,2 C 19,4 C 97 % 1012,6 hPa 0,0 l/m 11,6 km/h (2 Bft) SW 225 0 min 0,000 mm 0,0 UV-I 0 W/m 14,7 C 12,7 C 19,3 km/h (3 Bft) 100,00 %
29.06.2018 04:35 15,2 C 19,4 C 97 % 1012,6 hPa 0,0 l/m 15,1 km/h (3 Bft) SW 228 0 min 0,000 mm 0,0 UV-I 0 W/m 14,7 C 11,4 C 19,3 km/h (3 Bft) 100,00 %
29.06.2018 04:36 15,2 C 19,4 C 97 % 1012,5 hPa 0,2 l/m 13,9 km/h (3 Bft) W 280 0 min 0,000 mm 0,0 UV-I 0 W/m 14,7 C 11,8 C 17,7 km/h (3 Bft) 100,00 %
29.06.2018 04:37 15,2 C 19,4 C 97 % 1012,6 hPa 0,0 l/m 8,9 km/h (2 Bft) W 280 0 min 0,000 mm 0,0 UV-I 0 W/m 14,7 C 13,9 C 14,5 km/h (3 Bft) 100,00 %
29.06.2018 04:38 15,2 C 19,4 C 97 % 1012,6 hPa 0,0 l/m 9,1 km/h (2 Bft) W-SW 255 0 min 0,000 mm 0,0 UV-I 0 W/m 14,7 C 13,8 C 12,9 km/h (3 Bft) 100,00 %
29.06.2018 04:39 15,2 C 19,4 C 97 % 1012,6 hPa 0,0 l/m 12,0 km/h (2 Bft) W-SW 246 0 min 0,000 mm 0,0 UV-I 0 W/m 14,7 C 12,5 C 14,5 km/h (3 Bft) 100,00 %
29.06.2018 04:40 15,2 C 19,4 C 97 % 1012,6 hPa 0,0 l/m 12,3 km/h (3 Bft) W 271 0 min 0,000 mm 0,0 UV-I 0 W/m 14,7 C 12,4 C 16,1 km/h (3 Bft) 95,65 %
29.06.2018 04:41 15,2 C 19,4 C 97 % 1012,6 hPa 0,0 l/m 13,7 km/h (3 Bft) W 263 0 min 0,000 mm 0,0 UV-I 0 W/m 14,7 C 11,9 C 16,1 km/h (3 Bft) 100,00 %
29.06.2018 04:42 15,2 C 19,4 C 97 % 1012,5 hPa 0,0 l/m 11,9 km/h (2 Bft) W 273 0 min 0,000 mm 0,0 UV-I 0 W/m 14,7 C 12,5 C 17,7 km/h (3 Bft) 100,00 %
29.06.2018 04:43 15,2 C 19,4 C 97 % 1012,5 hPa 0,0 l/m 12,2 km/h (2 Bft) W-SW 238 0 min 0,000 mm 0,0 UV-I 0 W/m 14,7 C 12,4 C 16,1 km/h (3 Bft) 100,00 %
29.06.2018 04:44 15,2 C 19,4 C 97 % 1012,5 hPa 0,0 l/m 12,3 km/h (3 Bft) W-SW 244 0 min 0,000 mm 0,0 UV-I 0 W/m 14,7 C 12,4 C 16,1 km/h (3 Bft) 95,83 %
29.06.2018 04:45 15,2 C 19,4 C 97 % 1012,5 hPa 0,0 l/m 12,3 km/h (3 Bft) W-SW 244 0 min 0,000 mm 0,0 UV-I 0 W/m 14,7 C 12,4 C 17,7 km/h (3 Bft) 100,00 %
29.06.2018 04:46 15,2 C 19,4 C 97 % 1012,5 hPa 0,0 l/m 13,7 km/h (3 Bft) W-SW 258 0 min 0,000 mm 0,0 UV-I 0 W/m 14,7 C 11,9 C 19,3 km/h (3 Bft) 100,00 %
29.06.2018 04:47 15,2 C 19,4 C 97 % 1012,5 hPa 0,0 l/m 10,5 km/h (2 Bft) W 271 0 min 0,000 mm 0,0 UV-I 0 W/m 14,7 C 13,1 C 14,5 km/h (3 Bft) 100,00 %
29.06.2018 04:48 15,2 C 19,4 C 97 % 1012,5 hPa 0,0 l/m 10,0 km/h (2 Bft) W 268 0 min 0,000 mm 0,0 UV-I 0 W/m 14,7 C 13,3 C 12,9 km/h (3 Bft) 100,00 %
29.06.2018 04:49 15,2 C 19,4 C 98 % 1012,5 hPa 0,0 l/m 7,9 km/h (2 Bft) SW 230 0 min 0,000 mm 0,0 UV-I 0 W/m 14,9 C 14,4 C 11,3 km/h (2 Bft) 95,65 %
29.06.2018 04:50 15,2 C 19,4 C 98 % 1012,6 hPa 0,0 l/m 8,0 km/h (2 Bft) W-SW 244 0 min 0,000 mm 0,0 UV-I 0 W/m 14,9 C 14,3 C 12,9 km/h (3 Bft) 100,00 %
29.06.2018 04:51 15,2 C 19,4 C 98 % 1012,6 hPa 0,0 l/m 9,2 km/h (2 Bft) W-SW 254 0 min 0,000 mm 0,0 UV-I 0 W/m 14,9 C 13,7 C 16,1 km/h (3 Bft) 100,00 %
29.06.2018 04:52 15,2 C 19,4 C 98 % 1012,6 hPa 0,2 l/m 11,9 km/h (2 Bft) W 269 0 min 0,000 mm 0,0 UV-I 0 W/m 14,9 C 12,5 C 16,1 km/h (3 Bft) 100,00 %
29.06.2018 04:53 15,2 C 19,4 C 98 % 1012,5 hPa 0,0 l/m 12,6 km/h (3 Bft) W 265 0 min 0,000 mm 0,0 UV-I 0 W/m 14,9 C 12,3 C 16,1 km/h (3 Bft) 100,00 %
29.06.2018 04:54 15,2 C 19,4 C 98 % 1012,5 hPa 0,0 l/m 9,2 km/h (2 Bft) W 265 0 min 0,000 mm 0,0 UV-I 0 W/m 14,9 C 13,7 C 12,9 km/h (3 Bft) 100,00 %
29.06.2018 04:55 15,2 C 19,4 C 98 % 1012,5 hPa 0,2 l/m 10,5 km/h (2 Bft) SW 235 0 min 0,000 mm 0,0 UV-I 0 W/m 14,9 C 13,1 C 16,1 km/h (3 Bft) 100,00 %
29.06.2018 04:56 15,2 C 19,4 C 98 % 1012,5 hPa 0,0 l/m 10,1 km/h (2 Bft) W 266 0 min 0,000 mm 0,0 UV-I 0 W/m 14,9 C 13,3 C 12,9 km/h (3 Bft) 95,65 %
29.06.2018 04:57 15,2 C 19,4 C 98 % 1012,5 hPa 0,0 l/m 9,8 km/h (2 Bft) W 262 0 min 0,000 mm 0,0 UV-I 0 W/m 14,9 C 13,4 C 14,5 km/h (3 Bft) 100,00 %
29.06.2018 04:58 15,2 C 19,4 C 98 % 1012,5 hPa 0,0 l/m 9,0 km/h (2 Bft) W 275 0 min 0,000 mm 0,0 UV-I 0 W/m 14,9 C 13,8 C 12,9 km/h (3 Bft) 91,30 %
29.06.2018 04:59 15,2 C 19,4 C 98 % 1012,5 hPa 0,0 l/m 8,8 km/h (2 Bft) W-SW 244 0 min 0,000 mm 0,0 UV-I 0 W/m 14,9 C 13,9 C 12,9 km/h (3 Bft) 100,00 %
29.06.2018 05:00 15,2 C 19,4 C 98 % 1012,5 hPa 0,2 l/m 8,1 km/h (2 Bft) W 259 0 min 0,000 mm 0,0 UV-I 0 W/m 14,9 C 14,3 C 11,3 km/h (2 Bft) 95,65 %
29.06.2018 05:02 15,2 C 19,4 C 98 % 1012,5 hPa 0,0 l/m 11,4 km/h (2 Bft) W 264 0 min 0,000 mm 0,0 UV-I 0 W/m 14,9 C 12,7 C 17,7 km/h (3 Bft) 98,00 %
29.06.2018 05:03 15,2 C 19,4 C 98 % 1012,5 hPa 0,0 l/m 11,5 km/h (2 Bft) W 262 0 min 0,000 mm 0,0 UV-I 0 W/m 14,9 C 12,7 C 14,5 km/h (3 Bft) 95,83 %
29.06.2018 05:04 15,2 C 19,4 C 98 % 1012,5 hPa 0,0 l/m 9,5 km/h (2 Bft) W-SW 241 0 min 0,000 mm 0,0 UV-I 0 W/m 14,9 C 13,6 C 14,5 km/h (3 Bft) 100,00 %
29.06.2018 05:05 15,2 C 19,4 C 98 % 1012,5 hPa 0,2 l/m 7,9 km/h (2 Bft) W-SW 246 0 min 0,000 mm 0,0 UV-I 0 W/m 14,9 C 14,4 C 12,9 km/h (3 Bft) 95,83 %
29.06.2018 05:06 15,2 C 19,4 C 98 % 1012,5 hPa 0,0 l/m 10,1 km/h (2 Bft) W-SW 244 0 min 0,000 mm 0,0 UV-I 0 W/m 14,9 C 13,3 C 14,5 km/h (3 Bft) 100,00 %
29.06.2018 05:07 15,2 C 19,4 C 98 % 1012,6 hPa 0,0 l/m 6,0 km/h (2 Bft) W 262 0 min 0,000 mm 0,0 UV-I 0 W/m 14,9 C 15,2 C 11,3 km/h (2 Bft) 95,83 %
29.06.2018 05:08 15,2 C 19,4 C 98 % 1012,6 hPa 0,2 l/m 8,9 km/h (2 Bft) W-SW 254 0 min 0,000 mm 0,0 UV-I 0 W/m 14,9 C 13,9 C 12,9 km/h (3 Bft) 100,00 %
29.06.2018 05:09 15,2 C 19,4 C 98 % 1012,6 hPa 0,0 l/m 7,6 km/h (2 Bft) SW 224 0 min 0,000 mm 0,0 UV-I 0 W/m 14,9 C 14,5 C 12,9 km/h (3 Bft) 95,83 %
29.06.2018 05:10 15,2 C 19,4 C 98 % 1012,5 hPa 0,0 l/m 9,3 km/h (2 Bft) W-SW 242 0 min 0,000 mm 0,0 UV-I 0 W/m 14,9 C 13,7 C 12,9 km/h (3 Bft) 100,00 %
29.06.2018 05:11 15,2 C 19,4 C 98 % 1012,5 hPa 0,0 l/m 5,9 km/h (2 Bft) W-SW 240 0 min 0,000 mm 0,0 UV-I 0 W/m 14,9 C 15,2 C 8,0 km/h (2 Bft) 94,74 %
29.06.2018 05:12 15,2 C 19,4 C 98 % 1012,5 hPa 0,2 l/m 7,1 km/h (2 Bft) W-SW 251 0 min 0,000 mm 0,0 UV-I 0 W/m 14,9 C 14,8 C 8,0 km/h (2 Bft) 95,65 %
29.06.2018 05:13 15,2 C 19,4 C 98 % 1012,6 hPa 0,0 l/m 7,6 km/h (2 Bft) W-SW 254 0 min 0,000 mm 0,0 UV-I 5 W/m 14,9 C 14,5 C 11,3 km/h (2 Bft) 95,83 %
29.06.2018 05:14 15,2 C 19,4 C 98 % 1012,5 hPa 0,2 l/m 9,9 km/h (2 Bft) W-SW 244 0 min 0,000 mm 0,0 UV-I 5 W/m 14,9 C 13,4 C 14,5 km/h (3 Bft) 92,31 %
29.06.2018 05:15 15,2 C 19,4 C 98 % 1012,5 hPa 0,0 l/m 9,3 km/h (2 Bft) W-SW 244 0 min 0,000 mm 0,0 UV-I 3 W/m 14,9 C 13,7 C 16,1 km/h (3 Bft) 100,00 %
29.06.2018 05:16 15,2 C 19,4 C 98 % 1012,5 hPa 0,0 l/m 11,5 km/h (2 Bft) W-SW 246 0 min 0,000 mm 0,0 UV-I 0 W/m 14,9 C 12,7 C 14,5 km/h (3 Bft) 91,67 %
29.06.2018 05:17 15,2 C 19,4 C 98 % 1012,5 hPa 0,2 l/m 11,4 km/h (2 Bft) W-SW 249 0 min 0,000 mm 0,0 UV-I 0 W/m 14,9 C 12,7 C 14,5 km/h (3 Bft) 96,15 %
29.06.2018 05:18 15,2 C 19,4 C 98 % 1012,5 hPa 0,0 l/m 11,1 km/h (2 Bft) W-SW 247 0 min 0,000 mm 0,0 UV-I 0 W/m 14,9 C 12,9 C 16,1 km/h (3 Bft) 91,67 %
29.06.2018 05:19 15,2 C 19,4 C 98 % 1012,5 hPa 0,0 l/m 12,2 km/h (2 Bft) SW 234 0 min 0,000 mm 0,0 UV-I 0 W/m 14,9 C 12,4 C 17,7 km/h (3 Bft) 100,00 %
29.06.2018 05:20 15,2 C 19,4 C 98 % 1012,5 hPa 0,0 l/m 13,1 km/h (3 Bft) W-SW 254 0 min 0,000 mm 0,0 UV-I 0 W/m 14,9 C 12,1 C 17,7 km/h (3 Bft) 86,67 %
29.06.2018 05:21 15,2 C 19,4 C 98 % 1012,5 hPa 0,2 l/m 8,9 km/h (2 Bft) W 260 0 min 0,000 mm 0,0 UV-I 2 W/m 14,9 C 13,9 C 12,9 km/h (3 Bft) 100,00 %
29.06.2018 05:22 15,2 C 19,4 C 98 % 1012,5 hPa 0,0 l/m 10,7 km/h (2 Bft) SW 234 0 min 0,000 mm 0,0 UV-I 5 W/m 14,9 C 13,0 C 16,1 km/h (3 Bft) 91,67 %
29.06.2018 05:23 15,2 C 19,4 C 98 % 1012,5 hPa 0,0 l/m 11,7 km/h (2 Bft) W-SW 246 0 min 0,000 mm 0,0 UV-I 5 W/m 14,9 C 12,6 C 16,1 km/h (3 Bft) 95,65 %
29.06.2018 05:24 15,2 C 19,4 C 98 % 1012,5 hPa 0,0 l/m 10,6 km/h (2 Bft) SW 224 0 min 0,000 mm 0,0 UV-I 5 W/m 14,9 C 13,1 C 12,9 km/h (3 Bft) 92,59 %
29.06.2018 05:25 15,2 C 19,4 C 98 % 1012,5 hPa 0,0 l/m 14,0 km/h (3 Bft) W-SW 251 0 min 0,000 mm 0,0 UV-I 5 W/m 14,9 C 11,8 C 19,3 km/h (3 Bft) 91,30 %
29.06.2018 05:26 15,2 C 19,4 C 98 % 1012,5 hPa 0,2 l/m 11,3 km/h (2 Bft) W-SW 242 0 min 0,000 mm 0,0 UV-I 5 W/m 14,9 C 12,8 C 16,1 km/h (3 Bft) 100,00 %
29.06.2018 05:27 15,2 C 19,4 C 98 % 1012,5 hPa 0,0 l/m 12,5 km/h (3 Bft) W 270 0 min 0,000 mm 0,0 UV-I 5 W/m 14,9 C 12,3 C 19,3 km/h (3 Bft) 86,96 %
29.06.2018 05:28 15,2 C 19,4 C 98 % 1012,5 hPa 0,0 l/m 12,0 km/h (2 Bft) W-SW 250 0 min 0,000 mm 0,0 UV-I 5 W/m 14,9 C 12,5 C 17,7 km/h (3 Bft) 100,00 %
29.06.2018 05:29 15,2 C 19,4 C 98 % 1012,4 hPa 0,0 l/m 12,3 km/h (3 Bft) SW 227 0 min 0,000 mm 0,0 UV-I 5 W/m 14,9 C 12,4 C 17,7 km/h (3 Bft) 91,30 %
29.06.2018 05:30 15,2 C 19,4 C 98 % 1012,5 hPa 0,0 l/m 12,5 km/h (3 Bft) W 259 0 min 0,000 mm 0,0 UV-I 5 W/m 14,9 C 12,3 C 16,1 km/h (3 Bft) 100,00 %
29.06.2018 05:31 15,2 C 19,4 C 98 % 1012,5 hPa 0,0 l/m 8,4 km/h (2 Bft) W 275 0 min 0,000 mm 0,0 UV-I 5 W/m 14,9 C 14,1 C 11,3 km/h (2 Bft) 95,65 %
29.06.2018 05:32 15,2 C 19,4 C 98 % 1012,5 hPa 0,0 l/m 8,6 km/h (2 Bft) W-SW 257 0 min 0,000 mm 0,0 UV-I 5 W/m 14,9 C 14,0 C 12,9 km/h (3 Bft) 95,83 %
29.06.2018 05:33 15,2 C 19,4 C 98 % 1012,5 hPa 0,0 l/m 11,3 km/h (2 Bft) W-SW 246 0 min 0,000 mm 0,0 UV-I 5 W/m 14,9 C 12,8 C 16,1 km/h (3 Bft) 91,30 %
29.06.2018 05:34 15,2 C 19,4 C 98 % 1012,5 hPa 0,0 l/m 12,9 km/h (3 Bft) W-SW 252 0 min 0,000 mm 0,0 UV-I 5 W/m 14,9 C 12,2 C 17,7 km/h (3 Bft) 91,67 %
29.06.2018 05:35 15,2 C 19,4 C 98 % 1012,5 hPa 0,2 l/m 12,6 km/h (3 Bft) W-SW 246 0 min 0,000 mm 0,0 UV-I 5 W/m 14,9 C 12,3 C 17,7 km/h (3 Bft) 100,00 %
29.06.2018 05:36 15,2 C 19,4 C 98 % 1012,5 hPa 0,0 l/m 10,6 km/h (2 Bft) W 273 0 min 0,000 mm 0,0 UV-I 5 W/m 14,9 C 13,1 C 16,1 km/h (3 Bft) 91,67 %
29.06.2018 05:37 15,2 C 19,4 C 98 % 1012,4 hPa 0,0 l/m 11,6 km/h (2 Bft) W 271 0 min 0,000 mm 0,0 UV-I 5 W/m 14,9 C 12,7 C 16,1 km/h (3 Bft) 95,65 %
29.06.2018 05:38 15,2 C 19,4 C 98 % 1012,4 hPa 0,0 l/m 12,7 km/h (3 Bft) W 266 0 min 0,000 mm 0,0 UV-I 5 W/m 14,9 C 12,2 C 17,7 km/h (3 Bft) 87,50 %
29.06.2018 05:39 15,2 C 19,4 C 98 % 1012,4 hPa 0,0 l/m 9,7 km/h (2 Bft) W-SW 256 0 min 0,000 mm 0,0 UV-I 5 W/m 14,9 C 13,5 C 14,5 km/h (3 Bft) 100,00 %
29.06.2018 05:40 15,2 C 19,4 C 98 % 1012,4 hPa 0,0 l/m 11,8 km/h (2 Bft) W-SW 244 0 min 0,000 mm 0,0 UV-I 5 W/m 14,9 C 12,6 C 19,3 km/h (3 Bft) 91,30 %
29.06.2018 05:41 15,2 C 19,4 C 98 % 1012,4 hPa 0,0 l/m 11,0 km/h (2 Bft) W-SW 252 0 min 0,000 mm 0,0 UV-I 5 W/m 14,9 C 12,9 C 14,5 km/h (3 Bft) 95,83 %
29.06.2018 05:42 15,2 C 19,4 C 98 % 1012,4 hPa 0,0 l/m 11,2 km/h (2 Bft) W 269 0 min 0,000 mm 0,0 UV-I 5 W/m 14,9 C 12,8 C 14,5 km/h (3 Bft) 95,65 %
29.06.2018 05:43 15,1 C 19,4 C 98 % 1012,4 hPa 0,0 l/m 13,4 km/h (3 Bft) W 271 0 min 0,000 mm 0,0 UV-I 5 W/m 14,8 C 11,9 C 17,7 km/h (3 Bft) 95,83 %
29.06.2018 05:44 15,1 C 19,4 C 98 % 1012,4 hPa 0,0 l/m 13,0 km/h (3 Bft) W 260 0 min 0,000 mm 0,0 UV-I 7 W/m 14,8 C 12,0 C 17,7 km/h (3 Bft) 95,65 %
29.06.2018 05:45 15,1 C 19,4 C 98 % 1012,4 hPa 0,0 l/m 11,6 km/h (2 Bft) W-SW 240 0 min 0,000 mm 0,0 UV-I 7 W/m 14,8 C 12,5 C 17,7 km/h (3 Bft) 91,67 %
29.06.2018 05:46 15,1 C 19,4 C 98 % 1012,3 hPa 0,0 l/m 8,5 km/h (2 Bft) W-SW 242 0 min 0,000 mm 0,0 UV-I 7 W/m 14,8 C 13,9 C 16,1 km/h (3 Bft) 100,00 %
29.06.2018 05:47 15,1 C 19,4 C 98 % 1012,3 hPa 0,0 l/m 7,0 km/h (2 Bft) W 268 0 min 0,000 mm 0,0 UV-I 7 W/m 14,8 C 14,8 C 12,9 km/h (3 Bft) 95,83 %
29.06.2018 05:48 15,2 C 19,4 C 98 % 1012,4 hPa 0,0 l/m 13,1 km/h (3 Bft) W 270 0 min 0,000 mm 0,0 UV-I 7 W/m 14,9 C 12,1 C 17,7 km/h (3 Bft) 100,00 %
29.06.2018 05:49 15,1 C 19,4 C 98 % 1012,3 hPa 0,2 l/m 8,9 km/h (2 Bft) W 263 0 min 0,000 mm 0,0 UV-I 7 W/m 14,8 C 13,7 C 11,3 km/h (2 Bft) 95,83 %
29.06.2018 05:50 15,1 C 19,4 C 98 % 1012,3 hPa 0,0 l/m 10,3 km/h (2 Bft) W-SW 242 0 min 0,000 mm 0,0 UV-I 7 W/m 14,8 C 13,1 C 14,5 km/h (3 Bft) 100,00 %
29.06.2018 05:51 15,1 C 19,4 C 98 % 1012,3 hPa 0,0 l/m 9,7 km/h (2 Bft) W-SW 250 0 min 0,000 mm 0,0 UV-I 7 W/m 14,8 C 13,4 C 12,9 km/h (3 Bft) 94,44 %
29.06.2018 05:52 15,1 C 19,4 C 98 % 1012,3 hPa 0,0 l/m 7,6 km/h (2 Bft) W-SW 256 0 min 0,000 mm 0,0 UV-I 7 W/m 14,8 C 14,4 C 14,5 km/h (3 Bft) 100,00 %
29.06.2018 05:53 15,1 C 19,4 C 98 % 1012,3 hPa 0,0 l/m 12,0 km/h (2 Bft) W-NW 293 0 min 0,000 mm 0,0 UV-I 7 W/m 14,8 C 12,4 C 16,1 km/h (3 Bft) 91,67 %
29.06.2018 05:54 15,1 C 19,4 C 98 % 1012,3 hPa 0,0 l/m 8,1 km/h (2 Bft) W 271 0 min 0,000 mm 0,0 UV-I 7 W/m 14,8 C 14,2 C 14,5 km/h (3 Bft) 100,00 %
29.06.2018 05:55 15,1 C 19,4 C 98 % 1012,3 hPa 0,0 l/m 12,0 km/h (2 Bft) SW 234 0 min 0,000 mm 0,0 UV-I 7 W/m 14,8 C 12,4 C 16,1 km/h (3 Bft) 96,15 %
29.06.2018 05:56 15,1 C 19,4 C 98 % 1012,3 hPa 0,0 l/m 7,2 km/h (2 Bft) W 262 0 min 0,000 mm 0,0 UV-I 7 W/m 14,8 C 14,6 C 11,3 km/h (2 Bft) 95,83 %
29.06.2018 05:57 15,1 C 19,4 C 98 % 1012,3 hPa 0,0 l/m 13,2 km/h (3 Bft) W 261 0 min 0,000 mm 0,0 UV-I 7 W/m 14,8 C 11,9 C 17,7 km/h (3 Bft) 100,00 %
29.06.2018 05:58 15,1 C 19,4 C 98 % 1012,3 hPa 0,0 l/m 13,9 km/h (3 Bft) W 265 0 min 0,000 mm 0,0 UV-I 7 W/m 14,8 C 11,7 C 20,9 km/h (4 Bft) 95,83 %
29.06.2018 05:59 15,1 C 19,4 C 98 % 1012,3 hPa 0,0 l/m 12,3 km/h (3 Bft) W-SW 248 0 min 0,000 mm 0,0 UV-I 7 W/m 14,8 C 12,3 C 17,7 km/h (3 Bft) 100,00 %
29.06.2018 06:00 15,1 C 19,4 C 98 % 1012,3 hPa 0,0 l/m 12,4 km/h (3 Bft) W-SW 243 0 min 0,000 mm 0,0 UV-I 7 W/m 14,8 C 12,2 C 16,1 km/h (3 Bft) 95,83 %
29.06.2018 06:02 15,1 C 19,4 C 98 % 1012,2 hPa 0,0 l/m 11,9 km/h (2 Bft) SW 232 0 min 0,000 mm 0,0 UV-I 9 W/m 14,8 C 12,4 C 17,7 km/h (3 Bft) 97,14 %
29.06.2018 06:03 15,1 C 19,4 C 98 % 1012,3 hPa 0,0 l/m 8,3 km/h (2 Bft) SW 215 0 min 0,000 mm 0,0 UV-I 9 W/m 14,8 C 14,0 C 16,1 km/h (3 Bft) 100,00 %
29.06.2018 06:04 15,1 C 19,4 C 98 % 1012,3 hPa 0,2 l/m 13,1 km/h (3 Bft) W-SW 243 0 min 0,000 mm 0,0 UV-I 9 W/m 14,8 C 12,0 C 17,7 km/h (3 Bft) 95,83 %
29.06.2018 06:05 15,1 C 19,4 C 98 % 1012,2 hPa 0,0 l/m 11,7 km/h (2 Bft) W-SW 255 0 min 0,000 mm 0,0 UV-I 9 W/m 14,8 C 12,5 C 16,1 km/h (3 Bft) 100,00 %
29.06.2018 06:06 15,1 C 19,4 C 98 % 1012,2 hPa 0,0 l/m 8,9 km/h (2 Bft) W-SW 253 0 min 0,000 mm 0,0 UV-I 9 W/m 14,8 C 13,7 C 11,3 km/h (2 Bft) 100,00 %
29.06.2018 06:07 15,1 C 19,4 C 98 % 1012,2 hPa 0,0 l/m 13,2 km/h (3 Bft) W 259 0 min 0,000 mm 0,0 UV-I 9 W/m 14,8 C 11,9 C 17,7 km/h (3 Bft) 100,00 %
29.06.2018 06:08 15,1 C 19,4 C 98 % 1012,2 hPa 0,0 l/m 12,1 km/h (2 Bft) W-SW 246 0 min 0,000 mm 0,0 UV-I 9 W/m 14,8 C 12,3 C 16,1 km/h (3 Bft) 100,00 %
29.06.2018 06:09 15,1 C 19,4 C 98 % 1012,3 hPa 0,0 l/m 12,0 km/h (2 Bft) SW 236 0 min 0,000 mm 0,0 UV-I 9 W/m 14,8 C 12,4 C 16,1 km/h (3 Bft) 100,00 %
29.06.2018 06:10 15,1 C 19,4 C 98 % 1012,3 hPa 0,0 l/m 9,2 km/h (2 Bft) W-SW 241 0 min 0,000 mm 0,0 UV-I 9 W/m 14,8 C 13,6 C 14,5 km/h (3 Bft) 100,00 %
29.06.2018 06:11 15,1 C 19,4 C 98 % 1012,3 hPa 0,0 l/m 8,7 km/h (2 Bft) W-SW 238 0 min 0,000 mm 0,0 UV-I 9 W/m 14,8 C 13,8 C 17,7 km/h (3 Bft) 100,00 %
29.06.2018 06:12 15,1 C 19,4 C 98 % 1012,3 hPa 0,0 l/m 12,6 km/h (3 Bft) W-SW 238 0 min 0,000 mm 0,0 UV-I 9 W/m 14,8 C 12,2 C 16,1 km/h (3 Bft) 100,00 %
29.06.2018 06:13 15,1 C 19,4 C 98 % 1012,3 hPa 0,0 l/m 12,4 km/h (3 Bft) SW 236 0 min 0,000 mm 0,0 UV-I 9 W/m 14,8 C 12,2 C 16,1 km/h (3 Bft) 95,65 %
29.06.2018 06:14 15,1 C 19,4 C 98 % 1012,3 hPa 0,0 l/m 12,3 km/h (3 Bft) SW 232 0 min 0,000 mm 0,0 UV-I 9 W/m 14,8 C 12,3 C 19,3 km/h (3 Bft) 95,83 %
29.06.2018 06:15 15,1 C 19,4 C 98 % 1012,3 hPa 0,0 l/m 12,4 km/h (3 Bft) W-SW 237 0 min 0,000 mm 0,0 UV-I 9 W/m 14,8 C 12,2 C 17,7 km/h (3 Bft) 100,00 %
29.06.2018 06:16 15,1 C 19,4 C 98 % 1012,3 hPa 0,0 l/m 14,5 km/h (3 Bft) W-SW 244 0 min 0,000 mm 0,0 UV-I 9 W/m 14,8 C 11,5 C 19,3 km/h (3 Bft) 100,00 %
29.06.2018 06:17 15,1 C 19,4 C 98 % 1012,3 hPa 0,0 l/m 11,5 km/h (2 Bft) W-SW 252 0 min 0,000 mm 0,0 UV-I 9 W/m 14,8 C 12,6 C 16,1 km/h (3 Bft) 100,00 %
29.06.2018 06:18 15,1 C 19,4 C 98 % 1012,2 hPa 0,0 l/m 11,1 km/h (2 Bft) W-SW 244 0 min 0,000 mm 0,0 UV-I 9 W/m 14,8 C 12,8 C 16,1 km/h (3 Bft) 100,00 %
29.06.2018 06:19 15,1 C 19,4 C 98 % 1012,2 hPa 0,0 l/m 11,6 km/h (2 Bft) W-SW 246 0 min 0,000 mm 0,0 UV-I 9 W/m 14,8 C 12,5 C 19,3 km/h (3 Bft) 100,00 %
29.06.2018 06:20 15,1 C 19,4 C 98 % 1012,2 hPa 0,0 l/m 11,5 km/h (2 Bft) W 265 0 min 0,000 mm 0,0 UV-I 9 W/m 14,8 C 12,6 C 17,7 km/h (3 Bft) 100,00 %
29.06.2018 06:21 15,1 C 19,4 C 98 % 1012,2 hPa 0,0 l/m 9,4 km/h (2 Bft) W-SW 240 0 min 0,000 mm 0,0 UV-I 9 W/m 14,8 C 13,5 C 14,5 km/h (3 Bft) 100,00 %
29.06.2018 06:22 15,1 C 19,4 C 98 % 1012,2 hPa 0,0 l/m 11,1 km/h (2 Bft) SW 218 0 min 0,000 mm 0,0 UV-I 9 W/m 14,8 C 12,8 C 16,1 km/h (3 Bft) 100,00 %
29.06.2018 06:23 15,1 C 19,4 C 98 % 1012,2 hPa 0,0 l/m 8,2 km/h (2 Bft) W-SW 241 0 min 0,000 mm 0,0 UV-I 9 W/m 14,8 C 14,1 C 12,9 km/h (3 Bft) 100,00 %
29.06.2018 06:24 15,1 C 19,4 C 98 % 1012,2 hPa 0,0 l/m 9,3 km/h (2 Bft) W-SW 257 0 min 0,000 mm 0,0 UV-I 9 W/m 14,8 C 13,6 C 14,5 km/h (3 Bft) 96,15 %
29.06.2018 06:25 15,1 C 19,4 C 98 % 1012,2 hPa 0,0 l/m 11,3 km/h (2 Bft) W 271 0 min 0,000 mm 0,0 UV-I 9 W/m 14,8 C 12,7 C 16,1 km/h (3 Bft) 95,83 %
29.06.2018 06:26 15,1 C 19,4 C 98 % 1012,2 hPa 0,0 l/m 11,1 km/h (2 Bft) W-SW 251 0 min 0,000 mm 0,0 UV-I 9 W/m 14,8 C 12,8 C 16,1 km/h (3 Bft) 100,00 %
29.06.2018 06:27 15,1 C 19,4 C 98 % 1012,2 hPa 0,0 l/m 10,7 km/h (2 Bft) W 275 0 min 0,000 mm 0,0 UV-I 9 W/m 14,8 C 12,9 C 19,3 km/h (3 Bft) 100,00 %
29.06.2018 06:28 15,1 C 19,4 C 98 % 1012,2 hPa 0,0 l/m 11,0 km/h (2 Bft) W 261 0 min 0,000 mm 0,0 UV-I 9 W/m 14,8 C 12,8 C 16,1 km/h (3 Bft) 100,00 %
29.06.2018 06:29 15,1 C 19,4 C 98 % 1012,1 hPa 0,0 l/m 12,0 km/h (2 Bft) SW 228 0 min 0,000 mm 0,0 UV-I 9 W/m 14,8 C 12,4 C 16,1 km/h (3 Bft) 100,00 %
29.06.2018 06:30 15,1 C 19,4 C 98 % 1012,1 hPa 0,0 l/m 8,6 km/h (2 Bft) W-SW 253 0 min 0,000 mm 0,0 UV-I 9 W/m 14,8 C 13,9 C 14,5 km/h (3 Bft) 95,65 %
29.06.2018 06:31 15,1 C 19,4 C 98 % 1012,2 hPa 0,0 l/m 5,7 km/h (1 Bft) W-SW 238 0 min 0,000 mm 0,0 UV-I 9 W/m 14,8 C 15,1 C 9,7 km/h (2 Bft) 100,00 %
29.06.2018 06:32 15,1 C 19,4 C 98 % 1012,2 hPa 0,0 l/m 12,7 km/h (3 Bft) W 266 0 min 0,000 mm 0,0 UV-I 9 W/m 14,8 C 12,1 C 19,3 km/h (3 Bft) 100,00 %
29.06.2018 06:33 15,1 C 19,4 C 98 % 1012,1 hPa 0,0 l/m 13,9 km/h (3 Bft) W 278 0 min 0,000 mm 0,0 UV-I 9 W/m 14,8 C 11,7 C 19,3 km/h (3 Bft) 95,83 %
29.06.2018 06:34 15,1 C 19,4 C 98 % 1012,1 hPa 0,0 l/m 9,2 km/h (2 Bft) W 266 0 min 0,000 mm 0,0 UV-I 11 W/m 14,8 C 13,6 C 14,5 km/h (3 Bft) 100,00 %
29.06.2018 06:35 15,1 C 19,4 C 98 % 1012,2 hPa 0,0 l/m 10,7 km/h (2 Bft) W-SW 248 0 min 0,000 mm 0,0 UV-I 11 W/m 14,8 C 12,9 C 17,7 km/h (3 Bft) 100,00 %
29.06.2018 06:36 15,1 C 19,4 C 98 % 1012,2 hPa 0,0 l/m 13,8 km/h (3 Bft) SW 217 0 min 0,000 mm 0,0 UV-I 11 W/m 14,8 C 11,7 C 16,1 km/h (3 Bft) 100,00 %
29.06.2018 06:37 15,1 C 19,4 C 98 % 1012,2 hPa 0,0 l/m 11,5 km/h (2 Bft) W 263 0 min 0,000 mm 0,0 UV-I 11 W/m 14,8 C 12,6 C 14,5 km/h (3 Bft) 100,00 %
29.06.2018 06:38 15,1 C 19,4 C 98 % 1012,2 hPa 0,0 l/m 11,8 km/h (2 Bft) W-SW 240 0 min 0,000 mm 0,0 UV-I 11 W/m 14,8 C 12,5 C 14,5 km/h (3 Bft) 100,00 %
29.06.2018 06:39 15,1 C 19,4 C 98 % 1012,1 hPa 0,0 l/m 11,0 km/h (2 Bft) S-SW 196 0 min 0,000 mm 0,0 UV-I 12 W/m 14,8 C 12,8 C 14,5 km/h (3 Bft) 100,00 %
29.06.2018 06:40 15,1 C 19,4 C 98 % 1012,2 hPa 0,0 l/m 12,0 km/h (2 Bft) W-SW 247 0 min 0,000 mm 0,0 UV-I 12 W/m 14,8 C 12,4 C 17,7 km/h (3 Bft) 100,00 %
29.06.2018 06:41 15,1 C 19,4 C 98 % 1012,1 hPa 0,0 l/m 13,5 km/h (3 Bft) W-SW 254 0 min 0,000 mm 0,0 UV-I 12 W/m 14,8 C 11,8 C 19,3 km/h (3 Bft) 95,65 %
29.06.2018 06:42 15,1 C 19,4 C 98 % 1012,1 hPa 0,0 l/m 9,9 km/h (2 Bft) W 267 0 min 0,000 mm 0,0 UV-I 12 W/m 14,8 C 13,3 C 14,5 km/h (3 Bft) 100,00 %
29.06.2018 06:43 15,1 C 19,4 C 98 % 1012,2 hPa 0,0 l/m 12,5 km/h (3 Bft) W-SW 241 0 min 0,000 mm 0,0 UV-I 13 W/m 14,8 C 12,2 C 17,7 km/h (3 Bft) 95,65 %
29.06.2018 06:44 15,1 C 19,4 C 98 % 1012,2 hPa 0,0 l/m 12,1 km/h (2 Bft) W 268 0 min 0,000 mm 0,0 UV-I 12 W/m 14,8 C 12,3 C 14,5 km/h (3 Bft) 100,00 %
29.06.2018 06:45 15,1 C 19,4 C 98 % 1012,2 hPa 0,0 l/m 11,1 km/h (2 Bft) W 277 0 min 0,000 mm 0,0 UV-I 12 W/m 14,8 C 12,8 C 17,7 km/h (3 Bft) 95,65 %
29.06.2018 06:46 15,1 C 19,4 C 98 % 1012,2 hPa 0,0 l/m 11,1 km/h (2 Bft) W 276 0 min 0,000 mm 0,0 UV-I 12 W/m 14,8 C 12,8 C 17,7 km/h (3 Bft) 100,00 %
29.06.2018 06:47 15,1 C 19,4 C 98 % 1012,2 hPa 0,0 l/m 10,1 km/h (2 Bft) W-SW 251 0 min 0,000 mm 0,0 UV-I 12 W/m 14,8 C 13,2 C 16,1 km/h (3 Bft) 100,00 %
29.06.2018 06:48 15,1 C 19,4 C 98 % 1012,2 hPa 0,0 l/m 11,7 km/h (2 Bft) W-SW 238 0 min 0,000 mm 0,0 UV-I 12 W/m 14,8 C 12,5 C 19,3 km/h (3 Bft) 96,30 %
29.06.2018 06:49 15,1 C 19,4 C 98 % 1012,2 hPa 0,0 l/m 5,9 km/h (2 Bft) W 263 0 min 0,000 mm 0,0 UV-I 12 W/m 14,8 C 15,1 C 8,0 km/h (2 Bft) 100,00 %
29.06.2018 06:50 15,1 C 19,4 C 98 % 1012,3 hPa 0,0 l/m 10,8 km/h (2 Bft) SW 232 0 min 0,000 mm 0,0 UV-I 12 W/m 14,8 C 12,9 C 16,1 km/h (3 Bft) 100,00 %
29.06.2018 06:51 15,1 C 19,4 C 98 % 1012,3 hPa 0,0 l/m 11,6 km/h (2 Bft) W-SW 242 0 min 0,000 mm 0,0 UV-I 12 W/m 14,8 C 12,5 C 16,1 km/h (3 Bft) 100,00 %
29.06.2018 06:52 15,1 C 19,4 C 98 % 1012,3 hPa 0,0 l/m 8,2 km/h (2 Bft) W 259 0 min 0,000 mm 0,0 UV-I 12 W/m 14,8 C 14,1 C 11,3 km/h (2 Bft) 100,00 %
29.06.2018 06:53 15,1 C 19,4 C 98 % 1012,3 hPa 0,0 l/m 8,0 km/h (2 Bft) W-SW 254 0 min 0,000 mm 0,0 UV-I 12 W/m 14,8 C 14,2 C 12,9 km/h (3 Bft) 100,00 %
29.06.2018 06:54 15,1 C 19,4 C 98 % 1012,3 hPa 0,0 l/m 9,7 km/h (2 Bft) W 262 0 min 0,000 mm 0,0 UV-I 12 W/m 14,8 C 13,4 C 11,3 km/h (2 Bft) 100,00 %
29.06.2018 06:55 15,1 C 19,4 C 98 % 1012,2 hPa 0,0 l/m 7,3 km/h (2 Bft) W 259 0 min 0,000 mm 0,0 UV-I 13 W/m 14,8 C 14,6 C 14,5 km/h (3 Bft) 100,00 %
29.06.2018 06:56 15,1 C 19,4 C 98 % 1012,2 hPa 0,0 l/m 8,0 km/h (2 Bft) W-NW 287 0 min 0,000 mm 0,0 UV-I 14 W/m 14,8 C 14,2 C 9,7 km/h (2 Bft) 100,00 %
29.06.2018 06:57 15,1 C 19,4 C 98 % 1012,3 hPa 0,0 l/m 11,3 km/h (2 Bft) W-SW 252 0 min 0,000 mm 0,0 UV-I 14 W/m 14,8 C 12,7 C 16,1 km/h (3 Bft) 100,00 %
29.06.2018 06:58 15,1 C 19,4 C 98 % 1012,2 hPa 0,0 l/m 10,9 km/h (2 Bft) W-SW 254 0 min 0,000 mm 0,0 UV-I 14 W/m 14,8 C 12,8 C 14,5 km/h (3 Bft) 95,65 %
29.06.2018 06:59 15,1 C 19,4 C 98 % 1012,2 hPa 0,0 l/m 10,5 km/h (2 Bft) W 266 0 min 0,000 mm 0,0 UV-I 14 W/m 14,8 C 13,0 C 12,9 km/h (3 Bft) 100,00 %
29.06.2018 07:00 15,1 C 19,4 C 98 % 1012,3 hPa 0,0 l/m 11,1 km/h (2 Bft) W 263 0 min 0,000 mm 0,0 UV-I 14 W/m 14,8 C 12,8 C 14,5 km/h (3 Bft) 100,00 %
29.06.2018 07:02 15,1 C 19,4 C 98 % 1012,2 hPa 0,0 l/m 8,9 km/h (2 Bft) W-SW 249 0 min 0,000 mm 0,0 UV-I 15 W/m 14,8 C 13,7 C 14,5 km/h (3 Bft) 97,87 %
29.06.2018 07:03 15,1 C 19,4 C 98 % 1012,2 hPa 0,0 l/m 9,5 km/h (2 Bft) SW 232 0 min 0,000 mm 0,0 UV-I 18 W/m 14,8 C 13,5 C 16,1 km/h (3 Bft) 100,00 %
29.06.2018 07:04 15,1 C 19,4 C 98 % 1012,1 hPa 0,0 l/m 12,9 km/h (3 Bft) W 266 0 min 0,000 mm 0,0 UV-I 19 W/m 14,8 C 12,0 C 17,7 km/h (3 Bft) 95,65 %
29.06.2018 07:05 15,1 C 19,4 C 98 % 1012,1 hPa 0,0 l/m 12,1 km/h (2 Bft) W-SW 258 0 min 0,000 mm 0,0 UV-I 19 W/m 14,8 C 12,3 C 14,5 km/h (3 Bft) 100,00 %
29.06.2018 07:06 15,1 C 19,4 C 98 % 1012,2 hPa 0,0 l/m 9,8 km/h (2 Bft) W-SW 250 0 min 0,000 mm 0,0 UV-I 19 W/m 14,8 C 13,3 C 14,5 km/h (3 Bft) 100,00 %
29.06.2018 07:07 15,2 C 19,4 C 98 % 1012,2 hPa 0,0 l/m 9,6 km/h (2 Bft) SW 232 0 min 0,000 mm 0,0 UV-I 19 W/m 14,9 C 13,5 C 17,7 km/h (3 Bft) 100,00 %
29.06.2018 07:08 15,2 C 19,4 C 98 % 1012,1 hPa 0,0 l/m 11,1 km/h (2 Bft) SW 234 0 min 0,000 mm 0,0 UV-I 19 W/m 14,9 C 12,9 C 16,1 km/h (3 Bft) 100,00 %
29.06.2018 07:09 15,1 C 19,4 C 98 % 1012,2 hPa 0,0 l/m 10,7 km/h (2 Bft) W 266 0 min 0,000 mm 0,0 UV-I 18 W/m 14,8 C 12,9 C 17,7 km/h (3 Bft) 100,00 %
29.06.2018 07:10 15,2 C 19,4 C 98 % 1012,2 hPa 0,0 l/m 11,4 km/h (2 Bft) W-SW 255 0 min 0,000 mm 0,0 UV-I 16 W/m 14,9 C 12,7 C 17,7 km/h (3 Bft) 95,65 %
29.06.2018 07:11 15,1 C 19,4 C 98 % 1012,2 hPa 0,0 l/m 10,6 km/h (2 Bft) W 259 0 min 0,000 mm 0,0 UV-I 16 W/m 14,8 C 13,0 C 12,9 km/h (3 Bft) 95,83 %
29.06.2018 07:12 15,1 C 19,4 C 98 % 1012,2 hPa 0,0 l/m 8,3 km/h (2 Bft) W 271 0 min 0,000 mm 0,0 UV-I 17 W/m 14,8 C 14,0 C 11,3 km/h (2 Bft) 100,00 %
29.06.2018 07:13 15,2 C 19,4 C 98 % 1012,2 hPa 0,0 l/m 13,2 km/h (3 Bft) W 275 0 min 0,000 mm 0,0 UV-I 18 W/m 14,9 C 12,1 C 16,1 km/h (3 Bft) 95,65 %
29.06.2018 07:14 15,2 C 19,4 C 98 % 1012,2 hPa 0,0 l/m 12,7 km/h (3 Bft) W-SW 250 0 min 0,000 mm 0,0 UV-I 19 W/m 14,9 C 12,2 C 17,7 km/h (3 Bft) 95,83 %
29.06.2018 07:15 15,2 C 19,4 C 98 % 1012,2 hPa 0,0 l/m 12,2 km/h (2 Bft) W-SW 249 0 min 0,000 mm 0,0 UV-I 20 W/m 14,9 C 12,4 C 17,7 km/h (3 Bft) 95,65 %
29.06.2018 07:16 15,2 C 19,4 C 98 % 1012,2 hPa 0,0 l/m 13,9 km/h (3 Bft) SW 223 0 min 0,000 mm 0,0 UV-I 19 W/m 14,9 C 11,8 C 22,5 km/h (4 Bft) 95,83 %
29.06.2018 07:17 15,2 C 19,4 C 98 % 1012,2 hPa 0,0 l/m 14,8 km/h (3 Bft) W 264 0 min 0,000 mm 0,0 UV-I 19 W/m 14,9 C 11,5 C 19,3 km/h (3 Bft) 100,00 %
29.06.2018 07:18 15,2 C 19,4 C 98 % 1012,2 hPa 0,0 l/m 14,8 km/h (3 Bft) W-SW 252 0 min 0,000 mm 0,0 UV-I 20 W/m 14,9 C 11,5 C 20,9 km/h (4 Bft) 95,83 %
29.06.2018 07:19 15,1 C 19,4 C 98 % 1012,2 hPa 0,2 l/m 13,3 km/h (3 Bft) W 262 0 min 0,000 mm 0,0 UV-I 20 W/m 14,8 C 11,9 C 20,9 km/h (4 Bft) 100,00 %
29.06.2018 07:20 15,1 C 19,4 C 98 % 1012,2 hPa 0,0 l/m 14,3 km/h (3 Bft) SW 225 0 min 0,000 mm 0,0 UV-I 20 W/m 14,8 C 11,5 C 20,9 km/h (4 Bft) 96,30 %
29.06.2018 07:21 15,1 C 19,4 C 98 % 1012,2 hPa 0,0 l/m 14,9 km/h (3 Bft) SW 233 0 min 0,000 mm 0,0 UV-I 18 W/m 14,8 C 11,3 C 19,3 km/h (3 Bft) 100,00 %
29.06.2018 07:22 15,2 C 19,4 C 98 % 1012,2 hPa 0,0 l/m 10,7 km/h (2 Bft) W-SW 248 0 min 0,000 mm 0,0 UV-I 18 W/m 14,9 C 13,0 C 16,1 km/h (3 Bft) 96,30 %
29.06.2018 07:23 15,2 C 19,4 C 98 % 1012,2 hPa 0,0 l/m 8,6 km/h (2 Bft) W 259 0 min 0,000 mm 0,0 UV-I 16 W/m 14,9 C 14,0 C 12,9 km/h (3 Bft) 100,00 %
29.06.2018 07:24 15,2 C 19,4 C 98 % 1012,2 hPa 0,0 l/m 9,1 km/h (2 Bft) S-SW 211 0 min 0,000 mm 0,0 UV-I 17 W/m 14,9 C 13,8 C 12,9 km/h (3 Bft) 91,67 %
29.06.2018 07:25 15,2 C 19,4 C 98 % 1012,2 hPa 0,0 l/m 17,4 km/h (3 Bft) W-SW 247 0 min 0,000 mm 0,0 UV-I 18 W/m 14,9 C 10,7 C 24,1 km/h (4 Bft) 95,65 %
29.06.2018 07:26 15,2 C 19,4 C 98 % 1012,2 hPa 0,0 l/m 15,6 km/h (3 Bft) W-SW 244 0 min 0,000 mm 0,0 UV-I 18 W/m 14,9 C 11,2 C 20,9 km/h (4 Bft) 100,00 %
29.06.2018 07:27 15,2 C 19,4 C 98 % 1012,2 hPa 0,0 l/m 13,1 km/h (3 Bft) W-SW 245 0 min 0,000 mm 0,0 UV-I 18 W/m 14,9 C 12,1 C 17,7 km/h (3 Bft) 95,65 %
29.06.2018 07:28 15,2 C 19,4 C 98 % 1012,2 hPa 0,0 l/m 13,9 km/h (3 Bft) W 265 0 min 0,000 mm 0,0 UV-I 18 W/m 14,9 C 11,8 C 19,3 km/h (3 Bft) 95,83 %
29.06.2018 07:29 15,2 C 19,4 C 98 % 1012,2 hPa 0,0 l/m 14,6 km/h (3 Bft) W 261 0 min 0,000 mm 0,0 UV-I 15 W/m 14,9 C 11,6 C 17,7 km/h (3 Bft) 95,83 %
29.06.2018 07:30 15,2 C 19,4 C 98 % 1012,2 hPa 0,0 l/m 9,6 km/h (2 Bft) W-SW 239 0 min 0,000 mm 0,0 UV-I 14 W/m 14,9 C 13,5 C 19,3 km/h (3 Bft) 100,00 %
29.06.2018 07:31 15,2 C 19,4 C 98 % 1012,3 hPa 0,0 l/m 9,5 km/h (2 Bft) S-SW 212 0 min 0,000 mm 0,0 UV-I 13 W/m 14,9 C 13,6 C 14,5 km/h (3 Bft) 95,83 %
29.06.2018 07:32 15,2 C 19,4 C 98 % 1012,2 hPa 0,0 l/m 13,9 km/h (3 Bft) W-SW 250 0 min 0,000 mm 0,0 UV-I 12 W/m 14,9 C 11,8 C 22,5 km/h (4 Bft) 100,00 %
29.06.2018 07:33 15,2 C 19,4 C 98 % 1012,3 hPa 0,0 l/m 14,3 km/h (3 Bft) W-SW 250 0 min 0,000 mm 0,0 UV-I 12 W/m 14,9 C 11,7 C 19,3 km/h (3 Bft) 96,30 %
29.06.2018 07:34 15,2 C 19,4 C 98 % 1012,2 hPa 0,0 l/m 11,0 km/h (2 Bft) W 269 0 min 0,000 mm 0,0 UV-I 12 W/m 14,9 C 12,9 C 20,9 km/h (4 Bft) 91,30 %
29.06.2018 07:35 15,2 C 19,4 C 98 % 1012,2 hPa 0,0 l/m 16,4 km/h (3 Bft) W-SW 251 0 min 0,000 mm 0,0 UV-I 14 W/m 14,9 C 11,0 C 24,1 km/h (4 Bft) 100,00 %
29.06.2018 07:36 15,2 C 19,4 C 98 % 1012,2 hPa 0,0 l/m 11,0 km/h (2 Bft) SW 236 0 min 0,000 mm 0,0 UV-I 14 W/m 14,9 C 12,9 C 19,3 km/h (3 Bft) 92,86 %
29.06.2018 07:37 15,2 C 19,4 C 98 % 1012,2 hPa 0,0 l/m 13,3 km/h (3 Bft) SW 226 0 min 0,000 mm 0,0 UV-I 14 W/m 14,9 C 12,0 C 20,9 km/h (4 Bft) 100,00 %
29.06.2018 07:38 15,2 C 19,4 C 98 % 1012,2 hPa 0,0 l/m 14,1 km/h (3 Bft) W 261 0 min 0,000 mm 0,0 UV-I 15 W/m 14,9 C 11,7 C 19,3 km/h (3 Bft) 95,65 %
29.06.2018 07:39 15,2 C 19,4 C 98 % 1012,2 hPa 0,0 l/m 13,8 km/h (3 Bft) W-SW 250 0 min 0,000 mm 0,0 UV-I 16 W/m 14,9 C 11,8 C 19,3 km/h (3 Bft) 100,00 %
29.06.2018 07:40 15,1 C 19,4 C 98 % 1012,3 hPa 0,0 l/m 13,5 km/h (3 Bft) W 271 0 min 0,000 mm 0,0 UV-I 16 W/m 14,8 C 11,8 C 20,9 km/h (4 Bft) 91,30 %
29.06.2018 07:41 15,1 C 19,4 C 98 % 1012,3 hPa 0,0 l/m 10,1 km/h (2 Bft) W-SW 238 0 min 0,000 mm 0,0 UV-I 17 W/m 14,8 C 13,2 C 16,1 km/h (3 Bft) 100,00 %
29.06.2018 07:42 15,1 C 19,4 C 98 % 1012,3 hPa 0,0 l/m 12,5 km/h (3 Bft) W 259 0 min 0,000 mm 0,0 UV-I 16 W/m 14,8 C 12,2 C 22,5 km/h (4 Bft) 96,55 %
29.06.2018 07:43 15,1 C 19,4 C 98 % 1012,2 hPa 0,0 l/m 19,9 km/h (4 Bft) W-SW 257 0 min 0,000 mm 0,0 UV-I 16 W/m 14,8 C 9,9 C 24,1 km/h (4 Bft) 100,00 %
29.06.2018 07:44 15,1 C 19,4 C 98 % 1012,3 hPa 0,0 l/m 15,0 km/h (3 Bft) W 267 0 min 0,000 mm 0,0 UV-I 16 W/m 14,8 C 11,3 C 19,3 km/h (3 Bft) 100,00 %
29.06.2018 07:45 15,2 C 19,4 C 98 % 1012,2 hPa 0,0 l/m 12,8 km/h (3 Bft) W 263 0 min 0,000 mm 0,0 UV-I 16 W/m 14,9 C 12,2 C 17,7 km/h (3 Bft) 100,00 %
29.06.2018 07:46 15,2 C 19,4 C 98 % 1012,3 hPa 0,0 l/m 13,0 km/h (3 Bft) W-SW 254 0 min 0,000 mm 0,0 UV-I 14 W/m 14,9 C 12,1 C 19,3 km/h (3 Bft) 100,00 %
29.06.2018 07:47 15,2 C 19,4 C 98 % 1012,4 hPa 0,2 l/m 13,4 km/h (3 Bft) W-SW 249 0 min 0,000 mm 0,0 UV-I 14 W/m 14,9 C 12,0 C 19,3 km/h (3 Bft) 95,65 %
29.06.2018 07:48 15,2 C 19,4 C 98 % 1012,3 hPa 0,0 l/m 11,7 km/h (2 Bft) W 269 0 min 0,000 mm 0,0 UV-I 14 W/m 14,9 C 12,6 C 16,1 km/h (3 Bft) 100,00 %
29.06.2018 07:49 15,2 C 19,4 C 98 % 1012,3 hPa 0,0 l/m 9,0 km/h (2 Bft) W-SW 240 0 min 0,000 mm 0,0 UV-I 15 W/m 14,9 C 13,8 C 12,9 km/h (3 Bft) 91,30 %
29.06.2018 07:50 15,2 C 19,4 C 98 % 1012,4 hPa 0,0 l/m 9,3 km/h (2 Bft) W-SW 251 0 min 0,000 mm 0,0 UV-I 16 W/m 14,9 C 13,7 C 14,5 km/h (3 Bft) 100,00 %
29.06.2018 07:51 15,2 C 19,4 C 98 % 1012,4 hPa 0,0 l/m 13,5 km/h (3 Bft) W-SW 257 0 min 0,000 mm 0,0 UV-I 16 W/m 14,9 C 11,9 C 17,7 km/h (3 Bft) 100,00 %
29.06.2018 07:52 15,1 C 19,4 C 98 % 1012,4 hPa 0,0 l/m 13,2 km/h (3 Bft) W-SW 258 0 min 0,000 mm 0,0 UV-I 18 W/m 14,8 C 11,9 C 16,1 km/h (3 Bft) 100,00 %
29.06.2018 07:53 15,1 C 19,4 C 98 % 1012,4 hPa 0,2 l/m 13,4 km/h (3 Bft) W 273 0 min 0,000 mm 0,0 UV-I 17 W/m 14,8 C 11,9 C 22,5 km/h (4 Bft) 100,00 %
29.06.2018 07:54 15,1 C 19,4 C 98 % 1012,4 hPa 0,0 l/m 13,5 km/h (3 Bft) SW 218 0 min 0,000 mm 0,0 UV-I 16 W/m 14,8 C 11,8 C 19,3 km/h (3 Bft) 100,00 %
29.06.2018 07:55 15,1 C 19,4 C 98 % 1012,4 hPa 0,2 l/m 14,8 km/h (3 Bft) SW 234 0 min 0,000 mm 0,0 UV-I 16 W/m 14,8 C 11,4 C 19,3 km/h (3 Bft) 95,65 %
29.06.2018 07:56 15,1 C 19,4 C 98 % 1012,4 hPa 0,0 l/m 16,6 km/h (3 Bft) W-SW 250 0 min 0,000 mm 0,0 UV-I 14 W/m 14,8 C 10,8 C 24,1 km/h (4 Bft) 100,00 %
29.06.2018 07:57 15,1 C 19,4 C 98 % 1012,4 hPa 0,0 l/m 12,5 km/h (3 Bft) W-SW 248 0 min 0,000 mm 0,0 UV-I 14 W/m 14,8 C 12,2 C 17,7 km/h (3 Bft) 95,65 %
29.06.2018 07:58 15,1 C 19,4 C 98 % 1012,4 hPa 0,0 l/m 11,5 km/h (2 Bft) W 278 0 min 0,000 mm 0,0 UV-I 14 W/m 14,8 C 12,6 C 17,7 km/h (3 Bft) 100,00 %
29.06.2018 07:59 15,1 C 19,4 C 98 % 1012,4 hPa 0,0 l/m 12,6 km/h (3 Bft) SW 233 0 min 0,000 mm 0,0 UV-I 14 W/m 14,8 C 12,2 C 17,7 km/h (3 Bft) 95,65 %
29.06.2018 08:00 15,1 C 19,4 C 98 % 1012,4 hPa 0,0 l/m 11,8 km/h (2 Bft) W 269 0 min 0,000 mm 0,0 UV-I 14 W/m 14,8 C 12,5 C 17,7 km/h (3 Bft) 100,00 %
29.06.2018 08:02 15,2 C 19,4 C 97 % 1012,5 hPa 0,0 l/m 10,6 km/h (2 Bft) W-SW 239 0 min 0,000 mm 0,0 UV-I 16 W/m 14,7 C 13,1 C 19,3 km/h (3 Bft) 100,00 %
29.06.2018 08:03 15,2 C 19,4 C 97 % 1012,5 hPa 0,0 l/m 14,3 km/h (3 Bft) W 274 0 min 0,000 mm 0,0 UV-I 19 W/m 14,7 C 11,7 C 20,9 km/h (4 Bft) 100,00 %
29.06.2018 08:04 15,2 C 19,4 C 97 % 1012,5 hPa 0,0 l/m 10,8 km/h (2 Bft) SW 233 0 min 0,000 mm 0,0 UV-I 18 W/m 14,7 C 13,0 C 16,1 km/h (3 Bft) 100,00 %
29.06.2018 08:05 15,2 C 19,4 C 97 % 1012,5 hPa 0,0 l/m 13,3 km/h (3 Bft) W 264 0 min 0,000 mm 0,0 UV-I 18 W/m 14,7 C 12,0 C 19,3 km/h (3 Bft) 100,00 %
29.06.2018 08:06 15,2 C 19,4 C 97 % 1012,5 hPa 0,0 l/m 13,5 km/h (3 Bft) SW 227 0 min 0,000 mm 0,0 UV-I 18 W/m 14,7 C 11,9 C 20,9 km/h (4 Bft) 100,00 %
29.06.2018 08:07 15,2 C 19,4 C 97 % 1012,5 hPa 0,0 l/m 10,9 km/h (2 Bft) W-SW 238 0 min 0,000 mm 0,0 UV-I 19 W/m 14,7 C 12,9 C 17,7 km/h (3 Bft) 100,00 %
29.06.2018 08:08 15,2 C 19,4 C 97 % 1012,5 hPa 0,0 l/m 13,1 km/h (3 Bft) W 267 0 min 0,000 mm 0,0 UV-I 19 W/m 14,7 C 12,1 C 17,7 km/h (3 Bft) 100,00 %
29.06.2018 08:09 15,2 C 19,4 C 97 % 1012,5 hPa 0,0 l/m 13,8 km/h (3 Bft) W 266 0 min 0,000 mm 0,0 UV-I 19 W/m 14,7 C 11,8 C 17,7 km/h (3 Bft) 100,00 %
29.06.2018 08:10 15,2 C 19,4 C 97 % 1012,5 hPa 0,0 l/m 10,1 km/h (2 Bft) W 270 0 min 0,000 mm 0,0 UV-I 19 W/m 14,7 C 13,3 C 12,9 km/h (3 Bft) 100,00 %
29.06.2018 08:11 15,2 C 19,4 C 97 % 1012,5 hPa 0,0 l/m 8,4 km/h (2 Bft) W 277 0 min 0,000 mm 0,0 UV-I 18 W/m 14,7 C 14,1 C 14,5 km/h (3 Bft) 100,00 %
29.06.2018 08:12 15,1 C 19,4 C 97 % 1012,5 hPa 0,0 l/m 12,5 km/h (3 Bft) W-SW 245 0 min 0,000 mm 0,0 UV-I 17 W/m 14,6 C 12,2 C 19,3 km/h (3 Bft) 100,00 %
29.06.2018 08:13 15,2 C 19,4 C 97 % 1012,5 hPa 0,0 l/m 11,7 km/h (2 Bft) W-SW 241 0 min 0,000 mm 0,0 UV-I 16 W/m 14,7 C 12,6 C 16,1 km/h (3 Bft) 100,00 %
29.06.2018 08:14 15,2 C 19,4 C 97 % 1012,5 hPa 0,0 l/m 13,9 km/h (3 Bft) W 271 0 min 0,000 mm 0,0 UV-I 14 W/m 14,7 C 11,8 C 19,3 km/h (3 Bft) 100,00 %
29.06.2018 08:15 15,2 C 19,4 C 97 % 1012,5 hPa 0,0 l/m 8,8 km/h (2 Bft) SW 217 0 min 0,000 mm 0,0 UV-I 12 W/m 14,7 C 13,9 C 12,9 km/h (3 Bft) 100,00 %
29.06.2018 08:16 15,2 C 19,4 C 97 % 1012,6 hPa 0,0 l/m 13,1 km/h (3 Bft) W 272 0 min 0,000 mm 0,0 UV-I 12 W/m 14,7 C 12,1 C 16,1 km/h (3 Bft) 100,00 %
29.06.2018 08:17 15,2 C 19,4 C 97 % 1012,6 hPa 0,0 l/m 9,7 km/h (2 Bft) W 261 0 min 0,000 mm 0,0 UV-I 13 W/m 14,7 C 13,5 C 11,3 km/h (2 Bft) 100,00 %
29.06.2018 08:18 15,2 C 19,4 C 97 % 1012,6 hPa 0,0 l/m 6,4 km/h (2 Bft) W-SW 252 0 min 0,000 mm 0,0 UV-I 14 W/m 14,7 C 15,2 C 11,3 km/h (2 Bft) 100,00 %
29.06.2018 08:19 15,2 C 19,4 C 97 % 1012,6 hPa 0,0 l/m 10,3 km/h (2 Bft) W 261 0 min 0,000 mm 0,0 UV-I 14 W/m 14,7 C 13,2 C 16,1 km/h (3 Bft) 100,00 %
29.06.2018 08:20 15,2 C 19,4 C 97 % 1012,6 hPa 0,0 l/m 8,4 km/h (2 Bft) S-SW 200 0 min 0,000 mm 0,0 UV-I 14 W/m 14,7 C 14,1 C 12,9 km/h (3 Bft) 100,00 %
29.06.2018 08:21 15,2 C 19,4 C 97 % 1012,6 hPa 0,0 l/m 9,7 km/h (2 Bft) W-SW 240 0 min 0,000 mm 0,0 UV-I 14 W/m 14,7 C 13,5 C 14,5 km/h (3 Bft) 100,00 %
29.06.2018 08:22 15,2 C 19,4 C 97 % 1012,6 hPa 0,0 l/m 6,8 km/h (2 Bft) W-SW 248 0 min 0,000 mm 0,0 UV-I 14 W/m 14,7 C 15,0 C 12,9 km/h (3 Bft) 100,00 %
29.06.2018 08:23 15,2 C 19,4 C 97 % 1012,6 hPa 0,0 l/m 8,0 km/h (2 Bft) W 269 0 min 0,000 mm 0,0 UV-I 14 W/m 14,7 C 14,3 C 11,3 km/h (2 Bft) 96,15 %
29.06.2018 08:24 15,2 C 19,4 C 97 % 1012,6 hPa 0,0 l/m 11,4 km/h (2 Bft) W-SW 254 0 min 0,000 mm 0,0 UV-I 14 W/m 14,7 C 12,7 C 20,9 km/h (4 Bft) 100,00 %
29.06.2018 08:25 15,2 C 19,4 C 97 % 1012,6 hPa 0,0 l/m 15,4 km/h (3 Bft) W 273 0 min 0,000 mm 0,0 UV-I 14 W/m 14,7 C 11,3 C 19,3 km/h (3 Bft) 100,00 %
29.06.2018 08:26 15,2 C 19,4 C 97 % 1012,6 hPa 0,2 l/m 10,9 km/h (2 Bft) W 271 0 min 0,000 mm 0,0 UV-I 14 W/m 14,7 C 12,9 C 16,1 km/h (3 Bft) 100,00 %
29.06.2018 08:27 15,2 C 19,4 C 97 % 1012,6 hPa 0,0 l/m 12,3 km/h (3 Bft) W 273 0 min 0,000 mm 0,0 UV-I 14 W/m 14,7 C 12,4 C 16,1 km/h (3 Bft) 100,00 %
29.06.2018 08:28 15,2 C 19,4 C 97 % 1012,6 hPa 0,0 l/m 12,1 km/h (2 Bft) W 265 0 min 0,000 mm 0,0 UV-I 16 W/m 14,7 C 12,5 C 16,1 km/h (3 Bft) 100,00 %
29.06.2018 08:29 15,2 C 19,4 C 97 % 1012,6 hPa 0,0 l/m 7,8 km/h (2 Bft) W-NW 290 0 min 0,000 mm 0,0 UV-I 16 W/m 14,7 C 14,4 C 11,3 km/h (2 Bft) 100,00 %
29.06.2018 08:30 15,2 C 19,4 C 97 % 1012,7 hPa 0,0 l/m 8,4 km/h (2 Bft) W 263 0 min 0,000 mm 0,0 UV-I 17 W/m 14,7 C 14,1 C 12,9 km/h (3 Bft) 100,00 %
29.06.2018 08:31 15,2 C 19,4 C 97 % 1012,7 hPa 0,0 l/m 6,9 km/h (2 Bft) W-SW 252 0 min 0,000 mm 0,0 UV-I 18 W/m 14,7 C 14,9 C 12,9 km/h (3 Bft) 100,00 %
29.06.2018 08:32 15,2 C 19,4 C 97 % 1012,7 hPa 0,0 l/m 11,9 km/h (2 Bft) W 261 0 min 0,000 mm 0,0 UV-I 18 W/m 14,7 C 12,5 C 16,1 km/h (3 Bft) 100,00 %
29.06.2018 08:33 15,2 C 19,4 C 97 % 1012,7 hPa 0,0 l/m 6,9 km/h (2 Bft) W 267 0 min 0,000 mm 0,0 UV-I 19 W/m 14,7 C 14,9 C 11,3 km/h (2 Bft) 100,00 %
29.06.2018 08:34 15,2 C 19,4 C 97 % 1012,7 hPa 0,0 l/m 7,0 km/h (2 Bft) W-NW 284 0 min 0,000 mm 0,0 UV-I 19 W/m 14,7 C 14,9 C 12,9 km/h (3 Bft) 100,00 %
29.06.2018 08:35 15,2 C 19,4 C 97 % 1012,7 hPa 0,0 l/m 10,3 km/h (2 Bft) W 269 0 min 0,000 mm 0,0 UV-I 20 W/m 14,7 C 13,2 C 16,1 km/h (3 Bft) 100,00 %
29.06.2018 08:36 15,2 C 19,4 C 97 % 1012,7 hPa 0,0 l/m 8,4 km/h (2 Bft) W 263 0 min 0,000 mm 0,0 UV-I 21 W/m 14,7 C 14,1 C 12,9 km/h (3 Bft) 100,00 %
29.06.2018 08:37 15,2 C 19,4 C 97 % 1012,7 hPa 0,0 l/m 9,4 km/h (2 Bft) W-SW 245 0 min 0,000 mm 0,0 UV-I 19 W/m 14,7 C 13,6 C 11,3 km/h (2 Bft) 100,00 %
29.06.2018 08:38 15,2 C 19,4 C 97 % 1012,7 hPa 0,0 l/m 6,0 km/h (2 Bft) W 265 0 min 0,000 mm 0,0 UV-I 19 W/m 14,7 C 15,2 C 9,7 km/h (2 Bft) 100,00 %
29.06.2018 08:39 15,2 C 19,4 C 97 % 1012,7 hPa 0,2 l/m 5,5 km/h (1 Bft) W 279 0 min 0,000 mm 0,0 UV-I 18 W/m 14,7 C 15,2 C 6,4 km/h (2 Bft) 100,00 %
29.06.2018 08:40 15,2 C 19,4 C 97 % 1012,7 hPa 0,0 l/m 3,9 km/h (1 Bft) W-SW 249 0 min 0,000 mm 0,0 UV-I 15 W/m 14,7 C 15,2 C 6,4 km/h (2 Bft) 100,00 %
29.06.2018 08:41 15,2 C 19,4 C 97 % 1012,7 hPa 0,0 l/m 11,0 km/h (2 Bft) W 259 0 min 0,000 mm 0,0 UV-I 14 W/m 14,7 C 12,9 C 16,1 km/h (3 Bft) 100,00 %
29.06.2018 08:42 15,2 C 19,4 C 97 % 1012,8 hPa 0,0 l/m 8,9 km/h (2 Bft) W-SW 257 0 min 0,000 mm 0,0 UV-I 13 W/m 14,7 C 13,9 C 12,9 km/h (3 Bft) 92,59 %
29.06.2018 08:43 15,2 C 19,4 C 97 % 1012,8 hPa 0,2 l/m 5,4 km/h (1 Bft) W-NW 289 0 min 0,000 mm 0,0 UV-I 12 W/m 14,7 C 15,2 C 11,3 km/h (2 Bft) 95,65 %
29.06.2018 08:44 15,2 C 19,4 C 97 % 1012,8 hPa 0,0 l/m 5,2 km/h (1 Bft) W 273 0 min 0,000 mm 0,0 UV-I 11 W/m 14,7 C 15,2 C 9,7 km/h (2 Bft) 100,00 %
29.06.2018 08:45 15,2 C 19,4 C 97 % 1012,8 hPa 0,0 l/m 3,4 km/h (1 Bft) W 265 0 min 0,000 mm 0,0 UV-I 11 W/m 14,7 C 15,2 C 4,8 km/h (1 Bft) 100,00 %
29.06.2018 08:46 15,1 C 19,4 C 97 % 1012,7 hPa 0,0 l/m 5,1 km/h (1 Bft) W-SW 258 0 min 0,000 mm 0,0 UV-I 11 W/m 14,6 C 15,1 C 8,0 km/h (2 Bft) 95,65 %
29.06.2018 08:47 15,2 C 19,4 C 97 % 1012,7 hPa 0,0 l/m 5,4 km/h (1 Bft) W 264 0 min 0,000 mm 0,0 UV-I 11 W/m 14,7 C 15,2 C 9,7 km/h (2 Bft) 95,83 %
29.06.2018 08:48 15,2 C 19,4 C 97 % 1012,7 hPa 0,0 l/m 6,6 km/h (2 Bft) W-NW 294 0 min 0,000 mm 0,0 UV-I 12 W/m 14,7 C 15,1 C 12,9 km/h (3 Bft) 100,00 %
29.06.2018 08:49 15,2 C 19,4 C 97 % 1012,7 hPa 0,0 l/m 7,0 km/h (2 Bft) SW 232 0 min 0,000 mm 0,0 UV-I 12 W/m 14,7 C 14,9 C 11,3 km/h (2 Bft) 100,00 %
29.06.2018 08:50 15,2 C 19,4 C 97 % 1012,7 hPa 0,0 l/m 7,4 km/h (2 Bft) W 259 0 min 0,000 mm 0,0 UV-I 12 W/m 14,7 C 14,6 C 11,3 km/h (2 Bft) 100,00 %
29.06.2018 08:51 15,2 C 19,4 C 97 % 1012,7 hPa 0,0 l/m 7,3 km/h (2 Bft) W-SW 248 0 min 0,000 mm 0,0 UV-I 13 W/m 14,7 C 14,7 C 12,9 km/h (3 Bft) 95,83 %
29.06.2018 08:52 15,2 C 19,4 C 97 % 1012,7 hPa 0,0 l/m 6,6 km/h (2 Bft) W 268 0 min 0,000 mm 0,0 UV-I 14 W/m 14,7 C 15,1 C 9,7 km/h (2 Bft) 95,65 %
29.06.2018 08:53 15,2 C 19,4 C 97 % 1012,7 hPa 0,0 l/m 10,2 km/h (2 Bft) W-SW 239 0 min 0,000 mm 0,0 UV-I 15 W/m 14,7 C 13,2 C 14,5 km/h (3 Bft) 100,00 %
29.06.2018 08:54 15,2 C 19,4 C 97 % 1012,8 hPa 0,0 l/m 7,8 km/h (2 Bft) W-SW 254 0 min 0,000 mm 0,0 UV-I 17 W/m 14,7 C 14,4 C 11,3 km/h (2 Bft) 100,00 %
29.06.2018 08:55 15,2 C 19,4 C 97 % 1012,8 hPa 0,0 l/m 6,7 km/h (2 Bft) W-SW 238 0 min 0,000 mm 0,0 UV-I 19 W/m 14,7 C 15,0 C 11,3 km/h (2 Bft) 100,00 %
29.06.2018 08:56 15,2 C 19,4 C 97 % 1012,8 hPa 0,0 l/m 9,0 km/h (2 Bft) W-SW 250 0 min 0,000 mm 0,0 UV-I 23 W/m 14,7 C 13,8 C 12,9 km/h (3 Bft) 100,00 %
29.06.2018 08:57 15,2 C 19,4 C 97 % 1012,7 hPa 0,0 l/m 7,8 km/h (2 Bft) W-SW 239 0 min 0,000 mm 0,0 UV-I 27 W/m 14,7 C 14,4 C 12,9 km/h (3 Bft) 100,00 %
29.06.2018 08:58 15,2 C 19,4 C 97 % 1012,8 hPa 0,0 l/m 11,6 km/h (2 Bft) W-SW 257 0 min 0,000 mm 0,0 UV-I 28 W/m 14,7 C 12,7 C 16,1 km/h (3 Bft) 100,00 %
29.06.2018 08:59 15,2 C 19,4 C 97 % 1012,7 hPa 0,0 l/m 11,9 km/h (2 Bft) SW 227 0 min 0,000 mm 0,0 UV-I 29 W/m 14,7 C 12,5 C 17,7 km/h (3 Bft) 93,33 %
29.06.2018 09:00 15,2 C 19,4 C 97 % 1012,7 hPa 0,0 l/m 12,8 km/h (3 Bft) W 269 0 min 0,000 mm 0,0 UV-I 31 W/m 14,7 C 12,2 C 16,1 km/h (3 Bft) 100,00 %
29.06.2018 09:02 15,2 C 19,4 C 97 % 1012,7 hPa 0,0 l/m 10,0 km/h (2 Bft) SW 228 0 min 0,000 mm 0,0 UV-I 31 W/m 14,7 C 13,3 C 14,5 km/h (3 Bft) 97,87 %
29.06.2018 09:03 15,2 C 19,4 C 97 % 1012,7 hPa 0,0 l/m 10,6 km/h (2 Bft) W-SW 240 0 min 0,000 mm 0,0 UV-I 24 W/m 14,7 C 13,1 C 14,5 km/h (3 Bft) 92,31 %
29.06.2018 09:04 15,2 C 19,4 C 97 % 1012,7 hPa 0,0 l/m 7,5 km/h (2 Bft) W-SW 244 0 min 0,000 mm 0,0 UV-I 21 W/m 14,7 C 14,6 C 11,3 km/h (2 Bft) 100,00 %
29.06.2018 09:05 15,2 C 19,4 C 97 % 1012,7 hPa 0,0 l/m 11,6 km/h (2 Bft) W-SW 242 0 min 0,000 mm 0,0 UV-I 21 W/m 14,7 C 12,7 C 19,3 km/h (3 Bft) 96,15 %
29.06.2018 09:06 15,2 C 19,4 C 97 % 1012,7 hPa 0,0 l/m 12,8 km/h (3 Bft) W-SW 256 0 min 0,000 mm 0,0 UV-I 21 W/m 14,7 C 12,2 C 17,7 km/h (3 Bft) 95,83 %
29.06.2018 09:07 15,2 C 19,4 C 97 % 1012,8 hPa 0,0 l/m 10,7 km/h (2 Bft) W-SW 246 0 min 0,000 mm 0,0 UV-I 23 W/m 14,7 C 13,0 C 17,7 km/h (3 Bft) 100,00 %
29.06.2018 09:08 15,2 C 19,4 C 97 % 1012,8 hPa 0,0 l/m 12,1 km/h (2 Bft) W-SW 253 0 min 0,000 mm 0,0 UV-I 23 W/m 14,7 C 12,5 C 16,1 km/h (3 Bft) 95,83 %
29.06.2018 09:09 15,2 C 19,4 C 97 % 1012,8 hPa 0,0 l/m 14,6 km/h (3 Bft) W-SW 248 0 min 0,000 mm 0,0 UV-I 25 W/m 14,7 C 11,6 C 19,3 km/h (3 Bft) 100,00 %
29.06.2018 09:10 15,2 C 19,4 C 97 % 1012,8 hPa 0,0 l/m 11,1 km/h (2 Bft) W-SW 238 0 min 0,000 mm 0,0 UV-I 28 W/m 14,7 C 12,9 C 14,5 km/h (3 Bft) 95,83 %
29.06.2018 09:11 15,2 C 19,4 C 97 % 1012,8 hPa 0,0 l/m 10,7 km/h (2 Bft) SW 228 0 min 0,000 mm 0,0 UV-I 32 W/m 14,7 C 13,0 C 14,5 km/h (3 Bft) 95,65 %
29.06.2018 09:12 15,2 C 19,4 C 97 % 1012,7 hPa 0,0 l/m 10,0 km/h (2 Bft) W-SW 258 0 min 0,000 mm 0,0 UV-I 34 W/m 14,7 C 13,3 C 17,7 km/h (3 Bft) 95,83 %
29.06.2018 09:13 15,2 C 19,4 C 97 % 1012,7 hPa 0,0 l/m 10,8 km/h (2 Bft) W-SW 248 0 min 0,000 mm 0,0 UV-I 37 W/m 14,7 C 13,0 C 14,5 km/h (3 Bft) 95,65 %
29.06.2018 09:14 15,2 C 19,4 C 97 % 1012,7 hPa 0,0 l/m 12,9 km/h (3 Bft) W-SW 244 0 min 0,000 mm 0,0 UV-I 35 W/m 14,7 C 12,2 C 17,7 km/h (3 Bft) 95,83 %
29.06.2018 09:15 15,3 C 19,4 C 97 % 1012,7 hPa 0,0 l/m 10,5 km/h (2 Bft) W-SW 243 0 min 0,000 mm 0,0 UV-I 34 W/m 14,8 C 13,2 C 16,1 km/h (3 Bft) 91,30 %
29.06.2018 09:16 15,3 C 19,4 C 97 % 1012,7 hPa 0,0 l/m 10,6 km/h (2 Bft) W 265 0 min 0,000 mm 0,0 UV-I 36 W/m 14,8 C 13,2 C 16,1 km/h (3 Bft) 95,83 %
29.06.2018 09:17 15,3 C 19,4 C 97 % 1012,7 hPa 0,0 l/m 11,2 km/h (2 Bft) SW 229 0 min 0,000 mm 0,0 UV-I 34 W/m 14,8 C 12,9 C 16,1 km/h (3 Bft) 95,65 %
29.06.2018 09:18 15,3 C 19,4 C 97 % 1012,8 hPa 0,0 l/m 10,2 km/h (2 Bft) W-SW 239 0 min 0,000 mm 0,0 UV-I 32 W/m 14,8 C 13,4 C 12,9 km/h (3 Bft) 95,83 %
29.06.2018 09:19 15,3 C 19,4 C 97 % 1012,8 hPa 0,0 l/m 9,9 km/h (2 Bft) W-SW 246 0 min 0,000 mm 0,0 UV-I 30 W/m 14,8 C 13,5 C 12,9 km/h (3 Bft) 95,65 %
29.06.2018 09:20 15,3 C 19,4 C 98 % 1012,8 hPa 0,0 l/m 10,5 km/h (2 Bft) SW 228 0 min 0,000 mm 0,0 UV-I 36 W/m 15,0 C 13,2 C 14,5 km/h (3 Bft) 95,83 %
29.06.2018 09:21 15,3 C 19,4 C 98 % 1012,8 hPa 0,0 l/m 11,1 km/h (2 Bft) W-SW 252 0 min 0,000 mm 0,0 UV-I 42 W/m 15,0 C 13,0 C 17,7 km/h (3 Bft) 91,67 %
29.06.2018 09:22 15,3 C 19,4 C 98 % 1012,8 hPa 0,0 l/m 8,7 km/h (2 Bft) W-SW 238 0 min 0,000 mm 0,0 UV-I 48 W/m 15,0 C 14,1 C 14,5 km/h (3 Bft) 96,15 %
29.06.2018 09:23 15,3 C 19,4 C 98 % 1012,8 hPa 0,0 l/m 12,3 km/h (3 Bft) SW 236 0 min 0,000 mm 0,0 UV-I 58 W/m 15,0 C 12,5 C 14,5 km/h (3 Bft) 95,83 %
29.06.2018 09:24 15,3 C 19,4 C 98 % 1012,7 hPa 0,0 l/m 11,3 km/h (2 Bft) SW 231 0 min 0,000 mm 0,0 UV-I 64 W/m 15,0 C 12,9 C 19,3 km/h (3 Bft) 95,65 %
29.06.2018 09:25 15,3 C 19,4 C 98 % 1012,8 hPa 0,0 l/m 15,4 km/h (3 Bft) SW 235 0 min 0,000 mm 0,0 UV-I 66 W/m 15,0 C 11,4 C 19,3 km/h (3 Bft) 91,67 %
29.06.2018 09:26 15,3 C 19,4 C 98 % 1012,8 hPa 0,0 l/m 14,5 km/h (3 Bft) W-SW 244 0 min 0,000 mm 0,0 UV-I 71 W/m 15,0 C 11,7 C 17,7 km/h (3 Bft) 95,65 %
29.06.2018 09:27 15,3 C 19,4 C 98 % 1012,8 hPa 0,0 l/m 12,2 km/h (2 Bft) SW 233 0 min 0,000 mm 0,5 UV-I 78 W/m 15,0 C 12,5 C 16,1 km/h (3 Bft) 91,67 %
29.06.2018 09:28 15,3 C 19,4 C 98 % 1012,8 hPa 0,0 l/m 13,6 km/h (3 Bft) W-SW 254 0 min 0,000 mm 0,3 UV-I 76 W/m 15,0 C 12,0 C 19,3 km/h (3 Bft) 100,00 %
29.06.2018 09:29 15,4 C 19,4 C 98 % 1012,8 hPa 0,0 l/m 13,5 km/h (3 Bft) W-SW 240 0 min 0,000 mm 0,2 UV-I 76 W/m 15,1 C 12,2 C 17,7 km/h (3 Bft) 91,67 %
29.06.2018 09:30 15,4 C 19,4 C 98 % 1012,7 hPa 0,0 l/m 16,8 km/h (3 Bft) W-SW 238 0 min 0,000 mm 0,5 UV-I 84 W/m 15,1 C 11,1 C 19,3 km/h (3 Bft) 95,65 %
29.06.2018 09:31 15,4 C 19,4 C 98 % 1012,8 hPa 0,0 l/m 12,8 km/h (3 Bft) SW 232 0 min 0,000 mm 0,5 UV-I 81 W/m 15,1 C 12,4 C 17,7 km/h (3 Bft) 95,83 %
29.06.2018 09:32 15,4 C 19,4 C 98 % 1012,8 hPa 0,0 l/m 14,0 km/h (3 Bft) W-SW 258 0 min 0,000 mm 0,5 UV-I 83 W/m 15,1 C 12,0 C 17,7 km/h (3 Bft) 95,65 %
29.06.2018 09:33 15,4 C 19,4 C 98 % 1012,8 hPa 0,0 l/m 12,6 km/h (3 Bft) W-SW 250 0 min 0,000 mm 0,5 UV-I 83 W/m 15,1 C 12,5 C 16,1 km/h (3 Bft) 91,67 %
29.06.2018 09:34 15,4 C 19,4 C 98 % 1012,8 hPa 0,0 l/m 13,4 km/h (3 Bft) SW 235 0 min 0,000 mm 0,5 UV-I 82 W/m 15,1 C 12,2 C 19,3 km/h (3 Bft) 92,11 %
29.06.2018 09:35 15,4 C 19,4 C 98 % 1012,8 hPa 0,0 l/m 11,5 km/h (2 Bft) W-SW 255 0 min 0,000 mm 0,5 UV-I 84 W/m 15,1 C 12,9 C 20,9 km/h (4 Bft) 100,00 %
29.06.2018 09:36 15,4 C 19,4 C 98 % 1012,8 hPa 0,0 l/m 14,6 km/h (3 Bft) SW 228 0 min 0,000 mm 0,5 UV-I 82 W/m 15,1 C 11,8 C 20,9 km/h (4 Bft) 91,30 %
29.06.2018 09:37 15,4 C 19,4 C 98 % 1012,8 hPa 0,0 l/m 11,5 km/h (2 Bft) W-SW 248 0 min 0,000 mm 0,5 UV-I 78 W/m 15,1 C 12,9 C 19,3 km/h (3 Bft) 100,00 %
29.06.2018 09:38 15,4 C 19,4 C 98 % 1012,8 hPa 0,0 l/m 16,2 km/h (3 Bft) SW 225 0 min 0,000 mm 0,5 UV-I 81 W/m 15,1 C 11,3 C 20,9 km/h (4 Bft) 82,61 %
29.06.2018 09:39 15,4 C 19,4 C 98 % 1012,9 hPa 0,0 l/m 15,8 km/h (3 Bft) W-SW 245 0 min 0,000 mm 0,5 UV-I 82 W/m 15,1 C 11,4 C 20,9 km/h (4 Bft) 95,83 %
29.06.2018 09:40 15,4 C 19,4 C 98 % 1012,9 hPa 0,0 l/m 16,6 km/h (3 Bft) SW 232 0 min 0,000 mm 0,5 UV-I 86 W/m 15,1 C 11,2 C 20,9 km/h (4 Bft) 95,83 %
29.06.2018 09:41 15,4 C 19,4 C 98 % 1012,7 hPa 0,0 l/m 13,9 km/h (3 Bft) SW 224 0 min 0,000 mm 0,5 UV-I 84 W/m 15,1 C 12,0 C 24,1 km/h (4 Bft) 91,30 %
29.06.2018 09:42 15,4 C 19,4 C 98 % 1012,9 hPa 0,0 l/m 10,9 km/h (2 Bft) SW 227 0 min 0,000 mm 0,5 UV-I 75 W/m 15,1 C 13,2 C 14,5 km/h (3 Bft) 96,30 %
29.06.2018 09:43 15,4 C 19,4 C 98 % 1012,8 hPa 0,0 l/m 13,3 km/h (3 Bft) W-SW 240 0 min 0,000 mm 0,5 UV-I 75 W/m 15,1 C 12,3 C 17,7 km/h (3 Bft) 91,30 %
29.06.2018 09:44 15,4 C 19,4 C 98 % 1012,8 hPa 0,0 l/m 12,6 km/h (3 Bft) W-SW 239 0 min 0,000 mm 0,5 UV-I 80 W/m 15,1 C 12,5 C 20,9 km/h (4 Bft) 100,00 %
29.06.2018 09:45 15,4 C 19,4 C 98 % 1012,8 hPa 0,0 l/m 15,8 km/h (3 Bft) W-SW 246 0 min 0,000 mm 0,5 UV-I 80 W/m 15,1 C 11,4 C 19,3 km/h (3 Bft) 95,65 %
29.06.2018 09:46 15,4 C 19,4 C 97 % 1012,9 hPa 0,0 l/m 15,6 km/h (3 Bft) W-SW 248 0 min 0,000 mm 0,5 UV-I 78 W/m 14,9 C 11,5 C 20,9 km/h (4 Bft) 95,83 %
29.06.2018 09:47 15,4 C 19,4 C 97 % 1012,9 hPa 0,0 l/m 11,8 km/h (2 Bft) W 265 0 min 0,000 mm 0,2 UV-I 72 W/m 14,9 C 12,8 C 19,3 km/h (3 Bft) 95,65 %
29.06.2018 09:48 15,4 C 19,4 C 97 % 1012,8 hPa 0,0 l/m 10,3 km/h (2 Bft) W 268 0 min 0,000 mm 0,0 UV-I 59 W/m 14,9 C 13,4 C 12,9 km/h (3 Bft) 95,83 %
29.06.2018 09:49 15,5 C 19,4 C 97 % 1012,9 hPa 0,0 l/m 9,8 km/h (2 Bft) SW 235 0 min 0,000 mm 0,0 UV-I 56 W/m 15,0 C 13,8 C 14,5 km/h (3 Bft) 95,65 %
29.06.2018 09:50 15,5 C 19,4 C 97 % 1012,9 hPa 0,0 l/m 13,7 km/h (3 Bft) W-SW 242 0 min 0,000 mm 0,0 UV-I 51 W/m 15,0 C 12,2 C 19,3 km/h (3 Bft) 95,83 %
29.06.2018 09:51 15,5 C 19,4 C 97 % 1012,9 hPa 0,0 l/m 10,4 km/h (2 Bft) W-SW 245 0 min 0,000 mm 0,0 UV-I 46 W/m 15,0 C 13,5 C 16,1 km/h (3 Bft) 100,00 %
29.06.2018 09:52 15,5 C 19,4 C 97 % 1012,9 hPa 0,0 l/m 11,5 km/h (2 Bft) W-SW 237 0 min 0,000 mm 0,0 UV-I 45 W/m 15,0 C 13,0 C 14,5 km/h (3 Bft) 100,00 %
29.06.2018 09:53 15,5 C 19,4 C 97 % 1012,9 hPa 0,0 l/m 8,9 km/h (2 Bft) W-SW 241 0 min 0,000 mm 0,0 UV-I 50 W/m 15,0 C 14,2 C 11,3 km/h (2 Bft) 96,30 %
29.06.2018 09:54 15,5 C 19,4 C 97 % 1012,9 hPa 0,0 l/m 10,4 km/h (2 Bft) W-SW 246 0 min 0,000 mm 0,0 UV-I 53 W/m 15,0 C 13,5 C 14,5 km/h (3 Bft) 95,83 %
29.06.2018 09:55 15,5 C 19,4 C 97 % 1012,9 hPa 0,0 l/m 7,8 km/h (2 Bft) SW 225 0 min 0,000 mm 0,0 UV-I 46 W/m 15,0 C 14,7 C 12,9 km/h (3 Bft) 100,00 %
29.06.2018 09:56 15,5 C 19,4 C 97 % 1012,9 hPa 0,0 l/m 11,9 km/h (2 Bft) SW 217 0 min 0,000 mm 0,0 UV-I 43 W/m 15,0 C 12,9 C 14,5 km/h (3 Bft) 95,83 %
29.06.2018 09:57 15,5 C 19,4 C 97 % 1012,9 hPa 0,0 l/m 13,5 km/h (3 Bft) W-SW 240 0 min 0,000 mm 0,0 UV-I 40 W/m 15,0 C 12,3 C 19,3 km/h (3 Bft) 100,00 %
29.06.2018 09:58 15,4 C 19,4 C 97 % 1013,0 hPa 0,0 l/m 14,8 km/h (3 Bft) W-SW 241 0 min 0,000 mm 0,0 UV-I 40 W/m 14,9 C 11,7 C 17,7 km/h (3 Bft) 95,65 %
29.06.2018 09:59 15,4 C 19,4 C 97 % 1012,9 hPa 0,0 l/m 11,3 km/h (2 Bft) SW 231 0 min 0,000 mm 0,0 UV-I 40 W/m 14,9 C 13,0 C 16,1 km/h (3 Bft) 100,00 %
29.06.2018 10:00 15,5 C 19,4 C 97 % 1012,9 hPa 0,0 l/m 10,5 km/h (2 Bft) SW 228 0 min 0,000 mm 0,0 UV-I 44 W/m 15,0 C 13,5 C 12,9 km/h (3 Bft) 96,15 %
29.06.2018 10:02 15,5 C 19,4 C 97 % 1012,9 hPa 0,0 l/m 11,1 km/h (2 Bft) W 274 0 min 0,025 mm 0,0 UV-I 47 W/m 15,0 C 13,2 C 19,3 km/h (3 Bft) 97,87 %
29.06.2018 10:03 15,5 C 19,4 C 97 % 1012,9 hPa 0,0 l/m 11,8 km/h (2 Bft) W-SW 249 0 min 0,000 mm 0,0 UV-I 49 W/m 15,0 C 12,9 C 14,5 km/h (3 Bft) 91,67 %
29.06.2018 10:04 15,4 C 19,4 C 97 % 1012,9 hPa 0,0 l/m 14,7 km/h (3 Bft) SW 234 0 min 0,000 mm 0,0 UV-I 49 W/m 14,9 C 11,8 C 20,9 km/h (4 Bft) 100,00 %
29.06.2018 10:05 15,4 C 19,4 C 97 % 1012,9 hPa 0,0 l/m 14,2 km/h (3 Bft) SW 217 0 min 0,000 mm 0,0 UV-I 52 W/m 14,9 C 11,9 C 20,9 km/h (4 Bft) 100,00 %
29.06.2018 10:06 15,4 C 19,4 C 97 % 1012,9 hPa 0,0 l/m 13,5 km/h (3 Bft) W-SW 243 0 min 0,000 mm 0,0 UV-I 62 W/m 14,9 C 12,2 C 20,9 km/h (4 Bft) 95,65 %
29.06.2018 10:07 15,4 C 19,4 C 97 % 1012,9 hPa 0,0 l/m 12,1 km/h (2 Bft) W-SW 249 0 min 0,000 mm 0,0 UV-I 68 W/m 14,9 C 12,7 C 17,7 km/h (3 Bft) 95,83 %
29.06.2018 10:08 15,4 C 19,4 C 97 % 1012,9 hPa 0,0 l/m 9,9 km/h (2 Bft) S-SW 212 0 min 0,000 mm 0,0 UV-I 68 W/m 14,9 C 13,6 C 12,9 km/h (3 Bft) 100,00 %
29.06.2018 10:09 15,5 C 19,4 C 97 % 1012,9 hPa 0,0 l/m 12,5 km/h (3 Bft) SW 231 0 min 0,000 mm 0,0 UV-I 66 W/m 15,0 C 12,7 C 17,7 km/h (3 Bft) 100,00 %
29.06.2018 10:10 15,5 C 19,4 C 97 % 1012,9 hPa 0,0 l/m 13,4 km/h (3 Bft) SW 235 0 min 0,000 mm 0,0 UV-I 65 W/m 15,0 C 12,3 C 19,3 km/h (3 Bft) 100,00 %
29.06.2018 10:11 15,5 C 19,4 C 97 % 1012,9 hPa 0,0 l/m 10,6 km/h (2 Bft) SW 224 0 min 0,000 mm 0,0 UV-I 61 W/m 15,0 C 13,4 C 14,5 km/h (3 Bft) 100,00 %
29.06.2018 10:12 15,4 C 19,4 C 97 % 1012,9 hPa 0,0 l/m 11,8 km/h (2 Bft) W-SW 252 0 min 0,000 mm 0,0 UV-I 53 W/m 14,9 C 12,8 C 16,1 km/h (3 Bft) 100,00 %
29.06.2018 10:13 15,5 C 19,4 C 97 % 1012,9 hPa 0,0 l/m 17,0 km/h (3 Bft) W-SW 240 0 min 0,000 mm 0,0 UV-I 50 W/m 15,0 C 11,2 C 22,5 km/h (4 Bft) 100,00 %
29.06.2018 10:14 15,4 C 19,4 C 97 % 1012,9 hPa 0,0 l/m 13,6 km/h (3 Bft) SW 227 0 min 0,000 mm 0,0 UV-I 55 W/m 14,9 C 12,1 C 19,3 km/h (3 Bft) 100,00 %
29.06.2018 10:15 15,4 C 19,4 C 97 % 1012,9 hPa 0,0 l/m 8,6 km/h (2 Bft) S-SW 200 0 min 0,000 mm 0,0 UV-I 59 W/m 14,9 C 14,2 C 12,9 km/h (3 Bft) 100,00 %
29.06.2018 10:16 15,5 C 19,4 C 97 % 1012,9 hPa 0,0 l/m 13,3 km/h (3 Bft) W-SW 243 0 min 0,000 mm 0,0 UV-I 59 W/m 15,0 C 12,4 C 19,3 km/h (3 Bft) 100,00 %
29.06.2018 10:17 15,5 C 19,4 C 97 % 1012,9 hPa 0,0 l/m 9,5 km/h (2 Bft) W-SW 240 0 min 0,000 mm 0,0 UV-I 58 W/m 15,0 C 13,9 C 14,5 km/h (3 Bft) 100,00 %
29.06.2018 10:18 15,5 C 19,4 C 97 % 1012,9 hPa 0,0 l/m 11,9 km/h (2 Bft) W-SW 238 0 min 0,000 mm 0,0 UV-I 54 W/m 15,0 C 12,9 C 14,5 km/h (3 Bft) 100,00 %
29.06.2018 10:19 15,5 C 19,4 C 97 % 1013,0 hPa 0,0 l/m 14,5 km/h (3 Bft) W 267 0 min 0,000 mm 0,0 UV-I 53 W/m 15,0 C 12,0 C 19,3 km/h (3 Bft) 100,00 %
29.06.2018 10:20 15,5 C 19,4 C 97 % 1013,0 hPa 0,0 l/m 12,0 km/h (2 Bft) W-SW 247 0 min 0,000 mm 0,0 UV-I 54 W/m 15,0 C 12,8 C 16,1 km/h (3 Bft) 95,83 %
29.06.2018 10:21 15,5 C 19,4 C 97 % 1013,0 hPa 0,0 l/m 13,8 km/h (3 Bft) SW 234 0 min 0,000 mm 0,0 UV-I 58 W/m 15,0 C 12,2 C 19,3 km/h (3 Bft) 100,00 %
29.06.2018 10:22 15,5 C 19,4 C 97 % 1013,0 hPa 0,0 l/m 15,4 km/h (3 Bft) SW 227 0 min 0,000 mm 0,0 UV-I 61 W/m 15,0 C 11,7 C 19,3 km/h (3 Bft) 100,00 %
29.06.2018 10:23 15,5 C 19,4 C 97 % 1013,0 hPa 0,0 l/m 14,3 km/h (3 Bft) W-SW 239 0 min 0,000 mm 0,0 UV-I 64 W/m 15,0 C 12,0 C 19,3 km/h (3 Bft) 100,00 %
29.06.2018 10:24 15,5 C 19,4 C 97 % 1013,0 hPa 0,0 l/m 13,8 km/h (3 Bft) W-SW 246 0 min 0,000 mm 0,0 UV-I 66 W/m 15,0 C 12,2 C 17,7 km/h (3 Bft) 100,00 %
29.06.2018 10:25 15,5 C 19,4 C 97 % 1013,0 hPa 0,0 l/m 15,4 km/h (3 Bft) W-SW 242 0 min 0,000 mm 0,5 UV-I 73 W/m 15,0 C 11,7 C 25,7 km/h (4 Bft) 95,65 %
29.06.2018 10:26 15,5 C 19,4 C 97 % 1013,0 hPa 0,0 l/m 14,8 km/h (3 Bft) SW 227 0 min 0,000 mm 0,5 UV-I 80 W/m 15,0 C 11,9 C 20,9 km/h (4 Bft) 100,00 %
29.06.2018 10:27 15,5 C 19,4 C 97 % 1013,0 hPa 0,0 l/m 13,6 km/h (3 Bft) SW 221 0 min 0,000 mm 0,6 UV-I 91 W/m 15,0 C 12,3 C 19,3 km/h (3 Bft) 100,00 %
29.06.2018 10:28 15,6 C 19,4 C 97 % 1013,0 hPa 0,0 l/m 15,0 km/h (3 Bft) W-SW 241 0 min 0,000 mm 0,7 UV-I 106 W/m 15,1 C 11,9 C 22,5 km/h (4 Bft) 100,00 %
29.06.2018 10:29 15,6 C 19,4 C 97 % 1013,0 hPa 0,0 l/m 14,6 km/h (3 Bft) SW 234 0 min 0,000 mm 0,8 UV-I 122 W/m 15,1 C 12,0 C 20,9 km/h (4 Bft) 100,00 %
29.06.2018 10:30 15,6 C 19,4 C 97 % 1013,0 hPa 0,0 l/m 15,3 km/h (3 Bft) W-SW 242 0 min 0,000 mm 0,9 UV-I 143 W/m 15,1 C 11,8 C 22,5 km/h (4 Bft) 100,00 %
29.06.2018 10:31 15,6 C 19,4 C 97 % 1013,0 hPa 0,0 l/m 13,1 km/h (3 Bft) W 262 0 min 0,000 mm 0,9 UV-I 140 W/m 15,1 C 12,6 C 17,7 km/h (3 Bft) 92,86 %
29.06.2018 10:32 15,6 C 19,4 C 97 % 1013,0 hPa 0,0 l/m 12,7 km/h (3 Bft) S-SW 211 0 min 0,000 mm 0,9 UV-I 140 W/m 15,1 C 12,7 C 16,1 km/h (3 Bft) 100,00 %
29.06.2018 10:33 15,7 C 19,4 C 97 % 1012,9 hPa 0,0 l/m 13,4 km/h (3 Bft) S-SW 213 0 min 0,000 mm 1,0 UV-I 146 W/m 15,2 C 12,6 C 17,7 km/h (3 Bft) 96,15 %
29.06.2018 10:34 15,7 C 19,4 C 97 % 1013,0 hPa 0,0 l/m 15,2 km/h (3 Bft) W-SW 247 0 min 0,000 mm 0,9 UV-I 132 W/m 15,2 C 12,0 C 20,9 km/h (4 Bft) 100,00 %
29.06.2018 10:35 15,7 C 19,4 C 97 % 1013,0 hPa 0,0 l/m 12,7 km/h (3 Bft) SW 236 0 min 0,000 mm 0,9 UV-I 125 W/m 15,2 C 12,8 C 17,7 km/h (3 Bft) 100,00 %
29.06.2018 10:36 15,7 C 19,4 C 97 % 1013,0 hPa 0,0 l/m 12,5 km/h (3 Bft) SW 228 0 min 0,000 mm 0,8 UV-I 121 W/m 15,2 C 12,9 C 17,7 km/h (3 Bft) 100,00 %
29.06.2018 10:37 15,7 C 19,4 C 97 % 1013,0 hPa 0,0 l/m 11,2 km/h (2 Bft) SW 228 0 min 0,000 mm 0,8 UV-I 122 W/m 15,2 C 13,4 C 16,1 km/h (3 Bft) 100,00 %
29.06.2018 10:38 15,7 C 19,4 C 97 % 1013,0 hPa 0,0 l/m 13,1 km/h (3 Bft) SW 228 0 min 0,000 mm 0,9 UV-I 125 W/m 15,2 C 12,7 C 17,7 km/h (3 Bft) 100,00 %
29.06.2018 10:39 15,7 C 19,4 C 97 % 1013,0 hPa 0,0 l/m 12,3 km/h (3 Bft) SW 215 0 min 0,000 mm 0,9 UV-I 122 W/m 15,2 C 13,0 C 19,3 km/h (3 Bft) 100,00 %
29.06.2018 10:40 15,7 C 19,4 C 97 % 1013,0 hPa 0,0 l/m 14,9 km/h (3 Bft) W-SW 246 0 min 0,000 mm 0,9 UV-I 121 W/m 15,2 C 12,1 C 17,7 km/h (3 Bft) 95,65 %
29.06.2018 10:41 15,7 C 19,4 C 97 % 1013,0 hPa 0,0 l/m 10,8 km/h (2 Bft) SW 228 0 min 0,000 mm 0,9 UV-I 125 W/m 15,2 C 13,6 C 16,1 km/h (3 Bft) 95,83 %
29.06.2018 10:42 15,7 C 19,4 C 97 % 1013,0 hPa 0,0 l/m 10,3 km/h (2 Bft) W-SW 247 0 min 0,000 mm 0,9 UV-I 126 W/m 15,2 C 13,8 C 14,5 km/h (3 Bft) 100,00 %
29.06.2018 10:43 15,7 C 19,4 C 97 % 1013,0 hPa 0,0 l/m 9,6 km/h (2 Bft) SW 234 0 min 0,000 mm 1,0 UV-I 135 W/m 15,2 C 14,1 C 14,5 km/h (3 Bft) 100,00 %
29.06.2018 10:44 15,7 C 19,4 C 97 % 1013,0 hPa 0,0 l/m 10,7 km/h (2 Bft) SW 215 0 min 0,000 mm 1,1 UV-I 150 W/m 15,2 C 13,6 C 17,7 km/h (3 Bft) 95,65 %
29.06.2018 10:45 15,8 C 19,4 C 97 % 1013,0 hPa 0,0 l/m 12,7 km/h (3 Bft) SW 221 0 min 0,000 mm 1,2 UV-I 158 W/m 15,3 C 12,9 C 19,3 km/h (3 Bft) 100,00 %
29.06.2018 10:46 15,7 C 19,4 C 97 % 1013,0 hPa 0,0 l/m 13,2 km/h (3 Bft) W-SW 249 0 min 0,000 mm 1,2 UV-I 173 W/m 15,2 C 12,6 C 19,3 km/h (3 Bft) 95,65 %
29.06.2018 10:47 15,8 C 19,4 C 97 % 1013,0 hPa 0,0 l/m 12,2 km/h (2 Bft) SW 217 0 min 0,000 mm 1,5 UV-I 202 W/m 15,3 C 13,1 C 19,3 km/h (3 Bft) 100,00 %
29.06.2018 10:48 15,8 C 19,4 C 97 % 1013,0 hPa 0,0 l/m 10,9 km/h (2 Bft) W-NW 301 0 min 0,000 mm 1,6 UV-I 219 W/m 15,3 C 13,6 C 16,1 km/h (3 Bft) 100,00 %
29.06.2018 10:49 15,8 C 19,4 C 97 % 1013,0 hPa 0,0 l/m 11,4 km/h (2 Bft) SW 223 0 min 0,000 mm 1,6 UV-I 221 W/m 15,3 C 13,4 C 16,1 km/h (3 Bft) 100,00 %
29.06.2018 10:50 15,8 C 19,4 C 97 % 1013,0 hPa 0,0 l/m 15,9 km/h (3 Bft) W-SW 250 0 min 0,000 mm 1,6 UV-I 229 W/m 15,3 C 11,9 C 22,5 km/h (4 Bft) 100,00 %
29.06.2018 10:51 15,9 C 19,4 C 97 % 1012,9 hPa 0,0 l/m 13,7 km/h (3 Bft) SW 217 0 min 0,000 mm 1,7 UV-I 249 W/m 15,4 C 12,7 C 19,3 km/h (3 Bft) 100,00 %
29.06.2018 10:52 15,9 C 19,4 C 97 % 1013,0 hPa 0,0 l/m 10,0 km/h (2 Bft) SW 229 0 min 0,000 mm 1,9 UV-I 268 W/m 15,4 C 14,1 C 17,7 km/h (3 Bft) 100,00 %
29.06.2018 10:53 16,0 C 19,4 C 97 % 1013,0 hPa 0,0 l/m 18,0 km/h (3 Bft) W-SW 249 0 min 0,000 mm 2,1 UV-I 309 W/m 15,5 C 11,5 C 20,9 km/h (4 Bft) 100,00 %
29.06.2018 10:54 16,0 C 19,4 C 97 % 1012,9 hPa 0,0 l/m 12,2 km/h (2 Bft) SW 221 0 min 0,000 mm 2,1 UV-I 322 W/m 15,5 C 13,3 C 17,7 km/h (3 Bft) 100,00 %
29.06.2018 10:55 16,1 C 19,4 C 97 % 1013,0 hPa 0,0 l/m 13,9 km/h (3 Bft) W-SW 242 0 min 0,000 mm 2,0 UV-I 294 W/m 15,6 C 12,9 C 19,3 km/h (3 Bft) 100,00 %
29.06.2018 10:56 16,1 C 19,4 C 97 % 1013,0 hPa 0,0 l/m 9,9 km/h (2 Bft) W-SW 248 0 min 0,000 mm 1,9 UV-I 286 W/m 15,6 C 14,4 C 16,1 km/h (3 Bft) 100,00 %
29.06.2018 10:57 16,2 C 19,4 C 97 % 1013,0 hPa 0,0 l/m 7,6 km/h (2 Bft) W-SW 254 0 min 0,000 mm 2,0 UV-I 299 W/m 15,7 C 15,6 C 11,3 km/h (2 Bft) 100,00 %
29.06.2018 10:58 16,3 C 19,4 C 97 % 1013,0 hPa 0,0 l/m 13,7 km/h (3 Bft) W-SW 246 0 min 0,000 mm 2,0 UV-I 300 W/m 15,8 C 13,2 C 17,7 km/h (3 Bft) 100,00 %
29.06.2018 10:59 16,3 C 19,4 C 97 % 1013,0 hPa 0,0 l/m 14,3 km/h (3 Bft) S 190 0 min 0,000 mm 1,8 UV-I 271 W/m 15,8 C 13,0 C 19,3 km/h (3 Bft) 100,00 %
29.06.2018 11:00 16,3 C 19,4 C 96 % 1013,0 hPa 0,0 l/m 18,3 km/h (3 Bft) W-SW 246 0 min 0,000 mm 1,6 UV-I 239 W/m 15,7 C 11,8 C 24,1 km/h (4 Bft) 100,00 %
29.06.2018 11:02 16,3 C 19,4 C 96 % 1012,9 hPa 0,0 l/m 16,0 km/h (3 Bft) W-SW 246 0 min 0,077 mm 1,6 UV-I 232 W/m 15,7 C 12,5 C 22,5 km/h (4 Bft) 98,11 %
29.06.2018 11:03 16,3 C 19,4 C 96 % 1013,0 hPa 0,0 l/m 10,9 km/h (2 Bft) W-SW 246 0 min 0,000 mm 1,6 UV-I 238 W/m 15,7 C 14,2 C 16,1 km/h (3 Bft) 100,00 %
29.06.2018 11:04 16,3 C 19,4 C 96 % 1012,9 hPa 0,0 l/m 17,4 km/h (3 Bft) SW 217 0 min 0,000 mm 1,5 UV-I 227 W/m 15,7 C 12,1 C 22,5 km/h (4 Bft) 100,00 %
29.06.2018 11:05 16,3 C 19,4 C 96 % 1013,0 hPa 0,0 l/m 12,1 km/h (2 Bft) SW 229 0 min 0,000 mm 1,4 UV-I 210 W/m 15,7 C 13,7 C 17,7 km/h (3 Bft) 100,00 %
29.06.2018 11:06 16,3 C 19,4 C 96 % 1012,9 hPa 0,0 l/m 14,0 km/h (3 Bft) W-SW 245 0 min 0,000 mm 1,4 UV-I 207 W/m 15,7 C 13,1 C 19,3 km/h (3 Bft) 95,83 %
29.06.2018 11:07 16,3 C 19,4 C 96 % 1013,0 hPa 0,0 l/m 17,4 km/h (3 Bft) S-SW 209 0 min 0,000 mm 1,4 UV-I 207 W/m 15,7 C 12,1 C 22,5 km/h (4 Bft) 100,00 %
29.06.2018 11:08 16,3 C 19,4 C 96 % 1013,0 hPa 0,0 l/m 12,4 km/h (3 Bft) S-SW 207 0 min 0,000 mm 1,4 UV-I 211 W/m 15,7 C 13,6 C 14,5 km/h (3 Bft) 100,00 %
29.06.2018 11:09 16,3 C 19,4 C 96 % 1012,9 hPa 0,0 l/m 13,7 km/h (3 Bft) W-SW 252 0 min 0,000 mm 1,6 UV-I 226 W/m 15,7 C 13,2 C 17,7 km/h (3 Bft) 91,30 %
29.06.2018 11:10 16,3 C 19,4 C 96 % 1012,9 hPa 0,0 l/m 14,8 km/h (3 Bft) SW 223 0 min 0,000 mm 1,7 UV-I 244 W/m 15,7 C 12,8 C 20,9 km/h (4 Bft) 100,00 %
29.06.2018 11:11 16,3 C 19,4 C 96 % 1013,0 hPa 0,0 l/m 14,2 km/h (3 Bft) SW 233 0 min 0,000 mm 1,7 UV-I 260 W/m 15,7 C 13,0 C 17,7 km/h (3 Bft) 100,00 %
29.06.2018 11:13 16,4 C 19,4 C 95 % 1013,0 hPa 0,0 l/m 15,2 km/h (3 Bft) SW 222 0 min 0,000 mm 1,8 UV-I 274 W/m 15,6 C 12,8 C 24,1 km/h (4 Bft) 96,23 %
29.06.2018 11:14 16,4 C 19,4 C 95 % 1013,0 hPa 0,0 l/m 20,1 km/h (4 Bft) SW 231 0 min 0,000 mm 1,8 UV-I 260 W/m 15,6 C 11,5 C 25,7 km/h (4 Bft) 100,00 %
29.06.2018 11:15 16,4 C 19,4 C 95 % 1013,0 hPa 0,0 l/m 15,2 km/h (3 Bft) W 276 0 min 0,000 mm 1,6 UV-I 234 W/m 15,6 C 12,8 C 24,1 km/h (4 Bft) 91,67 %
29.06.2018 11:16 16,4 C 19,4 C 95 % 1013,0 hPa 0,0 l/m 18,1 km/h (3 Bft) SW 230 0 min 0,000 mm 1,4 UV-I 204 W/m 15,6 C 12,0 C 22,5 km/h (4 Bft) 96,15 %
29.06.2018 11:17 16,4 C 19,4 C 95 % 1013,0 hPa 0,0 l/m 14,3 km/h (3 Bft) W-SW 240 0 min 0,000 mm 1,3 UV-I 195 W/m 15,6 C 13,1 C 22,5 km/h (4 Bft) 95,83 %
29.06.2018 11:18 16,4 C 19,4 C 95 % 1013,0 hPa 0,0 l/m 15,5 km/h (3 Bft) SW 230 0 min 0,000 mm 1,2 UV-I 176 W/m 15,6 C 12,7 C 24,1 km/h (4 Bft) 92,31 %
29.06.2018 11:19 16,4 C 19,4 C 95 % 1013,0 hPa 0,0 l/m 12,7 km/h (3 Bft) W-SW 240 0 min 0,000 mm 1,1 UV-I 162 W/m 15,6 C 13,6 C 17,7 km/h (3 Bft) 100,00 %
29.06.2018 11:20 16,4 C 19,4 C 95 % 1013,0 hPa 0,0 l/m 17,4 km/h (3 Bft) W 281 0 min 0,000 mm 1,0 UV-I 143 W/m 15,6 C 12,2 C 25,7 km/h (4 Bft) 91,30 %
29.06.2018 11:21 16,3 C 19,4 C 95 % 1013,0 hPa 0,0 l/m 19,4 km/h (3 Bft) W 273 0 min 0,000 mm 0,9 UV-I 137 W/m 15,5 C 11,6 C 29,0 km/h (5 Bft) 100,00 %
29.06.2018 11:22 16,3 C 19,4 C 95 % 1013,0 hPa 0,0 l/m 14,5 km/h (3 Bft) W-SW 246 0 min 0,000 mm 1,0 UV-I 144 W/m 15,5 C 12,9 C 20,9 km/h (4 Bft) 95,65 %
29.06.2018 11:23 16,3 C 19,4 C 95 % 1013,0 hPa 0,0 l/m 21,8 km/h (4 Bft) W-SW 246 0 min 0,000 mm 1,0 UV-I 155 W/m 15,5 C 11,0 C 27,4 km/h (4 Bft) 95,83 %
29.06.2018 11:24 16,3 C 19,4 C 95 % 1013,0 hPa 0,0 l/m 17,6 km/h (3 Bft) SW 220 0 min 0,000 mm 1,1 UV-I 166 W/m 15,5 C 12,0 C 24,1 km/h (4 Bft) 95,65 %
29.06.2018 11:25 16,3 C 19,4 C 95 % 1013,0 hPa 0,0 l/m 18,8 km/h (3 Bft) W-NW 283 0 min 0,000 mm 1,2 UV-I 185 W/m 15,5 C 11,7 C 24,1 km/h (4 Bft) 100,00 %
29.06.2018 11:26 16,3 C 19,4 C 95 % 1013,0 hPa 0,0 l/m 16,2 km/h (3 Bft) W-SW 246 0 min 0,000 mm 1,4 UV-I 214 W/m 15,5 C 12,4 C 24,1 km/h (4 Bft) 95,65 %
29.06.2018 11:27 16,3 C 19,4 C 95 % 1013,0 hPa 0,0 l/m 22,4 km/h (4 Bft) W-SW 246 0 min 0,000 mm 1,7 UV-I 254 W/m 15,5 C 10,9 C 30,6 km/h (5 Bft) 91,67 %
29.06.2018 11:28 16,4 C 19,4 C 95 % 1013,0 hPa 0,0 l/m 19,2 km/h (3 Bft) SW 219 0 min 0,000 mm 1,9 UV-I 287 W/m 15,6 C 11,7 C 24,1 km/h (4 Bft) 100,00 %
29.06.2018 11:29 16,4 C 19,4 C 95 % 1013,0 hPa 0,0 l/m 17,8 km/h (3 Bft) W-SW 250 0 min 0,000 mm 2,0 UV-I 295 W/m 15,6 C 12,1 C 24,1 km/h (4 Bft) 95,83 %
29.06.2018 11:30 16,4 C 19,4 C 95 % 1013,0 hPa 0,0 l/m 21,4 km/h (4 Bft) W-SW 238 0 min 0,000 mm 2,0 UV-I 300 W/m 15,6 C 11,2 C 27,4 km/h (4 Bft) 100,00 %
29.06.2018 11:31 16,4 C 19,4 C 95 % 1013,0 hPa 0,0 l/m 18,2 km/h (3 Bft) S-SW 213 0 min 0,000 mm 2,0 UV-I 307 W/m 15,6 C 12,0 C 25,7 km/h (4 Bft) 92,59 %
29.06.2018 11:32 16,4 C 19,4 C 94 % 1013,0 hPa 0,0 l/m 18,4 km/h (3 Bft) W 281 0 min 0,000 mm 2,0 UV-I 299 W/m 15,4 C 11,9 C 30,6 km/h (5 Bft) 100,00 %
29.06.2018 11:33 16,5 C 19,4 C 95 % 1013,0 hPa 0,0 l/m 16,8 km/h (3 Bft) SW 232 0 min 0,000 mm 2,0 UV-I 294 W/m 15,7 C 12,5 C 24,1 km/h (4 Bft) 93,33 %
29.06.2018 11:34 16,5 C 19,4 C 95 % 1013,0 hPa 0,0 l/m 20,0 km/h (4 Bft) W-SW 246 0 min 0,000 mm 1,9 UV-I 275 W/m 15,7 C 11,7 C 24,1 km/h (4 Bft) 100,00 %
29.06.2018 11:35 16,5 C 19,4 C 94 % 1012,9 hPa 0,0 l/m 19,4 km/h (3 Bft) W 259 0 min 0,000 mm 1,9 UV-I 268 W/m 15,5 C 11,8 C 27,4 km/h (4 Bft) 95,65 %
29.06.2018 11:36 16,6 C 19,4 C 94 % 1012,9 hPa 0,0 l/m 17,9 km/h (3 Bft) SW 235 0 min 0,000 mm 1,7 UV-I 238 W/m 15,6 C 12,3 C 24,1 km/h (4 Bft) 100,00 %
29.06.2018 11:38 16,5 C 19,4 C 94 % 1012,9 hPa 0,0 l/m 17,7 km/h (3 Bft) SW 231 0 min 0,000 mm 1,4 UV-I 191 W/m 15,5 C 12,3 C 24,1 km/h (4 Bft) 96,00 %
29.06.2018 11:39 16,5 C 19,4 C 94 % 1012,9 hPa 0,0 l/m 18,3 km/h (3 Bft) SW 234 0 min 0,000 mm 1,1 UV-I 151 W/m 15,5 C 12,1 C 27,4 km/h (4 Bft) 100,00 %
29.06.2018 11:40 16,5 C 19,4 C 94 % 1012,9 hPa 0,0 l/m 17,8 km/h (3 Bft) W-SW 248 0 min 0,000 mm 0,9 UV-I 126 W/m 15,5 C 12,2 C 22,5 km/h (4 Bft) 95,83 %
29.06.2018 11:41 16,5 C 19,4 C 94 % 1013,0 hPa 0,0 l/m 14,0 km/h (3 Bft) SW 235 0 min 0,000 mm 0,7 UV-I 107 W/m 15,5 C 13,3 C 20,9 km/h (4 Bft) 100,00 %
29.06.2018 11:42 16,4 C 19,4 C 94 % 1013,0 hPa 0,0 l/m 18,1 km/h (3 Bft) W-SW 243 0 min 0,000 mm 0,7 UV-I 95 W/m 15,4 C 12,0 C 25,7 km/h (4 Bft) 95,83 %
29.06.2018 11:43 16,4 C 19,4 C 94 % 1013,0 hPa 0,0 l/m 10,5 km/h (2 Bft) SW 228 0 min 0,000 mm 0,6 UV-I 88 W/m 15,4 C 14,5 C 19,3 km/h (3 Bft) 100,00 %
29.06.2018 11:44 16,4 C 19,4 C 94 % 1012,9 hPa 0,0 l/m 16,8 km/h (3 Bft) SW 232 0 min 0,000 mm 0,6 UV-I 86 W/m 15,4 C 12,4 C 24,1 km/h (4 Bft) 95,83 %
29.06.2018 11:45 16,4 C 19,4 C 94 % 1013,0 hPa 0,0 l/m 13,1 km/h (3 Bft) W-SW 240 0 min 0,000 mm 0,6 UV-I 88 W/m 15,4 C 13,5 C 20,9 km/h (4 Bft) 100,00 %
29.06.2018 11:46 16,4 C 19,4 C 94 % 1013,0 hPa 0,0 l/m 19,4 km/h (3 Bft) W 259 0 min 0,000 mm 0,6 UV-I 92 W/m 15,4 C 11,7 C 24,1 km/h (4 Bft) 100,00 %
29.06.2018 11:47 16,3 C 19,4 C 94 % 1013,0 hPa 0,0 l/m 15,3 km/h (3 Bft) W-SW 257 0 min 0,000 mm 0,7 UV-I 104 W/m 15,3 C 12,7 C 22,5 km/h (4 Bft) 100,00 %
29.06.2018 11:48 16,3 C 19,4 C 94 % 1012,9 hPa 0,0 l/m 14,6 km/h (3 Bft) W-SW 242 0 min 0,000 mm 0,8 UV-I 118 W/m 15,3 C 12,9 C 17,7 km/h (3 Bft) 100,00 %
29.06.2018 11:49 16,3 C 19,4 C 94 % 1012,9 hPa 0,0 l/m 16,5 km/h (3 Bft) W 277 0 min 0,000 mm 0,9 UV-I 127 W/m 15,3 C 12,3 C 22,5 km/h (4 Bft) 100,00 %
29.06.2018 11:50 16,3 C 19,4 C 94 % 1012,9 hPa 0,2 l/m 17,1 km/h (3 Bft) W 271 0 min 0,000 mm 1,0 UV-I 133 W/m 15,3 C 12,2 C 19,3 km/h (3 Bft) 100,00 %
29.06.2018 11:51 16,3 C 19,4 C 94 % 1012,9 hPa 0,0 l/m 14,8 km/h (3 Bft) W-SW 244 0 min 0,000 mm 1,0 UV-I 134 W/m 15,3 C 12,8 C 20,9 km/h (4 Bft) 100,00 %
29.06.2018 11:52 16,3 C 19,4 C 94 % 1012,9 hPa 0,0 l/m 19,4 km/h (3 Bft) SW 219 0 min 0,000 mm 1,0 UV-I 134 W/m 15,3 C 11,6 C 27,4 km/h (4 Bft) 95,83 %
29.06.2018 11:53 16,2 C 19,4 C 94 % 1013,0 hPa 0,0 l/m 16,0 km/h (3 Bft) W-SW 245 0 min 0,000 mm 1,0 UV-I 137 W/m 15,2 C 12,3 C 19,3 km/h (3 Bft) 100,00 %
29.06.2018 11:54 16,2 C 19,4 C 95 % 1012,9 hPa 0,2 l/m 13,5 km/h (3 Bft) W-SW 242 0 min 0,000 mm 1,0 UV-I 141 W/m 15,4 C 13,1 C 17,7 km/h (3 Bft) 100,00 %
29.06.2018 11:55 16,2 C 19,4 C 95 % 1013,0 hPa 0,0 l/m 11,3 km/h (2 Bft) SW 225 0 min 0,000 mm 1,0 UV-I 142 W/m 15,4 C 13,9 C 14,5 km/h (3 Bft) 100,00 %
29.06.2018 11:56 16,2 C 19,4 C 95 % 1012,9 hPa 0,0 l/m 13,7 km/h (3 Bft) W-SW 255 0 min 0,000 mm 1,0 UV-I 142 W/m 15,4 C 13,1 C 25,7 km/h (4 Bft) 95,65 %
29.06.2018 11:57 16,2 C 19,4 C 95 % 1012,9 hPa 0,0 l/m 15,8 km/h (3 Bft) W 259 0 min 0,000 mm 1,2 UV-I 159 W/m 15,4 C 12,4 C 20,9 km/h (4 Bft) 100,00 %
29.06.2018 11:58 16,2 C 19,4 C 95 % 1013,0 hPa 0,0 l/m 13,4 km/h (3 Bft) W 263 0 min 0,000 mm 1,4 UV-I 190 W/m 15,4 C 13,2 C 20,9 km/h (4 Bft) 100,00 %
29.06.2018 11:59 16,2 C 19,4 C 95 % 1013,0 hPa 0,0 l/m 20,0 km/h (4 Bft) SW 232 0 min 0,000 mm 1,5 UV-I 211 W/m 15,4 C 11,3 C 27,4 km/h (4 Bft) 100,00 %
29.06.2018 12:00 16,2 C 19,4 C 95 % 1013,0 hPa 0,0 l/m 19,5 km/h (3 Bft) W 273 0 min 0,000 mm 1,6 UV-I 227 W/m 15,4 C 11,4 C 24,1 km/h (4 Bft) 100,00 %
29.06.2018 12:02 16,2 C 19,4 C 95 % 1012,9 hPa 0,0 l/m 16,0 km/h (3 Bft) W-SW 247 0 min 0,101 mm 1,9 UV-I 265 W/m 15,4 C 12,3 C 24,1 km/h (4 Bft) 97,87 %
29.06.2018 12:03 16,3 C 19,4 C 95 % 1013,0 hPa 0,0 l/m 17,0 km/h (3 Bft) W 275 0 min 0,000 mm 2,1 UV-I 287 W/m 15,5 C 12,2 C 29,0 km/h (5 Bft) 100,00 %
29.06.2018 12:04 16,3 C 19,4 C 95 % 1012,9 hPa 0,0 l/m 20,3 km/h (4 Bft) W-SW 246 0 min 0,000 mm 2,0 UV-I 272 W/m 15,5 C 11,4 C 29,0 km/h (5 Bft) 95,65 %
29.06.2018 12:05 16,3 C 19,4 C 95 % 1012,9 hPa 0,0 l/m 18,6 km/h (3 Bft) W-SW 237 0 min 0,000 mm 1,9 UV-I 266 W/m 15,5 C 11,8 C 22,5 km/h (4 Bft) 100,00 %
29.06.2018 12:06 16,3 C 19,4 C 95 % 1012,9 hPa 0,0 l/m 14,8 km/h (3 Bft) W 263 0 min 0,000 mm 2,0 UV-I 268 W/m 15,5 C 12,8 C 19,3 km/h (3 Bft) 100,00 %
29.06.2018 12:07 16,3 C 19,4 C 95 % 1012,9 hPa 0,0 l/m 17,4 km/h (3 Bft) SW 225 0 min 0,000 mm 1,9 UV-I 262 W/m 15,5 C 12,1 C 20,9 km/h (4 Bft) 100,00 %
29.06.2018 12:08 16,3 C 19,4 C 95 % 1012,9 hPa 0,0 l/m 13,3 km/h (3 Bft) W 279 0 min 0,000 mm 1,8 UV-I 253 W/m 15,5 C 13,3 C 20,9 km/h (4 Bft) 100,00 %
29.06.2018 12:09 16,4 C 19,4 C 95 % 1012,9 hPa 0,0 l/m 15,6 km/h (3 Bft) W-SW 249 0 min 0,000 mm 1,8 UV-I 239 W/m 15,6 C 12,7 C 20,9 km/h (4 Bft) 100,00 %
29.06.2018 12:10 16,4 C 19,4 C 95 % 1012,9 hPa 0,0 l/m 13,4 km/h (3 Bft) SW 221 0 min 0,000 mm 1,7 UV-I 225 W/m 15,6 C 13,4 C 17,7 km/h (3 Bft) 95,65 %
29.06.2018 12:11 16,4 C 19,4 C 95 % 1012,8 hPa 0,0 l/m 15,0 km/h (3 Bft) W-SW 240 0 min 0,000 mm 1,5 UV-I 213 W/m 15,6 C 12,9 C 20,9 km/h (4 Bft) 100,00 %
29.06.2018 12:12 16,4 C 19,4 C 95 % 1012,9 hPa 0,0 l/m 13,2 km/h (3 Bft) W-SW 242 0 min 0,000 mm 1,4 UV-I 182 W/m 15,6 C 13,5 C 19,3 km/h (3 Bft) 100,00 %
29.06.2018 12:13 16,4 C 19,4 C 95 % 1012,9 hPa 0,0 l/m 22,3 km/h (4 Bft) W-SW 240 0 min 0,000 mm 1,3 UV-I 162 W/m 15,6 C 11,0 C 30,6 km/h (5 Bft) 100,00 %
29.06.2018 12:14 16,3 C 19,4 C 95 % 1013,0 hPa 0,0 l/m 16,3 km/h (3 Bft) W-SW 256 0 min 0,000 mm 1,1 UV-I 148 W/m 15,5 C 12,4 C 19,3 km/h (3 Bft) 100,00 %
29.06.2018 12:15 16,3 C 19,4 C 95 % 1013,0 hPa 0,0 l/m 13,2 km/h (3 Bft) SW 224 0 min 0,000 mm 1,1 UV-I 144 W/m 15,5 C 13,3 C 17,7 km/h (3 Bft) 100,00 %
29.06.2018 12:16 16,3 C 19,4 C 95 % 1013,0 hPa 0,0 l/m 13,3 km/h (3 Bft) W-SW 239 0 min 0,000 mm 1,1 UV-I 146 W/m 15,5 C 13,3 C 19,3 km/h (3 Bft) 100,00 %
29.06.2018 12:17 16,3 C 19,4 C 95 % 1013,0 hPa 0,0 l/m 13,6 km/h (3 Bft) SW 236 0 min 0,000 mm 1,1 UV-I 142 W/m 15,5 C 13,2 C 24,1 km/h (4 Bft) 100,00 %
29.06.2018 12:18 16,3 C 19,4 C 95 % 1013,0 hPa 0,0 l/m 15,0 km/h (3 Bft) SW 221 0 min 0,000 mm 1,0 UV-I 141 W/m 15,5 C 12,8 C 20,9 km/h (4 Bft) 100,00 %
29.06.2018 12:19 16,3 C 19,4 C 95 % 1013,1 hPa 0,0 l/m 14,1 km/h (3 Bft) W-SW 240 0 min 0,000 mm 1,2 UV-I 149 W/m 15,5 C 13,0 C 19,3 km/h (3 Bft) 100,00 %
29.06.2018 12:20 16,3 C 19,4 C 95 % 1013,1 hPa 0,0 l/m 9,9 km/h (2 Bft) W-SW 240 0 min 0,000 mm 1,1 UV-I 155 W/m 15,5 C 14,6 C 16,1 km/h (3 Bft) 100,00 %
29.06.2018 12:21 16,3 C 19,4 C 95 % 1013,1 hPa 0,0 l/m 11,0 km/h (2 Bft) W-SW 251 0 min 0,000 mm 1,1 UV-I 145 W/m 15,5 C 14,1 C 19,3 km/h (3 Bft) 100,00 %
29.06.2018 12:22 16,3 C 19,4 C 95 % 1013,1 hPa 0,0 l/m 17,2 km/h (3 Bft) SW 229 0 min 0,000 mm 1,0 UV-I 136 W/m 15,5 C 12,1 C 25,7 km/h (4 Bft) 100,00 %
29.06.2018 12:23 16,3 C 19,4 C 95 % 1013,1 hPa 0,0 l/m 23,5 km/h (4 Bft) SW 231 0 min 0,000 mm 1,0 UV-I 136 W/m 15,5 C 10,7 C 29,0 km/h (5 Bft) 100,00 %
29.06.2018 12:24 16,3 C 19,4 C 95 % 1013,1 hPa 0,0 l/m 17,4 km/h (3 Bft) SW 217 0 min 0,000 mm 1,1 UV-I 148 W/m 15,5 C 12,1 C 25,7 km/h (4 Bft) 100,00 %
29.06.2018 12:25 16,3 C 19,4 C 95 % 1013,1 hPa 0,0 l/m 13,5 km/h (3 Bft) W-SW 240 0 min 0,000 mm 1,1 UV-I 149 W/m 15,5 C 13,2 C 22,5 km/h (4 Bft) 100,00 %
29.06.2018 12:26 16,3 C 19,4 C 95 % 1013,2 hPa 0,0 l/m 17,6 km/h (3 Bft) W-SW 248 0 min 0,000 mm 1,0 UV-I 136 W/m 15,5 C 12,0 C 20,9 km/h (4 Bft) 100,00 %
29.06.2018 12:27 16,3 C 19,4 C 95 % 1013,2 hPa 0,0 l/m 16,9 km/h (3 Bft) SW 221 0 min 0,000 mm 0,9 UV-I 125 W/m 15,5 C 12,2 C 24,1 km/h (4 Bft) 91,67 %
29.06.2018 12:28 16,3 C 19,4 C 95 % 1013,1 hPa 0,0 l/m 21,7 km/h (4 Bft) W-SW 240 0 min 0,000 mm 0,9 UV-I 126 W/m 15,5 C 11,0 C 25,7 km/h (4 Bft) 100,00 %
29.06.2018 12:29 16,3 C 19,4 C 95 % 1013,1 hPa 0,0 l/m 17,6 km/h (3 Bft) W-SW 244 0 min 0,000 mm 1,0 UV-I 130 W/m 15,5 C 12,0 C 25,7 km/h (4 Bft) 100,00 %
29.06.2018 12:30 16,3 C 19,4 C 95 % 1013,1 hPa 0,0 l/m 15,9 km/h (3 Bft) W-SW 249 0 min 0,000 mm 1,0 UV-I 139 W/m 15,5 C 12,5 C 20,9 km/h (4 Bft) 100,00 %
29.06.2018 12:31 16,2 C 19,4 C 95 % 1013,1 hPa 0,0 l/m 15,7 km/h (3 Bft) W-SW 249 0 min 0,000 mm 1,1 UV-I 149 W/m 15,4 C 12,4 C 20,9 km/h (4 Bft) 95,83 %
29.06.2018 12:32 16,2 C 19,4 C 95 % 1013,2 hPa 0,0 l/m 13,1 km/h (3 Bft) W-SW 257 0 min 0,000 mm 1,2 UV-I 159 W/m 15,4 C 13,3 C 19,3 km/h (3 Bft) 100,00 %
29.06.2018 12:33 16,3 C 19,4 C 95 % 1013,1 hPa 0,0 l/m 16,6 km/h (3 Bft) W-SW 246 0 min 0,000 mm 1,3 UV-I 176 W/m 15,5 C 12,3 C 24,1 km/h (4 Bft) 100,00 %
29.06.2018 12:34 16,3 C 19,4 C 95 % 1013,1 hPa 0,0 l/m 16,8 km/h (3 Bft) SW 223 0 min 0,000 mm 1,4 UV-I 187 W/m 15,5 C 12,2 C 22,5 km/h (4 Bft) 95,65 %
29.06.2018 12:35 16,3 C 19,4 C 96 % 1013,1 hPa 0,2 l/m 17,2 km/h (3 Bft) W-SW 241 0 min 0,000 mm 1,4 UV-I 192 W/m 15,7 C 12,1 C 22,5 km/h (4 Bft) 100,00 %
29.06.2018 12:36 16,3 C 19,4 C 95 % 1013,2 hPa 0,0 l/m 17,3 km/h (3 Bft) W 261 0 min 0,000 mm 1,4 UV-I 188 W/m 15,5 C 12,1 C 27,4 km/h (4 Bft) 100,00 %
29.06.2018 12:37 16,3 C 19,4 C 95 % 1013,1 hPa 0,0 l/m 15,5 km/h (3 Bft) SW 236 0 min 0,000 mm 1,4 UV-I 189 W/m 15,5 C 12,6 C 24,1 km/h (4 Bft) 100,00 %
29.06.2018 12:38 16,3 C 19,4 C 95 % 1013,1 hPa 0,0 l/m 18,8 km/h (3 Bft) W 272 0 min 0,000 mm 1,4 UV-I 192 W/m 15,5 C 11,7 C 24,1 km/h (4 Bft) 100,00 %
29.06.2018 12:39 16,3 C 19,4 C 96 % 1013,0 hPa 0,0 l/m 14,4 km/h (3 Bft) W-SW 252 0 min 0,000 mm 1,5 UV-I 202 W/m 15,7 C 13,0 C 22,5 km/h (4 Bft) 100,00 %
29.06.2018 12:40 16,3 C 19,4 C 95 % 1013,0 hPa 0,0 l/m 19,8 km/h (3 Bft) W-SW 239 0 min 0,000 mm 1,6 UV-I 215 W/m 15,5 C 11,5 C 24,1 km/h (4 Bft) 100,00 %
29.06.2018 12:41 16,3 C 19,4 C 96 % 1013,0 hPa 0,0 l/m 17,0 km/h (3 Bft) S-SW 210 0 min 0,000 mm 1,6 UV-I 218 W/m 15,7 C 12,2 C 22,5 km/h (4 Bft) 100,00 %
29.06.2018 12:43 16,4 C 19,4 C 96 % 1013,0 hPa 0,0 l/m 15,0 km/h (3 Bft) SW 233 0 min 0,000 mm 1,6 UV-I 226 W/m 15,8 C 12,9 C 22,5 km/h (4 Bft) 100,00 %
29.06.2018 12:44 16,4 C 19,4 C 96 % 1013,0 hPa 0,0 l/m 18,5 km/h (3 Bft) W-SW 250 0 min 0,000 mm 1,8 UV-I 245 W/m 15,8 C 11,9 C 29,0 km/h (5 Bft) 100,00 %
29.06.2018 12:45 16,4 C 19,4 C 95 % 1013,0 hPa 0,0 l/m 18,3 km/h (3 Bft) W-SW 252 0 min 0,000 mm 1,9 UV-I 261 W/m 15,6 C 12,0 C 22,5 km/h (4 Bft) 100,00 %
29.06.2018 12:46 16,4 C 19,4 C 95 % 1013,0 hPa 0,0 l/m 19,9 km/h (4 Bft) SW 224 0 min 0,000 mm 2,0 UV-I 274 W/m 15,6 C 11,6 C 25,7 km/h (4 Bft) 100,00 %
29.06.2018 12:47 16,4 C 19,4 C 96 % 1013,0 hPa 0,0 l/m 19,2 km/h (3 Bft) SW 224 0 min 0,000 mm 2,1 UV-I 277 W/m 15,8 C 11,7 C 25,7 km/h (4 Bft) 100,00 %
29.06.2018 12:48 16,4 C 19,4 C 96 % 1013,0 hPa 0,0 l/m 15,2 km/h (3 Bft) SW 225 0 min 0,000 mm 2,1 UV-I 275 W/m 15,8 C 12,8 C 20,9 km/h (4 Bft) 100,00 %
29.06.2018 12:49 16,5 C 19,4 C 96 % 1012,9 hPa 0,0 l/m 14,0 km/h (3 Bft) NW 304 0 min 0,000 mm 2,2 UV-I 280 W/m 15,9 C 13,3 C 22,5 km/h (4 Bft) 100,00 %
29.06.2018 12:50 16,6 C 19,4 C 96 % 1012,9 hPa 0,0 l/m 18,6 km/h (3 Bft) SW 215 0 min 0,000 mm 2,3 UV-I 293 W/m 16,0 C 12,1 C 30,6 km/h (5 Bft) 100,00 %
29.06.2018 12:51 16,6 C 19,4 C 96 % 1012,9 hPa 0,0 l/m 17,8 km/h (3 Bft) W-SW 248 0 min 0,000 mm 2,4 UV-I 313 W/m 16,0 C 12,4 C 29,0 km/h (5 Bft) 100,00 %
29.06.2018 12:52 16,6 C 19,4 C 96 % 1012,9 hPa 0,0 l/m 20,6 km/h (4 Bft) W 263 0 min 0,000 mm 2,6 UV-I 337 W/m 16,0 C 11,7 C 27,4 km/h (4 Bft) 100,00 %
29.06.2018 12:53 16,6 C 19,4 C 95 % 1012,9 hPa 0,0 l/m 17,9 km/h (3 Bft) W-SW 252 0 min 0,000 mm 2,8 UV-I 369 W/m 15,8 C 12,3 C 25,7 km/h (4 Bft) 100,00 %
29.06.2018 12:54 16,6 C 19,4 C 96 % 1012,9 hPa 0,0 l/m 15,6 km/h (3 Bft) W-SW 256 0 min 0,000 mm 3,0 UV-I 402 W/m 16,0 C 13,0 C 20,9 km/h (4 Bft) 100,00 %
29.06.2018 12:55 16,7 C 19,4 C 96 % 1012,9 hPa 0,0 l/m 21,4 km/h (4 Bft) W-SW 254 0 min 0,000 mm 3,3 UV-I 452 W/m 16,1 C 11,6 C 27,4 km/h (4 Bft) 100,00 %
29.06.2018 12:56 16,7 C 19,4 C 96 % 1012,9 hPa 0,0 l/m 22,6 km/h (4 Bft) W 259 0 min 0,000 mm 3,6 UV-I 487 W/m 16,1 C 11,4 C 32,2 km/h (5 Bft) 100,00 %
29.06.2018 12:57 16,7 C 19,4 C 95 % 1012,9 hPa 0,0 l/m 19,7 km/h (3 Bft) S-SW 202 1 min 0,000 mm 3,5 UV-I 489 W/m 15,9 C 12,0 C 25,7 km/h (4 Bft) 100,00 %
29.06.2018 12:58 16,8 C 19,4 C 95 % 1012,9 hPa 0,0 l/m 17,4 km/h (3 Bft) SW 232 0 min 0,000 mm 3,5 UV-I 486 W/m 16,0 C 12,7 C 29,0 km/h (5 Bft) 100,00 %
29.06.2018 12:59 16,8 C 19,4 C 95 % 1013,0 hPa 0,0 l/m 23,0 km/h (4 Bft) SW 231 1 min 0,000 mm 3,5 UV-I 491 W/m 16,0 C 11,4 C 29,0 km/h (5 Bft) 100,00 %
29.06.2018 13:00 16,8 C 19,4 C 95 % 1013,0 hPa 0,0 l/m 19,0 km/h (3 Bft) W-NW 288 1 min 0,127 mm 3,8 UV-I 572 W/m 16,0 C 12,3 C 24,1 km/h (4 Bft) 100,00 %
29.06.2018 13:02 16,9 C 19,4 C 95 % 1013,0 hPa 0,0 l/m 20,2 km/h (4 Bft) W-SW 247 2 min 0,000 mm 3,6 UV-I 512 W/m 16,1 C 12,2 C 27,4 km/h (4 Bft) 100,00 %
29.06.2018 13:03 16,9 C 19,4 C 95 % 1013,0 hPa 0,0 l/m 14,7 km/h (3 Bft) W-SW 242 1 min 0,000 mm 3,6 UV-I 490 W/m 16,1 C 13,6 C 22,5 km/h (4 Bft) 100,00 %
29.06.2018 13:04 17,0 C 19,4 C 95 % 1013,0 hPa 0,0 l/m 16,0 km/h (3 Bft) SW 236 1 min 0,000 mm 3,9 UV-I 522 W/m 16,2 C 13,3 C 22,5 km/h (4 Bft) 95,83 %
29.06.2018 13:05 17,1 C 19,4 C 95 % 1013,0 hPa 0,0 l/m 14,4 km/h (3 Bft) W-SW 249 1 min 0,000 mm 4,5 UV-I 601 W/m 16,3 C 13,9 C 19,3 km/h (3 Bft) 100,00 %
29.06.2018 13:06 17,2 C 19,4 C 95 % 1013,0 hPa 0,0 l/m 12,1 km/h (2 Bft) SW 228 1 min 0,000 mm 5,4 UV-I 640 W/m 16,4 C 14,8 C 17,7 km/h (3 Bft) 95,83 %
29.06.2018 13:07 17,5 C 19,4 C 96 % 1013,0 hPa 0,0 l/m 15,7 km/h (3 Bft) W 261 1 min 0,000 mm 4,5 UV-I 640 W/m 16,9 C 14,0 C 20,9 km/h (4 Bft) 100,00 %
29.06.2018 13:08 17,6 C 19,4 C 96 % 1013,0 hPa 0,0 l/m 13,9 km/h (3 Bft) W-SW 239 1 min 0,000 mm 3,8 UV-I 632 W/m 17,0 C 14,7 C 17,7 km/h (3 Bft) 91,30 %
29.06.2018 13:09 17,7 C 19,4 C 95 % 1013,0 hPa 0,0 l/m 17,0 km/h (3 Bft) W-SW 250 1 min 0,000 mm 3,7 UV-I 565 W/m 16,9 C 13,9 C 25,7 km/h (4 Bft) 100,00 %
29.06.2018 13:10 17,6 C 19,4 C 95 % 1013,0 hPa 0,0 l/m 20,8 km/h (4 Bft) S-SW 209 1 min 0,000 mm 3,6 UV-I 503 W/m 16,8 C 12,9 C 25,7 km/h (4 Bft) 91,30 %
29.06.2018 13:11 17,6 C 19,4 C 94 % 1013,0 hPa 0,0 l/m 21,6 km/h (4 Bft) SW 225 0 min 0,000 mm 3,4 UV-I 477 W/m 16,6 C 12,8 C 27,4 km/h (4 Bft) 100,00 %
29.06.2018 13:12 17,6 C 19,4 C 94 % 1012,9 hPa 0,0 l/m 24,2 km/h (4 Bft) W-SW 240 0 min 0,000 mm 3,2 UV-I 463 W/m 16,6 C 12,3 C 30,6 km/h (5 Bft) 91,30 %
29.06.2018 13:13 17,5 C 19,4 C 93 % 1013,0 hPa 0,0 l/m 19,2 km/h (3 Bft) SW 220 0 min 0,000 mm 3,1 UV-I 442 W/m 16,4 C 13,2 C 25,7 km/h (4 Bft) 95,83 %
29.06.2018 13:14 17,4 C 19,4 C 93 % 1012,9 hPa 0,0 l/m 16,1 km/h (3 Bft) W-SW 250 0 min 0,000 mm 3,2 UV-I 456 W/m 16,3 C 13,8 C 22,5 km/h (4 Bft) 95,65 %
29.06.2018 13:15 17,5 C 19,4 C 93 % 1012,9 hPa 0,0 l/m 14,5 km/h (3 Bft) W-SW 252 0 min 0,000 mm 3,3 UV-I 459 W/m 16,4 C 14,4 C 19,3 km/h (3 Bft) 91,67 %
29.06.2018 13:16 17,6 C 19,4 C 94 % 1013,0 hPa 0,0 l/m 16,0 km/h (3 Bft) SW 225 1 min 0,000 mm 3,6 UV-I 497 W/m 16,6 C 14,1 C 22,5 km/h (4 Bft) 100,00 %
29.06.2018 13:17 17,6 C 19,4 C 94 % 1012,9 hPa 0,0 l/m 19,0 km/h (3 Bft) W-SW 250 1 min 0,000 mm 4,1 UV-I 517 W/m 16,6 C 13,3 C 25,7 km/h (4 Bft) 87,50 %
29.06.2018 13:18 17,6 C 19,4 C 94 % 1012,9 hPa 0,0 l/m 19,4 km/h (3 Bft) W-SW 250 1 min 0,000 mm 5,0 UV-I 517 W/m 16,6 C 13,2 C 27,4 km/h (4 Bft) 100,00 %
29.06.2018 13:19 17,7 C 19,4 C 94 % 1012,9 hPa 0,0 l/m 17,1 km/h (3 Bft) SW 236 1 min 0,000 mm 5,0 UV-I 517 W/m 16,7 C 13,9 C 19,3 km/h (3 Bft) 91,67 %
29.06.2018 13:20 17,8 C 19,4 C 94 % 1012,9 hPa 0,0 l/m 19,9 km/h (4 Bft) W-SW 238 1 min 0,000 mm 5,5 UV-I 517 W/m 16,8 C 13,4 C 24,1 km/h (4 Bft) 91,30 %
29.06.2018 13:21 17,8 C 19,4 C 94 % 1012,9 hPa 0,0 l/m 21,4 km/h (4 Bft) SW 227 1 min 0,000 mm 4,3 UV-I 517 W/m 16,8 C 13,1 C 29,0 km/h (5 Bft) 95,83 %
29.06.2018 13:22 17,8 C 19,4 C 93 % 1012,9 hPa 0,0 l/m 25,8 km/h (4 Bft) W 277 1 min 0,000 mm 4,1 UV-I 529 W/m 16,7 C 12,3 C 30,6 km/h (5 Bft) 95,65 %
29.06.2018 13:23 17,7 C 19,4 C 92 % 1012,9 hPa 0,0 l/m 15,9 km/h (3 Bft) W-SW 258 1 min 0,000 mm 3,8 UV-I 580 W/m 16,4 C 14,2 C 20,9 km/h (4 Bft) 95,83 %
29.06.2018 13:24 17,7 C 19,4 C 93 % 1012,9 hPa 0,0 l/m 14,4 km/h (3 Bft) W 259 1 min 0,000 mm 3,6 UV-I 603 W/m 16,6 C 14,6 C 19,3 km/h (3 Bft) 95,65 %
29.06.2018 13:25 17,8 C 19,4 C 93 % 1012,9 hPa 0,0 l/m 16,2 km/h (3 Bft) SW 218 0 min 0,000 mm 3,7 UV-I 485 W/m 16,7 C 14,3 C 25,7 km/h (4 Bft) 95,83 %
29.06.2018 13:26 17,8 C 19,4 C 93 % 1012,8 hPa 0,0 l/m 19,0 km/h (3 Bft) SW 234 1 min 0,000 mm 3,9 UV-I 491 W/m 16,7 C 13,6 C 27,4 km/h (4 Bft) 86,96 %
29.06.2018 13:27 17,8 C 19,4 C 93 % 1012,9 hPa 0,0 l/m 15,3 km/h (3 Bft) W 281 1 min 0,000 mm 4,0 UV-I 527 W/m 16,7 C 14,5 C 20,9 km/h (4 Bft) 100,00 %
29.06.2018 13:28 17,8 C 19,4 C 93 % 1012,8 hPa 0,0 l/m 19,3 km/h (3 Bft) W-SW 254 1 min 0,000 mm 4,0 UV-I 518 W/m 16,7 C 13,5 C 29,0 km/h (5 Bft) 91,67 %
29.06.2018 13:29 17,8 C 19,4 C 93 % 1012,8 hPa 0,0 l/m 20,6 km/h (4 Bft) W-SW 247 1 min 0,000 mm 4,2 UV-I 550 W/m 16,7 C 13,2 C 25,7 km/h (4 Bft) 91,30 %
29.06.2018 13:30 17,8 C 19,4 C 93 % 1012,8 hPa 0,0 l/m 18,8 km/h (3 Bft) W 274 1 min 0,000 mm 4,9 UV-I 563 W/m 16,7 C 13,6 C 25,7 km/h (4 Bft) 95,83 %
29.06.2018 13:31 17,9 C 19,4 C 93 % 1012,9 hPa 0,0 l/m 16,7 km/h (3 Bft) W-SW 248 1 min 0,000 mm 5,1 UV-I 563 W/m 16,8 C 14,3 C 22,5 km/h (4 Bft) 95,65 %
29.06.2018 13:32 18,1 C 19,4 C 93 % 1012,9 hPa 0,0 l/m 11,3 km/h (2 Bft) SW 225 1 min 0,000 mm 5,0 UV-I 572 W/m 16,9 C 16,1 C 17,7 km/h (3 Bft) 95,83 %
29.06.2018 13:33 18,2 C 19,4 C 93 % 1012,9 hPa 0,0 l/m 16,2 km/h (3 Bft) S-SW 192 1 min 0,000 mm 4,8 UV-I 599 W/m 17,0 C 14,8 C 24,1 km/h (4 Bft) 96,15 %
29.06.2018 13:34 18,2 C 19,4 C 93 % 1012,9 hPa 0,0 l/m 15,0 km/h (3 Bft) W-SW 250 1 min 0,000 mm 5,7 UV-I 819 W/m 17,0 C 15,1 C 27,4 km/h (4 Bft) 95,83 %
29.06.2018 13:35 18,3 C 19,4 C 92 % 1012,9 hPa 0,0 l/m 16,5 km/h (3 Bft) W-SW 247 1 min 0,000 mm 5,8 UV-I 1073 W/m 17,0 C 14,8 C 25,7 km/h (4 Bft) 91,30 %
29.06.2018 13:36 18,3 C 19,4 C 92 % 1012,9 hPa 0,0 l/m 15,8 km/h (3 Bft) S-SW 205 1 min 0,000 mm 5,7 UV-I 1102 W/m 17,0 C 15,0 C 25,7 km/h (4 Bft) 95,83 %
29.06.2018 13:37 18,4 C 19,4 C 92 % 1012,9 hPa 0,0 l/m 16,6 km/h (3 Bft) W 268 1 min 0,000 mm 5,2 UV-I 1102 W/m 17,1 C 14,9 C 20,9 km/h (4 Bft) 100,00 %
29.06.2018 13:38 18,5 C 19,4 C 92 % 1012,9 hPa 0,0 l/m 21,7 km/h (4 Bft) SW 231 1 min 0,000 mm 4,0 UV-I 959 W/m 17,2 C 13,9 C 32,2 km/h (5 Bft) 95,83 %
29.06.2018 13:39 18,5 C 19,4 C 91 % 1013,0 hPa 0,0 l/m 21,0 km/h (4 Bft) W-SW 245 1 min 0,000 mm 4,0 UV-I 529 W/m 17,0 C 14,1 C 27,4 km/h (4 Bft) 91,30 %
29.06.2018 13:40 18,4 C 19,4 C 90 % 1012,9 hPa 0,0 l/m 20,5 km/h (4 Bft) W-SW 256 1 min 0,000 mm 4,1 UV-I 529 W/m 16,7 C 14,0 C 27,4 km/h (4 Bft) 95,83 %
29.06.2018 13:41 18,4 C 19,4 C 90 % 1012,9 hPa 0,0 l/m 18,9 km/h (3 Bft) W 259 1 min 0,000 mm 4,1 UV-I 529 W/m 16,7 C 14,4 C 24,1 km/h (4 Bft) 100,00 %
29.06.2018 13:42 18,4 C 19,4 C 90 % 1012,9 hPa 0,0 l/m 15,7 km/h (3 Bft) W-SW 245 1 min 0,000 mm 4,8 UV-I 585 W/m 16,7 C 15,1 C 22,5 km/h (4 Bft) 97,37 %
29.06.2018 13:43 18,4 C 19,4 C 91 % 1012,9 hPa 0,0 l/m 12,9 km/h (3 Bft) SW 217 1 min 0,000 mm 4,9 UV-I 627 W/m 16,9 C 15,9 C 24,1 km/h (4 Bft) 95,65 %
29.06.2018 13:44 18,5 C 19,4 C 91 % 1012,9 hPa 0,0 l/m 19,2 km/h (3 Bft) SW 229 1 min 0,000 mm 5,4 UV-I 951 W/m 17,0 C 14,4 C 24,1 km/h (4 Bft) 100,00 %
29.06.2018 13:45 18,6 C 20,0 C 91 % 1013,0 hPa 0,0 l/m 23,1 km/h (4 Bft) W-SW 244 1 min 0,000 mm 4,1 UV-I 742 W/m 17,1 C 13,8 C 27,4 km/h (4 Bft) 95,83 %
29.06.2018 13:46 18,6 C 19,4 C 90 % 1012,9 hPa 0,0 l/m 20,7 km/h (4 Bft) W-SW 237 0 min 0,000 mm 3,9 UV-I 452 W/m 16,9 C 14,3 C 27,4 km/h (4 Bft) 95,65 %
29.06.2018 13:47 18,6 C 20,0 C 90 % 1013,0 hPa 0,0 l/m 12,5 km/h (3 Bft) SW 234 0 min 0,000 mm 3,8 UV-I 406 W/m 16,9 C 16,3 C 19,3 km/h (3 Bft) 100,00 %
29.06.2018 13:48 18,6 C 20,0 C 91 % 1013,0 hPa 0,0 l/m 12,1 km/h (2 Bft) W-SW 254 0 min 0,000 mm 3,7 UV-I 414 W/m 17,1 C 16,4 C 17,7 km/h (3 Bft) 100,00 %
29.06.2018 13:49 18,6 C 20,0 C 91 % 1013,0 hPa 0,0 l/m 12,9 km/h (3 Bft) W-SW 254 0 min 0,000 mm 3,9 UV-I 457 W/m 17,1 C 16,1 C 19,3 km/h (3 Bft) 95,83 %
29.06.2018 13:50 18,7 C 20,0 C 91 % 1013,0 hPa 0,0 l/m 13,7 km/h (3 Bft) W-SW 242 0 min 0,000 mm 4,5 UV-I 457 W/m 17,2 C 16,0 C 17,7 km/h (3 Bft) 91,30 %
29.06.2018 13:51 18,8 C 20,0 C 92 % 1012,9 hPa 0,0 l/m 16,4 km/h (3 Bft) SW 219 0 min 0,000 mm 5,2 UV-I 457 W/m 17,5 C 15,4 C 20,9 km/h (4 Bft) 100,00 %
29.06.2018 13:52 18,9 C 20,0 C 90 % 1012,9 hPa 0,0 l/m 21,7 km/h (4 Bft) W 267 1 min 0,000 mm 4,9 UV-I 582 W/m 17,2 C 14,5 C 29,0 km/h (5 Bft) 96,15 %
29.06.2018 13:53 18,8 C 20,0 C 89 % 1012,9 hPa 0,0 l/m 15,4 km/h (3 Bft) W-SW 241 1 min 0,000 mm 5,0 UV-I 653 W/m 16,9 C 15,7 C 24,1 km/h (4 Bft) 100,00 %
29.06.2018 13:54 18,8 C 20,0 C 90 % 1013,0 hPa 0,0 l/m 15,5 km/h (3 Bft) W 266 1 min 0,000 mm 5,3 UV-I 663 W/m 17,1 C 15,7 C 22,5 km/h (4 Bft) 91,30 %
29.06.2018 13:55 18,8 C 20,0 C 90 % 1013,0 hPa 0,0 l/m 17,6 km/h (3 Bft) W-SW 239 1 min 0,000 mm 5,1 UV-I 724 W/m 17,1 C 15,2 C 22,5 km/h (4 Bft) 100,00 %
29.06.2018 13:56 18,8 C 20,0 C 89 % 1012,9 hPa 0,0 l/m 16,6 km/h (3 Bft) W-SW 250 1 min 0,000 mm 4,3 UV-I 683 W/m 16,9 C 15,4 C 24,1 km/h (4 Bft) 91,30 %
29.06.2018 13:57 18,9 C 20,0 C 90 % 1013,0 hPa 0,0 l/m 17,8 km/h (3 Bft) W 276 1 min 0,000 mm 4,5 UV-I 583 W/m 17,2 C 15,2 C 25,7 km/h (4 Bft) 95,83 %
29.06.2018 13:58 18,9 C 20,0 C 89 % 1012,9 hPa 0,0 l/m 17,5 km/h (3 Bft) SW 227 1 min 0,000 mm 4,6 UV-I 636 W/m 17,0 C 15,3 C 29,0 km/h (5 Bft) 92,31 %
29.06.2018 13:59 18,9 C 20,0 C 89 % 1012,9 hPa 0,0 l/m 23,1 km/h (4 Bft) SW 227 1 min 0,000 mm 4,5 UV-I 679 W/m 17,0 C 14,2 C 29,0 km/h (5 Bft) 95,83 %
29.06.2018 14:00 18,9 C 20,0 C 89 % 1012,9 hPa 0,0 l/m 18,6 km/h (3 Bft) SW 234 1 min 0,356 mm 4,7 UV-I 679 W/m 17,0 C 15,1 C 22,5 km/h (4 Bft) 95,65 %
29.06.2018 14:02 19,0 C 20,0 C 89 % 1012,9 hPa 0,0 l/m 17,2 km/h (3 Bft) W 272 2 min 0,000 mm 5,2 UV-I 737 W/m 17,1 C 15,5 C 24,1 km/h (4 Bft) 97,87 %
29.06.2018 14:03 19,2 C 20,0 C 90 % 1013,0 hPa 0,0 l/m 18,2 km/h (3 Bft) W-NW 293 1 min 0,000 mm 4,6 UV-I 1020 W/m 17,5 C 15,5 C 25,7 km/h (4 Bft) 95,83 %
29.06.2018 14:04 19,3 C 20,0 C 89 % 1012,9 hPa 0,0 l/m 15,5 km/h (3 Bft) W-SW 246 1 min 0,000 mm 4,7 UV-I 1020 W/m 17,4 C 16,3 C 24,1 km/h (4 Bft) 100,00 %
29.06.2018 14:05 19,3 C 20,0 C 89 % 1013,0 hPa 0,0 l/m 18,8 km/h (3 Bft) W 262 1 min 0,000 mm 5,1 UV-I 1020 W/m 17,4 C 15,5 C 24,1 km/h (4 Bft) 95,83 %
29.06.2018 14:06 19,3 C 20,0 C 88 % 1012,9 hPa 0,0 l/m 15,8 km/h (3 Bft) W 269 1 min 0,000 mm 4,6 UV-I 1020 W/m 17,3 C 16,2 C 22,5 km/h (4 Bft) 100,00 %
29.06.2018 14:07 19,3 C 20,0 C 89 % 1012,9 hPa 0,0 l/m 18,7 km/h (3 Bft) W 265 1 min 0,000 mm 5,0 UV-I 999 W/m 17,4 C 15,6 C 24,1 km/h (4 Bft) 95,83 %
29.06.2018 14:08 19,3 C 20,0 C 88 % 1012,9 hPa 0,0 l/m 14,1 km/h (3 Bft) SW 218 1 min 0,000 mm 5,0 UV-I 921 W/m 17,3 C 16,6 C 19,3 km/h (3 Bft) 95,83 %
29.06.2018 14:09 19,4 C 20,0 C 89 % 1012,9 hPa 0,0 l/m 12,3 km/h (3 Bft) W 267 1 min 0,000 mm 4,7 UV-I 921 W/m 17,5 C 17,3 C 19,3 km/h (3 Bft) 100,00 %
29.06.2018 14:10 19,4 C 20,0 C 88 % 1013,0 hPa 0,0 l/m 17,4 km/h (3 Bft) SW 234 1 min 0,000 mm 4,3 UV-I 921 W/m 17,4 C 16,0 C 24,1 km/h (4 Bft) 95,83 %
29.06.2018 14:11 19,3 C 20,0 C 88 % 1012,9 hPa 0,0 l/m 19,9 km/h (4 Bft) W 263 1 min 0,000 mm 4,0 UV-I 921 W/m 17,3 C 15,3 C 25,7 km/h (4 Bft) 100,00 %
29.06.2018 14:12 19,2 C 20,0 C 87 % 1012,9 hPa 0,0 l/m 21,3 km/h (4 Bft) SW 224 1 min 0,000 mm 4,3 UV-I 897 W/m 17,0 C 14,9 C 32,2 km/h (5 Bft) 95,83 %
29.06.2018 14:13 19,2 C 20,0 C 88 % 1012,9 hPa 0,0 l/m 17,7 km/h (3 Bft) W-SW 243 1 min 0,000 mm 4,6 UV-I 642 W/m 17,2 C 15,6 C 27,4 km/h (4 Bft) 95,65 %
29.06.2018 14:14 19,2 C 20,0 C 88 % 1012,9 hPa 0,0 l/m 16,6 km/h (3 Bft) S-SW 212 1 min 0,000 mm 4,0 UV-I 606 W/m 17,2 C 15,9 C 24,1 km/h (4 Bft) 95,83 %
29.06.2018 14:15 19,2 C 20,0 C 88 % 1012,8 hPa 0,0 l/m 17,5 km/h (3 Bft) SW 225 1 min 0,000 mm 4,0 UV-I 545 W/m 17,2 C 15,7 C 25,7 km/h (4 Bft) 95,65 %
29.06.2018 14:16 19,3 C 20,0 C 88 % 1012,9 hPa 0,0 l/m 15,9 km/h (3 Bft) W-SW 251 1 min 0,000 mm 4,0 UV-I 571 W/m 17,3 C 16,2 C 25,7 km/h (4 Bft) 95,83 %
29.06.2018 14:17 19,3 C 20,0 C 88 % 1012,9 hPa 0,0 l/m 20,2 km/h (4 Bft) W 268 1 min 0,000 mm 3,9 UV-I 584 W/m 17,3 C 15,3 C 25,7 km/h (4 Bft) 100,00 %
29.06.2018 14:18 19,3 C 20,0 C 88 % 1012,8 hPa 0,0 l/m 19,4 km/h (3 Bft) W-SW 258 1 min 0,000 mm 4,5 UV-I 584 W/m 17,3 C 15,4 C 25,7 km/h (4 Bft) 95,83 %
29.06.2018 14:19 19,2 C 20,0 C 88 % 1012,8 hPa 0,0 l/m 19,1 km/h (3 Bft) W 260 1 min 0,000 mm 5,3 UV-I 584 W/m 17,2 C 15,4 C 24,1 km/h (4 Bft) 100,00 %
29.06.2018 14:20 19,3 C 20,0 C 88 % 1012,8 hPa 0,0 l/m 14,0 km/h (3 Bft) W-SW 256 1 min 0,000 mm 4,6 UV-I 584 W/m 17,3 C 16,7 C 20,9 km/h (4 Bft) 96,15 %
29.06.2018 14:21 19,3 C 20,0 C 88 % 1012,8 hPa 0,0 l/m 20,1 km/h (4 Bft) W 259 1 min 0,000 mm 4,7 UV-I 584 W/m 17,3 C 15,3 C 33,8 km/h (5 Bft) 100,00 %
29.06.2018 14:23 19,6 C 20,0 C 87 % 1012,8 hPa 0,0 l/m 19,8 km/h (3 Bft) SW 231 2 min 0,000 mm 5,3 UV-I 902 W/m 17,4 C 15,7 C 32,2 km/h (5 Bft) 96,55 %
29.06.2018 14:24 19,6 C 20,0 C 87 % 1012,8 hPa 0,0 l/m 23,4 km/h (4 Bft) SW 229 1 min 0,000 mm 5,2 UV-I 951 W/m 17,4 C 15,1 C 33,8 km/h (5 Bft) 100,00 %
29.06.2018 14:25 19,7 C 20,0 C 87 % 1012,8 hPa 0,0 l/m 22,3 km/h (4 Bft) W 273 1 min 0,000 mm 5,5 UV-I 948 W/m 17,5 C 15,4 C 30,6 km/h (5 Bft) 100,00 %
29.06.2018 14:26 19,8 C 20,0 C 87 % 1012,8 hPa 0,0 l/m 19,6 km/h (3 Bft) S-SW 213 1 min 0,000 mm 5,5 UV-I 923 W/m 17,6 C 16,0 C 27,4 km/h (4 Bft) 95,65 %
29.06.2018 14:27 19,8 C 20,0 C 85 % 1012,8 hPa 0,0 l/m 23,0 km/h (4 Bft) S-SW 200 1 min 0,000 mm 5,4 UV-I 898 W/m 17,2 C 15,4 C 32,2 km/h (5 Bft) 100,00 %
29.06.2018 14:28 19,8 C 20,0 C 87 % 1012,8 hPa 0,0 l/m 16,4 km/h (3 Bft) W 259 1 min 0,000 mm 5,3 UV-I 931 W/m 17,6 C 16,7 C 24,1 km/h (4 Bft) 100,00 %
29.06.2018 14:29 19,8 C 20,0 C 86 % 1012,8 hPa 0,0 l/m 20,0 km/h (4 Bft) W-SW 244 1 min 0,000 mm 5,5 UV-I 949 W/m 17,4 C 15,9 C 35,4 km/h (5 Bft) 100,00 %
29.06.2018 14:30 19,9 C 20,0 C 86 % 1012,8 hPa 0,0 l/m 20,7 km/h (4 Bft) S-SW 207 1 min 0,000 mm 5,6 UV-I 974 W/m 17,5 C 15,9 C 29,0 km/h (5 Bft) 92,86 %
29.06.2018 14:31 19,8 C 20,0 C 85 % 1012,9 hPa 0,0 l/m 21,5 km/h (4 Bft) W-SW 246 1 min 0,000 mm 5,2 UV-I 974 W/m 17,2 C 15,7 C 29,0 km/h (5 Bft) 100,00 %
29.06.2018 14:32 19,9 C 20,0 C 86 % 1012,8 hPa 0,0 l/m 22,1 km/h (4 Bft) W-SW 238 1 min 0,000 mm 5,4 UV-I 965 W/m 17,5 C 15,7 C 30,6 km/h (5 Bft) 100,00 %
29.06.2018 14:33 19,9 C 20,0 C 85 % 1012,8 hPa 0,0 l/m 22,5 km/h (4 Bft) SW 232 1 min 0,000 mm 5,3 UV-I 949 W/m 17,3 C 15,6 C 33,8 km/h (5 Bft) 100,00 %
29.06.2018 14:34 19,9 C 20,0 C 85 % 1012,8 hPa 0,0 l/m 25,3 km/h (4 Bft) SW 223 1 min 0,000 mm 5,4 UV-I 955 W/m 17,3 C 15,2 C 32,2 km/h (5 Bft) 95,65 %
29.06.2018 14:35 19,9 C 20,0 C 85 % 1012,8 hPa 0,0 l/m 21,7 km/h (4 Bft) W 259 1 min 0,000 mm 5,4 UV-I 969 W/m 17,3 C 15,8 C 27,4 km/h (4 Bft) 100,00 %
29.06.2018 14:36 20,0 C 20,0 C 85 % 1012,8 hPa 0,0 l/m 17,3 km/h (3 Bft) W 277 1 min 0,000 mm 5,6 UV-I 1001 W/m 17,4 C 16,7 C 25,7 km/h (4 Bft) 100,00 %
29.06.2018 14:37 20,2 C 20,0 C 86 % 1012,7 hPa 0,0 l/m 18,5 km/h (3 Bft) SW 232 1 min 0,000 mm 5,6 UV-I 1007 W/m 17,8 C 16,7 C 25,7 km/h (4 Bft) 100,00 %
29.06.2018 14:38 20,3 C 20,0 C 87 % 1012,8 hPa 0,0 l/m 21,1 km/h (4 Bft) S-SW 209 1 min 0,000 mm 5,2 UV-I 998 W/m 18,1 C 16,4 C 29,0 km/h (5 Bft) 95,65 %
29.06.2018 14:39 20,3 C 20,0 C 84 % 1012,7 hPa 0,0 l/m 16,0 km/h (3 Bft) W 269 1 min 0,000 mm 4,9 UV-I 998 W/m 17,5 C 17,4 C 24,1 km/h (4 Bft) 100,00 %
29.06.2018 14:40 20,3 C 20,0 C 84 % 1012,8 hPa 0,0 l/m 19,0 km/h (3 Bft) SW 231 1 min 0,000 mm 5,2 UV-I 998 W/m 17,5 C 16,8 C 25,7 km/h (4 Bft) 95,65 %
29.06.2018 14:41 20,3 C 20,0 C 84 % 1012,8 hPa 0,0 l/m 19,2 km/h (3 Bft) W-SW 254 1 min 0,000 mm 4,4 UV-I 998 W/m 17,5 C 16,7 C 25,7 km/h (4 Bft) 100,00 %
29.06.2018 14:42 20,3 C 20,0 C 85 % 1012,7 hPa 0,0 l/m 15,3 km/h (3 Bft) W 269 1 min 0,000 mm 4,9 UV-I 991 W/m 17,7 C 17,5 C 19,3 km/h (3 Bft) 95,83 %
29.06.2018 14:43 20,3 C 20,0 C 85 % 1012,7 hPa 0,0 l/m 11,9 km/h (2 Bft) W 260 1 min 0,000 mm 4,9 UV-I 954 W/m 17,7 C 18,4 C 19,3 km/h (3 Bft) 100,00 %
29.06.2018 14:44 20,4 C 20,0 C 85 % 1012,7 hPa 0,0 l/m 14,3 km/h (3 Bft) SW 219 1 min 0,000 mm 4,3 UV-I 954 W/m 17,8 C 17,9 C 25,7 km/h (4 Bft) 100,00 %
29.06.2018 14:45 20,5 C 20,0 C 84 % 1012,7 hPa 0,0 l/m 18,6 km/h (3 Bft) W 265 1 min 0,000 mm 4,2 UV-I 954 W/m 17,7 C 17,1 C 25,7 km/h (4 Bft) 100,00 %
29.06.2018 14:46 20,5 C 20,0 C 84 % 1012,7 hPa 0,0 l/m 16,7 km/h (3 Bft) W 275 1 min 0,000 mm 4,8 UV-I 954 W/m 17,7 C 17,5 C 25,7 km/h (4 Bft) 100,00 %
29.06.2018 14:47 20,5 C 20,0 C 84 % 1012,7 hPa 0,0 l/m 14,7 km/h (3 Bft) W 275 1 min 0,000 mm 4,7 UV-I 900 W/m 17,7 C 17,9 C 25,7 km/h (4 Bft) 100,00 %
29.06.2018 14:48 20,5 C 20,0 C 85 % 1012,6 hPa 0,0 l/m 15,2 km/h (3 Bft) W-NW 288 1 min 0,000 mm 4,9 UV-I 893 W/m 17,9 C 17,8 C 17,7 km/h (3 Bft) 100,00 %
29.06.2018 14:49 20,6 C 20,0 C 85 % 1012,6 hPa 0,0 l/m 19,2 km/h (3 Bft) W 265 1 min 0,000 mm 4,9 UV-I 749 W/m 18,0 C 17,1 C 29,0 km/h (5 Bft) 100,00 %
29.06.2018 14:50 20,6 C 20,0 C 84 % 1012,6 hPa 0,0 l/m 18,1 km/h (3 Bft) W 259 1 min 0,000 mm 4,6 UV-I 492 W/m 17,8 C 17,3 C 24,1 km/h (4 Bft) 100,00 %
29.06.2018 14:51 20,5 C 20,0 C 84 % 1012,6 hPa 0,0 l/m 16,8 km/h (3 Bft) W 262 1 min 0,000 mm 4,3 UV-I 492 W/m 17,7 C 17,5 C 27,4 km/h (4 Bft) 92,11 %
29.06.2018 14:52 20,6 C 20,0 C 84 % 1012,6 hPa 0,0 l/m 13,1 km/h (3 Bft) SW 236 1 min 0,000 mm 4,3 UV-I 674 W/m 17,8 C 18,4 C 25,7 km/h (4 Bft) 100,00 %
29.06.2018 14:53 20,6 C 20,0 C 84 % 1012,7 hPa 0,0 l/m 19,2 km/h (3 Bft) W-SW 250 1 min 0,000 mm 4,5 UV-I 722 W/m 17,8 C 17,1 C 27,4 km/h (4 Bft) 91,30 %
29.06.2018 14:54 20,6 C 20,0 C 84 % 1012,7 hPa 0,0 l/m 15,1 km/h (3 Bft) W-SW 257 1 min 0,000 mm 4,7 UV-I 722 W/m 17,8 C 18,0 C 22,5 km/h (4 Bft) 100,00 %
29.06.2018 14:55 20,6 C 20,0 C 83 % 1012,6 hPa 0,0 l/m 14,6 km/h (3 Bft) W 261 1 min 0,000 mm 4,3 UV-I 722 W/m 17,6 C 18,1 C 25,7 km/h (4 Bft) 100,00 %
29.06.2018 14:56 20,5 C 20,0 C 84 % 1012,6 hPa 0,0 l/m 14,9 km/h (3 Bft) W-SW 244 1 min 0,000 mm 4,6 UV-I 629 W/m 17,7 C 17,9 C 20,9 km/h (4 Bft) 92,31 %
29.06.2018 14:57 20,4 C 20,0 C 84 % 1012,6 hPa 0,0 l/m 23,4 km/h (4 Bft) W-SW 241 1 min 0,000 mm 4,7 UV-I 559 W/m 17,6 C 16,2 C 30,6 km/h (5 Bft) 100,00 %
29.06.2018 14:58 20,4 C 20,0 C 83 % 1012,6 hPa 0,0 l/m 21,3 km/h (4 Bft) W 265 1 min 0,000 mm 4,8 UV-I 893 W/m 17,4 C 16,5 C 27,4 km/h (4 Bft) 100,00 %
29.06.2018 14:59 20,4 C 20,0 C 84 % 1012,6 hPa 0,0 l/m 15,7 km/h (3 Bft) SW 234 1 min 0,000 mm 4,8 UV-I 963 W/m 17,6 C 17,6 C 19,3 km/h (3 Bft) 100,00 %
29.06.2018 15:00 20,4 C 20,0 C 84 % 1012,6 hPa 0,0 l/m 20,1 km/h (4 Bft) W-SW 253 1 min 0,000 mm 4,9 UV-I 970 W/m 17,6 C 16,7 C 25,7 km/h (4 Bft) 95,83 %
29.06.2018 15:02 20,5 C 20,0 C 84 % 1012,5 hPa 0,0 l/m 20,6 km/h (4 Bft) W 261 2 min 0,482 mm 4,5 UV-I 991 W/m 17,7 C 16,7 C 32,2 km/h (5 Bft) 100,00 %
29.06.2018 15:03 20,5 C 20,0 C 83 % 1012,6 hPa 0,0 l/m 23,7 km/h (4 Bft) W-SW 243 1 min 0,000 mm 4,3 UV-I 991 W/m 17,5 C 16,3 C 32,2 km/h (5 Bft) 100,00 %
29.06.2018 15:04 20,4 C 20,0 C 83 % 1012,6 hPa 0,0 l/m 26,3 km/h (4 Bft) W-SW 240 1 min 0,000 mm 3,7 UV-I 991 W/m 17,4 C 15,7 C 33,8 km/h (5 Bft) 95,65 %
29.06.2018 15:05 20,4 C 20,0 C 83 % 1012,5 hPa 0,0 l/m 16,4 km/h (3 Bft) W-SW 254 1 min 0,000 mm 3,8 UV-I 454 W/m 17,4 C 17,4 C 27,4 km/h (4 Bft) 100,00 %
29.06.2018 15:06 20,4 C 20,0 C 84 % 1012,6 hPa 0,0 l/m 15,5 km/h (3 Bft) W 265 1 min 0,000 mm 3,8 UV-I 454 W/m 17,6 C 17,6 C 24,1 km/h (4 Bft) 95,65 %
29.06.2018 15:07 20,4 C 20,0 C 84 % 1012,6 hPa 0,0 l/m 17,2 km/h (3 Bft) W 261 1 min 0,000 mm 3,8 UV-I 454 W/m 17,6 C 17,3 C 25,7 km/h (4 Bft) 100,00 %
29.06.2018 15:08 20,5 C 20,0 C 84 % 1012,6 hPa 0,0 l/m 20,1 km/h (4 Bft) S-SW 209 1 min 0,000 mm 3,4 UV-I 502 W/m 17,7 C 16,8 C 27,4 km/h (4 Bft) 95,65 %
29.06.2018 15:09 20,4 C 20,0 C 83 % 1012,6 hPa 0,0 l/m 20,3 km/h (4 Bft) W-SW 242 1 min 0,000 mm 3,1 UV-I 525 W/m 17,4 C 16,7 C 32,2 km/h (5 Bft) 100,00 %
29.06.2018 15:10 20,4 C 20,0 C 83 % 1012,5 hPa 0,0 l/m 17,2 km/h (3 Bft) SW 230 1 min 0,000 mm 3,0 UV-I 471 W/m 17,4 C 17,3 C 24,1 km/h (4 Bft) 95,65 %
29.06.2018 15:11 20,3 C 20,0 C 83 % 1012,6 hPa 0,0 l/m 23,7 km/h (4 Bft) W-SW 241 0 min 0,000 mm 2,6 UV-I 408 W/m 17,3 C 16,0 C 30,6 km/h (5 Bft) 95,83 %
29.06.2018 15:12 20,2 C 20,0 C 83 % 1012,5 hPa 0,0 l/m 25,6 km/h (4 Bft) W-SW 238 0 min 0,000 mm 2,2 UV-I 387 W/m 17,2 C 15,6 C 32,2 km/h (5 Bft) 100,00 %
29.06.2018 15:13 20,2 C 20,0 C 84 % 1012,5 hPa 0,0 l/m 20,7 km/h (4 Bft) W 270 0 min 0,000 mm 2,3 UV-I 333 W/m 17,4 C 16,3 C 29,0 km/h (5 Bft) 95,83 %
29.06.2018 15:14 20,1 C 20,0 C 84 % 1012,5 hPa 0,0 l/m 16,7 km/h (3 Bft) SW 233 0 min 0,000 mm 2,3 UV-I 340 W/m 17,3 C 17,0 C 24,1 km/h (4 Bft) 100,00 %
29.06.2018 15:15 20,1 C 20,0 C 84 % 1012,4 hPa 0,0 l/m 18,4 km/h (3 Bft) W-SW 248 0 min 0,000 mm 2,4 UV-I 370 W/m 17,3 C 16,6 C 25,7 km/h (4 Bft) 95,65 %
29.06.2018 15:16 20,1 C 20,0 C 85 % 1012,5 hPa 0,0 l/m 18,8 km/h (3 Bft) W-SW 247 1 min 0,000 mm 2,5 UV-I 445 W/m 17,5 C 16,6 C 24,1 km/h (4 Bft) 100,00 %
29.06.2018 15:18 20,1 C 20,0 C 85 % 1012,5 hPa 0,0 l/m 19,9 km/h (4 Bft) SW 215 2 min 0,000 mm 3,0 UV-I 466 W/m 17,5 C 16,4 C 32,2 km/h (5 Bft) 96,00 %
29.06.2018 15:19 20,1 C 20,0 C 84 % 1012,5 hPa 0,0 l/m 22,6 km/h (4 Bft) W-SW 243 1 min 0,000 mm 2,5 UV-I 519 W/m 17,3 C 15,9 C 29,0 km/h (5 Bft) 96,15 %
29.06.2018 15:20 20,1 C 20,0 C 84 % 1012,5 hPa 0,0 l/m 21,7 km/h (4 Bft) W 261 0 min 0,000 mm 2,2 UV-I 418 W/m 17,3 C 16,0 C 29,0 km/h (5 Bft) 100,00 %
29.06.2018 15:21 20,1 C 20,0 C 85 % 1012,5 hPa 0,0 l/m 17,5 km/h (3 Bft) W-SW 243 0 min 0,000 mm 2,0 UV-I 331 W/m 17,5 C 16,8 C 22,5 km/h (4 Bft) 95,65 %
29.06.2018 15:22 20,2 C 20,0 C 85 % 1012,5 hPa 0,0 l/m 18,1 km/h (3 Bft) W-SW 239 0 min 0,000 mm 1,7 UV-I 262 W/m 17,6 C 16,8 C 25,7 km/h (4 Bft) 95,83 %
29.06.2018 15:23 20,2 C 20,0 C 85 % 1012,5 hPa 0,0 l/m 20,3 km/h (4 Bft) SW 234 0 min 0,000 mm 1,6 UV-I 239 W/m 17,6 C 16,4 C 29,0 km/h (5 Bft) 95,65 %
29.06.2018 15:24 20,2 C 20,0 C 84 % 1012,4 hPa 0,0 l/m 19,7 km/h (3 Bft) W-SW 248 0 min 0,000 mm 1,5 UV-I 232 W/m 17,4 C 16,5 C 25,7 km/h (4 Bft) 95,83 %
29.06.2018 15:25 20,1 C 20,0 C 84 % 1012,5 hPa 0,0 l/m 16,7 km/h (3 Bft) S-SW 201 0 min 0,000 mm 1,4 UV-I 225 W/m 17,3 C 17,0 C 24,1 km/h (4 Bft) 100,00 %
29.06.2018 15:26 20,1 C 20,0 C 84 % 1012,4 hPa 0,0 l/m 15,7 km/h (3 Bft) S 182 0 min 0,000 mm 1,4 UV-I 229 W/m 17,3 C 17,2 C 25,7 km/h (4 Bft) 95,83 %
29.06.2018 15:27 20,0 C 20,0 C 84 % 1012,4 hPa 0,0 l/m 15,7 km/h (3 Bft) W 260 0 min 0,000 mm 1,5 UV-I 230 W/m 17,2 C 17,1 C 30,6 km/h (5 Bft) 95,65 %
29.06.2018 15:28 19,9 C 20,0 C 85 % 1012,4 hPa 0,0 l/m 16,9 km/h (3 Bft) SW 234 0 min 0,000 mm 1,7 UV-I 272 W/m 17,3 C 16,7 C 24,1 km/h (4 Bft) 95,83 %
29.06.2018 15:29 19,9 C 20,0 C 85 % 1012,4 hPa 0,0 l/m 16,0 km/h (3 Bft) SW 235 0 min 0,000 mm 1,6 UV-I 272 W/m 17,3 C 16,9 C 22,5 km/h (4 Bft) 95,65 %
29.06.2018 15:30 19,9 C 20,0 C 85 % 1012,4 hPa 0,0 l/m 17,4 km/h (3 Bft) W-SW 238 0 min 0,000 mm 1,4 UV-I 250 W/m 17,3 C 16,6 C 29,0 km/h (5 Bft) 100,00 %
29.06.2018 15:31 19,9 C 20,0 C 85 % 1012,4 hPa 0,0 l/m 19,0 km/h (3 Bft) SW 232 0 min 0,000 mm 1,2 UV-I 203 W/m 17,3 C 16,3 C 25,7 km/h (4 Bft) 95,65 %
29.06.2018 15:32 19,9 C 20,0 C 85 % 1012,5 hPa 0,0 l/m 19,7 km/h (3 Bft) SW 236 0 min 0,000 mm 1,0 UV-I 177 W/m 17,3 C 16,1 C 25,7 km/h (4 Bft) 100,00 %
29.06.2018 15:33 19,9 C 20,0 C 85 % 1012,4 hPa 0,0 l/m 18,2 km/h (3 Bft) SW 221 0 min 0,000 mm 1,0 UV-I 165 W/m 17,3 C 16,4 C 27,4 km/h (4 Bft) 92,86 %
29.06.2018 15:34 19,8 C 20,0 C 85 % 1012,5 hPa 0,0 l/m 19,4 km/h (3 Bft) W-SW 252 0 min 0,000 mm 1,0 UV-I 163 W/m 17,2 C 16,1 C 25,7 km/h (4 Bft) 100,00 %
29.06.2018 15:35 19,8 C 20,0 C 85 % 1012,4 hPa 0,0 l/m 15,0 km/h (3 Bft) W 269 0 min 0,000 mm 1,0 UV-I 172 W/m 17,2 C 17,0 C 25,7 km/h (4 Bft) 95,83 %
29.06.2018 15:36 19,8 C 20,0 C 85 % 1012,4 hPa 0,0 l/m 18,8 km/h (3 Bft) W-SW 257 0 min 0,000 mm 1,1 UV-I 187 W/m 17,2 C 16,2 C 25,7 km/h (4 Bft) 95,65 %
29.06.2018 15:37 19,8 C 20,0 C 85 % 1012,4 hPa 0,0 l/m 19,2 km/h (3 Bft) W 262 0 min 0,000 mm 1,3 UV-I 207 W/m 17,2 C 16,1 C 27,4 km/h (4 Bft) 100,00 %
29.06.2018 15:38 19,8 C 20,0 C 85 % 1012,5 hPa 0,0 l/m 20,2 km/h (4 Bft) W 273 0 min 0,000 mm 1,4 UV-I 225 W/m 17,2 C 15,9 C 25,7 km/h (4 Bft) 100,00 %
29.06.2018 15:39 19,8 C 20,0 C 85 % 1012,4 hPa 0,0 l/m 17,6 km/h (3 Bft) W-SW 249 0 min 0,000 mm 1,5 UV-I 238 W/m 17,2 C 16,4 C 25,7 km/h (4 Bft) 100,00 %
29.06.2018 15:40 19,8 C 20,0 C 85 % 1012,4 hPa 0,0 l/m 16,8 km/h (3 Bft) W-SW 248 0 min 0,000 mm 1,5 UV-I 238 W/m 17,2 C 16,6 C 24,1 km/h (4 Bft) 95,65 %
29.06.2018 15:41 19,9 C 20,0 C 85 % 1012,4 hPa 0,0 l/m 15,2 km/h (3 Bft) W-SW 254 0 min 0,000 mm 1,4 UV-I 226 W/m 17,3 C 17,1 C 19,3 km/h (3 Bft) 100,00 %
29.06.2018 15:42 19,9 C 20,0 C 85 % 1012,4 hPa 0,0 l/m 11,4 km/h (2 Bft) W 269 0 min 0,000 mm 1,3 UV-I 214 W/m 17,3 C 18,1 C 14,5 km/h (3 Bft) 100,00 %
29.06.2018 15:43 19,9 C 20,0 C 85 % 1012,4 hPa 0,0 l/m 16,2 km/h (3 Bft) W-SW 240 0 min 0,000 mm 1,3 UV-I 206 W/m 17,3 C 16,9 C 22,5 km/h (4 Bft) 100,00 %
29.06.2018 15:44 19,9 C 20,0 C 85 % 1012,4 hPa 0,0 l/m 15,7 km/h (3 Bft) W-SW 248 0 min 0,000 mm 1,2 UV-I 203 W/m 17,3 C 17,0 C 24,1 km/h (4 Bft) 95,65 %
29.06.2018 15:45 19,9 C 20,0 C 85 % 1012,4 hPa 0,0 l/m 16,2 km/h (3 Bft) SW 235 0 min 0,000 mm 1,2 UV-I 202 W/m 17,3 C 16,9 C 22,5 km/h (4 Bft) 100,00 %
29.06.2018 15:46 19,9 C 20,0 C 85 % 1012,4 hPa 0,0 l/m 18,7 km/h (3 Bft) SW 232 0 min 0,000 mm 1,2 UV-I 200 W/m 17,3 C 16,3 C 24,1 km/h (4 Bft) 95,65 %
29.06.2018 15:47 19,9 C 20,0 C 85 % 1012,3 hPa 0,0 l/m 13,7 km/h (3 Bft) SW 217 0 min 0,000 mm 1,2 UV-I 200 W/m 17,3 C 17,5 C 17,7 km/h (3 Bft) 100,00 %
29.06.2018 15:48 19,9 C 20,0 C 85 % 1012,4 hPa 0,0 l/m 16,6 km/h (3 Bft) SW 235 0 min 0,000 mm 1,2 UV-I 201 W/m 17,3 C 16,8 C 24,1 km/h (4 Bft) 100,00 %
29.06.2018 15:49 19,9 C 20,0 C 85 % 1012,3 hPa 0,0 l/m 15,5 km/h (3 Bft) W-SW 257 0 min 0,000 mm 1,2 UV-I 202 W/m 17,3 C 17,0 C 22,5 km/h (4 Bft) 100,00 %
29.06.2018 15:50 19,9 C 20,0 C 84 % 1012,3 hPa 0,0 l/m 16,0 km/h (3 Bft) SW 229 0 min 0,000 mm 1,2 UV-I 207 W/m 17,1 C 16,9 C 27,4 km/h (4 Bft) 95,65 %
29.06.2018 15:51 19,9 C 20,0 C 84 % 1012,3 hPa 0,0 l/m 16,6 km/h (3 Bft) W-SW 257 0 min 0,000 mm 1,4 UV-I 226 W/m 17,1 C 16,8 C 20,9 km/h (4 Bft) 100,00 %
29.06.2018 15:52 19,9 C 20,0 C 85 % 1012,3 hPa 0,0 l/m 16,8 km/h (3 Bft) W 260 0 min 0,000 mm 1,4 UV-I 242 W/m 17,3 C 16,7 C 25,7 km/h (4 Bft) 100,00 %
29.06.2018 15:53 19,9 C 20,0 C 85 % 1012,3 hPa 0,0 l/m 14,9 km/h (3 Bft) W 262 0 min 0,000 mm 1,5 UV-I 242 W/m 17,3 C 17,2 C 19,3 km/h (3 Bft) 100,00 %
29.06.2018 15:54 20,0 C 20,0 C 85 % 1012,3 hPa 0,0 l/m 13,1 km/h (3 Bft) W-SW 240 0 min 0,000 mm 1,7 UV-I 254 W/m 17,4 C 17,7 C 19,3 km/h (3 Bft) 100,00 %
29.06.2018 15:55 20,1 C 20,0 C 85 % 1012,3 hPa 0,0 l/m 15,8 km/h (3 Bft) W 271 0 min 0,000 mm 1,8 UV-I 264 W/m 17,5 C 17,2 C 24,1 km/h (4 Bft) 100,00 %
29.06.2018 15:56 20,1 C 20,0 C 84 % 1012,2 hPa 0,0 l/m 18,0 km/h (3 Bft) W 259 0 min 0,000 mm 2,0 UV-I 283 W/m 17,3 C 16,7 C 25,7 km/h (4 Bft) 95,65 %
29.06.2018 15:57 20,1 C 20,0 C 84 % 1012,1 hPa 0,0 l/m 16,2 km/h (3 Bft) W 269 0 min 0,000 mm 2,2 UV-I 325 W/m 17,3 C 17,1 C 22,5 km/h (4 Bft) 100,00 %
29.06.2018 15:58 20,1 C 20,0 C 84 % 1012,1 hPa 0,0 l/m 17,9 km/h (3 Bft) W 267 1 min 0,000 mm 2,5 UV-I 425 W/m 17,3 C 16,7 C 29,0 km/h (5 Bft) 100,00 %
29.06.2018 15:59 20,2 C 20,0 C 84 % 1012,2 hPa 0,0 l/m 15,6 km/h (3 Bft) SW 236 1 min 0,000 mm 2,6 UV-I 463 W/m 17,4 C 17,4 C 22,5 km/h (4 Bft) 100,00 %
29.06.2018 16:00 20,2 C 20,6 C 84 % 1012,1 hPa 0,0 l/m 18,5 km/h (3 Bft) SW 236 1 min 0,229 mm 2,3 UV-I 448 W/m 17,4 C 16,7 C 25,7 km/h (4 Bft) 100,00 %
29.06.2018 16:02 20,2 C 20,0 C 83 % 1012,1 hPa 0,0 l/m 21,2 km/h (4 Bft) W-NW 284 2 min 0,000 mm 2,1 UV-I 410 W/m 17,2 C 16,3 C 29,0 km/h (5 Bft) 100,00 %
29.06.2018 16:03 20,3 C 20,6 C 84 % 1012,1 hPa 0,0 l/m 13,5 km/h (3 Bft) SW 231 0 min 0,000 mm 2,0 UV-I 286 W/m 17,5 C 18,0 C 17,7 km/h (3 Bft) 100,00 %
29.06.2018 16:04 20,3 C 20,6 C 84 % 1012,1 hPa 0,0 l/m 20,4 km/h (4 Bft) SW 236 0 min 0,000 mm 2,0 UV-I 304 W/m 17,5 C 16,5 C 29,0 km/h (5 Bft) 100,00 %
29.06.2018 16:05 20,3 C 20,0 C 83 % 1012,1 hPa 0,0 l/m 22,1 km/h (4 Bft) W-SW 250 0 min 0,000 mm 1,8 UV-I 283 W/m 17,3 C 16,2 C 29,0 km/h (5 Bft) 100,00 %
29.06.2018 16:06 20,3 C 20,0 C 83 % 1012,1 hPa 0,0 l/m 18,1 km/h (3 Bft) SW 227 0 min 0,000 mm 1,6 UV-I 254 W/m 17,3 C 17,0 C 27,4 km/h (4 Bft) 100,00 %
29.06.2018 16:07 20,3 C 20,0 C 83 % 1012,0 hPa 0,0 l/m 20,9 km/h (4 Bft) W-SW 240 0 min 0,000 mm 1,5 UV-I 248 W/m 17,3 C 16,4 C 30,6 km/h (5 Bft) 100,00 %
29.06.2018 16:08 20,2 C 20,0 C 83 % 1012,1 hPa 0,0 l/m 22,1 km/h (4 Bft) W-SW 240 0 min 0,000 mm 1,4 UV-I 239 W/m 17,2 C 16,1 C 27,4 km/h (4 Bft) 100,00 %
29.06.2018 16:09 20,2 C 20,0 C 83 % 1012,1 hPa 0,0 l/m 19,9 km/h (4 Bft) W-SW 249 0 min 0,000 mm 1,3 UV-I 229 W/m 17,2 C 16,5 C 27,4 km/h (4 Bft) 95,65 %
29.06.2018 16:10 20,2 C 20,6 C 83 % 1012,1 hPa 0,0 l/m 22,1 km/h (4 Bft) SW 225 0 min 0,000 mm 1,3 UV-I 225 W/m 17,2 C 16,1 C 29,0 km/h (5 Bft) 100,00 %
29.06.2018 16:11 20,2 C 20,0 C 83 % 1012,0 hPa 0,0 l/m 16,9 km/h (3 Bft) SW 220 0 min 0,000 mm 1,3 UV-I 229 W/m 17,2 C 17,1 C 30,6 km/h (5 Bft) 100,00 %
29.06.2018 16:12 20,2 C 20,0 C 83 % 1012,0 hPa 0,0 l/m 19,7 km/h (3 Bft) W-SW 246 0 min 0,000 mm 1,3 UV-I 234 W/m 17,2 C 16,5 C 29,0 km/h (5 Bft) 100,00 %
29.06.2018 16:13 20,2 C 20,6 C 83 % 1012,0 hPa 0,0 l/m 18,0 km/h (3 Bft) SW 229 0 min 0,000 mm 1,3 UV-I 235 W/m 17,2 C 16,8 C 25,7 km/h (4 Bft) 100,00 %
29.06.2018 16:14 20,2 C 20,6 C 83 % 1012,0 hPa 0,0 l/m 24,6 km/h (4 Bft) W-SW 252 0 min 0,000 mm 1,3 UV-I 232 W/m 17,2 C 15,7 C 30,6 km/h (5 Bft) 100,00 %
29.06.2018 16:15 20,2 C 20,6 C 84 % 1012,0 hPa 0,0 l/m 20,0 km/h (4 Bft) W-SW 244 0 min 0,000 mm 1,3 UV-I 232 W/m 17,4 C 16,5 C 29,0 km/h (5 Bft) 100,00 %
29.06.2018 16:16 20,2 C 20,6 C 84 % 1012,0 hPa 0,0 l/m 23,5 km/h (4 Bft) W-SW 254 0 min 0,000 mm 1,3 UV-I 236 W/m 17,4 C 15,9 C 32,2 km/h (5 Bft) 100,00 %
29.06.2018 16:17 20,2 C 20,6 C 84 % 1012,0 hPa 0,0 l/m 20,8 km/h (4 Bft) W-SW 237 0 min 0,000 mm 1,3 UV-I 238 W/m 17,4 C 16,3 C 27,4 km/h (4 Bft) 96,15 %
29.06.2018 16:18 20,2 C 20,6 C 83 % 1012,0 hPa 0,0 l/m 15,5 km/h (3 Bft) W-SW 254 0 min 0,000 mm 1,3 UV-I 241 W/m 17,2 C 17,4 C 22,5 km/h (4 Bft) 100,00 %
29.06.2018 16:19 20,2 C 20,6 C 84 % 1012,0 hPa 0,0 l/m 14,6 km/h (3 Bft) W 275 0 min 0,000 mm 1,3 UV-I 245 W/m 17,4 C 17,6 C 17,7 km/h (3 Bft) 100,00 %
29.06.2018 16:20 20,2 C 20,6 C 83 % 1012,0 hPa 0,0 l/m 18,0 km/h (3 Bft) W-SW 246 0 min 0,000 mm 1,4 UV-I 252 W/m 17,2 C 16,8 C 22,5 km/h (4 Bft) 100,00 %
29.06.2018 16:21 20,2 C 20,6 C 83 % 1012,0 hPa 0,0 l/m 15,8 km/h (3 Bft) W-NW 285 0 min 0,000 mm 1,5 UV-I 266 W/m 17,2 C 17,3 C 22,5 km/h (4 Bft) 100,00 %
29.06.2018 16:22 20,2 C 20,6 C 84 % 1012,0 hPa 0,0 l/m 13,8 km/h (3 Bft) W-SW 253 0 min 0,000 mm 1,5 UV-I 282 W/m 17,4 C 17,8 C 17,7 km/h (3 Bft) 100,00 %
29.06.2018 16:23 20,3 C 20,6 C 84 % 1012,0 hPa 0,0 l/m 20,0 km/h (4 Bft) W 273 0 min 0,000 mm 1,6 UV-I 298 W/m 17,5 C 16,6 C 27,4 km/h (4 Bft) 100,00 %
29.06.2018 16:24 20,3 C 20,6 C 83 % 1012,0 hPa 0,0 l/m 19,6 km/h (3 Bft) SW 224 0 min 0,000 mm 1,8 UV-I 309 W/m 17,3 C 16,7 C 27,4 km/h (4 Bft) 100,00 %
29.06.2018 16:25 20,3 C 20,6 C 83 % 1012,0 hPa 0,0 l/m 17,6 km/h (3 Bft) S-SW 194 0 min 0,000 mm 1,9 UV-I 309 W/m 17,3 C 17,1 C 24,1 km/h (4 Bft) 100,00 %
29.06.2018 16:26 20,4 C 20,6 C 83 % 1012,0 hPa 0,0 l/m 20,8 km/h (4 Bft) SW 219 0 min 0,000 mm 1,6 UV-I 327 W/m 17,4 C 16,6 C 33,8 km/h (5 Bft) 100,00 %
29.06.2018 16:27 20,4 C 20,6 C 82 % 1011,9 hPa 0,0 l/m 17,6 km/h (3 Bft) W 263 0 min 0,000 mm 1,5 UV-I 304 W/m 17,2 C 17,2 C 27,4 km/h (4 Bft) 95,83 %
29.06.2018 16:28 20,5 C 20,6 C 82 % 1011,9 hPa 0,0 l/m 15,7 km/h (3 Bft) W-SW 244 0 min 0,000 mm 1,4 UV-I 299 W/m 17,3 C 17,7 C 19,3 km/h (3 Bft) 100,00 %
29.06.2018 16:29 20,5 C 20,6 C 82 % 1011,9 hPa 0,0 l/m 16,6 km/h (3 Bft) SW 223 0 min 0,000 mm 1,4 UV-I 262 W/m 17,3 C 17,5 C 30,6 km/h (5 Bft) 100,00 %
29.06.2018 16:30 20,5 C 20,6 C 81 % 1011,9 hPa 0,0 l/m 20,3 km/h (4 Bft) SW 234 0 min 0,000 mm 1,3 UV-I 257 W/m 17,1 C 16,8 C 27,4 km/h (4 Bft) 95,65 %
29.06.2018 16:31 20,5 C 20,6 C 82 % 1011,9 hPa 0,0 l/m 23,3 km/h (4 Bft) SW 223 0 min 0,000 mm 1,3 UV-I 253 W/m 17,3 C 16,3 C 30,6 km/h (5 Bft) 100,00 %
29.06.2018 16:32 20,5 C 20,6 C 82 % 1011,9 hPa 0,0 l/m 25,3 km/h (4 Bft) W-SW 244 0 min 0,000 mm 1,3 UV-I 248 W/m 17,3 C 16,0 C 30,6 km/h (5 Bft) 100,00 %
29.06.2018 16:33 20,5 C 20,6 C 81 % 1011,8 hPa 0,0 l/m 22,3 km/h (4 Bft) SW 232 0 min 0,000 mm 1,3 UV-I 238 W/m 17,1 C 16,5 C 32,2 km/h (5 Bft) 100,00 %
29.06.2018 16:34 20,4 C 20,6 C 82 % 1011,8 hPa 0,0 l/m 19,4 km/h (3 Bft) SW 227 0 min 0,000 mm 1,2 UV-I 227 W/m 17,2 C 16,8 C 27,4 km/h (4 Bft) 100,00 %
29.06.2018 16:35 20,4 C 20,6 C 82 % 1011,8 hPa 0,0 l/m 23,3 km/h (4 Bft) SW 229 0 min 0,000 mm 1,2 UV-I 220 W/m 17,2 C 16,2 C 33,8 km/h (5 Bft) 100,00 %
29.06.2018 16:36 20,4 C 20,6 C 81 % 1011,8 hPa 0,0 l/m 27,1 km/h (4 Bft) W-SW 247 0 min 0,000 mm 1,2 UV-I 218 W/m 17,0 C 15,6 C 40,2 km/h (6 Bft) 100,00 %
29.06.2018 16:38 20,3 C 20,6 C 81 % 1011,8 hPa 0,0 l/m 21,0 km/h (4 Bft) W 281 0 min 0,000 mm 1,2 UV-I 224 W/m 16,9 C 16,4 C 35,4 km/h (5 Bft) 94,83 %
29.06.2018 16:39 20,3 C 20,6 C 82 % 1011,8 hPa 0,0 l/m 20,4 km/h (4 Bft) W 269 0 min 0,000 mm 1,3 UV-I 238 W/m 17,1 C 16,5 C 29,0 km/h (5 Bft) 100,00 %
29.06.2018 16:40 20,3 C 20,6 C 82 % 1011,8 hPa 0,0 l/m 21,2 km/h (4 Bft) W 261 0 min 0,000 mm 1,4 UV-I 248 W/m 17,1 C 16,4 C 27,4 km/h (4 Bft) 100,00 %
29.06.2018 16:41 20,3 C 20,6 C 82 % 1011,8 hPa 0,0 l/m 24,7 km/h (4 Bft) W 264 0 min 0,000 mm 1,4 UV-I 258 W/m 17,1 C 15,8 C 32,2 km/h (5 Bft) 95,65 %
29.06.2018 16:42 20,3 C 20,6 C 82 % 1011,8 hPa 0,0 l/m 15,6 km/h (3 Bft) W-SW 252 0 min 0,000 mm 1,5 UV-I 273 W/m 17,1 C 17,5 C 20,9 km/h (4 Bft) 100,00 %
29.06.2018 16:43 20,3 C 20,6 C 82 % 1011,7 hPa 0,0 l/m 22,0 km/h (4 Bft) W-SW 244 0 min 0,000 mm 1,7 UV-I 300 W/m 17,1 C 16,3 C 32,2 km/h (5 Bft) 100,00 %
29.06.2018 16:44 20,3 C 20,6 C 81 % 1011,7 hPa 0,0 l/m 23,8 km/h (4 Bft) W-SW 242 0 min 0,000 mm 1,7 UV-I 322 W/m 16,9 C 16,0 C 27,4 km/h (4 Bft) 100,00 %
29.06.2018 16:45 20,3 C 20,6 C 81 % 1011,8 hPa 0,0 l/m 24,4 km/h (4 Bft) W 259 0 min 0,000 mm 1,8 UV-I 343 W/m 16,9 C 15,9 C 35,4 km/h (5 Bft) 100,00 %
29.06.2018 16:46 20,4 C 20,6 C 82 % 1011,8 hPa 0,0 l/m 18,9 km/h (3 Bft) SW 229 0 min 0,000 mm 2,2 UV-I 343 W/m 17,2 C 16,9 C 27,4 km/h (4 Bft) 100,00 %
29.06.2018 16:47 20,4 C 20,6 C 82 % 1011,8 hPa 0,0 l/m 23,6 km/h (4 Bft) SW 226 0 min 0,000 mm 2,1 UV-I 343 W/m 17,2 C 16,1 C 30,6 km/h (5 Bft) 95,65 %
29.06.2018 16:48 20,6 C 20,6 C 81 % 1011,8 hPa 0,0 l/m 25,4 km/h (4 Bft) W-SW 241 1 min 0,000 mm 2,1 UV-I 523 W/m 17,2 C 16,1 C 30,6 km/h (5 Bft) 100,00 %
29.06.2018 16:49 20,6 C 20,6 C 82 % 1011,8 hPa 0,0 l/m 23,9 km/h (4 Bft) W-SW 248 1 min 0,000 mm 2,3 UV-I 694 W/m 17,4 C 16,4 C 32,2 km/h (5 Bft) 100,00 %
29.06.2018 16:50 20,8 C 20,6 C 82 % 1011,7 hPa 0,0 l/m 19,2 km/h (3 Bft) SW 229 1 min 0,000 mm 2,3 UV-I 710 W/m 17,6 C 17,4 C 27,4 km/h (4 Bft) 100,00 %
29.06.2018 16:51 20,8 C 20,6 C 81 % 1011,7 hPa 0,0 l/m 16,3 km/h (3 Bft) W-SW 245 1 min 0,000 mm 2,1 UV-I 626 W/m 17,4 C 17,9 C 20,9 km/h (4 Bft) 100,00 %
29.06.2018 16:52 20,9 C 20,6 C 81 % 1011,7 hPa 0,0 l/m 23,4 km/h (4 Bft) W-SW 256 1 min 0,000 mm 2,2 UV-I 373 W/m 17,5 C 16,8 C 27,4 km/h (4 Bft) 100,00 %
29.06.2018 16:53 20,9 C 20,6 C 81 % 1011,6 hPa 0,0 l/m 21,3 km/h (4 Bft) S-SW 196 1 min 0,000 mm 2,4 UV-I 558 W/m 17,5 C 17,2 C 37,0 km/h (5 Bft) 100,00 %
29.06.2018 16:54 21,1 C 20,6 C 80 % 1011,6 hPa 0,0 l/m 20,4 km/h (4 Bft) SW 225 1 min 0,000 mm 2,5 UV-I 740 W/m 17,5 C 17,6 C 32,2 km/h (5 Bft) 100,00 %
29.06.2018 16:55 21,2 C 20,6 C 80 % 1011,6 hPa 0,0 l/m 22,5 km/h (4 Bft) SW 219 1 min 0,000 mm 2,5 UV-I 728 W/m 17,6 C 17,4 C 33,8 km/h (5 Bft) 100,00 %
29.06.2018 16:56 21,2 C 20,6 C 79 % 1011,6 hPa 0,0 l/m 20,2 km/h (4 Bft) W-SW 249 1 min 0,000 mm 2,4 UV-I 721 W/m 17,4 C 17,7 C 27,4 km/h (4 Bft) 100,00 %
29.06.2018 16:57 21,3 C 20,6 C 80 % 1011,6 hPa 0,0 l/m 16,7 km/h (3 Bft) W 280 1 min 0,000 mm 2,4 UV-I 714 W/m 17,7 C 18,5 C 22,5 km/h (4 Bft) 100,00 %
29.06.2018 16:58 21,4 C 20,6 C 80 % 1011,6 hPa 0,0 l/m 18,6 km/h (3 Bft) SW 236 1 min 0,000 mm 2,4 UV-I 734 W/m 17,8 C 18,3 C 24,1 km/h (4 Bft) 96,55 %
29.06.2018 16:59 21,5 C 20,6 C 79 % 1011,5 hPa 0,0 l/m 21,9 km/h (4 Bft) W-SW 240 1 min 0,000 mm 2,3 UV-I 725 W/m 17,7 C 17,8 C 33,8 km/h (5 Bft) 95,83 %
29.06.2018 17:00 21,6 C 20,6 C 78 % 1011,5 hPa 0,0 l/m 24,6 km/h (4 Bft) W-SW 240 1 min 0,254 mm 2,1 UV-I 701 W/m 17,6 C 17,6 C 33,8 km/h (5 Bft) 100,00 %
29.06.2018 17:02 21,6 C 20,6 C 79 % 1011,5 hPa 0,0 l/m 16,1 km/h (3 Bft) W 262 2 min 0,000 mm 2,0 UV-I 679 W/m 17,8 C 19,0 C 24,1 km/h (4 Bft) 97,87 %
29.06.2018 17:03 21,6 C 20,6 C 78 % 1011,5 hPa 0,0 l/m 18,9 km/h (3 Bft) W-SW 240 1 min 0,000 mm 1,6 UV-I 349 W/m 17,6 C 18,5 C 30,6 km/h (5 Bft) 93,33 %
29.06.2018 17:04 21,6 C 20,6 C 78 % 1011,5 hPa 0,0 l/m 22,6 km/h (4 Bft) W-SW 243 0 min 0,000 mm 1,5 UV-I 278 W/m 17,6 C 17,9 C 30,6 km/h (5 Bft) 91,30 %
29.06.2018 17:05 21,4 C 20,6 C 77 % 1011,5 hPa 0,0 l/m 18,6 km/h (3 Bft) W-SW 239 0 min 0,000 mm 1,5 UV-I 252 W/m 17,2 C 18,3 C 25,7 km/h (4 Bft) 95,83 %
29.06.2018 17:06 21,3 C 20,6 C 78 % 1011,6 hPa 0,0 l/m 23,3 km/h (4 Bft) W 259 0 min 0,000 mm 1,5 UV-I 230 W/m 17,3 C 17,4 C 30,6 km/h (5 Bft) 100,00 %
29.06.2018 17:07 21,2 C 20,6 C 79 % 1011,5 hPa 0,0 l/m 17,0 km/h (3 Bft) S-SW 207 0 min 0,000 mm 1,5 UV-I 215 W/m 17,4 C 18,3 C 27,4 km/h (4 Bft) 95,83 %
29.06.2018 17:08 21,1 C 20,6 C 79 % 1011,6 hPa 0,0 l/m 18,1 km/h (3 Bft) SW 231 0 min 0,000 mm 1,4 UV-I 193 W/m 17,3 C 18,0 C 25,7 km/h (4 Bft) 95,65 %
29.06.2018 17:09 20,9 C 20,6 C 79 % 1011,5 hPa 0,0 l/m 19,1 km/h (3 Bft) W 271 0 min 0,000 mm 1,4 UV-I 176 W/m 17,1 C 17,5 C 24,1 km/h (4 Bft) 100,00 %
29.06.2018 17:10 20,9 C 20,6 C 79 % 1011,5 hPa 0,0 l/m 18,0 km/h (3 Bft) W 267 0 min 0,000 mm 1,4 UV-I 167 W/m 17,1 C 17,7 C 24,1 km/h (4 Bft) 95,65 %
29.06.2018 17:11 20,8 C 20,6 C 79 % 1011,5 hPa 0,0 l/m 22,7 km/h (4 Bft) W 275 0 min 0,000 mm 1,4 UV-I 180 W/m 17,0 C 16,8 C 32,2 km/h (5 Bft) 96,30 %
29.06.2018 17:12 20,7 C 20,6 C 79 % 1011,5 hPa 0,0 l/m 26,2 km/h (4 Bft) W 263 0 min 0,000 mm 1,6 UV-I 188 W/m 16,9 C 16,2 C 35,4 km/h (5 Bft) 95,65 %
29.06.2018 17:13 20,7 C 20,6 C 79 % 1011,5 hPa 0,0 l/m 23,3 km/h (4 Bft) W 261 0 min 0,000 mm 1,5 UV-I 188 W/m 16,9 C 16,6 C 33,8 km/h (5 Bft) 100,00 %
29.06.2018 17:14 20,7 C 20,6 C 79 % 1011,5 hPa 0,0 l/m 18,5 km/h (3 Bft) SW 230 0 min 0,000 mm 1,6 UV-I 311 W/m 16,9 C 17,4 C 25,7 km/h (4 Bft) 95,83 %
29.06.2018 17:15 20,7 C 20,6 C 80 % 1011,5 hPa 0,0 l/m 17,3 km/h (3 Bft) W-SW 258 0 min 0,000 mm 1,8 UV-I 311 W/m 17,1 C 17,6 C 24,1 km/h (4 Bft) 91,30 %
29.06.2018 17:16 20,7 C 20,6 C 80 % 1011,5 hPa 0,0 l/m 19,1 km/h (3 Bft) W 265 0 min 0,000 mm 1,8 UV-I 311 W/m 17,1 C 17,3 C 29,0 km/h (5 Bft) 100,00 %
29.06.2018 17:17 20,8 C 20,6 C 79 % 1011,5 hPa 0,0 l/m 23,7 km/h (4 Bft) SW 234 1 min 0,000 mm 1,9 UV-I 457 W/m 17,0 C 16,7 C 33,8 km/h (5 Bft) 96,15 %
29.06.2018 17:18 20,8 C 20,6 C 79 % 1011,5 hPa 0,0 l/m 23,2 km/h (4 Bft) W-SW 244 1 min 0,000 mm 1,7 UV-I 568 W/m 17,0 C 16,7 C 32,2 km/h (5 Bft) 100,00 %
29.06.2018 17:19 20,8 C 20,6 C 79 % 1011,5 hPa 0,0 l/m 17,5 km/h (3 Bft) SW 235 1 min 0,000 mm 1,5 UV-I 557 W/m 17,0 C 17,7 C 25,7 km/h (4 Bft) 95,65 %
29.06.2018 17:20 20,9 C 20,6 C 79 % 1011,5 hPa 0,0 l/m 23,1 km/h (4 Bft) W-SW 244 0 min 0,000 mm 1,4 UV-I 254 W/m 17,1 C 16,9 C 33,8 km/h (5 Bft) 100,00 %
29.06.2018 17:21 20,8 C 20,6 C 79 % 1011,6 hPa 0,0 l/m 19,3 km/h (3 Bft) SW 227 0 min 0,000 mm 1,3 UV-I 277 W/m 17,0 C 17,4 C 25,7 km/h (4 Bft) 96,15 %
29.06.2018 17:23 20,8 C 20,6 C 79 % 1011,6 hPa 0,0 l/m 21,1 km/h (4 Bft) W-SW 242 0 min 0,000 mm 1,4 UV-I 271 W/m 17,0 C 17,1 C 29,0 km/h (5 Bft) 97,87 %
29.06.2018 17:24 20,8 C 20,6 C 80 % 1011,6 hPa 0,0 l/m 21,1 km/h (4 Bft) SW 228 0 min 0,000 mm 1,2 UV-I 239 W/m 17,2 C 17,1 C 29,0 km/h (5 Bft) 93,33 %
29.06.2018 17:25 20,8 C 20,6 C 79 % 1011,5 hPa 0,0 l/m 18,1 km/h (3 Bft) S-SW 192 0 min 0,000 mm 1,2 UV-I 232 W/m 17,0 C 17,6 C 24,1 km/h (4 Bft) 95,65 %
29.06.2018 17:26 20,8 C 20,6 C 79 % 1011,5 hPa 0,0 l/m 17,0 km/h (3 Bft) SW 236 0 min 0,000 mm 1,2 UV-I 230 W/m 17,0 C 17,8 C 24,1 km/h (4 Bft) 95,83 %
29.06.2018 17:27 20,7 C 20,6 C 80 % 1011,6 hPa 0,0 l/m 18,3 km/h (3 Bft) W-SW 244 0 min 0,000 mm 1,1 UV-I 230 W/m 17,1 C 17,4 C 27,4 km/h (4 Bft) 100,00 %
29.06.2018 17:28 20,7 C 20,6 C 80 % 1011,6 hPa 0,0 l/m 17,4 km/h (3 Bft) SW 231 0 min 0,000 mm 1,1 UV-I 225 W/m 17,1 C 17,6 C 27,4 km/h (4 Bft) 95,83 %
29.06.2018 17:29 20,7 C 20,6 C 80 % 1011,6 hPa 0,0 l/m 15,9 km/h (3 Bft) SW 227 0 min 0,000 mm 1,0 UV-I 218 W/m 17,1 C 17,9 C 25,7 km/h (4 Bft) 100,00 %
29.06.2018 17:30 20,7 C 20,6 C 80 % 1011,5 hPa 0,0 l/m 24,6 km/h (4 Bft) SW 226 0 min 0,000 mm 1,0 UV-I 212 W/m 17,1 C 16,4 C 35,4 km/h (5 Bft) 95,83 %
29.06.2018 17:31 20,7 C 20,6 C 79 % 1011,5 hPa 0,0 l/m 27,5 km/h (4 Bft) W 259 0 min 0,000 mm 0,9 UV-I 204 W/m 16,9 C 16,0 C 35,4 km/h (5 Bft) 100,00 %
29.06.2018 17:32 20,6 C 20,6 C 79 % 1011,6 hPa 0,0 l/m 26,3 km/h (4 Bft) W-SW 241 0 min 0,000 mm 0,9 UV-I 192 W/m 16,8 C 16,0 C 33,8 km/h (5 Bft) 95,65 %
29.06.2018 17:33 20,5 C 20,6 C 80 % 1011,5 hPa 0,0 l/m 21,9 km/h (4 Bft) SW 221 0 min 0,000 mm 0,9 UV-I 185 W/m 16,9 C 16,5 C 32,2 km/h (5 Bft) 95,83 %
29.06.2018 17:34 20,5 C 20,6 C 80 % 1011,6 hPa 0,0 l/m 21,2 km/h (4 Bft) W-SW 240 0 min 0,000 mm 0,9 UV-I 186 W/m 16,9 C 16,6 C 29,0 km/h (5 Bft) 100,00 %
29.06.2018 17:35 20,4 C 20,6 C 81 % 1011,6 hPa 0,0 l/m 15,5 km/h (3 Bft) W-SW 240 0 min 0,000 mm 0,9 UV-I 194 W/m 17,0 C 17,6 C 24,1 km/h (4 Bft) 95,83 %
29.06.2018 17:36 20,4 C 20,6 C 81 % 1011,6 hPa 0,0 l/m 20,9 km/h (4 Bft) S-SW 213 0 min 0,000 mm 0,9 UV-I 199 W/m 17,0 C 16,6 C 27,4 km/h (4 Bft) 100,00 %
29.06.2018 17:37 20,4 C 20,6 C 81 % 1011,7 hPa 0,0 l/m 17,7 km/h (3 Bft) W-SW 252 0 min 0,000 mm 0,9 UV-I 197 W/m 17,0 C 17,2 C 24,1 km/h (4 Bft) 95,83 %
29.06.2018 17:38 20,4 C 20,6 C 81 % 1011,7 hPa 0,0 l/m 17,8 km/h (3 Bft) W-SW 246 0 min 0,000 mm 0,8 UV-I 195 W/m 17,0 C 17,1 C 29,0 km/h (5 Bft) 100,00 %
29.06.2018 17:39 20,4 C 20,6 C 81 % 1011,8 hPa 0,0 l/m 19,7 km/h (3 Bft) SW 233 0 min 0,000 mm 0,8 UV-I 193 W/m 17,0 C 16,8 C 24,1 km/h (4 Bft) 96,30 %
29.06.2018 17:40 20,4 C 20,6 C 81 % 1011,6 hPa 0,0 l/m 15,6 km/h (3 Bft) W-SW 250 0 min 0,000 mm 0,8 UV-I 190 W/m 17,0 C 17,6 C 19,3 km/h (3 Bft) 100,00 %
29.06.2018 17:41 20,4 C 20,6 C 82 % 1011,6 hPa 0,0 l/m 16,6 km/h (3 Bft) SW 227 0 min 0,000 mm 0,8 UV-I 186 W/m 17,2 C 17,4 C 24,1 km/h (4 Bft) 95,83 %
29.06.2018 17:43 20,4 C 20,6 C 82 % 1011,6 hPa 0,0 l/m 16,0 km/h (3 Bft) W-SW 249 0 min 0,000 mm 0,8 UV-I 174 W/m 17,2 C 17,5 C 22,5 km/h (4 Bft) 97,87 %
29.06.2018 17:44 20,4 C 20,6 C 83 % 1011,6 hPa 0,0 l/m 15,1 km/h (3 Bft) SW 223 0 min 0,000 mm 0,7 UV-I 168 W/m 17,4 C 17,7 C 20,9 km/h (4 Bft) 95,65 %
29.06.2018 17:45 20,3 C 20,6 C 84 % 1011,6 hPa 0,0 l/m 15,1 km/h (3 Bft) W-SW 241 0 min 0,000 mm 0,7 UV-I 164 W/m 17,5 C 17,6 C 24,1 km/h (4 Bft) 100,00 %
29.06.2018 17:46 20,3 C 20,6 C 84 % 1011,6 hPa 0,0 l/m 13,7 km/h (3 Bft) SW 234 0 min 0,000 mm 0,7 UV-I 162 W/m 17,5 C 17,9 C 17,7 km/h (3 Bft) 96,15 %
29.06.2018 17:47 20,2 C 20,6 C 84 % 1011,6 hPa 0,0 l/m 15,5 km/h (3 Bft) SW 236 0 min 0,000 mm 0,6 UV-I 152 W/m 17,4 C 17,4 C 24,1 km/h (4 Bft) 100,00 %
29.06.2018 17:48 20,1 C 20,6 C 84 % 1011,6 hPa 0,0 l/m 19,0 km/h (3 Bft) W-SW 257 0 min 0,000 mm 0,6 UV-I 146 W/m 17,3 C 16,5 C 27,4 km/h (4 Bft) 95,65 %
29.06.2018 17:49 20,0 C 20,6 C 84 % 1011,5 hPa 0,0 l/m 17,0 km/h (3 Bft) W-SW 242 0 min 0,000 mm 0,6 UV-I 142 W/m 17,2 C 16,8 C 22,5 km/h (4 Bft) 100,00 %
29.06.2018 17:50 19,9 C 20,6 C 84 % 1011,6 hPa 0,0 l/m 21,1 km/h (4 Bft) SW 229 0 min 0,000 mm 0,6 UV-I 146 W/m 17,1 C 15,9 C 29,0 km/h (5 Bft) 91,67 %
29.06.2018 17:51 19,9 C 20,6 C 85 % 1011,6 hPa 0,0 l/m 17,0 km/h (3 Bft) W-SW 245 0 min 0,000 mm 0,6 UV-I 169 W/m 17,3 C 16,7 C 29,0 km/h (5 Bft) 100,00 %
29.06.2018 17:53 19,7 C 20,6 C 86 % 1011,5 hPa 0,0 l/m 17,9 km/h (3 Bft) W-SW 242 0 min 0,000 mm 0,6 UV-I 178 W/m 17,3 C 16,2 C 25,7 km/h (4 Bft) 97,87 %
29.06.2018 17:54 19,7 C 20,6 C 86 % 1011,5 hPa 0,0 l/m 18,9 km/h (3 Bft) SW 224 0 min 0,000 mm 0,6 UV-I 165 W/m 17,3 C 16,0 C 24,1 km/h (4 Bft) 95,83 %
29.06.2018 17:55 19,7 C 20,6 C 86 % 1011,6 hPa 0,0 l/m 16,8 km/h (3 Bft) SW 225 0 min 0,000 mm 0,6 UV-I 158 W/m 17,3 C 16,5 C 24,1 km/h (4 Bft) 95,65 %
29.06.2018 17:56 19,7 C 20,6 C 87 % 1011,6 hPa 0,0 l/m 13,3 km/h (3 Bft) SW 229 0 min 0,000 mm 0,6 UV-I 157 W/m 17,5 C 17,3 C 19,3 km/h (3 Bft) 100,00 %
29.06.2018 17:57 19,7 C 20,6 C 87 % 1011,6 hPa 0,0 l/m 14,6 km/h (3 Bft) W-SW 241 0 min 0,000 mm 0,6 UV-I 154 W/m 17,5 C 17,0 C 22,5 km/h (4 Bft) 91,30 %
29.06.2018 17:58 19,7 C 20,6 C 87 % 1011,6 hPa 0,0 l/m 15,2 km/h (3 Bft) W 259 0 min 0,000 mm 0,6 UV-I 146 W/m 17,5 C 16,8 C 20,9 km/h (4 Bft) 100,00 %
29.06.2018 17:59 19,6 C 20,6 C 87 % 1011,6 hPa 0,0 l/m 12,2 km/h (2 Bft) W-NW 282 0 min 0,000 mm 0,5 UV-I 132 W/m 17,4 C 17,5 C 19,3 km/h (3 Bft) 95,65 %
29.06.2018 18:00 19,6 C 20,6 C 87 % 1011,6 hPa 0,0 l/m 12,2 km/h (2 Bft) W-SW 251 0 min 0,000 mm 0,1 UV-I 113 W/m 17,4 C 17,5 C 16,1 km/h (3 Bft) 100,00 %
29.06.2018 18:02 19,6 C 20,6 C 87 % 1011,6 hPa 0,0 l/m 17,5 km/h (3 Bft) W 264 0 min 0,178 mm 0,0 UV-I 93 W/m 17,4 C 16,2 C 29,0 km/h (5 Bft) 94,00 %
29.06.2018 18:03 19,6 C 20,6 C 87 % 1011,6 hPa 0,0 l/m 16,4 km/h (3 Bft) W-SW 240 0 min 0,000 mm 0,0 UV-I 79 W/m 17,4 C 16,4 C 19,3 km/h (3 Bft) 92,31 %
29.06.2018 18:04 19,6 C 20,6 C 87 % 1011,7 hPa 0,0 l/m 18,9 km/h (3 Bft) W-SW 254 0 min 0,000 mm 0,0 UV-I 72 W/m 17,4 C 15,9 C 30,6 km/h (5 Bft) 96,30 %
29.06.2018 18:05 19,6 C 20,6 C 87 % 1011,6 hPa 0,0 l/m 15,7 km/h (3 Bft) W-SW 255 0 min 0,000 mm 0,0 UV-I 64 W/m 17,4 C 16,6 C 20,9 km/h (4 Bft) 100,00 %
29.06.2018 18:06 19,6 C 20,6 C 86 % 1011,6 hPa 0,0 l/m 16,4 km/h (3 Bft) W-SW 243 0 min 0,000 mm 0,0 UV-I 54 W/m 17,2 C 16,4 C 25,7 km/h (4 Bft) 100,00 %
29.06.2018 18:08 19,5 C 20,6 C 86 % 1011,6 hPa 0,0 l/m 18,9 km/h (3 Bft) W 260 0 min 0,000 mm 0,0 UV-I 45 W/m 17,1 C 15,8 C 27,4 km/h (4 Bft) 96,61 %
29.06.2018 18:09 19,5 C 20,6 C 86 % 1011,6 hPa 0,0 l/m 16,9 km/h (3 Bft) W-SW 246 0 min 0,000 mm 0,0 UV-I 36 W/m 17,1 C 16,2 C 22,5 km/h (4 Bft) 100,00 %
29.06.2018 18:10 19,4 C 20,6 C 86 % 1011,6 hPa 0,0 l/m 15,5 km/h (3 Bft) S-SW 206 0 min 0,000 mm 0,0 UV-I 31 W/m 17,0 C 16,4 C 20,9 km/h (4 Bft) 95,65 %
29.06.2018 18:11 19,4 C 20,6 C 86 % 1011,8 hPa 0,0 l/m 15,1 km/h (3 Bft) W 261 0 min 0,000 mm 0,0 UV-I 26 W/m 17,0 C 16,5 C 19,3 km/h (3 Bft) 100,00 %
29.06.2018 18:12 19,4 C 20,6 C 86 % 1011,8 hPa 0,0 l/m 12,8 km/h (3 Bft) W 269 0 min 0,000 mm 0,0 UV-I 23 W/m 17,0 C 17,1 C 17,7 km/h (3 Bft) 95,65 %
29.06.2018 18:13 19,4 C 20,6 C 86 % 1011,8 hPa 0,0 l/m 10,5 km/h (2 Bft) W 267 0 min 0,000 mm 0,0 UV-I 23 W/m 17,0 C 17,8 C 17,7 km/h (3 Bft) 100,00 %
29.06.2018 18:14 19,4 C 20,6 C 86 % 1011,8 hPa 0,0 l/m 11,3 km/h (2 Bft) W-SW 256 0 min 0,000 mm 0,0 UV-I 24 W/m 17,0 C 17,6 C 14,5 km/h (3 Bft) 95,65 %
29.06.2018 18:15 19,3 C 20,6 C 87 % 1011,8 hPa 0,0 l/m 11,4 km/h (2 Bft) W 265 0 min 0,000 mm 0,0 UV-I 26 W/m 17,1 C 17,4 C 17,7 km/h (3 Bft) 95,83 %
29.06.2018 18:16 19,3 C 20,6 C 87 % 1011,8 hPa 0,6 l/m 10,5 km/h (2 Bft) W-SW 240 0 min 0,000 mm 0,0 UV-I 26 W/m 17,1 C 17,7 C 17,7 km/h (3 Bft) 95,65 %
29.06.2018 18:17 19,3 C 20,6 C 88 % 1011,9 hPa 0,4 l/m 12,1 km/h (2 Bft) W 263 0 min 0,000 mm 0,0 UV-I 26 W/m 17,3 C 17,2 C 14,5 km/h (3 Bft) 100,00 %
29.06.2018 18:18 19,2 C 20,6 C 88 % 1011,8 hPa 0,2 l/m 10,8 km/h (2 Bft) W-SW 252 0 min 0,000 mm 0,0 UV-I 26 W/m 17,2 C 17,5 C 14,5 km/h (3 Bft) 96,15 %
29.06.2018 18:19 19,1 C 20,6 C 88 % 1011,8 hPa 0,4 l/m 7,7 km/h (2 Bft) W 259 0 min 0,000 mm 0,0 UV-I 26 W/m 17,1 C 18,5 C 11,3 km/h (2 Bft) 96,30 %
29.06.2018 18:20 19,0 C 20,6 C 89 % 1011,8 hPa 0,4 l/m 9,7 km/h (2 Bft) W-SW 247 0 min 0,000 mm 0,0 UV-I 26 W/m 17,1 C 17,6 C 12,9 km/h (3 Bft) 100,00 %
29.06.2018 18:21 18,9 C 20,6 C 90 % 1011,8 hPa 0,2 l/m 9,7 km/h (2 Bft) W-SW 240 0 min 0,000 mm 0,0 UV-I 27 W/m 17,2 C 17,5 C 14,5 km/h (3 Bft) 95,65 %
29.06.2018 18:23 18,7 C 20,6 C 90 % 1011,9 hPa 0,2 l/m 8,6 km/h (2 Bft) W-SW 238 0 min 0,000 mm 0,0 UV-I 32 W/m 17,0 C 17,7 C 14,5 km/h (3 Bft) 97,87 %
29.06.2018 18:24 18,7 C 20,6 C 91 % 1011,9 hPa 0,2 l/m 7,3 km/h (2 Bft) W-SW 242 0 min 0,000 mm 0,0 UV-I 46 W/m 17,2 C 18,3 C 11,3 km/h (2 Bft) 100,00 %
29.06.2018 18:25 18,7 C 20,6 C 91 % 1011,9 hPa 0,0 l/m 6,4 km/h (2 Bft) SW 229 0 min 0,000 mm 0,0 UV-I 56 W/m 17,2 C 18,7 C 9,7 km/h (2 Bft) 95,65 %
29.06.2018 18:26 18,6 C 20,6 C 91 % 1011,9 hPa 0,0 l/m 11,2 km/h (2 Bft) SW 233 0 min 0,000 mm 0,0 UV-I 66 W/m 17,1 C 16,7 C 17,7 km/h (3 Bft) 97,91 %
29.06.2018 18:27 18,6 C 20,6 C 91 % 1011,9 hPa 0,0 l/m 9,2 km/h (2 Bft) S-SW 206 0 min 0,000 mm 0,0 UV-I 73 W/m 17,1 C 17,4 C 16,1 km/h (3 Bft) 97,44 %
29.06.2018 18:28 18,6 C 20,6 C 91 % 1011,8 hPa 0,0 l/m 12,9 km/h (3 Bft) W 260 0 min 0,000 mm 0,0 UV-I 78 W/m 17,1 C 16,1 C 16,1 km/h (3 Bft) 100,00 %
29.06.2018 18:29 18,6 C 20,6 C 91 % 1011,8 hPa 0,0 l/m 15,8 km/h (3 Bft) W-SW 244 0 min 0,000 mm 0,0 UV-I 82 W/m 17,1 C 15,3 C 20,9 km/h (4 Bft) 95,83 %
29.06.2018 18:30 18,5 C 20,6 C 91 % 1011,8 hPa 0,0 l/m 16,0 km/h (3 Bft) SW 227 0 min 0,000 mm 0,0 UV-I 84 W/m 17,0 C 15,2 C 20,9 km/h (4 Bft) 91,30 %
29.06.2018 18:31 18,5 C 20,6 C 91 % 1011,9 hPa 0,0 l/m 11,1 km/h (2 Bft) SW 217 0 min 0,000 mm 0,0 UV-I 80 W/m 17,0 C 16,6 C 14,5 km/h (3 Bft) 100,00 %
29.06.2018 18:32 18,5 C 20,6 C 92 % 1011,8 hPa 0,0 l/m 12,3 km/h (3 Bft) S-SW 200 0 min 0,000 mm 0,0 UV-I 73 W/m 17,2 C 16,2 C 17,7 km/h (3 Bft) 95,65 %
29.06.2018 18:33 18,5 C 20,6 C 92 % 1011,8 hPa 0,0 l/m 12,5 km/h (3 Bft) W-SW 237 0 min 0,000 mm 0,0 UV-I 66 W/m 17,2 C 16,1 C 17,7 km/h (3 Bft) 100,00 %
29.06.2018 18:34 18,4 C 20,6 C 92 % 1011,8 hPa 0,0 l/m 10,1 km/h (2 Bft) SW 223 0 min 0,000 mm 0,0 UV-I 62 W/m 17,1 C 16,8 C 14,5 km/h (3 Bft) 96,15 %
29.06.2018 18:35 18,4 C 20,6 C 92 % 1011,8 hPa 0,0 l/m 13,7 km/h (3 Bft) SW 232 0 min 0,000 mm 0,0 UV-I 63 W/m 17,1 C 15,7 C 19,3 km/h (3 Bft) 100,00 %
29.06.2018 18:36 18,4 C 20,6 C 92 % 1011,8 hPa 0,0 l/m 11,3 km/h (2 Bft) W-SW 240 0 min 0,000 mm 0,0 UV-I 67 W/m 17,1 C 16,4 C 14,5 km/h (3 Bft) 91,30 %
29.06.2018 18:38 18,3 C 20,6 C 92 % 1011,8 hPa 0,0 l/m 10,5 km/h (2 Bft) SW 223 0 min 0,000 mm 0,0 UV-I 72 W/m 17,0 C 16,6 C 14,5 km/h (3 Bft) 97,87 %
29.06.2018 18:39 18,3 C 20,6 C 93 % 1011,8 hPa 0,0 l/m 10,6 km/h (2 Bft) W-SW 243 0 min 0,000 mm 0,0 UV-I 74 W/m 17,1 C 16,5 C 17,7 km/h (3 Bft) 100,00 %
29.06.2018 18:40 18,3 C 20,6 C 93 % 1011,8 hPa 0,0 l/m 12,9 km/h (3 Bft) W-SW 238 0 min 0,000 mm 0,0 UV-I 74 W/m 17,1 C 15,8 C 17,7 km/h (3 Bft) 100,00 %
29.06.2018 18:41 18,3 C 20,6 C 93 % 1011,8 hPa 0,0 l/m 13,1 km/h (3 Bft) W-SW 239 0 min 0,000 mm 0,0 UV-I 70 W/m 17,1 C 15,7 C 19,3 km/h (3 Bft) 100,00 %
29.06.2018 18:42 18,3 C 20,6 C 93 % 1011,8 hPa 0,0 l/m 13,2 km/h (3 Bft) SW 227 0 min 0,000 mm 0,0 UV-I 69 W/m 17,1 C 15,7 C 20,9 km/h (4 Bft) 100,00 %
29.06.2018 18:43 18,3 C 20,6 C 93 % 1011,8 hPa 0,0 l/m 15,4 km/h (3 Bft) W-SW 240 0 min 0,000 mm 0,0 UV-I 70 W/m 17,1 C 15,1 C 19,3 km/h (3 Bft) 100,00 %
29.06.2018 18:44 18,3 C 20,6 C 93 % 1011,7 hPa 0,0 l/m 15,2 km/h (3 Bft) W-SW 252 0 min 0,000 mm 0,0 UV-I 74 W/m 17,1 C 15,1 C 20,9 km/h (4 Bft) 95,65 %
29.06.2018 18:45 18,3 C 20,6 C 93 % 1011,8 hPa 0,0 l/m 15,5 km/h (3 Bft) SW 223 0 min 0,000 mm 0,0 UV-I 82 W/m 17,1 C 15,1 C 22,5 km/h (4 Bft) 100,00 %
29.06.2018 18:46 18,3 C 20,6 C 93 % 1011,6 hPa 0,0 l/m 18,8 km/h (3 Bft) SW 220 0 min 0,000 mm 0,0 UV-I 91 W/m 17,1 C 14,3 C 25,7 km/h (4 Bft) 95,65 %
29.06.2018 18:47 18,3 C 20,6 C 93 % 1011,7 hPa 0,0 l/m 16,7 km/h (3 Bft) W-SW 239 0 min 0,000 mm 0,0 UV-I 93 W/m 17,1 C 14,8 C 20,9 km/h (4 Bft) 95,83 %
29.06.2018 18:48 18,3 C 20,6 C 93 % 1011,7 hPa 0,0 l/m 15,8 km/h (3 Bft) W-SW 238 0 min 0,000 mm 0,0 UV-I 93 W/m 17,1 C 15,0 C 19,3 km/h (3 Bft) 100,00 %
29.06.2018 18:49 18,3 C 20,6 C 93 % 1011,7 hPa 0,0 l/m 13,1 km/h (3 Bft) SW 224 0 min 0,000 mm 0,0 UV-I 91 W/m 17,1 C 15,7 C 17,7 km/h (3 Bft) 100,00 %
29.06.2018 18:50 18,3 C 20,6 C 93 % 1011,8 hPa 0,0 l/m 14,5 km/h (3 Bft) W-SW 242 0 min 0,000 mm 0,0 UV-I 90 W/m 17,1 C 15,3 C 19,3 km/h (3 Bft) 100,00 %
29.06.2018 18:51 18,3 C 20,6 C 93 % 1011,7 hPa 0,0 l/m 10,2 km/h (2 Bft) W-SW 255 0 min 0,000 mm 0,0 UV-I 85 W/m 17,1 C 16,7 C 14,5 km/h (3 Bft) 96,15 %
29.06.2018 18:53 18,3 C 20,6 C 93 % 1011,7 hPa 0,0 l/m 13,1 km/h (3 Bft) W 259 0 min 0,000 mm 0,0 UV-I 76 W/m 17,1 C 15,7 C 20,9 km/h (4 Bft) 100,00 %
29.06.2018 18:54 18,3 C 20,6 C 93 % 1011,7 hPa 0,0 l/m 12,7 km/h (3 Bft) SW 220 0 min 0,000 mm 0,0 UV-I 72 W/m 17,1 C 15,9 C 19,3 km/h (3 Bft) 96,30 %
29.06.2018 18:55 18,3 C 20,6 C 93 % 1011,8 hPa 0,0 l/m 13,3 km/h (3 Bft) S-SW 201 0 min 0,000 mm 0,0 UV-I 70 W/m 17,1 C 15,7 C 20,9 km/h (4 Bft) 95,65 %
29.06.2018 18:56 18,2 C 20,6 C 93 % 1011,8 hPa 0,0 l/m 14,9 km/h (3 Bft) SW 215 0 min 0,000 mm 0,0 UV-I 71 W/m 17,0 C 15,1 C 22,5 km/h (4 Bft) 96,30 %
29.06.2018 18:57 18,2 C 20,6 C 93 % 1011,8 hPa 0,0 l/m 11,7 km/h (2 Bft) W-SW 240 0 min 0,000 mm 0,0 UV-I 73 W/m 17,0 C 16,1 C 17,7 km/h (3 Bft) 95,65 %
29.06.2018 18:58 18,2 C 20,6 C 93 % 1011,8 hPa 0,0 l/m 11,8 km/h (2 Bft) SW 230 0 min 0,000 mm 0,0 UV-I 74 W/m 17,0 C 16,0 C 19,3 km/h (3 Bft) 100,00 %
29.06.2018 18:59 18,3 C 20,6 C 93 % 1011,8 hPa 0,0 l/m 9,1 km/h (2 Bft) SW 218 0 min 0,000 mm 0,0 UV-I 76 W/m 17,1 C 17,1 C 14,5 km/h (3 Bft) 91,30 %
29.06.2018 19:00 18,3 C 20,6 C 93 % 1011,8 hPa 0,0 l/m 13,0 km/h (3 Bft) SW 231 0 min 0,000 mm 0,0 UV-I 78 W/m 17,1 C 15,8 C 20,9 km/h (4 Bft) 100,00 %
29.06.2018 19:02 18,3 C 20,6 C 93 % 1011,8 hPa 0,0 l/m 14,6 km/h (3 Bft) W-SW 238 0 min 0,051 mm 0,0 UV-I 85 W/m 17,1 C 15,3 C 20,9 km/h (4 Bft) 97,87 %
29.06.2018 19:03 18,3 C 20,6 C 93 % 1011,8 hPa 0,0 l/m 12,2 km/h (2 Bft) SW 217 0 min 0,000 mm 0,0 UV-I 92 W/m 17,1 C 16,0 C 16,1 km/h (3 Bft) 95,65 %
29.06.2018 19:04 18,3 C 20,6 C 93 % 1011,8 hPa 0,0 l/m 16,8 km/h (3 Bft) SW 232 0 min 0,000 mm 0,0 UV-I 95 W/m 17,1 C 14,7 C 24,1 km/h (4 Bft) 100,00 %
29.06.2018 19:05 18,3 C 20,6 C 93 % 1011,8 hPa 0,0 l/m 15,1 km/h (3 Bft) SW 233 0 min 0,000 mm 0,0 UV-I 93 W/m 17,1 C 15,2 C 20,9 km/h (4 Bft) 96,30 %
29.06.2018 19:06 18,3 C 20,6 C 93 % 1011,8 hPa 0,0 l/m 11,8 km/h (2 Bft) SW 219 0 min 0,000 mm 0,0 UV-I 91 W/m 17,1 C 16,1 C 17,7 km/h (3 Bft) 100,00 %
29.06.2018 19:08 18,2 C 20,6 C 93 % 1011,8 hPa 0,0 l/m 14,6 km/h (3 Bft) W 262 0 min 0,000 mm 0,0 UV-I 75 W/m 17,0 C 15,2 C 22,5 km/h (4 Bft) 95,74 %
29.06.2018 19:09 18,3 C 20,6 C 93 % 1011,8 hPa 0,0 l/m 14,9 km/h (3 Bft) W-SW 244 0 min 0,000 mm 0,0 UV-I 57 W/m 17,1 C 15,2 C 19,3 km/h (3 Bft) 100,00 %
29.06.2018 19:10 18,3 C 20,6 C 93 % 1011,8 hPa 0,0 l/m 15,0 km/h (3 Bft) W-SW 250 0 min 0,000 mm 0,0 UV-I 52 W/m 17,1 C 15,2 C 20,9 km/h (4 Bft) 95,65 %
29.06.2018 19:11 18,2 C 20,6 C 93 % 1011,8 hPa 0,0 l/m 16,7 km/h (3 Bft) W-SW 256 0 min 0,000 mm 0,0 UV-I 49 W/m 17,0 C 14,6 C 20,9 km/h (4 Bft) 100,00 %
29.06.2018 19:12 18,2 C 20,6 C 93 % 1011,8 hPa 0,0 l/m 15,5 km/h (3 Bft) SW 214 0 min 0,000 mm 0,0 UV-I 50 W/m 17,0 C 14,9 C 22,5 km/h (4 Bft) 86,96 %
29.06.2018 19:13 18,2 C 20,6 C 93 % 1011,8 hPa 0,0 l/m 13,6 km/h (3 Bft) SW 227 0 min 0,000 mm 0,0 UV-I 52 W/m 17,0 C 15,5 C 22,5 km/h (4 Bft) 100,00 %
29.06.2018 19:14 18,2 C 20,6 C 93 % 1011,9 hPa 0,0 l/m 13,5 km/h (3 Bft) SW 227 0 min 0,000 mm 0,0 UV-I 53 W/m 17,0 C 15,5 C 17,7 km/h (3 Bft) 95,65 %
29.06.2018 19:15 18,2 C 20,6 C 93 % 1011,8 hPa 0,0 l/m 14,5 km/h (3 Bft) W-SW 243 0 min 0,000 mm 0,0 UV-I 53 W/m 17,0 C 15,2 C 20,9 km/h (4 Bft) 95,83 %
29.06.2018 19:16 18,2 C 20,6 C 93 % 1011,8 hPa 0,0 l/m 14,9 km/h (3 Bft) SW 228 0 min 0,000 mm 0,0 UV-I 53 W/m 17,0 C 15,1 C 22,5 km/h (4 Bft) 100,00 %
29.06.2018 19:17 18,2 C 20,6 C 93 % 1011,9 hPa 0,0 l/m 17,8 km/h (3 Bft) SW 234 0 min 0,000 mm 0,0 UV-I 54 W/m 17,0 C 14,4 C 25,7 km/h (4 Bft) 95,83 %
29.06.2018 19:18 18,2 C 20,6 C 93 % 1011,8 hPa 0,0 l/m 16,3 km/h (3 Bft) S-SW 212 0 min 0,000 mm 0,0 UV-I 57 W/m 17,0 C 14,7 C 22,5 km/h (4 Bft) 100,00 %
29.06.2018 19:19 18,2 C 20,6 C 93 % 1011,8 hPa 0,0 l/m 14,8 km/h (3 Bft) W 275 0 min 0,000 mm 0,0 UV-I 59 W/m 17,0 C 15,1 C 20,9 km/h (4 Bft) 95,83 %
29.06.2018 19:20 18,2 C 20,6 C 93 % 1011,8 hPa 0,0 l/m 14,9 km/h (3 Bft) S-SW 207 0 min 0,000 mm 0,0 UV-I 60 W/m 17,0 C 15,1 C 22,5 km/h (4 Bft) 100,00 %
29.06.2018 19:21 18,2 C 20,6 C 93 % 1011,8 hPa 0,0 l/m 13,4 km/h (3 Bft) W-SW 240 0 min 0,000 mm 0,0 UV-I 60 W/m 17,0 C 15,5 C 17,7 km/h (3 Bft) 97,06 %
29.06.2018 19:22 18,2 C 20,6 C 93 % 1011,8 hPa 0,0 l/m 14,5 km/h (3 Bft) SW 230 0 min 0,000 mm 0,0 UV-I 60 W/m 17,0 C 15,2 C 24,1 km/h (4 Bft) 100,00 %
29.06.2018 19:23 18,2 C 20,6 C 93 % 1011,9 hPa 0,0 l/m 18,2 km/h (3 Bft) W-SW 250 0 min 0,000 mm 0,0 UV-I 55 W/m 17,0 C 14,3 C 27,4 km/h (4 Bft) 91,67 %
29.06.2018 19:24 18,2 C 20,6 C 93 % 1011,8 hPa 0,0 l/m 14,4 km/h (3 Bft) SW 236 0 min 0,000 mm 0,0 UV-I 53 W/m 17,0 C 15,2 C 17,7 km/h (3 Bft) 87,50 %
29.06.2018 19:25 18,2 C 20,6 C 93 % 1011,8 hPa 0,0 l/m 17,4 km/h (3 Bft) W-SW 242 0 min 0,000 mm 0,0 UV-I 48 W/m 17,0 C 14,5 C 20,9 km/h (4 Bft) 100,00 %
29.06.2018 19:26 18,2 C 20,6 C 93 % 1011,8 hPa 0,0 l/m 12,5 km/h (3 Bft) SW 219 0 min 0,000 mm 0,0 UV-I 41 W/m 17,0 C 15,8 C 17,7 km/h (3 Bft) 82,61 %
29.06.2018 19:27 18,2 C 20,6 C 93 % 1011,8 hPa 0,0 l/m 13,5 km/h (3 Bft) SW 221 0 min 0,000 mm 0,0 UV-I 39 W/m 17,0 C 15,5 C 17,7 km/h (3 Bft) 100,00 %
29.06.2018 19:28 18,2 C 20,6 C 93 % 1011,8 hPa 0,0 l/m 11,6 km/h (2 Bft) W-SW 248 0 min 0,000 mm 0,0 UV-I 39 W/m 17,0 C 16,1 C 19,3 km/h (3 Bft) 100,00 %
29.06.2018 19:29 18,2 C 20,6 C 93 % 1011,8 hPa 0,0 l/m 15,7 km/h (3 Bft) SW 229 0 min 0,000 mm 0,0 UV-I 40 W/m 17,0 C 14,9 C 20,9 km/h (4 Bft) 100,00 %
29.06.2018 19:30 18,2 C 20,6 C 93 % 1011,9 hPa 0,0 l/m 13,3 km/h (3 Bft) SW 227 0 min 0,000 mm 0,0 UV-I 44 W/m 17,0 C 15,6 C 16,1 km/h (3 Bft) 100,00 %
29.06.2018 19:31 18,2 C 20,6 C 93 % 1011,9 hPa 0,0 l/m 16,3 km/h (3 Bft) S-SW 212 0 min 0,000 mm 0,0 UV-I 47 W/m 17,0 C 14,7 C 22,5 km/h (4 Bft) 100,00 %
29.06.2018 19:32 18,2 C 20,6 C 93 % 1011,9 hPa 0,0 l/m 15,3 km/h (3 Bft) W-SW 252 0 min 0,000 mm 0,0 UV-I 50 W/m 17,0 C 15,0 C 25,7 km/h (4 Bft) 100,00 %
29.06.2018 19:33 18,2 C 20,6 C 93 % 1011,9 hPa 0,0 l/m 12,9 km/h (3 Bft) SW 229 0 min 0,000 mm 0,0 UV-I 52 W/m 17,0 C 15,7 C 19,3 km/h (3 Bft) 91,30 %
29.06.2018 19:34 18,2 C 20,6 C 93 % 1011,9 hPa 0,0 l/m 15,1 km/h (3 Bft) W-SW 242 0 min 0,000 mm 0,0 UV-I 53 W/m 17,0 C 15,0 C 20,9 km/h (4 Bft) 100,00 %
29.06.2018 19:35 18,2 C 20,6 C 93 % 1011,9 hPa 0,0 l/m 15,4 km/h (3 Bft) SW 215 0 min 0,000 mm 0,0 UV-I 50 W/m 17,0 C 15,0 C 22,5 km/h (4 Bft) 100,00 %
29.06.2018 19:36 18,2 C 20,6 C 92 % 1011,9 hPa 0,0 l/m 12,3 km/h (3 Bft) S-SW 209 0 min 0,000 mm 0,0 UV-I 45 W/m 16,9 C 15,9 C 16,1 km/h (3 Bft) 100,00 %
29.06.2018 19:37 18,2 C 20,6 C 92 % 1011,9 hPa 0,0 l/m 14,8 km/h (3 Bft) SW 221 0 min 0,000 mm 0,0 UV-I 40 W/m 16,9 C 15,1 C 20,9 km/h (4 Bft) 95,65 %
29.06.2018 19:38 18,2 C 20,6 C 92 % 1011,9 hPa 0,0 l/m 14,8 km/h (3 Bft) SW 223 0 min 0,000 mm 0,0 UV-I 34 W/m 16,9 C 15,1 C 20,9 km/h (4 Bft) 100,00 %
29.06.2018 19:39 18,2 C 20,6 C 92 % 1011,9 hPa 0,0 l/m 16,2 km/h (3 Bft) W-SW 247 0 min 0,000 mm 0,0 UV-I 29 W/m 16,9 C 14,8 C 25,7 km/h (4 Bft) 100,00 %
29.06.2018 19:40 18,2 C 20,6 C 92 % 1011,9 hPa 0,0 l/m 14,9 km/h (3 Bft) SW 227 0 min 0,000 mm 0,0 UV-I 26 W/m 16,9 C 15,1 C 20,9 km/h (4 Bft) 100,00 %
29.06.2018 19:41 18,2 C 20,6 C 92 % 1011,9 hPa 0,0 l/m 15,3 km/h (3 Bft) W-SW 258 0 min 0,000 mm 0,0 UV-I 26 W/m 16,9 C 15,0 C 22,5 km/h (4 Bft) 95,65 %
29.06.2018 19:43 18,2 C 20,6 C 92 % 1012,0 hPa 0,0 l/m 13,2 km/h (3 Bft) SW 216 0 min 0,000 mm 0,0 UV-I 27 W/m 16,9 C 15,6 C 20,9 km/h (4 Bft) 100,00 %
29.06.2018 19:44 18,2 C 20,6 C 92 % 1012,0 hPa 0,0 l/m 16,6 km/h (3 Bft) S-SW 206 0 min 0,000 mm 0,0 UV-I 30 W/m 16,9 C 14,7 C 20,9 km/h (4 Bft) 100,00 %
29.06.2018 19:45 18,2 C 20,6 C 92 % 1012,0 hPa 0,0 l/m 13,7 km/h (3 Bft) SW 229 0 min 0,000 mm 0,0 UV-I 30 W/m 16,9 C 15,4 C 19,3 km/h (3 Bft) 100,00 %
29.06.2018 19:46 18,2 C 20,6 C 92 % 1012,0 hPa 0,0 l/m 13,1 km/h (3 Bft) S-SW 203 0 min 0,000 mm 0,0 UV-I 32 W/m 16,9 C 15,6 C 16,1 km/h (3 Bft) 100,00 %
29.06.2018 19:47 18,2 C 20,6 C 92 % 1012,1 hPa 0,0 l/m 13,9 km/h (3 Bft) S-SW 205 0 min 0,000 mm 0,0 UV-I 34 W/m 16,9 C 15,4 C 16,1 km/h (3 Bft) 100,00 %
29.06.2018 19:48 18,2 C 20,6 C 92 % 1012,1 hPa 0,0 l/m 13,8 km/h (3 Bft) SW 232 0 min 0,000 mm 0,0 UV-I 36 W/m 16,9 C 15,4 C 20,9 km/h (4 Bft) 100,00 %
29.06.2018 19:49 18,2 C 20,6 C 92 % 1012,1 hPa 0,0 l/m 12,7 km/h (3 Bft) SW 221 0 min 0,000 mm 0,0 UV-I 36 W/m 16,9 C 15,7 C 17,7 km/h (3 Bft) 100,00 %
29.06.2018 19:50 18,2 C 20,6 C 92 % 1012,0 hPa 0,0 l/m 16,2 km/h (3 Bft) SW 220 0 min 0,000 mm 0,0 UV-I 34 W/m 16,9 C 14,8 C 24,1 km/h (4 Bft) 100,00 %
29.06.2018 19:51 18,2 C 20,6 C 92 % 1012,0 hPa 0,0 l/m 15,0 km/h (3 Bft) SW 220 0 min 0,000 mm 0,0 UV-I 33 W/m 16,9 C 15,1 C 20,9 km/h (4 Bft) 100,00 %
29.06.2018 19:53 18,2 C 20,6 C 93 % 1012,0 hPa 0,0 l/m 10,8 km/h (2 Bft) SW 216 0 min 0,000 mm 0,0 UV-I 30 W/m 17,0 C 16,4 C 19,3 km/h (3 Bft) 97,87 %
29.06.2018 19:54 18,2 C 20,6 C 93 % 1012,0 hPa 0,0 l/m 11,9 km/h (2 Bft) SW 215 0 min 0,000 mm 0,0 UV-I 27 W/m 17,0 C 16,0 C 17,7 km/h (3 Bft) 95,65 %
29.06.2018 19:55 18,2 C 20,6 C 93 % 1012,0 hPa 0,0 l/m 9,6 km/h (2 Bft) SW 223 0 min 0,000 mm 0,0 UV-I 25 W/m 17,0 C 16,8 C 11,3 km/h (2 Bft) 100,00 %
29.06.2018 19:56 18,1 C 20,6 C 93 % 1012,1 hPa 0,0 l/m 10,8 km/h (2 Bft) SW 221 0 min 0,000 mm 0,0 UV-I 24 W/m 16,9 C 16,3 C 14,5 km/h (3 Bft) 100,00 %
29.06.2018 19:57 18,1 C 20,6 C 93 % 1012,1 hPa 0,0 l/m 12,7 km/h (3 Bft) SW 227 0 min 0,000 mm 0,0 UV-I 23 W/m 16,9 C 15,6 C 19,3 km/h (3 Bft) 100,00 %
29.06.2018 19:58 18,1 C 20,6 C 93 % 1012,1 hPa 0,0 l/m 10,2 km/h (2 Bft) SW 219 0 min 0,000 mm 0,0 UV-I 23 W/m 16,9 C 16,5 C 14,5 km/h (3 Bft) 95,65 %
29.06.2018 19:59 18,1 C 20,6 C 93 % 1012,2 hPa 0,0 l/m 10,9 km/h (2 Bft) W-SW 242 0 min 0,000 mm 0,0 UV-I 23 W/m 16,9 C 16,2 C 17,7 km/h (3 Bft) 100,00 %
29.06.2018 20:00 18,1 C 20,6 C 93 % 1012,1 hPa 0,0 l/m 13,5 km/h (3 Bft) SW 223 0 min 0,000 mm 0,0 UV-I 23 W/m 16,9 C 15,4 C 19,3 km/h (3 Bft) 100,00 %
29.06.2018 20:02 18,1 C 20,6 C 93 % 1012,1 hPa 0,0 l/m 11,9 km/h (2 Bft) SW 217 0 min 0,050 mm 0,0 UV-I 25 W/m 16,9 C 15,9 C 17,7 km/h (3 Bft) 100,00 %
29.06.2018 20:03 18,2 C 20,6 C 93 % 1012,1 hPa 0,0 l/m 11,7 km/h (2 Bft) SW 229 0 min 0,000 mm 0,0 UV-I 30 W/m 17,0 C 16,1 C 17,7 km/h (3 Bft) 100,00 %
29.06.2018 20:04 18,1 C 20,6 C 93 % 1012,1 hPa 0,0 l/m 13,8 km/h (3 Bft) SW 227 0 min 0,000 mm 0,0 UV-I 32 W/m 16,9 C 15,3 C 17,7 km/h (3 Bft) 95,83 %
29.06.2018 20:05 18,1 C 20,6 C 93 % 1012,1 hPa 0,0 l/m 10,7 km/h (2 Bft) W-SW 251 0 min 0,000 mm 0,0 UV-I 32 W/m 16,9 C 16,3 C 14,5 km/h (3 Bft) 96,15 %
29.06.2018 20:06 18,1 C 20,6 C 93 % 1012,0 hPa 0,0 l/m 9,8 km/h (2 Bft) SW 227 0 min 0,000 mm 0,0 UV-I 30 W/m 16,9 C 16,6 C 14,5 km/h (3 Bft) 100,00 %
29.06.2018 20:07 18,1 C 20,6 C 93 % 1012,0 hPa 0,0 l/m 7,4 km/h (2 Bft) W-SW 242 0 min 0,000 mm 0,0 UV-I 26 W/m 16,9 C 17,6 C 11,3 km/h (2 Bft) 95,83 %
29.06.2018 20:08 18,1 C 20,6 C 93 % 1012,0 hPa 0,0 l/m 9,3 km/h (2 Bft) S-SW 209 0 min 0,000 mm 0,0 UV-I 22 W/m 16,9 C 16,8 C 12,9 km/h (3 Bft) 100,00 %
29.06.2018 20:09 18,1 C 20,6 C 93 % 1012,0 hPa 0,0 l/m 14,3 km/h (3 Bft) SW 236 0 min 0,000 mm 0,0 UV-I 18 W/m 16,9 C 15,1 C 20,9 km/h (4 Bft) 100,00 %
29.06.2018 20:10 18,1 C 20,6 C 93 % 1012,0 hPa 0,0 l/m 9,8 km/h (2 Bft) SW 229 0 min 0,000 mm 0,0 UV-I 16 W/m 16,9 C 16,6 C 17,7 km/h (3 Bft) 100,00 %
29.06.2018 20:11 18,1 C 20,6 C 93 % 1012,1 hPa 0,0 l/m 9,3 km/h (2 Bft) SW 222 0 min 0,000 mm 0,0 UV-I 16 W/m 16,9 C 16,8 C 12,9 km/h (3 Bft) 100,00 %
29.06.2018 20:12 18,1 C 20,6 C 93 % 1012,0 hPa 0,0 l/m 8,9 km/h (2 Bft) W-SW 254 0 min 0,000 mm 0,0 UV-I 16 W/m 16,9 C 17,0 C 11,3 km/h (2 Bft) 100,00 %
29.06.2018 20:13 18,1 C 20,6 C 93 % 1012,0 hPa 0,0 l/m 9,8 km/h (2 Bft) SW 230 0 min 0,000 mm 0,0 UV-I 17 W/m 16,9 C 16,6 C 12,9 km/h (3 Bft) 100,00 %
29.06.2018 20:14 18,1 C 20,6 C 93 % 1012,0 hPa 0,0 l/m 9,9 km/h (2 Bft) SW 236 0 min 0,000 mm 0,0 UV-I 19 W/m 16,9 C 16,6 C 16,1 km/h (3 Bft) 100,00 %
29.06.2018 20:15 18,1 C 20,6 C 93 % 1012,0 hPa 0,0 l/m 9,3 km/h (2 Bft) SW 227 0 min 0,000 mm 0,0 UV-I 21 W/m 16,9 C 16,8 C 11,3 km/h (2 Bft) 100,00 %
29.06.2018 20:16 18,1 C 20,6 C 93 % 1012,0 hPa 0,0 l/m 10,3 km/h (2 Bft) SW 216 0 min 0,000 mm 0,0 UV-I 21 W/m 16,9 C 16,4 C 16,1 km/h (3 Bft) 100,00 %
29.06.2018 20:18 18,1 C 20,6 C 93 % 1012,0 hPa 0,0 l/m 13,9 km/h (3 Bft) W 260 0 min 0,000 mm 0,0 UV-I 22 W/m 16,9 C 15,3 C 19,3 km/h (3 Bft) 97,87 %
29.06.2018 20:19 18,1 C 20,6 C 93 % 1012,0 hPa 0,0 l/m 10,3 km/h (2 Bft) W-SW 244 0 min 0,000 mm 0,0 UV-I 23 W/m 16,9 C 16,4 C 14,5 km/h (3 Bft) 96,15 %
29.06.2018 20:20 18,1 C 20,6 C 93 % 1012,0 hPa 0,0 l/m 9,6 km/h (2 Bft) S-SW 211 0 min 0,000 mm 0,0 UV-I 23 W/m 16,9 C 16,7 C 14,5 km/h (3 Bft) 100,00 %
29.06.2018 20:21 18,0 C 20,6 C 93 % 1012,0 hPa 0,0 l/m 11,3 km/h (2 Bft) W-SW 247 0 min 0,000 mm 0,0 UV-I 23 W/m 16,8 C 16,0 C 16,1 km/h (3 Bft) 100,00 %
29.06.2018 20:22 18,0 C 20,6 C 92 % 1012,0 hPa 0,0 l/m 12,5 km/h (3 Bft) S-SW 207 0 min 0,000 mm 0,0 UV-I 23 W/m 16,7 C 15,6 C 19,3 km/h (3 Bft) 100,00 %
29.06.2018 20:23 18,0 C 20,6 C 93 % 1012,0 hPa 0,0 l/m 11,1 km/h (2 Bft) SW 231 0 min 0,000 mm 0,0 UV-I 23 W/m 16,8 C 16,0 C 14,5 km/h (3 Bft) 100,00 %
29.06.2018 20:24 18,0 C 20,6 C 93 % 1012,1 hPa 0,0 l/m 12,1 km/h (2 Bft) W-SW 255 0 min 0,000 mm 0,0 UV-I 24 W/m 16,8 C 15,7 C 17,7 km/h (3 Bft) 100,00 %
29.06.2018 20:25 18,0 C 20,6 C 93 % 1012,0 hPa 0,0 l/m 12,1 km/h (2 Bft) W-SW 240 0 min 0,000 mm 0,0 UV-I 25 W/m 16,8 C 15,7 C 19,3 km/h (3 Bft) 100,00 %
29.06.2018 20:26 18,0 C 20,6 C 92 % 1012,0 hPa 0,0 l/m 9,9 km/h (2 Bft) W-SW 242 0 min 0,000 mm 0,0 UV-I 25 W/m 16,7 C 16,5 C 12,9 km/h (3 Bft) 100,00 %
29.06.2018 20:27 18,0 C 20,6 C 92 % 1012,0 hPa 0,0 l/m 10,8 km/h (2 Bft) W-SW 244 0 min 0,000 mm 0,0 UV-I 25 W/m 16,7 C 16,1 C 14,5 km/h (3 Bft) 100,00 %
29.06.2018 20:28 18,0 C 20,6 C 92 % 1012,0 hPa 0,0 l/m 12,5 km/h (3 Bft) W-SW 242 0 min 0,000 mm 0,0 UV-I 25 W/m 16,7 C 15,6 C 17,7 km/h (3 Bft) 100,00 %
29.06.2018 20:29 18,0 C 20,6 C 92 % 1012,0 hPa 0,0 l/m 14,7 km/h (3 Bft) SW 232 0 min 0,000 mm 0,0 UV-I 25 W/m 16,7 C 14,9 C 20,9 km/h (4 Bft) 100,00 %
29.06.2018 20:30 18,0 C 20,6 C 92 % 1012,0 hPa 0,0 l/m 11,3 km/h (2 Bft) SW 234 0 min 0,000 mm 0,0 UV-I 25 W/m 16,7 C 16,0 C 14,5 km/h (3 Bft) 96,15 %
29.06.2018 20:31 18,0 C 20,6 C 92 % 1012,0 hPa 0,0 l/m 11,2 km/h (2 Bft) W-SW 242 0 min 0,000 mm 0,0 UV-I 25 W/m 16,7 C 16,0 C 14,5 km/h (3 Bft) 100,00 %
29.06.2018 20:32 18,0 C 20,6 C 92 % 1012,0 hPa 0,0 l/m 13,7 km/h (3 Bft) W-SW 244 0 min 0,000 mm 0,0 UV-I 23 W/m 16,7 C 15,2 C 19,3 km/h (3 Bft) 100,00 %
29.06.2018 20:33 18,0 C 20,6 C 92 % 1012,0 hPa 0,0 l/m 13,3 km/h (3 Bft) SW 217 0 min 0,000 mm 0,0 UV-I 23 W/m 16,7 C 15,3 C 17,7 km/h (3 Bft) 100,00 %
29.06.2018 20:34 18,0 C 20,6 C 92 % 1012,0 hPa 0,0 l/m 13,8 km/h (3 Bft) W-SW 238 0 min 0,000 mm 0,0 UV-I 22 W/m 16,7 C 15,2 C 17,7 km/h (3 Bft) 95,65 %
29.06.2018 20:35 17,9 C 20,6 C 92 % 1012,0 hPa 0,0 l/m 10,3 km/h (2 Bft) SW 236 0 min 0,000 mm 0,0 UV-I 21 W/m 16,6 C 16,2 C 14,5 km/h (3 Bft) 100,00 %
29.06.2018 20:36 17,9 C 20,6 C 92 % 1012,0 hPa 0,0 l/m 10,5 km/h (2 Bft) SW 217 0 min 0,000 mm 0,0 UV-I 20 W/m 16,6 C 16,1 C 14,5 km/h (3 Bft) 100,00 %
29.06.2018 20:37 17,9 C 20,6 C 92 % 1012,0 hPa 0,0 l/m 11,7 km/h (2 Bft) SW 215 0 min 0,000 mm 0,0 UV-I 19 W/m 16,6 C 15,7 C 16,1 km/h (3 Bft) 100,00 %
29.06.2018 20:38 17,9 C 20,6 C 92 % 1012,0 hPa 0,0 l/m 9,1 km/h (2 Bft) SW 225 0 min 0,000 mm 0,0 UV-I 19 W/m 16,6 C 16,7 C 12,9 km/h (3 Bft) 95,65 %
29.06.2018 20:39 17,9 C 20,6 C 92 % 1012,0 hPa 0,0 l/m 10,9 km/h (2 Bft) SW 219 0 min 0,000 mm 0,0 UV-I 19 W/m 16,6 C 16,0 C 14,5 km/h (3 Bft) 100,00 %
29.06.2018 20:40 17,9 C 20,6 C 92 % 1012,0 hPa 0,0 l/m 10,5 km/h (2 Bft) SW 235 0 min 0,000 mm 0,0 UV-I 18 W/m 16,6 C 16,1 C 14,5 km/h (3 Bft) 100,00 %
29.06.2018 20:41 17,9 C 20,6 C 92 % 1012,0 hPa 0,0 l/m 12,0 km/h (2 Bft) W-SW 247 0 min 0,000 mm 0,0 UV-I 18 W/m 16,6 C 15,6 C 17,7 km/h (3 Bft) 100,00 %
29.06.2018 20:43 17,9 C 20,6 C 92 % 1012,1 hPa 0,0 l/m 11,3 km/h (2 Bft) W 259 0 min 0,000 mm 0,0 UV-I 18 W/m 16,6 C 15,8 C 20,9 km/h (4 Bft) 97,87 %
29.06.2018 20:44 17,9 C 20,6 C 92 % 1012,1 hPa 0,0 l/m 12,2 km/h (2 Bft) W-SW 237 0 min 0,000 mm 0,0 UV-I 18 W/m 16,6 C 15,5 C 16,1 km/h (3 Bft) 100,00 %
29.06.2018 20:45 17,9 C 20,6 C 92 % 1012,0 hPa 0,0 l/m 10,5 km/h (2 Bft) SW 232 0 min 0,000 mm 0,0 UV-I 18 W/m 16,6 C 16,1 C 14,5 km/h (3 Bft) 100,00 %
29.06.2018 20:46 17,9 C 20,6 C 92 % 1012,0 hPa 0,0 l/m 9,3 km/h (2 Bft) W-SW 238 0 min 0,000 mm 0,0 UV-I 17 W/m 16,6 C 16,6 C 12,9 km/h (3 Bft) 100,00 %
29.06.2018 20:47 17,9 C 20,6 C 92 % 1012,0 hPa 0,0 l/m 9,7 km/h (2 Bft) W-SW 239 0 min 0,000 mm 0,0 UV-I 16 W/m 16,6 C 16,4 C 14,5 km/h (3 Bft) 86,96 %
29.06.2018 20:48 17,9 C 20,6 C 92 % 1012,1 hPa 0,0 l/m 10,0 km/h (2 Bft) W-SW 248 0 min 0,000 mm 0,0 UV-I 15 W/m 16,6 C 16,3 C 14,5 km/h (3 Bft) 100,00 %
29.06.2018 20:49 17,9 C 20,6 C 92 % 1012,0 hPa 0,0 l/m 12,5 km/h (3 Bft) SW 223 0 min 0,000 mm 0,0 UV-I 13 W/m 16,6 C 15,4 C 16,1 km/h (3 Bft) 100,00 %
29.06.2018 20:50 17,9 C 20,6 C 92 % 1012,1 hPa 0,0 l/m 11,8 km/h (2 Bft) W-SW 249 0 min 0,000 mm 0,0 UV-I 11 W/m 16,6 C 15,7 C 16,1 km/h (3 Bft) 100,00 %
29.06.2018 20:51 17,9 C 20,6 C 92 % 1012,1 hPa 0,0 l/m 11,1 km/h (2 Bft) SW 234 0 min 0,000 mm 0,0 UV-I 11 W/m 16,6 C 15,9 C 16,1 km/h (3 Bft) 100,00 %
29.06.2018 20:52 17,9 C 20,6 C 92 % 1012,1 hPa 0,0 l/m 13,7 km/h (3 Bft) W-SW 241 0 min 0,000 mm 0,0 UV-I 11 W/m 16,6 C 15,1 C 17,7 km/h (3 Bft) 95,83 %
29.06.2018 20:53 17,9 C 20,6 C 92 % 1012,1 hPa 0,0 l/m 12,5 km/h (3 Bft) W-SW 248 1 min 0,000 mm 0,0 UV-I 11 W/m 16,6 C 15,4 C 17,7 km/h (3 Bft) 100,00 %
29.06.2018 20:54 17,9 C 20,6 C 92 % 1012,1 hPa 0,0 l/m 13,8 km/h (3 Bft) SW 231 1 min 0,000 mm 0,0 UV-I 11 W/m 16,6 C 15,0 C 20,9 km/h (4 Bft) 95,83 %
29.06.2018 20:55 17,9 C 20,6 C 92 % 1012,1 hPa 0,0 l/m 13,1 km/h (3 Bft) W-SW 238 1 min 0,000 mm 0,0 UV-I 9 W/m 16,6 C 15,3 C 17,7 km/h (3 Bft) 95,65 %
29.06.2018 20:56 17,9 C 20,6 C 92 % 1012,1 hPa 0,0 l/m 13,6 km/h (3 Bft) SW 234 0 min 0,000 mm 0,0 UV-I 9 W/m 16,6 C 15,1 C 17,7 km/h (3 Bft) 95,83 %
29.06.2018 20:58 17,8 C 20,6 C 92 % 1012,1 hPa 0,0 l/m 14,2 km/h (3 Bft) W 270 0 min 0,000 mm 0,0 UV-I 8 W/m 16,5 C 14,8 C 19,3 km/h (3 Bft) 98,00 %
29.06.2018 20:59 17,8 C 20,6 C 92 % 1012,1 hPa 0,0 l/m 11,6 km/h (2 Bft) SW 236 0 min 0,000 mm 0,0 UV-I 7 W/m 16,5 C 15,6 C 16,1 km/h (3 Bft) 100,00 %
29.06.2018 21:00 17,8 C 20,6 C 92 % 1012,1 hPa 0,0 l/m 12,4 km/h (3 Bft) W-SW 246 0 min 0,000 mm 0,0 UV-I 7 W/m 16,5 C 15,4 C 17,7 km/h (3 Bft) 95,65 %
29.06.2018 21:02 17,8 C 20,6 C 92 % 1012,1 hPa 0,0 l/m 12,2 km/h (2 Bft) W-SW 240 0 min 0,026 mm 0,0 UV-I 7 W/m 16,5 C 15,4 C 19,3 km/h (3 Bft) 96,23 %
29.06.2018 21:03 17,8 C 20,6 C 92 % 1012,1 hPa 0,0 l/m 14,6 km/h (3 Bft) W-SW 242 0 min 0,000 mm 0,0 UV-I 7 W/m 16,5 C 14,7 C 19,3 km/h (3 Bft) 95,83 %
29.06.2018 21:04 17,8 C 20,6 C 92 % 1012,1 hPa 0,0 l/m 15,1 km/h (3 Bft) W-SW 251 0 min 0,000 mm 0,0 UV-I 6 W/m 16,5 C 14,6 C 22,5 km/h (4 Bft) 96,15 %
29.06.2018 21:05 17,8 C 20,6 C 92 % 1012,1 hPa 0,0 l/m 14,8 km/h (3 Bft) W-SW 245 0 min 0,000 mm 0,0 UV-I 5 W/m 16,5 C 14,6 C 19,3 km/h (3 Bft) 95,83 %
29.06.2018 21:06 17,8 C 20,6 C 92 % 1012,0 hPa 0,0 l/m 15,0 km/h (3 Bft) SW 229 0 min 0,000 mm 0,0 UV-I 5 W/m 16,5 C 14,6 C 20,9 km/h (4 Bft) 95,65 %
29.06.2018 21:07 17,8 C 20,6 C 92 % 1012,1 hPa 0,0 l/m 12,4 km/h (3 Bft) W-SW 238 0 min 0,000 mm 0,0 UV-I 5 W/m 16,5 C 15,4 C 19,3 km/h (3 Bft) 100,00 %
29.06.2018 21:08 17,8 C 20,6 C 92 % 1012,1 hPa 0,0 l/m 11,1 km/h (2 Bft) SW 218 0 min 0,000 mm 0,0 UV-I 5 W/m 16,5 C 15,8 C 16,1 km/h (3 Bft) 95,65 %
29.06.2018 21:09 17,8 C 20,6 C 92 % 1012,1 hPa 0,0 l/m 15,6 km/h (3 Bft) SW 235 0 min 0,000 mm 0,0 UV-I 5 W/m 16,5 C 14,4 C 20,9 km/h (4 Bft) 100,00 %
29.06.2018 21:10 17,8 C 20,6 C 92 % 1012,1 hPa 0,0 l/m 10,8 km/h (2 Bft) SW 231 0 min 0,000 mm 0,0 UV-I 5 W/m 16,5 C 15,9 C 19,3 km/h (3 Bft) 95,65 %
29.06.2018 21:11 17,8 C 20,6 C 92 % 1012,1 hPa 0,0 l/m 9,3 km/h (2 Bft) SW 232 0 min 0,000 mm 0,0 UV-I 5 W/m 16,5 C 16,5 C 14,5 km/h (3 Bft) 100,00 %
29.06.2018 21:12 17,8 C 20,6 C 92 % 1012,1 hPa 0,0 l/m 11,6 km/h (2 Bft) SW 232 0 min 0,000 mm 0,0 UV-I 5 W/m 16,5 C 15,6 C 16,1 km/h (3 Bft) 95,65 %
29.06.2018 21:13 17,8 C 20,0 C 92 % 1012,1 hPa 0,0 l/m 12,5 km/h (3 Bft) SW 225 0 min 0,000 mm 0,0 UV-I 5 W/m 16,5 C 15,3 C 16,1 km/h (3 Bft) 100,00 %
29.06.2018 21:14 17,8 C 20,0 C 92 % 1012,1 hPa 0,0 l/m 12,3 km/h (3 Bft) W-SW 243 0 min 0,000 mm 0,0 UV-I 5 W/m 16,5 C 15,4 C 17,7 km/h (3 Bft) 95,65 %
29.06.2018 21:15 17,8 C 20,6 C 92 % 1012,1 hPa 0,0 l/m 13,1 km/h (3 Bft) W-SW 254 0 min 0,000 mm 0,0 UV-I 5 W/m 16,5 C 15,1 C 17,7 km/h (3 Bft) 100,00 %
29.06.2018 21:16 17,8 C 20,6 C 92 % 1012,1 hPa 0,0 l/m 13,7 km/h (3 Bft) SW 227 0 min 0,000 mm 0,0 UV-I 5 W/m 16,5 C 15,0 C 19,3 km/h (3 Bft) 95,65 %
29.06.2018 21:17 17,8 C 20,6 C 92 % 1012,1 hPa 0,0 l/m 13,0 km/h (3 Bft) SW 234 0 min 0,000 mm 0,0 UV-I 5 W/m 16,5 C 15,2 C 17,7 km/h (3 Bft) 91,67 %
29.06.2018 21:18 17,8 C 20,0 C 92 % 1012,1 hPa 0,0 l/m 13,3 km/h (3 Bft) SW 232 0 min 0,000 mm 0,0 UV-I 5 W/m 16,5 C 15,1 C 19,3 km/h (3 Bft) 95,65 %
29.06.2018 21:19 17,8 C 20,0 C 92 % 1012,1 hPa 0,0 l/m 11,4 km/h (2 Bft) W-SW 251 0 min 0,000 mm 0,0 UV-I 5 W/m 16,5 C 15,7 C 16,1 km/h (3 Bft) 96,30 %
29.06.2018 21:20 17,8 C 20,0 C 92 % 1012,1 hPa 0,0 l/m 15,3 km/h (3 Bft) W-SW 246 0 min 0,000 mm 0,0 UV-I 5 W/m 16,5 C 14,5 C 17,7 km/h (3 Bft) 91,67 %
29.06.2018 21:21 17,8 C 20,6 C 92 % 1012,1 hPa 0,0 l/m 16,1 km/h (3 Bft) SW 232 0 min 0,000 mm 0,0 UV-I 5 W/m 16,5 C 14,3 C 20,9 km/h (4 Bft) 95,65 %
29.06.2018 21:22 17,8 C 20,6 C 92 % 1012,1 hPa 0,0 l/m 13,7 km/h (3 Bft) W-SW 244 0 min 0,000 mm 0,0 UV-I 3 W/m 16,5 C 15,0 C 19,3 km/h (3 Bft) 95,65 %
29.06.2018 21:23 17,8 C 20,6 C 92 % 1012,1 hPa 0,0 l/m 15,4 km/h (3 Bft) W-SW 238 0 min 0,000 mm 0,0 UV-I 0 W/m 16,5 C 14,5 C 20,9 km/h (4 Bft) 91,67 %
29.06.2018 21:24 17,8 C 20,6 C 92 % 1012,1 hPa 0,0 l/m 15,0 km/h (3 Bft) SW 235 0 min 0,000 mm 0,0 UV-I 0 W/m 16,5 C 14,6 C 19,3 km/h (3 Bft) 95,83 %
29.06.2018 21:25 17,8 C 20,6 C 92 % 1012,1 hPa 0,0 l/m 13,9 km/h (3 Bft) W-SW 240 0 min 0,000 mm 0,0 UV-I 0 W/m 16,5 C 14,9 C 17,7 km/h (3 Bft) 100,00 %
29.06.2018 21:26 17,8 C 20,6 C 92 % 1012,1 hPa 0,0 l/m 14,2 km/h (3 Bft) SW 232 0 min 0,000 mm 0,0 UV-I 0 W/m 16,5 C 14,8 C 16,1 km/h (3 Bft) 95,83 %
29.06.2018 21:28 17,8 C 20,6 C 92 % 1012,1 hPa 0,0 l/m 12,5 km/h (3 Bft) W 263 0 min 0,000 mm 0,0 UV-I 0 W/m 16,5 C 15,3 C 17,7 km/h (3 Bft) 100,00 %
29.06.2018 21:29 17,8 C 20,0 C 92 % 1012,1 hPa 0,0 l/m 14,3 km/h (3 Bft) SW 231 0 min 0,000 mm 0,0 UV-I 0 W/m 16,5 C 14,8 C 20,9 km/h (4 Bft) 100,00 %
29.06.2018 21:30 17,7 C 20,6 C 92 % 1012,1 hPa 0,0 l/m 13,5 km/h (3 Bft) W-SW 248 0 min 0,000 mm 0,0 UV-I 0 W/m 16,4 C 14,9 C 17,7 km/h (3 Bft) 100,00 %
29.06.2018 21:31 17,7 C 20,6 C 92 % 1012,2 hPa 0,0 l/m 12,1 km/h (2 Bft) SW 233 0 min 0,000 mm 0,0 UV-I 0 W/m 16,4 C 15,3 C 16,1 km/h (3 Bft) 100,00 %
29.06.2018 21:33 17,7 C 20,6 C 92 % 1012,2 hPa 0,0 l/m 12,5 km/h (3 Bft) W-SW 244 0 min 0,000 mm 0,0 UV-I 0 W/m 16,4 C 15,2 C 16,1 km/h (3 Bft) 98,31 %
29.06.2018 21:34 17,7 C 20,6 C 92 % 1012,2 hPa 0,0 l/m 10,7 km/h (2 Bft) W 259 0 min 0,000 mm 0,0 UV-I 0 W/m 16,4 C 15,8 C 14,5 km/h (3 Bft) 100,00 %
29.06.2018 21:35 17,7 C 20,6 C 92 % 1012,2 hPa 0,0 l/m 12,1 km/h (2 Bft) W 268 0 min 0,000 mm 0,0 UV-I 0 W/m 16,4 C 15,3 C 16,1 km/h (3 Bft) 95,65 %
29.06.2018 21:36 17,7 C 20,6 C 92 % 1012,3 hPa 0,0 l/m 12,0 km/h (2 Bft) W-SW 257 0 min 0,000 mm 0,0 UV-I 0 W/m 16,4 C 15,4 C 16,1 km/h (3 Bft) 95,83 %
29.06.2018 21:37 17,7 C 20,0 C 92 % 1012,3 hPa 0,0 l/m 11,3 km/h (2 Bft) W-SW 258 0 min 0,000 mm 0,0 UV-I 0 W/m 16,4 C 15,6 C 14,5 km/h (3 Bft) 95,83 %
29.06.2018 21:38 17,7 C 20,6 C 92 % 1012,2 hPa 0,0 l/m 10,9 km/h (2 Bft) W 279 0 min 0,000 mm 0,0 UV-I 0 W/m 16,4 C 15,8 C 16,1 km/h (3 Bft) 96,15 %
29.06.2018 21:39 17,7 C 20,6 C 92 % 1012,3 hPa 0,0 l/m 11,7 km/h (2 Bft) W 261 0 min 0,000 mm 0,0 UV-I 0 W/m 16,4 C 15,5 C 17,7 km/h (3 Bft) 95,83 %
29.06.2018 21:40 17,7 C 20,6 C 92 % 1012,3 hPa 0,0 l/m 11,6 km/h (2 Bft) W 262 0 min 0,000 mm 0,0 UV-I 0 W/m 16,4 C 15,5 C 14,5 km/h (3 Bft) 91,30 %
29.06.2018 21:41 17,7 C 20,0 C 92 % 1012,3 hPa 0,0 l/m 9,0 km/h (2 Bft) W-SW 252 0 min 0,000 mm 0,0 UV-I 0 W/m 16,4 C 16,5 C 14,5 km/h (3 Bft) 100,00 %
29.06.2018 21:43 17,7 C 20,6 C 92 % 1012,3 hPa 0,0 l/m 10,2 km/h (2 Bft) W-SW 255 0 min 0,000 mm 0,0 UV-I 0 W/m 16,4 C 16,0 C 17,7 km/h (3 Bft) 95,74 %
29.06.2018 21:44 17,7 C 20,6 C 92 % 1012,3 hPa 0,0 l/m 11,0 km/h (2 Bft) W-SW 251 0 min 0,000 mm 0,0 UV-I 0 W/m 16,4 C 15,7 C 12,9 km/h (3 Bft) 91,30 %
29.06.2018 21:45 17,7 C 20,6 C 92 % 1012,3 hPa 0,0 l/m 10,5 km/h (2 Bft) W-SW 252 0 min 0,000 mm 0,0 UV-I 0 W/m 16,4 C 15,9 C 14,5 km/h (3 Bft) 100,00 %
29.06.2018 21:46 17,7 C 20,0 C 92 % 1012,3 hPa 0,0 l/m 9,1 km/h (2 Bft) W-SW 242 0 min 0,000 mm 0,0 UV-I 0 W/m 16,4 C 16,5 C 14,5 km/h (3 Bft) 95,65 %
29.06.2018 21:47 17,7 C 20,0 C 92 % 1012,3 hPa 0,0 l/m 10,1 km/h (2 Bft) W-SW 258 0 min 0,000 mm 0,0 UV-I 0 W/m 16,4 C 16,1 C 12,9 km/h (3 Bft) 100,00 %
29.06.2018 21:48 17,7 C 20,0 C 92 % 1012,3 hPa 0,0 l/m 12,9 km/h (3 Bft) W-SW 258 0 min 0,000 mm 0,0 UV-I 0 W/m 16,4 C 15,1 C 16,1 km/h (3 Bft) 96,15 %
29.06.2018 21:49 17,7 C 20,6 C 92 % 1012,3 hPa 0,0 l/m 11,3 km/h (2 Bft) W-SW 243 0 min 0,000 mm 0,0 UV-I 0 W/m 16,4 C 15,6 C 16,1 km/h (3 Bft) 95,83 %
29.06.2018 21:50 17,7 C 20,6 C 92 % 1012,3 hPa 0,0 l/m 11,0 km/h (2 Bft) W-SW 254 0 min 0,000 mm 0,0 UV-I 0 W/m 16,4 C 15,7 C 16,1 km/h (3 Bft) 95,65 %
29.06.2018 21:51 17,7 C 20,6 C 92 % 1012,3 hPa 0,0 l/m 9,6 km/h (2 Bft) W-SW 242 0 min 0,000 mm 0,0 UV-I 0 W/m 16,4 C 16,3 C 16,1 km/h (3 Bft) 95,83 %
29.06.2018 21:52 17,7 C 20,6 C 92 % 1012,3 hPa 0,0 l/m 9,1 km/h (2 Bft) W-SW 255 0 min 0,000 mm 0,0 UV-I 0 W/m 16,4 C 16,5 C 12,9 km/h (3 Bft) 95,65 %
29.06.2018 21:53 17,7 C 20,0 C 92 % 1012,3 hPa 0,0 l/m 11,7 km/h (2 Bft) W-SW 257 0 min 0,000 mm 0,0 UV-I 0 W/m 16,4 C 15,5 C 16,1 km/h (3 Bft) 95,83 %
29.06.2018 21:54 17,7 C 20,6 C 92 % 1012,3 hPa 0,0 l/m 9,4 km/h (2 Bft) W-SW 250 0 min 0,000 mm 0,0 UV-I 0 W/m 16,4 C 16,3 C 12,9 km/h (3 Bft) 100,00 %
29.06.2018 21:55 17,7 C 20,6 C 92 % 1012,3 hPa 0,0 l/m 9,3 km/h (2 Bft) W-SW 254 0 min 0,000 mm 0,0 UV-I 0 W/m 16,4 C 16,4 C 12,9 km/h (3 Bft) 95,83 %
29.06.2018 21:56 17,7 C 20,6 C 92 % 1012,3 hPa 0,0 l/m 9,7 km/h (2 Bft) W-SW 238 0 min 0,000 mm 0,0 UV-I 0 W/m 16,4 C 16,2 C 14,5 km/h (3 Bft) 100,00 %
29.06.2018 21:57 17,7 C 20,6 C 92 % 1012,4 hPa 0,0 l/m 9,7 km/h (2 Bft) W-SW 237 0 min 0,000 mm 0,0 UV-I 0 W/m 16,4 C 16,2 C 12,9 km/h (3 Bft) 96,15 %
29.06.2018 21:58 17,7 C 20,0 C 92 % 1012,3 hPa 0,0 l/m 12,0 km/h (2 Bft) W-SW 255 0 min 0,000 mm 0,0 UV-I 0 W/m 16,4 C 15,4 C 14,5 km/h (3 Bft) 100,00 %
29.06.2018 21:59 17,7 C 20,0 C 92 % 1012,4 hPa 0,0 l/m 11,9 km/h (2 Bft) W-SW 243 0 min 0,000 mm 0,0 UV-I 0 W/m 16,4 C 15,4 C 16,1 km/h (3 Bft) 91,30 %
29.06.2018 22:00 17,7 C 20,0 C 92 % 1012,4 hPa 0,0 l/m 10,7 km/h (2 Bft) W 271 0 min 0,000 mm 0,0 UV-I 0 W/m 16,4 C 15,8 C 12,9 km/h (3 Bft) 100,00 %
29.06.2018 22:02 17,7 C 20,0 C 92 % 1012,4 hPa 0,0 l/m 10,8 km/h (2 Bft) W 261 0 min 0,025 mm 0,0 UV-I 0 W/m 16,4 C 15,8 C 14,5 km/h (3 Bft) 94,00 %
29.06.2018 22:03 17,7 C 20,0 C 92 % 1012,4 hPa 0,0 l/m 10,1 km/h (2 Bft) W 267 0 min 0,000 mm 0,0 UV-I 0 W/m 16,4 C 16,1 C 16,1 km/h (3 Bft) 100,00 %
29.06.2018 22:04 17,7 C 20,0 C 91 % 1012,4 hPa 0,0 l/m 10,0 km/h (2 Bft) W-SW 243 0 min 0,000 mm 0,0 UV-I 0 W/m 16,2 C 16,1 C 17,7 km/h (3 Bft) 95,83 %
29.06.2018 22:05 17,7 C 20,0 C 91 % 1012,4 hPa 0,0 l/m 11,2 km/h (2 Bft) W 262 0 min 0,000 mm 0,0 UV-I 0 W/m 16,2 C 15,7 C 16,1 km/h (3 Bft) 100,00 %
29.06.2018 22:06 17,7 C 20,0 C 92 % 1012,3 hPa 0,0 l/m 12,1 km/h (2 Bft) W 260 0 min 0,000 mm 0,0 UV-I 0 W/m 16,4 C 15,3 C 17,7 km/h (3 Bft) 95,83 %
29.06.2018 22:08 17,7 C 20,0 C 91 % 1012,4 hPa 0,0 l/m 10,5 km/h (2 Bft) W 261 0 min 0,000 mm 0,0 UV-I 0 W/m 16,2 C 15,9 C 14,5 km/h (3 Bft) 95,74 %
29.06.2018 22:09 17,7 C 20,0 C 91 % 1012,4 hPa 0,0 l/m 11,0 km/h (2 Bft) SW 229 0 min 0,000 mm 0,0 UV-I 0 W/m 16,2 C 15,7 C 14,5 km/h (3 Bft) 91,67 %
29.06.2018 22:10 17,7 C 20,0 C 91 % 1012,4 hPa 0,0 l/m 11,5 km/h (2 Bft) W-SW 241 0 min 0,000 mm 0,0 UV-I 0 W/m 16,2 C 15,6 C 16,1 km/h (3 Bft) 97,14 %
29.06.2018 22:11 17,7 C 20,0 C 91 % 1012,4 hPa 0,0 l/m 10,6 km/h (2 Bft) W-SW 237 0 min 0,000 mm 0,0 UV-I 0 W/m 16,2 C 15,9 C 16,1 km/h (3 Bft) 81,82 %
29.06.2018 22:13 17,7 C 20,0 C 91 % 1012,4 hPa 0,0 l/m 9,8 km/h (2 Bft) W-SW 237 0 min 0,000 mm 0,0 UV-I 0 W/m 16,2 C 16,2 C 17,7 km/h (3 Bft) 96,30 %
29.06.2018 22:14 17,7 C 20,0 C 91 % 1012,4 hPa 0,0 l/m 9,2 km/h (2 Bft) SW 227 0 min 0,000 mm 0,0 UV-I 0 W/m 16,2 C 16,4 C 11,3 km/h (2 Bft) 96,30 %
29.06.2018 22:15 17,7 C 20,0 C 92 % 1012,5 hPa 0,0 l/m 11,3 km/h (2 Bft) W-SW 240 0 min 0,000 mm 0,0 UV-I 0 W/m 16,4 C 15,6 C 16,1 km/h (3 Bft) 91,30 %
29.06.2018 22:16 17,7 C 20,0 C 92 % 1012,5 hPa 0,0 l/m 10,1 km/h (2 Bft) W 261 0 min 0,000 mm 0,0 UV-I 0 W/m 16,4 C 16,1 C 14,5 km/h (3 Bft) 100,00 %
29.06.2018 22:17 17,7 C 20,0 C 92 % 1012,5 hPa 0,0 l/m 8,0 km/h (2 Bft) W 264 0 min 0,000 mm 0,0 UV-I 0 W/m 16,4 C 16,9 C 11,3 km/h (2 Bft) 91,30 %
29.06.2018 22:18 17,6 C 20,0 C 92 % 1012,5 hPa 0,0 l/m 9,9 km/h (2 Bft) W-SW 248 0 min 0,000 mm 0,0 UV-I 0 W/m 16,3 C 16,0 C 12,9 km/h (3 Bft) 100,00 %
29.06.2018 22:19 17,6 C 20,0 C 92 % 1012,5 hPa 0,0 l/m 9,3 km/h (2 Bft) W-SW 246 0 min 0,000 mm 0,0 UV-I 0 W/m 16,3 C 16,3 C 14,5 km/h (3 Bft) 95,65 %
29.06.2018 22:20 17,6 C 20,0 C 92 % 1012,5 hPa 0,0 l/m 10,5 km/h (2 Bft) SW 234 0 min 0,000 mm 0,0 UV-I 0 W/m 16,3 C 15,8 C 14,5 km/h (3 Bft) 100,00 %
29.06.2018 22:21 17,6 C 20,0 C 92 % 1012,5 hPa 0,0 l/m 8,5 km/h (2 Bft) S-SW 200 0 min 0,000 mm 0,0 UV-I 0 W/m 16,3 C 16,6 C 11,3 km/h (2 Bft) 93,33 %
29.06.2018 22:22 17,6 C 20,0 C 92 % 1012,5 hPa 0,0 l/m 6,5 km/h (2 Bft) W-SW 238 0 min 0,000 mm 0,0 UV-I 0 W/m 16,3 C 17,6 C 8,0 km/h (2 Bft) 100,00 %
29.06.2018 22:23 17,6 C 20,0 C 92 % 1012,5 hPa 0,0 l/m 7,3 km/h (2 Bft) W-SW 257 0 min 0,000 mm 0,0 UV-I 0 W/m 16,3 C 17,2 C 11,3 km/h (2 Bft) 95,83 %
29.06.2018 22:24 17,6 C 20,0 C 92 % 1012,6 hPa 0,0 l/m 7,4 km/h (2 Bft) SW 234 0 min 0,000 mm 0,0 UV-I 0 W/m 16,3 C 17,1 C 11,3 km/h (2 Bft) 95,65 %
29.06.2018 22:25 17,6 C 20,0 C 92 % 1012,6 hPa 0,0 l/m 7,7 km/h (2 Bft) W-SW 246 0 min 0,000 mm 0,0 UV-I 0 W/m 16,3 C 17,0 C 9,7 km/h (2 Bft) 100,00 %
29.06.2018 22:26 17,5 C 20,0 C 92 % 1012,6 hPa 0,0 l/m 6,9 km/h (2 Bft) W-SW 239 0 min 0,000 mm 0,0 UV-I 0 W/m 16,2 C 17,3 C 9,7 km/h (2 Bft) 95,65 %
29.06.2018 22:27 17,5 C 20,0 C 92 % 1012,6 hPa 0,0 l/m 6,9 km/h (2 Bft) W-SW 244 0 min 0,000 mm 0,0 UV-I 0 W/m 16,2 C 17,3 C 11,3 km/h (2 Bft) 100,00 %
29.06.2018 22:28 17,5 C 20,0 C 92 % 1012,6 hPa 0,0 l/m 7,0 km/h (2 Bft) SW 235 0 min 0,000 mm 0,0 UV-I 0 W/m 16,2 C 17,2 C 11,3 km/h (2 Bft) 91,30 %
29.06.2018 22:29 17,4 C 20,0 C 92 % 1012,6 hPa 0,0 l/m 6,4 km/h (2 Bft) W-SW 248 0 min 0,000 mm 0,0 UV-I 0 W/m 16,1 C 17,4 C 8,0 km/h (2 Bft) 100,00 %
29.06.2018 22:30 17,5 C 20,0 C 92 % 1012,6 hPa 0,0 l/m 7,7 km/h (2 Bft) SW 223 0 min 0,000 mm 0,0 UV-I 0 W/m 16,2 C 16,9 C 11,3 km/h (2 Bft) 96,15 %
29.06.2018 22:31 17,5 C 20,0 C 92 % 1012,6 hPa 0,0 l/m 7,0 km/h (2 Bft) W 259 0 min 0,000 mm 0,0 UV-I 0 W/m 16,2 C 17,2 C 9,7 km/h (2 Bft) 100,00 %
29.06.2018 22:32 17,5 C 20,0 C 92 % 1012,6 hPa 0,0 l/m 8,0 km/h (2 Bft) W-SW 248 0 min 0,000 mm 0,0 UV-I 0 W/m 16,2 C 16,7 C 12,9 km/h (3 Bft) 95,65 %
29.06.2018 22:33 17,5 C 20,0 C 92 % 1012,6 hPa 0,0 l/m 7,7 km/h (2 Bft) W-SW 238 0 min 0,000 mm 0,0 UV-I 0 W/m 16,2 C 16,9 C 11,3 km/h (2 Bft) 95,83 %
29.06.2018 22:34 17,5 C 20,0 C 92 % 1012,7 hPa 0,0 l/m 9,9 km/h (2 Bft) W-SW 242 0 min 0,000 mm 0,0 UV-I 0 W/m 16,2 C 15,9 C 14,5 km/h (3 Bft) 91,67 %
29.06.2018 22:35 17,6 C 20,0 C 92 % 1012,7 hPa 0,0 l/m 8,7 km/h (2 Bft) SW 229 0 min 0,000 mm 0,0 UV-I 0 W/m 16,3 C 16,5 C 11,3 km/h (2 Bft) 95,65 %
29.06.2018 22:36 17,6 C 20,0 C 92 % 1012,7 hPa 0,0 l/m 7,6 km/h (2 Bft) W-SW 248 0 min 0,000 mm 0,0 UV-I 0 W/m 16,3 C 17,0 C 9,7 km/h (2 Bft) 96,55 %
29.06.2018 22:37 17,6 C 20,0 C 92 % 1012,7 hPa 0,0 l/m 7,0 km/h (2 Bft) S-SW 213 0 min 0,000 mm 0,0 UV-I 0 W/m 16,3 C 17,3 C 11,3 km/h (2 Bft) 91,67 %
29.06.2018 22:38 17,6 C 20,0 C 92 % 1012,7 hPa 0,0 l/m 8,4 km/h (2 Bft) S-SW 209 0 min 0,000 mm 0,0 UV-I 0 W/m 16,3 C 16,7 C 11,3 km/h (2 Bft) 95,83 %
29.06.2018 22:39 17,5 C 20,0 C 92 % 1012,7 hPa 0,0 l/m 5,8 km/h (2 Bft) SW 232 0 min 0,000 mm 0,0 UV-I 0 W/m 16,2 C 17,5 C 8,0 km/h (2 Bft) 100,00 %
29.06.2018 22:40 17,5 C 20,0 C 92 % 1012,7 hPa 0,0 l/m 6,5 km/h (2 Bft) SW 236 0 min 0,000 mm 0,0 UV-I 0 W/m 16,2 C 17,5 C 8,0 km/h (2 Bft) 100,00 %
29.06.2018 22:41 17,5 C 20,0 C 92 % 1012,7 hPa 0,0 l/m 7,1 km/h (2 Bft) SW 217 0 min 0,000 mm 0,0 UV-I 0 W/m 16,2 C 17,2 C 9,7 km/h (2 Bft) 100,00 %
29.06.2018 22:42 17,5 C 20,0 C 92 % 1012,7 hPa 0,0 l/m 7,0 km/h (2 Bft) W-SW 237 0 min 0,000 mm 0,0 UV-I 0 W/m 16,2 C 17,2 C 8,0 km/h (2 Bft) 100,00 %
29.06.2018 22:43 17,5 C 20,0 C 92 % 1012,7 hPa 0,0 l/m 6,5 km/h (2 Bft) W-SW 238 0 min 0,000 mm 0,0 UV-I 0 W/m 16,2 C 17,5 C 9,7 km/h (2 Bft) 95,65 %
29.06.2018 22:44 17,5 C 20,0 C 92 % 1012,7 hPa 0,0 l/m 6,7 km/h (2 Bft) W-SW 239 0 min 0,000 mm 0,0 UV-I 0 W/m 16,2 C 17,4 C 11,3 km/h (2 Bft) 100,00 %
29.06.2018 22:45 17,5 C 20,0 C 92 % 1012,7 hPa 0,0 l/m 7,9 km/h (2 Bft) SW 232 0 min 0,000 mm 0,0 UV-I 0 W/m 16,2 C 16,8 C 11,3 km/h (2 Bft) 100,00 %
29.06.2018 22:46 17,5 C 20,0 C 92 % 1012,6 hPa 0,0 l/m 8,2 km/h (2 Bft) W-SW 239 0 min 0,000 mm 0,0 UV-I 0 W/m 16,2 C 16,6 C 12,9 km/h (3 Bft) 100,00 %
29.06.2018 22:48 17,4 C 20,0 C 93 % 1012,7 hPa 0,0 l/m 9,0 km/h (2 Bft) W-SW 241 0 min 0,000 mm 0,0 UV-I 0 W/m 16,3 C 16,2 C 12,9 km/h (3 Bft) 100,00 %
29.06.2018 22:49 17,4 C 20,0 C 93 % 1012,7 hPa 0,0 l/m 8,2 km/h (2 Bft) W-SW 240 0 min 0,000 mm 0,0 UV-I 0 W/m 16,3 C 16,5 C 11,3 km/h (2 Bft) 95,65 %
29.06.2018 22:50 17,4 C 20,0 C 93 % 1012,7 hPa 0,0 l/m 10,3 km/h (2 Bft) SW 226 0 min 0,000 mm 0,0 UV-I 0 W/m 16,3 C 15,7 C 14,5 km/h (3 Bft) 100,00 %
29.06.2018 22:51 17,4 C 20,0 C 93 % 1012,7 hPa 0,0 l/m 9,0 km/h (2 Bft) W-SW 244 0 min 0,000 mm 0,0 UV-I 0 W/m 16,3 C 16,2 C 12,9 km/h (3 Bft) 95,65 %
29.06.2018 22:52 17,4 C 20,0 C 93 % 1012,7 hPa 0,0 l/m 8,6 km/h (2 Bft) W-SW 238 0 min 0,000 mm 0,0 UV-I 0 W/m 16,3 C 16,4 C 12,9 km/h (3 Bft) 100,00 %
29.06.2018 22:53 17,4 C 20,0 C 93 % 1012,7 hPa 0,0 l/m 9,1 km/h (2 Bft) W-SW 238 0 min 0,000 mm 0,0 UV-I 0 W/m 16,3 C 16,1 C 12,9 km/h (3 Bft) 100,00 %
29.06.2018 22:54 17,4 C 20,0 C 93 % 1012,7 hPa 0,0 l/m 9,9 km/h (2 Bft) SW 230 0 min 0,000 mm 0,0 UV-I 0 W/m 16,3 C 15,8 C 12,9 km/h (3 Bft) 95,83 %
29.06.2018 22:55 17,4 C 20,0 C 93 % 1012,7 hPa 0,0 l/m 10,6 km/h (2 Bft) SW 236 0 min 0,000 mm 0,0 UV-I 0 W/m 16,3 C 15,5 C 12,9 km/h (3 Bft) 100,00 %
29.06.2018 22:56 17,4 C 20,0 C 93 % 1012,7 hPa 0,0 l/m 11,7 km/h (2 Bft) SW 227 0 min 0,000 mm 0,0 UV-I 0 W/m 16,3 C 15,1 C 16,1 km/h (3 Bft) 93,33 %
29.06.2018 22:58 17,4 C 20,0 C 93 % 1012,7 hPa 0,0 l/m 11,3 km/h (2 Bft) W-SW 247 0 min 0,000 mm 0,0 UV-I 0 W/m 16,3 C 15,3 C 19,3 km/h (3 Bft) 98,31 %
29.06.2018 22:59 17,4 C 20,0 C 93 % 1012,7 hPa 0,0 l/m 9,9 km/h (2 Bft) W-SW 251 0 min 0,000 mm 0,0 UV-I 0 W/m 16,3 C 15,8 C 12,9 km/h (3 Bft) 100,00 %
29.06.2018 23:00 17,4 C 20,0 C 93 % 1012,7 hPa 0,0 l/m 10,5 km/h (2 Bft) SW 230 0 min 0,000 mm 0,0 UV-I 0 W/m 16,3 C 15,6 C 12,9 km/h (3 Bft) 95,65 %
29.06.2018 23:02 17,4 C 20,0 C 93 % 1012,7 hPa 0,0 l/m 9,5 km/h (2 Bft) SW 236 0 min 0,000 mm 0,0 UV-I 0 W/m 16,3 C 16,0 C 14,5 km/h (3 Bft) 96,00 %
29.06.2018 23:03 17,4 C 20,0 C 93 % 1012,7 hPa 0,0 l/m 10,9 km/h (2 Bft) W 260 0 min 0,000 mm 0,0 UV-I 0 W/m 16,3 C 15,4 C 14,5 km/h (3 Bft) 95,83 %
29.06.2018 23:04 17,4 C 20,0 C 93 % 1012,7 hPa 0,0 l/m 9,4 km/h (2 Bft) W-SW 251 0 min 0,000 mm 0,0 UV-I 0 W/m 16,3 C 16,0 C 12,9 km/h (3 Bft) 100,00 %
29.06.2018 23:05 17,5 C 20,0 C 93 % 1012,7 hPa 0,0 l/m 9,7 km/h (2 Bft) SW 232 0 min 0,000 mm 0,0 UV-I 0 W/m 16,4 C 16,0 C 14,5 km/h (3 Bft) 91,67 %
29.06.2018 23:06 17,4 C 20,0 C 93 % 1012,7 hPa 0,0 l/m 9,5 km/h (2 Bft) W-SW 255 0 min 0,000 mm 0,0 UV-I 0 W/m 16,3 C 16,0 C 12,9 km/h (3 Bft) 100,00 %
29.06.2018 23:07 17,4 C 20,0 C 93 % 1012,7 hPa 0,0 l/m 8,5 km/h (2 Bft) W-SW 246 0 min 0,000 mm 0,0 UV-I 0 W/m 16,3 C 16,4 C 12,9 km/h (3 Bft) 95,83 %
29.06.2018 23:08 17,4 C 20,0 C 93 % 1012,7 hPa 0,0 l/m 9,9 km/h (2 Bft) W 267 0 min 0,000 mm 0,0 UV-I 0 W/m 16,3 C 15,8 C 12,9 km/h (3 Bft) 95,65 %
29.06.2018 23:09 17,4 C 20,0 C 93 % 1012,7 hPa 0,0 l/m 9,6 km/h (2 Bft) W-SW 244 0 min 0,000 mm 0,0 UV-I 0 W/m 16,3 C 15,9 C 12,9 km/h (3 Bft) 100,00 %
29.06.2018 23:10 17,4 C 20,0 C 92 % 1012,7 hPa 0,0 l/m 8,7 km/h (2 Bft) W-SW 239 0 min 0,000 mm 0,0 UV-I 0 W/m 16,1 C 16,3 C 14,5 km/h (3 Bft) 100,00 %
29.06.2018 23:11 17,4 C 20,0 C 92 % 1012,7 hPa 0,0 l/m 9,9 km/h (2 Bft) SW 226 0 min 0,000 mm 0,0 UV-I 0 W/m 16,1 C 15,8 C 14,5 km/h (3 Bft) 100,00 %
29.06.2018 23:12 17,5 C 20,0 C 92 % 1012,7 hPa 0,0 l/m 8,9 km/h (2 Bft) SW 220 0 min 0,000 mm 0,0 UV-I 0 W/m 16,2 C 16,3 C 11,3 km/h (2 Bft) 95,65 %
29.06.2018 23:13 17,5 C 20,0 C 92 % 1012,7 hPa 0,0 l/m 8,2 km/h (2 Bft) SW 219 0 min 0,000 mm 0,0 UV-I 0 W/m 16,2 C 16,6 C 12,9 km/h (3 Bft) 100,00 %
29.06.2018 23:14 17,5 C 20,0 C 92 % 1012,7 hPa 0,0 l/m 8,9 km/h (2 Bft) W-SW 248 0 min 0,000 mm 0,0 UV-I 0 W/m 16,2 C 16,3 C 12,9 km/h (3 Bft) 91,67 %
29.06.2018 23:15 17,5 C 20,0 C 92 % 1012,7 hPa 0,0 l/m 9,1 km/h (2 Bft) SW 235 0 min 0,000 mm 0,0 UV-I 0 W/m 16,2 C 16,2 C 12,9 km/h (3 Bft) 100,00 %
29.06.2018 23:16 17,5 C 20,0 C 92 % 1012,7 hPa 0,0 l/m 9,9 km/h (2 Bft) W-SW 240 0 min 0,000 mm 0,0 UV-I 0 W/m 16,2 C 15,9 C 16,1 km/h (3 Bft) 95,83 %
29.06.2018 23:17 17,4 C 20,0 C 92 % 1012,7 hPa 0,0 l/m 14,1 km/h (3 Bft) W-SW 243 0 min 0,000 mm 0,0 UV-I 0 W/m 16,1 C 14,4 C 17,7 km/h (3 Bft) 100,00 %
29.06.2018 23:18 17,5 C 20,0 C 92 % 1012,6 hPa 0,0 l/m 11,5 km/h (2 Bft) W-SW 250 0 min 0,000 mm 0,0 UV-I 0 W/m 16,2 C 15,3 C 17,7 km/h (3 Bft) 95,83 %
29.06.2018 23:19 17,5 C 20,0 C 92 % 1012,7 hPa 0,0 l/m 12,6 km/h (3 Bft) W-SW 258 0 min 0,000 mm 0,0 UV-I 0 W/m 16,2 C 15,0 C 17,7 km/h (3 Bft) 91,30 %
29.06.2018 23:20 17,5 C 20,0 C 92 % 1012,6 hPa 0,0 l/m 10,9 km/h (2 Bft) SW 235 0 min 0,000 mm 0,0 UV-I 0 W/m 16,2 C 15,5 C 14,5 km/h (3 Bft) 100,00 %
29.06.2018 23:21 17,5 C 20,0 C 92 % 1012,6 hPa 0,0 l/m 11,5 km/h (2 Bft) SW 227 0 min 0,000 mm 0,0 UV-I 0 W/m 16,2 C 15,3 C 14,5 km/h (3 Bft) 96,15 %
29.06.2018 23:22 17,5 C 20,0 C 92 % 1012,6 hPa 0,0 l/m 11,5 km/h (2 Bft) SW 234 0 min 0,000 mm 0,0 UV-I 0 W/m 16,2 C 15,3 C 14,5 km/h (3 Bft) 96,30 %
29.06.2018 23:23 17,5 C 20,0 C 92 % 1012,6 hPa 0,0 l/m 11,7 km/h (2 Bft) SW 230 0 min 0,000 mm 0,0 UV-I 0 W/m 16,2 C 15,3 C 14,5 km/h (3 Bft) 90,91 %
29.06.2018 23:24 17,5 C 20,0 C 92 % 1012,6 hPa 0,0 l/m 12,3 km/h (3 Bft) W-SW 237 0 min 0,000 mm 0,0 UV-I 0 W/m 16,2 C 15,0 C 16,1 km/h (3 Bft) 100,00 %
29.06.2018 23:25 17,5 C 20,0 C 92 % 1012,6 hPa 0,0 l/m 10,8 km/h (2 Bft) SW 227 0 min 0,000 mm 0,0 UV-I 0 W/m 16,2 C 15,6 C 14,5 km/h (3 Bft) 95,65 %
29.06.2018 23:26 17,6 C 20,0 C 92 % 1012,6 hPa 0,0 l/m 9,6 km/h (2 Bft) W-SW 250 0 min 0,000 mm 0,0 UV-I 0 W/m 16,3 C 16,1 C 14,5 km/h (3 Bft) 93,33 %
29.06.2018 23:27 17,6 C 20,0 C 92 % 1012,6 hPa 0,0 l/m 9,4 km/h (2 Bft) W-SW 244 0 min 0,000 mm 0,0 UV-I 0 W/m 16,3 C 16,2 C 14,5 km/h (3 Bft) 95,65 %
29.06.2018 23:28 17,6 C 20,0 C 92 % 1012,6 hPa 0,0 l/m 8,2 km/h (2 Bft) W-SW 251 0 min 0,000 mm 0,0 UV-I 0 W/m 16,3 C 16,7 C 11,3 km/h (2 Bft) 100,00 %
29.06.2018 23:29 17,6 C 20,0 C 92 % 1012,6 hPa 0,0 l/m 7,6 km/h (2 Bft) W-SW 250 0 min 0,000 mm 0,0 UV-I 0 W/m 16,3 C 17,0 C 11,3 km/h (2 Bft) 100,00 %
29.06.2018 23:30 17,6 C 20,0 C 92 % 1012,5 hPa 0,0 l/m 7,7 km/h (2 Bft) W-SW 257 0 min 0,000 mm 0,0 UV-I 0 W/m 16,3 C 17,0 C 9,7 km/h (2 Bft) 100,00 %
29.06.2018 23:31 17,6 C 20,0 C 92 % 1012,6 hPa 0,0 l/m 9,2 km/h (2 Bft) W-SW 246 0 min 0,000 mm 0,0 UV-I 0 W/m 16,3 C 16,3 C 16,1 km/h (3 Bft) 100,00 %
29.06.2018 23:32 17,6 C 20,0 C 92 % 1012,6 hPa 0,0 l/m 7,8 km/h (2 Bft) W-SW 242 0 min 0,000 mm 0,0 UV-I 0 W/m 16,3 C 16,9 C 12,9 km/h (3 Bft) 100,00 %
29.06.2018 23:33 17,6 C 20,0 C 92 % 1012,6 hPa 0,0 l/m 6,0 km/h (2 Bft) W-SW 248 0 min 0,000 mm 0,0 UV-I 0 W/m 16,3 C 17,6 C 9,7 km/h (2 Bft) 100,00 %
29.06.2018 23:34 17,6 C 20,0 C 92 % 1012,6 hPa 0,0 l/m 7,6 km/h (2 Bft) W 269 0 min 0,000 mm 0,0 UV-I 0 W/m 16,3 C 17,0 C 11,3 km/h (2 Bft) 100,00 %
29.06.2018 23:35 17,6 C 20,0 C 92 % 1012,6 hPa 0,0 l/m 8,9 km/h (2 Bft) W-SW 257 0 min 0,000 mm 0,0 UV-I 0 W/m 16,3 C 16,4 C 11,3 km/h (2 Bft) 100,00 %
29.06.2018 23:36 17,6 C 20,0 C 92 % 1012,6 hPa 0,0 l/m 7,5 km/h (2 Bft) W-SW 238 0 min 0,000 mm 0,0 UV-I 0 W/m 16,3 C 17,1 C 11,3 km/h (2 Bft) 100,00 %
29.06.2018 23:37 17,6 C 20,0 C 92 % 1012,6 hPa 0,0 l/m 7,6 km/h (2 Bft) W 259 0 min 0,000 mm 0,0 UV-I 0 W/m 16,3 C 17,0 C 12,9 km/h (3 Bft) 95,83 %
29.06.2018 23:38 17,6 C 20,0 C 92 % 1012,5 hPa 0,0 l/m 11,6 km/h (2 Bft) W-SW 252 0 min 0,000 mm 0,0 UV-I 0 W/m 16,3 C 15,4 C 16,1 km/h (3 Bft) 100,00 %
29.06.2018 23:39 17,6 C 20,0 C 92 % 1012,5 hPa 0,0 l/m 10,9 km/h (2 Bft) W-SW 242 0 min 0,000 mm 0,0 UV-I 0 W/m 16,3 C 15,7 C 16,1 km/h (3 Bft) 100,00 %
29.06.2018 23:40 17,6 C 20,0 C 92 % 1012,5 hPa 0,0 l/m 9,4 km/h (2 Bft) W-SW 258 0 min 0,000 mm 0,0 UV-I 0 W/m 16,3 C 16,2 C 12,9 km/h (3 Bft) 100,00 %
29.06.2018 23:41 17,7 C 20,0 C 92 % 1012,5 hPa 0,0 l/m 9,5 km/h (2 Bft) W 273 0 min 0,000 mm 0,0 UV-I 0 W/m 16,4 C 16,3 C 12,9 km/h (3 Bft) 100,00 %
29.06.2018 23:42 17,6 C 20,0 C 92 % 1012,5 hPa 0,0 l/m 8,4 km/h (2 Bft) W 263 0 min 0,000 mm 0,0 UV-I 0 W/m 16,3 C 16,7 C 12,9 km/h (3 Bft) 100,00 %
29.06.2018 23:43 17,7 C 20,0 C 92 % 1012,5 hPa 0,0 l/m 11,9 km/h (2 Bft) W 261 0 min 0,000 mm 0,0 UV-I 0 W/m 16,4 C 15,4 C 16,1 km/h (3 Bft) 95,83 %
29.06.2018 23:44 17,6 C 20,0 C 92 % 1012,6 hPa 0,0 l/m 10,9 km/h (2 Bft) W 265 0 min 0,000 mm 0,0 UV-I 0 W/m 16,3 C 15,7 C 14,5 km/h (3 Bft) 100,00 %
29.06.2018 23:45 17,6 C 20,0 C 92 % 1012,5 hPa 0,0 l/m 9,1 km/h (2 Bft) W-SW 246 0 min 0,000 mm 0,0 UV-I 0 W/m 16,3 C 16,4 C 14,5 km/h (3 Bft) 95,83 %
29.06.2018 23:46 17,6 C 20,0 C 92 % 1012,6 hPa 0,0 l/m 7,8 km/h (2 Bft) SW 232 0 min 0,000 mm 0,0 UV-I 0 W/m 16,3 C 16,9 C 11,3 km/h (2 Bft) 100,00 %
29.06.2018 23:47 17,6 C 20,0 C 92 % 1012,6 hPa 0,0 l/m 9,8 km/h (2 Bft) SW 236 0 min 0,000 mm 0,0 UV-I 0 W/m 16,3 C 16,1 C 14,5 km/h (3 Bft) 100,00 %
29.06.2018 23:48 17,6 C 20,0 C 92 % 1012,5 hPa 0,0 l/m 9,8 km/h (2 Bft) W 272 0 min 0,000 mm 0,0 UV-I 0 W/m 16,3 C 16,1 C 16,1 km/h (3 Bft) 96,15 %
29.06.2018 23:49 17,6 C 20,0 C 92 % 1012,5 hPa 0,0 l/m 10,4 km/h (2 Bft) W-SW 246 0 min 0,000 mm 0,0 UV-I 0 W/m 16,3 C 15,8 C 14,5 km/h (3 Bft) 100,00 %
29.06.2018 23:50 17,6 C 20,0 C 92 % 1012,6 hPa 0,0 l/m 6,2 km/h (2 Bft) W-SW 254 0 min 0,000 mm 0,0 UV-I 0 W/m 16,3 C 17,6 C 9,7 km/h (2 Bft) 100,00 %
29.06.2018 23:51 17,7 C 20,0 C 92 % 1012,6 hPa 0,0 l/m 7,0 km/h (2 Bft) W-SW 243 0 min 0,000 mm 0,0 UV-I 0 W/m 16,4 C 17,4 C 9,7 km/h (2 Bft) 100,00 %
29.06.2018 23:52 17,7 C 20,0 C 92 % 1012,5 hPa 0,0 l/m 7,6 km/h (2 Bft) W 267 0 min 0,000 mm 0,0 UV-I 0 W/m 16,4 C 17,1 C 11,3 km/h (2 Bft) 100,00 %
29.06.2018 23:53 17,7 C 20,0 C 92 % 1012,5 hPa 0,0 l/m 6,6 km/h (2 Bft) W-SW 249 0 min 0,000 mm 0,0 UV-I 0 W/m 16,4 C 17,6 C 11,3 km/h (2 Bft) 95,65 %
29.06.2018 23:54 17,7 C 20,0 C 92 % 1012,5 hPa 0,0 l/m 13,1 km/h (3 Bft) W-SW 255 0 min 0,000 mm 0,0 UV-I 0 W/m 16,4 C 15,0 C 17,7 km/h (3 Bft) 100,00 %
29.06.2018 23:55 17,7 C 20,0 C 92 % 1012,6 hPa 0,0 l/m 8,5 km/h (2 Bft) W-SW 252 0 min 0,000 mm 0,0 UV-I 0 W/m 16,4 C 16,7 C 14,5 km/h (3 Bft) 100,00 %
29.06.2018 23:56 17,7 C 20,0 C 92 % 1012,6 hPa 0,0 l/m 11,4 km/h (2 Bft) W-SW 243 0 min 0,000 mm 0,0 UV-I 0 W/m 16,4 C 15,6 C 17,7 km/h (3 Bft) 100,00 %
29.06.2018 23:57 17,7 C 20,0 C 92 % 1012,6 hPa 0,0 l/m 12,4 km/h (3 Bft) W-SW 251 0 min 0,000 mm 0,0 UV-I 0 W/m 16,4 C 15,2 C 17,7 km/h (3 Bft) 100,00 %
29.06.2018 23:58 17,7 C 20,0 C 92 % 1012,6 hPa 0,0 l/m 10,6 km/h (2 Bft) W 267 0 min 0,000 mm 0,0 UV-I 0 W/m 16,4 C 15,9 C 12,9 km/h (3 Bft) 95,83 %
29.06.2018 23:59 17,8 C 20,0 C 92 % 1012,6 hPa 0,0 l/m 12,1 km/h (2 Bft) W 264 0 min 0,000 mm 0,0 UV-I 0 W/m 16,5 C 15,5 C 14,5 km/h (3 Bft) 91,30 %
_ Min-Zeit 05:36 03:57 17:05 16:59 - 00:30 - - - - - - 08:12 07:43 00:30 22:11
Minimum _ 15,1 C 19,4 C 77 % 1011,5 hPa - 3,3 km/h (1 Bft) - - - - - - 14,6 C 9,9 C 4,8 km/h (1 Bft) 81,82 %
_ Max-Zeit 17:03 16:00 02:29 00:02 18:16 17:31 - - 13:02 15:02 13:35 13:36 14:38 17:02 16:36 00:00
Maximum _ 21,7 C 20,6 C 98 % 1013,9 hPa 0,6 l/m 27,5 km/h
W (4 Bft)
- - 2 min 0,482 mm 5,8 UV-I 1102 W/m 18,1 C 19,0 C 40,2 km/h
SW (6 Bft)
100,00 %
Durchschnitt _ 17,0 C 19,9 C 93 % 1012,6 hPa #9,8 l/m 13,0 km/h (3 Bft) W-SW - #2:32 h #1,981 mm 2,3 UV-I 197 W/m 15,9 C 14,5 C 18,5 km/h (3 Bft) 97,84 %